<?xml version='1.0' encoding='UTF-8'?><gpx version="1.1" creator="JPX - https://github.com/jenetics/jpx" xmlns="http://www.topografix.com/GPX/1/1"><trk><trkseg><trkpt lat="43.850966" lon="11.1861379"><ele>88.0</ele><time>2026-04-16T04:52:39.85Z</time></trkpt><trkpt lat="43.8510179" lon="11.186232"><ele>88.0</ele><time>2026-04-16T04:52:41.854Z</time></trkpt><trkpt lat="43.8510606" lon="11.1863011"><ele>88.0</ele><time>2026-04-16T04:52:42.853Z</time></trkpt><trkpt lat="43.8511025" lon="11.1863808"><ele>88.0</ele><time>2026-04-16T04:52:43.848Z</time></trkpt><trkpt lat="43.8511282" lon="11.1864662"><ele>88.0</ele><time>2026-04-16T04:52:44.85Z</time></trkpt><trkpt lat="43.8511668" lon="11.1865661"><ele>88.0</ele><time>2026-04-16T04:52:45.853Z</time></trkpt><trkpt lat="43.8512016" lon="11.1866728"><ele>89.0</ele><time>2026-04-16T04:52:46.851Z</time></trkpt><trkpt lat="43.8512423" lon="11.1867791"><ele>90.0</ele><time>2026-04-16T04:52:47.85Z</time></trkpt><trkpt lat="43.8512834" lon="11.1868849"><ele>91.0</ele><time>2026-04-16T04:52:48.851Z</time></trkpt><trkpt lat="43.8513251" lon="11.1870017"><ele>92.0</ele><time>2026-04-16T04:52:49.859Z</time></trkpt><trkpt lat="43.8513742" lon="11.1871231"><ele>93.0</ele><time>2026-04-16T04:52:50.854Z</time></trkpt><trkpt lat="43.8514191" lon="11.1872257"><ele>93.0</ele><time>2026-04-16T04:52:51.849Z</time></trkpt><trkpt lat="43.8514678" lon="11.1873376"><ele>93.0</ele><time>2026-04-16T04:52:52.857Z</time></trkpt><trkpt lat="43.8515192" lon="11.1874417"><ele>93.0</ele><time>2026-04-16T04:52:53.852Z</time></trkpt><trkpt lat="43.8515731" lon="11.1875417"><ele>93.0</ele><time>2026-04-16T04:52:54.851Z</time></trkpt><trkpt lat="43.8516174" lon="11.1876297"><ele>93.0</ele><time>2026-04-16T04:52:55.849Z</time></trkpt><trkpt lat="43.8516493" lon="11.1877116"><ele>93.0</ele><time>2026-04-16T04:52:56.853Z</time></trkpt><trkpt lat="43.8516327" lon="11.1878479"><ele>94.0</ele><time>2026-04-16T04:52:58.853Z</time></trkpt><trkpt lat="43.8515666" lon="11.1878592"><ele>95.0</ele><time>2026-04-16T04:52:59.857Z</time></trkpt><trkpt lat="43.8514507" lon="11.187794"><ele>96.0</ele><time>2026-04-16T04:53:01.854Z</time></trkpt><trkpt lat="43.8513974" lon="11.1877346"><ele>97.0</ele><time>2026-04-16T04:53:02.857Z</time></trkpt><trkpt lat="43.8513256" lon="11.1876764"><ele>98.0</ele><time>2026-04-16T04:53:03.86Z</time></trkpt><trkpt lat="43.8512585" lon="11.1876215"><ele>99.0</ele><time>2026-04-16T04:53:04.866Z</time></trkpt><trkpt lat="43.8511885" lon="11.1875604"><ele>99.0</ele><time>2026-04-16T04:53:05.855Z</time></trkpt><trkpt lat="43.8511226" lon="11.1874852"><ele>99.0</ele><time>2026-04-16T04:53:06.849Z</time></trkpt><trkpt lat="43.8510536" lon="11.1874111"><ele>99.0</ele><time>2026-04-16T04:53:07.851Z</time></trkpt><trkpt lat="43.8509705" lon="11.1873477"><ele>99.0</ele><time>2026-04-16T04:53:08.856Z</time></trkpt><trkpt lat="43.8508868" lon="11.1872884"><ele>99.0</ele><time>2026-04-16T04:53:09.853Z</time></trkpt><trkpt lat="43.8508047" lon="11.1872211"><ele>100.0</ele><time>2026-04-16T04:53:10.855Z</time></trkpt><trkpt lat="43.8507218" lon="11.1871468"><ele>101.0</ele><time>2026-04-16T04:53:11.859Z</time></trkpt><trkpt lat="43.8506352" lon="11.1870538"><ele>102.0</ele><time>2026-04-16T04:53:12.853Z</time></trkpt><trkpt lat="43.8505524" lon="11.1869527"><ele>103.0</ele><time>2026-04-16T04:53:13.854Z</time></trkpt><trkpt lat="43.8504609" lon="11.1868667"><ele>104.0</ele><time>2026-04-16T04:53:14.85Z</time></trkpt><trkpt lat="43.8503718" lon="11.1867704"><ele>104.0</ele><time>2026-04-16T04:53:15.854Z</time></trkpt><trkpt lat="43.850297" lon="11.186693"><ele>104.0</ele><time>2026-04-16T04:53:16.85Z</time></trkpt><trkpt lat="43.8502191" lon="11.1866068"><ele>104.0</ele><time>2026-04-16T04:53:17.86Z</time></trkpt><trkpt lat="43.850132" lon="11.1865307"><ele>104.0</ele><time>2026-04-16T04:53:18.858Z</time></trkpt><trkpt lat="43.8500277" lon="11.1864937"><ele>104.0</ele><time>2026-04-16T04:53:19.85Z</time></trkpt><trkpt lat="43.8499259" lon="11.1865198"><ele>108.25</ele><time>2026-04-16T04:53:20.853Z</time></trkpt><trkpt lat="43.8498271" lon="11.1865597"><ele>112.5</ele><time>2026-04-16T04:53:21.846Z</time></trkpt><trkpt lat="43.849711" lon="11.1866259"><ele>116.75</ele><time>2026-04-16T04:53:22.86Z</time></trkpt><trkpt lat="43.8495968" lon="11.1866838"><ele>121.0</ele><time>2026-04-16T04:53:23.85Z</time></trkpt><trkpt lat="43.8494977" lon="11.1867469"><ele>121.0</ele><time>2026-04-16T04:53:24.853Z</time></trkpt><trkpt lat="43.8494004" lon="11.1868251"><ele>121.0</ele><time>2026-04-16T04:53:25.852Z</time></trkpt><trkpt lat="43.8493114" lon="11.1869087"><ele>121.0</ele><time>2026-04-16T04:53:26.85Z</time></trkpt><trkpt lat="43.8492245" lon="11.1869884"><ele>121.0</ele><time>2026-04-16T04:53:27.851Z</time></trkpt><trkpt lat="43.8491416" lon="11.1870683"><ele>121.0</ele><time>2026-04-16T04:53:28.855Z</time></trkpt><trkpt lat="43.849073" lon="11.187156"><ele>120.83333333333334</ele><time>2026-04-16T04:53:29.859Z</time></trkpt><trkpt lat="43.8490183" lon="11.1872465"><ele>120.66666666666667</ele><time>2026-04-16T04:53:30.854Z</time></trkpt><trkpt lat="43.8489668" lon="11.1873264"><ele>120.5</ele><time>2026-04-16T04:53:31.854Z</time></trkpt><trkpt lat="43.8489285" lon="11.1874069"><ele>120.33333333333334</ele><time>2026-04-16T04:53:32.858Z</time></trkpt><trkpt lat="43.8489427" lon="11.1875044"><ele>120.16666666666667</ele><time>2026-04-16T04:53:35.856Z</time></trkpt><trkpt lat="43.8490149" lon="11.1874476"><ele>120.0</ele><time>2026-04-16T04:53:37.854Z</time></trkpt><trkpt lat="43.8491389" lon="11.1875058"><ele>122.71428571428572</ele><time>2026-04-16T04:53:39.852Z</time></trkpt><trkpt lat="43.8492054" lon="11.1875376"><ele>125.42857142857142</ele><time>2026-04-16T04:53:40.853Z</time></trkpt><trkpt lat="43.8492769" lon="11.1875667"><ele>128.14285714285714</ele><time>2026-04-16T04:53:41.853Z</time></trkpt><trkpt lat="43.8493455" lon="11.1876063"><ele>130.85714285714286</ele><time>2026-04-16T04:53:42.854Z</time></trkpt><trkpt lat="43.849415" lon="11.1876514"><ele>133.57142857142858</ele><time>2026-04-16T04:53:43.853Z</time></trkpt><trkpt lat="43.8494781" lon="11.1876995"><ele>136.28571428571428</ele><time>2026-04-16T04:53:44.849Z</time></trkpt><trkpt lat="43.8495522" lon="11.1877469"><ele>139.0</ele><time>2026-04-16T04:53:45.848Z</time></trkpt><trkpt lat="43.8496254" lon="11.187808"><ele>139.0</ele><time>2026-04-16T04:53:46.849Z</time></trkpt><trkpt lat="43.8496936" lon="11.1878706"><ele>139.0</ele><time>2026-04-16T04:53:47.864Z</time></trkpt><trkpt lat="43.8497392" lon="11.1879378"><ele>139.0</ele><time>2026-04-16T04:53:48.858Z</time></trkpt><trkpt lat="43.8497417" lon="11.1881054"><ele>139.0</ele><time>2026-04-16T04:53:50.862Z</time></trkpt><trkpt lat="43.8497707" lon="11.1881947"><ele>139.0</ele><time>2026-04-16T04:53:51.857Z</time></trkpt><trkpt lat="43.8496792" lon="11.1883078"><ele>143.0</ele><time>2026-04-16T04:53:53.856Z</time></trkpt><trkpt lat="43.8496318" lon="11.188374"><ele>147.0</ele><time>2026-04-16T04:53:54.856Z</time></trkpt><trkpt lat="43.8495786" lon="11.1884397"><ele>151.0</ele><time>2026-04-16T04:53:55.852Z</time></trkpt><trkpt lat="43.8495221" lon="11.1885092"><ele>155.0</ele><time>2026-04-16T04:53:56.854Z</time></trkpt><trkpt lat="43.8494567" lon="11.1885867"><ele>159.0</ele><time>2026-04-16T04:53:57.852Z</time></trkpt><trkpt lat="43.8493976" lon="11.188664"><ele>163.0</ele><time>2026-04-16T04:53:58.857Z</time></trkpt><trkpt lat="43.8493367" lon="11.1887572"><ele>161.4</ele><time>2026-04-16T04:53:59.851Z</time></trkpt><trkpt lat="43.8492657" lon="11.1888667"><ele>159.8</ele><time>2026-04-16T04:54:00.85Z</time></trkpt><trkpt lat="43.8492043" lon="11.1889755"><ele>158.2</ele><time>2026-04-16T04:54:01.854Z</time></trkpt><trkpt lat="43.8491417" lon="11.1890847"><ele>156.6</ele><time>2026-04-16T04:54:02.866Z</time></trkpt><trkpt lat="43.8490781" lon="11.189192"><ele>155.0</ele><time>2026-04-16T04:54:03.851Z</time></trkpt><trkpt lat="43.8490123" lon="11.1893061"><ele>158.8</ele><time>2026-04-16T04:54:04.855Z</time></trkpt><trkpt lat="43.8489378" lon="11.1894081"><ele>162.6</ele><time>2026-04-16T04:54:05.856Z</time></trkpt><trkpt lat="43.8488671" lon="11.1895067"><ele>166.39999999999998</ele><time>2026-04-16T04:54:06.852Z</time></trkpt><trkpt lat="43.8488054" lon="11.1896127"><ele>170.2</ele><time>2026-04-16T04:54:07.857Z</time></trkpt><trkpt lat="43.8487483" lon="11.1897163"><ele>174.0</ele><time>2026-04-16T04:54:08.851Z</time></trkpt><trkpt lat="43.8487047" lon="11.1898127"><ele>177.0</ele><time>2026-04-16T04:54:09.857Z</time></trkpt><trkpt lat="43.8486776" lon="11.1899258"><ele>180.0</ele><time>2026-04-16T04:54:10.858Z</time></trkpt><trkpt lat="43.8486557" lon="11.1900433"><ele>183.0</ele><time>2026-04-16T04:54:11.853Z</time></trkpt><trkpt lat="43.8486485" lon="11.1901623"><ele>186.0</ele><time>2026-04-16T04:54:12.864Z</time></trkpt><trkpt lat="43.8486408" lon="11.1902785"><ele>189.0</ele><time>2026-04-16T04:54:13.858Z</time></trkpt><trkpt lat="43.848629" lon="11.1903954"><ele>192.0</ele><time>2026-04-16T04:54:14.867Z</time></trkpt><trkpt lat="43.8486119" lon="11.1905218"><ele>192.0</ele><time>2026-04-16T04:54:15.856Z</time></trkpt><trkpt lat="43.8485853" lon="11.1906529"><ele>192.0</ele><time>2026-04-16T04:54:16.856Z</time></trkpt><trkpt lat="43.8485568" lon="11.1907711"><ele>192.0</ele><time>2026-04-16T04:54:17.853Z</time></trkpt><trkpt lat="43.8485513" lon="11.1908832"><ele>192.0</ele><time>2026-04-16T04:54:18.858Z</time></trkpt><trkpt lat="43.8485278" lon="11.1909839"><ele>192.0</ele><time>2026-04-16T04:54:19.854Z</time></trkpt><trkpt lat="43.8485164" lon="11.1910923"><ele>192.0</ele><time>2026-04-16T04:54:20.856Z</time></trkpt><trkpt lat="43.8484801" lon="11.1912083"><ele>191.16666666666666</ele><time>2026-04-16T04:54:21.86Z</time></trkpt><trkpt lat="43.8484643" lon="11.1913159"><ele>190.33333333333334</ele><time>2026-04-16T04:54:22.859Z</time></trkpt><trkpt lat="43.8484507" lon="11.1914257"><ele>189.5</ele><time>2026-04-16T04:54:23.875Z</time></trkpt><trkpt lat="43.8484385" lon="11.1915413"><ele>188.66666666666669</ele><time>2026-04-16T04:54:24.868Z</time></trkpt><trkpt lat="43.8484244" lon="11.1916596"><ele>187.83333333333334</ele><time>2026-04-16T04:54:25.865Z</time></trkpt><trkpt lat="43.8484185" lon="11.1917884"><ele>187.0</ele><time>2026-04-16T04:54:26.873Z</time></trkpt><trkpt lat="43.8484165" lon="11.1919036"><ele>185.8</ele><time>2026-04-16T04:54:27.878Z</time></trkpt><trkpt lat="43.8484202" lon="11.1920186"><ele>184.6</ele><time>2026-04-16T04:54:28.882Z</time></trkpt><trkpt lat="43.8484366" lon="11.1921466"><ele>183.4</ele><time>2026-04-16T04:54:29.884Z</time></trkpt><trkpt lat="43.84846" lon="11.1922817"><ele>182.20000000000002</ele><time>2026-04-16T04:54:30.876Z</time></trkpt><trkpt lat="43.8484814" lon="11.1924128"><ele>181.0</ele><time>2026-04-16T04:54:31.877Z</time></trkpt><trkpt lat="43.8484967" lon="11.1925537"><ele>182.4</ele><time>2026-04-16T04:54:32.857Z</time></trkpt><trkpt lat="43.8485138" lon="11.1927136"><ele>183.8</ele><time>2026-04-16T04:54:33.864Z</time></trkpt><trkpt lat="43.8485442" lon="11.1928622"><ele>185.20000000000002</ele><time>2026-04-16T04:54:34.88Z</time></trkpt><trkpt lat="43.8485693" lon="11.1929913"><ele>186.60000000000002</ele><time>2026-04-16T04:54:35.869Z</time></trkpt><trkpt lat="43.8485948" lon="11.1931077"><ele>188.0</ele><time>2026-04-16T04:54:36.875Z</time></trkpt><trkpt lat="43.8486147" lon="11.1932054"><ele>188.0</ele><time>2026-04-16T04:54:37.875Z</time></trkpt><trkpt lat="43.8486368" lon="11.1933657"><ele>188.0</ele><time>2026-04-16T04:54:39.858Z</time></trkpt><trkpt lat="43.8486292" lon="11.1934931"><ele>188.0</ele><time>2026-04-16T04:54:41.877Z</time></trkpt><trkpt lat="43.8486048" lon="11.1936434"><ele>188.0</ele><time>2026-04-16T04:54:43.872Z</time></trkpt><trkpt lat="43.8485812" lon="11.1937286"><ele>188.0</ele><time>2026-04-16T04:54:44.878Z</time></trkpt><trkpt lat="43.8485667" lon="11.1938328"><ele>188.0</ele><time>2026-04-16T04:54:45.875Z</time></trkpt><trkpt lat="43.8485548" lon="11.1939395"><ele>188.0</ele><time>2026-04-16T04:54:46.873Z</time></trkpt><trkpt lat="43.8485469" lon="11.1940374"><ele>188.0</ele><time>2026-04-16T04:54:47.866Z</time></trkpt><trkpt lat="43.8485619" lon="11.1941852"><ele>188.0</ele><time>2026-04-16T04:54:49.869Z</time></trkpt><trkpt lat="43.8485769" lon="11.1942748"><ele>188.0</ele><time>2026-04-16T04:54:50.874Z</time></trkpt><trkpt lat="43.8485793" lon="11.1943671"><ele>188.0</ele><time>2026-04-16T04:54:51.871Z</time></trkpt><trkpt lat="43.8485656" lon="11.1944551"><ele>189.33333333333331</ele><time>2026-04-16T04:54:52.878Z</time></trkpt><trkpt lat="43.8485708" lon="11.1945735"><ele>190.66666666666666</ele><time>2026-04-16T04:54:54.87Z</time></trkpt><trkpt lat="43.8486305" lon="11.1946514"><ele>192.0</ele><time>2026-04-16T04:54:56.868Z</time></trkpt><trkpt lat="43.8487045" lon="11.1947221"><ele>193.33333333333331</ele><time>2026-04-16T04:54:59.878Z</time></trkpt><trkpt lat="43.848793" lon="11.1947566"><ele>194.66666666666666</ele><time>2026-04-16T04:55:02.878Z</time></trkpt><trkpt lat="43.8488596" lon="11.1947263"><ele>196.0</ele><time>2026-04-16T04:55:05.887Z</time></trkpt><trkpt lat="43.8489183" lon="11.1946783"><ele>195.99999999999997</ele><time>2026-04-16T04:55:09.875Z</time></trkpt><trkpt lat="43.8489532" lon="11.194602"><ele>196.0</ele><time>2026-04-16T04:55:12.883Z</time></trkpt><trkpt lat="43.8490033" lon="11.1945198"><ele>196.0</ele><time>2026-04-16T04:55:15.878Z</time></trkpt><trkpt lat="43.8490743" lon="11.1944494"><ele>196.0</ele><time>2026-04-16T04:55:18.87Z</time></trkpt><trkpt lat="43.8491377" lon="11.1944011"><ele>195.99999999999997</ele><time>2026-04-16T04:55:21.885Z</time></trkpt><trkpt lat="43.8492235" lon="11.1943543"><ele>196.0</ele><time>2026-04-16T04:55:25.857Z</time></trkpt><trkpt lat="43.8492888" lon="11.1943567"><ele>199.49999999999997</ele><time>2026-04-16T04:55:27.877Z</time></trkpt><trkpt lat="43.849363" lon="11.1943722"><ele>203.0</ele><time>2026-04-16T04:55:29.866Z</time></trkpt><trkpt lat="43.8494375" lon="11.1943701"><ele>206.5</ele><time>2026-04-16T04:55:32.872Z</time></trkpt><trkpt lat="43.8495158" lon="11.19438"><ele>210.0</ele><time>2026-04-16T04:55:35.878Z</time></trkpt><trkpt lat="43.8495981" lon="11.1944439"><ele>213.49999999999997</ele><time>2026-04-16T04:55:38.857Z</time></trkpt><trkpt lat="43.8496794" lon="11.1944815"><ele>217.0</ele><time>2026-04-16T04:55:41.869Z</time></trkpt><trkpt lat="43.8497524" lon="11.1945079"><ele>216.99999999999997</ele><time>2026-04-16T04:55:43.883Z</time></trkpt><trkpt lat="43.8498276" lon="11.1945278"><ele>217.0</ele><time>2026-04-16T04:55:45.87Z</time></trkpt><trkpt lat="43.8498923" lon="11.1945404"><ele>217.0</ele><time>2026-04-16T04:55:47.878Z</time></trkpt><trkpt lat="43.8499701" lon="11.1945192"><ele>217.0</ele><time>2026-04-16T04:55:50.88Z</time></trkpt><trkpt lat="43.8500276" lon="11.1944764"><ele>216.99999999999997</ele><time>2026-04-16T04:55:52.882Z</time></trkpt><trkpt lat="43.8500887" lon="11.1943686"><ele>217.0</ele><time>2026-04-16T04:55:55.88Z</time></trkpt><trkpt lat="43.8501005" lon="11.1942329"><ele>219.6</ele><time>2026-04-16T04:55:57.855Z</time></trkpt><trkpt lat="43.8501473" lon="11.1941058"><ele>222.2</ele><time>2026-04-16T04:55:59.882Z</time></trkpt><trkpt lat="43.8501793" lon="11.1939832"><ele>224.8</ele><time>2026-04-16T04:56:01.857Z</time></trkpt><trkpt lat="43.8502472" lon="11.193948"><ele>227.4</ele><time>2026-04-16T04:56:04.878Z</time></trkpt><trkpt lat="43.8503393" lon="11.1939613"><ele>230.0</ele><time>2026-04-16T04:56:07.873Z</time></trkpt><trkpt lat="43.8504282" lon="11.1939345"><ele>230.00000000000003</ele><time>2026-04-16T04:56:09.88Z</time></trkpt><trkpt lat="43.850498" lon="11.1939563"><ele>230.0</ele><time>2026-04-16T04:56:11.872Z</time></trkpt><trkpt lat="43.8505646" lon="11.1939776"><ele>230.0</ele><time>2026-04-16T04:56:13.877Z</time></trkpt><trkpt lat="43.850632" lon="11.1939583"><ele>230.0</ele><time>2026-04-16T04:56:15.873Z</time></trkpt><trkpt lat="43.8507271" lon="11.1939428"><ele>230.00000000000003</ele><time>2026-04-16T04:56:18.869Z</time></trkpt><trkpt lat="43.8508106" lon="11.1939674"><ele>230.0</ele><time>2026-04-16T04:56:20.886Z</time></trkpt><trkpt lat="43.8509061" lon="11.193983"><ele>230.00000000000003</ele><time>2026-04-16T04:56:22.875Z</time></trkpt><trkpt lat="43.8509727" lon="11.1939827"><ele>230.0</ele><time>2026-04-16T04:56:23.881Z</time></trkpt><trkpt lat="43.8510463" lon="11.1939821"><ele>230.0</ele><time>2026-04-16T04:56:24.87Z</time></trkpt><trkpt lat="43.8511323" lon="11.1940031"><ele>230.0</ele><time>2026-04-16T04:56:25.882Z</time></trkpt><trkpt lat="43.8512187" lon="11.1940269"><ele>230.00000000000003</ele><time>2026-04-16T04:56:26.875Z</time></trkpt><trkpt lat="43.8513014" lon="11.1940529"><ele>230.0</ele><time>2026-04-16T04:56:27.877Z</time></trkpt><trkpt lat="43.85138" lon="11.1940818"><ele>230.99999999999997</ele><time>2026-04-16T04:56:28.881Z</time></trkpt><trkpt lat="43.8514514" lon="11.1941193"><ele>232.0</ele><time>2026-04-16T04:56:29.876Z</time></trkpt><trkpt lat="43.8515299" lon="11.1941686"><ele>232.99999999999997</ele><time>2026-04-16T04:56:30.932Z</time></trkpt><trkpt lat="43.8515969" lon="11.1942121"><ele>233.99999999999997</ele><time>2026-04-16T04:56:31.869Z</time></trkpt><trkpt lat="43.8516623" lon="11.1942562"><ele>235.0</ele><time>2026-04-16T04:56:32.885Z</time></trkpt><trkpt lat="43.8517221" lon="11.1942979"><ele>235.99999999999997</ele><time>2026-04-16T04:56:33.868Z</time></trkpt><trkpt lat="43.8517843" lon="11.1943384"><ele>236.99999999999997</ele><time>2026-04-16T04:56:34.885Z</time></trkpt><trkpt lat="43.8518873" lon="11.1944185"><ele>238.33333333333334</ele><time>2026-04-16T04:56:36.887Z</time></trkpt><trkpt lat="43.8519644" lon="11.1944741"><ele>239.66666666666669</ele><time>2026-04-16T04:56:38.875Z</time></trkpt><trkpt lat="43.8520425" lon="11.1945331"><ele>241.0</ele><time>2026-04-16T04:56:40.879Z</time></trkpt><trkpt lat="43.8521176" lon="11.1945934"><ele>242.33333333333334</ele><time>2026-04-16T04:56:42.885Z</time></trkpt><trkpt lat="43.8522054" lon="11.1946417"><ele>243.66666666666669</ele><time>2026-04-16T04:56:44.876Z</time></trkpt><trkpt lat="43.8522853" lon="11.1947056"><ele>245.0</ele><time>2026-04-16T04:56:46.868Z</time></trkpt><trkpt lat="43.8523686" lon="11.1947682"><ele>245.0</ele><time>2026-04-16T04:56:48.883Z</time></trkpt><trkpt lat="43.8524335" lon="11.1947987"><ele>245.0</ele><time>2026-04-16T04:56:49.868Z</time></trkpt><trkpt lat="43.8525481" lon="11.1948298"><ele>245.0</ele><time>2026-04-16T04:56:51.962Z</time></trkpt><trkpt lat="43.8526296" lon="11.1948821"><ele>245.0</ele><time>2026-04-16T04:56:53.956Z</time></trkpt><trkpt lat="43.8527284" lon="11.1948985"><ele>245.0</ele><time>2026-04-16T04:56:55.954Z</time></trkpt><trkpt lat="43.8528197" lon="11.1949047"><ele>249.00000000000003</ele><time>2026-04-16T04:56:56.956Z</time></trkpt><trkpt lat="43.8528949" lon="11.1949012"><ele>253.0</ele><time>2026-04-16T04:56:57.974Z</time></trkpt><trkpt lat="43.8529763" lon="11.1949043"><ele>257.0</ele><time>2026-04-16T04:56:58.954Z</time></trkpt><trkpt lat="43.8530529" lon="11.1949058"><ele>261.0</ele><time>2026-04-16T04:57:00.017Z</time></trkpt><trkpt lat="43.8531253" lon="11.1949024"><ele>265.0</ele><time>2026-04-16T04:57:01.009Z</time></trkpt><trkpt lat="43.8532002" lon="11.1949054"><ele>269.0</ele><time>2026-04-16T04:57:01.92Z</time></trkpt><trkpt lat="43.853278" lon="11.1949396"><ele>269.0</ele><time>2026-04-16T04:57:02.854Z</time></trkpt><trkpt lat="43.853366" lon="11.1949971"><ele>269.0</ele><time>2026-04-16T04:57:03.862Z</time></trkpt><trkpt lat="43.8534436" lon="11.1950634"><ele>269.0</ele><time>2026-04-16T04:57:04.852Z</time></trkpt><trkpt lat="43.8535324" lon="11.1951466"><ele>269.0</ele><time>2026-04-16T04:57:05.862Z</time></trkpt><trkpt lat="43.853629" lon="11.1952186"><ele>269.0</ele><time>2026-04-16T04:57:06.87Z</time></trkpt><trkpt lat="43.8537576" lon="11.1952785"><ele>271.75</ele><time>2026-04-16T04:57:07.84Z</time></trkpt><trkpt lat="43.853881" lon="11.1953338"><ele>274.5</ele><time>2026-04-16T04:57:08.856Z</time></trkpt><trkpt lat="43.854002" lon="11.1953931"><ele>277.25</ele><time>2026-04-16T04:57:09.853Z</time></trkpt><trkpt lat="43.8541174" lon="11.1954256"><ele>280.0</ele><time>2026-04-16T04:57:10.873Z</time></trkpt><trkpt lat="43.8542244" lon="11.1954559"><ele>281.4</ele><time>2026-04-16T04:57:11.883Z</time></trkpt><trkpt lat="43.8543399" lon="11.195504"><ele>282.8</ele><time>2026-04-16T04:57:12.851Z</time></trkpt><trkpt lat="43.8544417" lon="11.1955303"><ele>284.2</ele><time>2026-04-16T04:57:13.859Z</time></trkpt><trkpt lat="43.8545518" lon="11.1955676"><ele>285.6</ele><time>2026-04-16T04:57:14.852Z</time></trkpt><trkpt lat="43.8546395" lon="11.1956163"><ele>287.0</ele><time>2026-04-16T04:57:15.853Z</time></trkpt><trkpt lat="43.8547158" lon="11.1956874"><ele>289.2</ele><time>2026-04-16T04:57:16.902Z</time></trkpt><trkpt lat="43.8548001" lon="11.1957497"><ele>291.4</ele><time>2026-04-16T04:57:17.903Z</time></trkpt><trkpt lat="43.8548836" lon="11.1957876"><ele>293.6</ele><time>2026-04-16T04:57:18.851Z</time></trkpt><trkpt lat="43.8549721" lon="11.1958034"><ele>295.8</ele><time>2026-04-16T04:57:19.852Z</time></trkpt><trkpt lat="43.8550619" lon="11.1958274"><ele>298.0</ele><time>2026-04-16T04:57:20.866Z</time></trkpt><trkpt lat="43.8551835" lon="11.1958351"><ele>298.8333333333333</ele><time>2026-04-16T04:57:21.848Z</time></trkpt><trkpt lat="43.8552847" lon="11.1958352"><ele>299.66666666666663</ele><time>2026-04-16T04:57:22.851Z</time></trkpt><trkpt lat="43.855366" lon="11.1958179"><ele>300.5</ele><time>2026-04-16T04:57:23.866Z</time></trkpt><trkpt lat="43.8554342" lon="11.1957922"><ele>301.3333333333333</ele><time>2026-04-16T04:57:24.855Z</time></trkpt><trkpt lat="43.8555174" lon="11.1957974"><ele>302.1666666666667</ele><time>2026-04-16T04:57:25.853Z</time></trkpt><trkpt lat="43.8555755" lon="11.1958523"><ele>303.0</ele><time>2026-04-16T04:57:26.861Z</time></trkpt><trkpt lat="43.8556596" lon="11.1958433"><ele>303.0</ele><time>2026-04-16T04:57:27.856Z</time></trkpt><trkpt lat="43.8557539" lon="11.1958376"><ele>303.0</ele><time>2026-04-16T04:57:28.86Z</time></trkpt><trkpt lat="43.8558398" lon="11.1958353"><ele>303.0</ele><time>2026-04-16T04:57:29.852Z</time></trkpt><trkpt lat="43.8559097" lon="11.1958499"><ele>303.0</ele><time>2026-04-16T04:57:30.857Z</time></trkpt><trkpt lat="43.855981" lon="11.1958931"><ele>303.0</ele><time>2026-04-16T04:57:31.854Z</time></trkpt><trkpt lat="43.8560452" lon="11.1959452"><ele>303.0</ele><time>2026-04-16T04:57:32.864Z</time></trkpt><trkpt lat="43.8561046" lon="11.1960076"><ele>302.1666666666667</ele><time>2026-04-16T04:57:33.856Z</time></trkpt><trkpt lat="43.8561674" lon="11.1960717"><ele>301.3333333333333</ele><time>2026-04-16T04:57:34.856Z</time></trkpt><trkpt lat="43.8562377" lon="11.1961324"><ele>300.5</ele><time>2026-04-16T04:57:35.768Z</time></trkpt><trkpt lat="43.8562933" lon="11.1962062"><ele>299.66666666666663</ele><time>2026-04-16T04:57:36.765Z</time></trkpt><trkpt lat="43.8563515" lon="11.1962904"><ele>298.8333333333333</ele><time>2026-04-16T04:57:37.697Z</time></trkpt><trkpt lat="43.8564086" lon="11.1963713"><ele>298.0</ele><time>2026-04-16T04:57:38.697Z</time></trkpt><trkpt lat="43.856468" lon="11.1964603"><ele>299.2857142857143</ele><time>2026-04-16T04:57:39.708Z</time></trkpt><trkpt lat="43.8565024" lon="11.1965441"><ele>300.57142857142856</ele><time>2026-04-16T04:57:40.72Z</time></trkpt><trkpt lat="43.8565301" lon="11.1966457"><ele>301.85714285714283</ele><time>2026-04-16T04:57:41.711Z</time></trkpt><trkpt lat="43.8565449" lon="11.1967519"><ele>303.1428571428571</ele><time>2026-04-16T04:57:42.705Z</time></trkpt><trkpt lat="43.8565517" lon="11.1968516"><ele>304.42857142857144</ele><time>2026-04-16T04:57:43.681Z</time></trkpt><trkpt lat="43.8565546" lon="11.1969496"><ele>305.71428571428567</ele><time>2026-04-16T04:57:44.7Z</time></trkpt><trkpt lat="43.856542" lon="11.1970559"><ele>307.0</ele><time>2026-04-16T04:57:45.701Z</time></trkpt><trkpt lat="43.8565234" lon="11.1971506"><ele>307.0</ele><time>2026-04-16T04:57:46.733Z</time></trkpt><trkpt lat="43.8565005" lon="11.1972415"><ele>307.0</ele><time>2026-04-16T04:57:47.678Z</time></trkpt><trkpt lat="43.8564885" lon="11.1973387"><ele>307.0</ele><time>2026-04-16T04:57:48.695Z</time></trkpt><trkpt lat="43.8564802" lon="11.1974507"><ele>307.0</ele><time>2026-04-16T04:57:49.695Z</time></trkpt><trkpt lat="43.8564841" lon="11.1975606"><ele>307.0</ele><time>2026-04-16T04:57:50.714Z</time></trkpt><trkpt lat="43.8564931" lon="11.1976639"><ele>307.0</ele><time>2026-04-16T04:57:51.706Z</time></trkpt><trkpt lat="43.8565072" lon="11.1977765"><ele>307.3333333333333</ele><time>2026-04-16T04:57:52.718Z</time></trkpt><trkpt lat="43.856527" lon="11.1978839"><ele>307.66666666666663</ele><time>2026-04-16T04:57:53.707Z</time></trkpt><trkpt lat="43.8565372" lon="11.1979926"><ele>308.0</ele><time>2026-04-16T04:57:54.702Z</time></trkpt><trkpt lat="43.8565558" lon="11.1980883"><ele>308.3333333333333</ele><time>2026-04-16T04:57:55.703Z</time></trkpt><trkpt lat="43.8565737" lon="11.198172"><ele>308.6666666666667</ele><time>2026-04-16T04:57:56.709Z</time></trkpt><trkpt lat="43.856576" lon="11.1983122"><ele>309.0</ele><time>2026-04-16T04:57:58.709Z</time></trkpt><trkpt lat="43.856568" lon="11.1984191"><ele>309.3333333333333</ele><time>2026-04-16T04:58:00.703Z</time></trkpt><trkpt lat="43.8565696" lon="11.1985303"><ele>309.6666666666667</ele><time>2026-04-16T04:58:02.698Z</time></trkpt><trkpt lat="43.8565854" lon="11.19864"><ele>310.0</ele><time>2026-04-16T04:58:04.704Z</time></trkpt><trkpt lat="43.856622" lon="11.1987761"><ele>310.33333333333337</ele><time>2026-04-16T04:58:06.708Z</time></trkpt><trkpt lat="43.8566504" lon="11.1989055"><ele>310.6666666666667</ele><time>2026-04-16T04:58:08.707Z</time></trkpt><trkpt lat="43.8566547" lon="11.1990225"><ele>311.0</ele><time>2026-04-16T04:58:10.699Z</time></trkpt><trkpt lat="43.8566597" lon="11.1991276"><ele>312.0</ele><time>2026-04-16T04:58:12.705Z</time></trkpt><trkpt lat="43.8566638" lon="11.1992185"><ele>313.0</ele><time>2026-04-16T04:58:14.782Z</time></trkpt><trkpt lat="43.8566642" lon="11.1994064"><ele>314.0</ele><time>2026-04-16T04:58:18.048Z</time></trkpt><trkpt lat="43.8566788" lon="11.1995478"><ele>315.0</ele><time>2026-04-16T04:58:19.954Z</time></trkpt><trkpt lat="43.8566999" lon="11.1996903"><ele>316.0</ele><time>2026-04-16T04:58:21.969Z</time></trkpt><trkpt lat="43.8567419" lon="11.1998259"><ele>317.0</ele><time>2026-04-16T04:58:23.963Z</time></trkpt><trkpt lat="43.8567795" lon="11.1999746"><ele>318.0</ele><time>2026-04-16T04:58:25.949Z</time></trkpt><trkpt lat="43.856826" lon="11.2001099"><ele>319.0</ele><time>2026-04-16T04:58:27.961Z</time></trkpt><trkpt lat="43.8568629" lon="11.2002309"><ele>320.0</ele><time>2026-04-16T04:58:29.967Z</time></trkpt><trkpt lat="43.8569088" lon="11.2003858"><ele>321.0</ele><time>2026-04-16T04:58:31.962Z</time></trkpt><trkpt lat="43.8569235" lon="11.2004713"><ele>317.3333333333333</ele><time>2026-04-16T04:58:32.963Z</time></trkpt><trkpt lat="43.8569282" lon="11.2006329"><ele>313.6666666666667</ele><time>2026-04-16T04:58:34.958Z</time></trkpt><trkpt lat="43.8569268" lon="11.2007895"><ele>310.0</ele><time>2026-04-16T04:58:36.968Z</time></trkpt><trkpt lat="43.8569252" lon="11.2008868"><ele>306.33333333333337</ele><time>2026-04-16T04:58:38.856Z</time></trkpt><trkpt lat="43.8569388" lon="11.2009769"><ele>302.6666666666667</ele><time>2026-04-16T04:58:40.875Z</time></trkpt><trkpt lat="43.8569559" lon="11.2010737"><ele>299.0</ele><time>2026-04-16T04:58:42.859Z</time></trkpt><trkpt lat="43.8569596" lon="11.2011767"><ele>299.0</ele><time>2026-04-16T04:58:45.047Z</time></trkpt><trkpt lat="43.8569672" lon="11.2012668"><ele>299.0</ele><time>2026-04-16T04:58:47.047Z</time></trkpt><trkpt lat="43.8569687" lon="11.20136"><ele>299.0</ele><time>2026-04-16T04:58:48.97Z</time></trkpt><trkpt lat="43.8569697" lon="11.2014798"><ele>299.0</ele><time>2026-04-16T04:58:52.032Z</time></trkpt><trkpt lat="43.8569973" lon="11.2015692"><ele>299.0</ele><time>2026-04-16T04:58:53.957Z</time></trkpt><trkpt lat="43.8570133" lon="11.2016851"><ele>299.0</ele><time>2026-04-16T04:58:55.944Z</time></trkpt><trkpt lat="43.8570198" lon="11.2018033"><ele>298.83333333333337</ele><time>2026-04-16T04:58:57.955Z</time></trkpt><trkpt lat="43.8570231" lon="11.2019089"><ele>298.6666666666667</ele><time>2026-04-16T04:59:00.017Z</time></trkpt><trkpt lat="43.8570397" lon="11.2019984"><ele>298.5</ele><time>2026-04-16T04:59:02.019Z</time></trkpt><trkpt lat="43.8570547" lon="11.2021033"><ele>298.3333333333333</ele><time>2026-04-16T04:59:03.949Z</time></trkpt><trkpt lat="43.8570824" lon="11.2022049"><ele>298.16666666666663</ele><time>2026-04-16T04:59:06.95Z</time></trkpt><trkpt lat="43.8571066" lon="11.202305"><ele>298.0</ele><time>2026-04-16T04:59:09.957Z</time></trkpt><trkpt lat="43.8571565" lon="11.2024116"><ele>297.66666666666663</ele><time>2026-04-16T04:59:12.954Z</time></trkpt><trkpt lat="43.8571937" lon="11.2024821"><ele>297.3333333333333</ele><time>2026-04-16T04:59:14.952Z</time></trkpt><trkpt lat="43.8572176" lon="11.202572"><ele>297.0</ele><time>2026-04-16T04:59:17.95Z</time></trkpt><trkpt lat="43.8572535" lon="11.2026737"><ele>296.6666666666667</ele><time>2026-04-16T04:59:21.939Z</time></trkpt><trkpt lat="43.8572793" lon="11.2027978"><ele>296.33333333333337</ele><time>2026-04-16T04:59:24.958Z</time></trkpt><trkpt lat="43.8572984" lon="11.2028901"><ele>296.0</ele><time>2026-04-16T04:59:26.956Z</time></trkpt><trkpt lat="43.8573008" lon="11.2030134"><ele>296.0</ele><time>2026-04-16T04:59:29.949Z</time></trkpt><trkpt lat="43.8572943" lon="11.2031107"><ele>296.0</ele><time>2026-04-16T04:59:31.951Z</time></trkpt><trkpt lat="43.8572869" lon="11.203198"><ele>296.0</ele><time>2026-04-16T04:59:33.942Z</time></trkpt><trkpt lat="43.8572662" lon="11.2032839"><ele>296.0</ele><time>2026-04-16T04:59:35.955Z</time></trkpt><trkpt lat="43.8572325" lon="11.2034124"><ele>296.0</ele><time>2026-04-16T04:59:38.96Z</time></trkpt><trkpt lat="43.8572096" lon="11.2035091"><ele>296.0</ele><time>2026-04-16T04:59:40.956Z</time></trkpt><trkpt lat="43.8571838" lon="11.2036106"><ele>296.0</ele><time>2026-04-16T04:59:43.958Z</time></trkpt><trkpt lat="43.8571867" lon="11.2037038"><ele>295.6666666666667</ele><time>2026-04-16T04:59:46.952Z</time></trkpt><trkpt lat="43.857204" lon="11.2038122"><ele>295.33333333333337</ele><time>2026-04-16T04:59:50.946Z</time></trkpt><trkpt lat="43.8572368" lon="11.203901"><ele>295.0</ele><time>2026-04-16T04:59:53.962Z</time></trkpt><trkpt lat="43.85729" lon="11.2039759"><ele>294.6666666666667</ele><time>2026-04-16T04:59:56.956Z</time></trkpt><trkpt lat="43.8573499" lon="11.2040494"><ele>294.3333333333333</ele><time>2026-04-16T04:59:59.961Z</time></trkpt><trkpt lat="43.8573832" lon="11.2041419"><ele>294.0</ele><time>2026-04-16T05:00:02.945Z</time></trkpt><trkpt lat="43.857429" lon="11.2042317"><ele>293.7142857142857</ele><time>2026-04-16T05:00:05.949Z</time></trkpt><trkpt lat="43.8574713" lon="11.2043122"><ele>293.42857142857144</ele><time>2026-04-16T05:00:08.964Z</time></trkpt><trkpt lat="43.8575238" lon="11.2043892"><ele>293.1428571428571</ele><time>2026-04-16T05:00:12.962Z</time></trkpt><trkpt lat="43.8575538" lon="11.2044707"><ele>292.8571428571429</ele><time>2026-04-16T05:00:15.958Z</time></trkpt><trkpt lat="43.8575912" lon="11.204554"><ele>292.57142857142856</ele><time>2026-04-16T05:00:18.965Z</time></trkpt><trkpt lat="43.8576264" lon="11.2046267"><ele>292.2857142857143</ele><time>2026-04-16T05:00:21.956Z</time></trkpt><trkpt lat="43.8576727" lon="11.204721"><ele>292.0</ele><time>2026-04-16T05:00:25.966Z</time></trkpt><trkpt lat="43.8577317" lon="11.2048016"><ele>294.42857142857144</ele><time>2026-04-16T05:00:29.954Z</time></trkpt><trkpt lat="43.8577774" lon="11.2048822"><ele>296.8571428571429</ele><time>2026-04-16T05:00:32.966Z</time></trkpt><trkpt lat="43.8578198" lon="11.2049519"><ele>299.28571428571433</ele><time>2026-04-16T05:00:34.955Z</time></trkpt><trkpt lat="43.857871" lon="11.2050417"><ele>301.7142857142857</ele><time>2026-04-16T05:00:37.957Z</time></trkpt><trkpt lat="43.8579079" lon="11.2051189"><ele>304.14285714285717</ele><time>2026-04-16T05:00:40.953Z</time></trkpt><trkpt lat="43.8579325" lon="11.2052162"><ele>306.5714285714286</ele><time>2026-04-16T05:00:43.962Z</time></trkpt><trkpt lat="43.8579667" lon="11.2053089"><ele>309.0</ele><time>2026-04-16T05:00:46.952Z</time></trkpt><trkpt lat="43.8579972" lon="11.2054098"><ele>309.0</ele><time>2026-04-16T05:00:48.974Z</time></trkpt><trkpt lat="43.8580263" lon="11.2054981"><ele>309.0</ele><time>2026-04-16T05:00:49.945Z</time></trkpt><trkpt lat="43.85806" lon="11.2055856"><ele>309.0</ele><time>2026-04-16T05:00:50.962Z</time></trkpt><trkpt lat="43.8581097" lon="11.2056894"><ele>309.0</ele><time>2026-04-16T05:00:52.956Z</time></trkpt><trkpt lat="43.8581322" lon="11.2057766"><ele>309.0</ele><time>2026-04-16T05:00:54.966Z</time></trkpt><trkpt lat="43.8581679" lon="11.2059064"><ele>309.0</ele><time>2026-04-16T05:00:56.968Z</time></trkpt><trkpt lat="43.858202" lon="11.206024"><ele>309.8571428571429</ele><time>2026-04-16T05:00:58.958Z</time></trkpt><trkpt lat="43.8582073" lon="11.206114"><ele>310.7142857142857</ele><time>2026-04-16T05:01:00.965Z</time></trkpt><trkpt lat="43.8582138" lon="11.2062031"><ele>311.57142857142856</ele><time>2026-04-16T05:01:02.962Z</time></trkpt><trkpt lat="43.858219" lon="11.2063044"><ele>312.42857142857144</ele><time>2026-04-16T05:01:05.96Z</time></trkpt><trkpt lat="43.8582414" lon="11.206399"><ele>313.2857142857143</ele><time>2026-04-16T05:01:07.959Z</time></trkpt><trkpt lat="43.8582654" lon="11.2064897"><ele>314.14285714285717</ele><time>2026-04-16T05:01:09.956Z</time></trkpt><trkpt lat="43.858298" lon="11.2065872"><ele>315.0</ele><time>2026-04-16T05:01:11.963Z</time></trkpt><trkpt lat="43.8583365" lon="11.2067064"><ele>316.0</ele><time>2026-04-16T05:01:13.967Z</time></trkpt><trkpt lat="43.8583915" lon="11.2068311"><ele>317.0</ele><time>2026-04-16T05:01:15.962Z</time></trkpt><trkpt lat="43.8584238" lon="11.2069236"><ele>318.0</ele><time>2026-04-16T05:01:17.957Z</time></trkpt><trkpt lat="43.8584508" lon="11.2070184"><ele>319.0</ele><time>2026-04-16T05:01:19.953Z</time></trkpt><trkpt lat="43.858475" lon="11.2071154"><ele>320.0</ele><time>2026-04-16T05:01:21.958Z</time></trkpt><trkpt lat="43.8585013" lon="11.2072267"><ele>321.0</ele><time>2026-04-16T05:01:23.965Z</time></trkpt><trkpt lat="43.8585337" lon="11.2073241"><ele>319.6666666666667</ele><time>2026-04-16T05:01:25.962Z</time></trkpt><trkpt lat="43.8585748" lon="11.2074414"><ele>318.3333333333333</ele><time>2026-04-16T05:01:28.964Z</time></trkpt><trkpt lat="43.858614" lon="11.2075523"><ele>317.0</ele><time>2026-04-16T05:01:31.948Z</time></trkpt><trkpt lat="43.8586466" lon="11.2076539"><ele>315.66666666666663</ele><time>2026-04-16T05:01:34.965Z</time></trkpt><trkpt lat="43.8586901" lon="11.2077365"><ele>314.3333333333333</ele><time>2026-04-16T05:01:36.96Z</time></trkpt><trkpt lat="43.8587272" lon="11.2078456"><ele>313.0</ele><time>2026-04-16T05:01:39.955Z</time></trkpt><trkpt lat="43.8587662" lon="11.2079272"><ele>313.0</ele><time>2026-04-16T05:01:41.96Z</time></trkpt><trkpt lat="43.858791" lon="11.2080314"><ele>313.0</ele><time>2026-04-16T05:01:44.964Z</time></trkpt><trkpt lat="43.8588079" lon="11.2081237"><ele>313.0</ele><time>2026-04-16T05:01:47.958Z</time></trkpt><trkpt lat="43.8588171" lon="11.2082386"><ele>313.0</ele><time>2026-04-16T05:01:49.958Z</time></trkpt><trkpt lat="43.858826" lon="11.2083576"><ele>313.0</ele><time>2026-04-16T05:01:51.97Z</time></trkpt><trkpt lat="43.8588283" lon="11.208467"><ele>313.0</ele><time>2026-04-16T05:01:53.965Z</time></trkpt><trkpt lat="43.8588318" lon="11.2085734"><ele>314.66666666666663</ele><time>2026-04-16T05:01:55.968Z</time></trkpt><trkpt lat="43.8588387" lon="11.2086797"><ele>316.3333333333333</ele><time>2026-04-16T05:01:57.961Z</time></trkpt><trkpt lat="43.8588181" lon="11.2087889"><ele>318.0</ele><time>2026-04-16T05:02:00.957Z</time></trkpt><trkpt lat="43.8588024" lon="11.2089035"><ele>319.6666666666667</ele><time>2026-04-16T05:02:03.956Z</time></trkpt><trkpt lat="43.858775" lon="11.2090257"><ele>321.33333333333337</ele><time>2026-04-16T05:02:06.956Z</time></trkpt><trkpt lat="43.8587463" lon="11.20912"><ele>323.0</ele><time>2026-04-16T05:02:08.936Z</time></trkpt><trkpt lat="43.8587316" lon="11.2092189"><ele>323.59999999999997</ele><time>2026-04-16T05:02:12.967Z</time></trkpt><trkpt lat="43.8587618" lon="11.2093199"><ele>324.2</ele><time>2026-04-16T05:02:18.946Z</time></trkpt><trkpt lat="43.8587855" lon="11.2094622"><ele>324.8</ele><time>2026-04-16T05:02:21.957Z</time></trkpt><trkpt lat="43.8588074" lon="11.2095869"><ele>325.4</ele><time>2026-04-16T05:02:23.956Z</time></trkpt><trkpt lat="43.8588387" lon="11.2096998"><ele>326.0</ele><time>2026-04-16T05:02:25.958Z</time></trkpt><trkpt lat="43.8588561" lon="11.2098172"><ele>325.5</ele><time>2026-04-16T05:02:27.956Z</time></trkpt><trkpt lat="43.8588743" lon="11.2099374"><ele>325.0</ele><time>2026-04-16T05:02:29.959Z</time></trkpt><trkpt lat="43.8589038" lon="11.2100556"><ele>324.5</ele><time>2026-04-16T05:02:32.963Z</time></trkpt><trkpt lat="43.8589278" lon="11.2101405"><ele>324.0</ele><time>2026-04-16T05:02:35.005Z</time></trkpt><trkpt lat="43.8589519" lon="11.2102425"><ele>323.5</ele><time>2026-04-16T05:02:37.034Z</time></trkpt><trkpt lat="43.8589772" lon="11.2103546"><ele>323.0</ele><time>2026-04-16T05:02:38.945Z</time></trkpt><trkpt lat="43.8590074" lon="11.2104725"><ele>323.0</ele><time>2026-04-16T05:02:41.96Z</time></trkpt><trkpt lat="43.8590319" lon="11.2105606"><ele>323.0</ele><time>2026-04-16T05:02:43.962Z</time></trkpt><trkpt lat="43.8590373" lon="11.2106726"><ele>323.0</ele><time>2026-04-16T05:02:45.961Z</time></trkpt><trkpt lat="43.8590568" lon="11.2108623"><ele>323.0</ele><time>2026-04-16T05:02:47.938Z</time></trkpt><trkpt lat="43.8590352" lon="11.2109791"><ele>323.0</ele><time>2026-04-16T05:02:49.96Z</time></trkpt><trkpt lat="43.8589918" lon="11.2111281"><ele>323.0</ele><time>2026-04-16T05:02:51.959Z</time></trkpt><trkpt lat="43.8589536" lon="11.2112548"><ele>323.0</ele><time>2026-04-16T05:02:53.963Z</time></trkpt><trkpt lat="43.8589488" lon="11.211364"><ele>323.0</ele><time>2026-04-16T05:02:55.957Z</time></trkpt><trkpt lat="43.8589671" lon="11.2114888"><ele>323.0</ele><time>2026-04-16T05:02:57.957Z</time></trkpt><trkpt lat="43.8590024" lon="11.2116327"><ele>323.0</ele><time>2026-04-16T05:02:59.962Z</time></trkpt><trkpt lat="43.8590299" lon="11.2117969"><ele>323.0</ele><time>2026-04-16T05:03:01.951Z</time></trkpt><trkpt lat="43.8590706" lon="11.2119602"><ele>323.0</ele><time>2026-04-16T05:03:03.956Z</time></trkpt><trkpt lat="43.8591075" lon="11.2121039"><ele>323.0</ele><time>2026-04-16T05:03:05.952Z</time></trkpt><trkpt lat="43.8591467" lon="11.2121961"><ele>323.0</ele><time>2026-04-16T05:03:07.964Z</time></trkpt><trkpt lat="43.8592199" lon="11.2122293"><ele>323.0</ele><time>2026-04-16T05:03:10.96Z</time></trkpt><trkpt lat="43.8592598" lon="11.2123446"><ele>323.4</ele><time>2026-04-16T05:03:13.964Z</time></trkpt><trkpt lat="43.8592738" lon="11.2124577"><ele>323.79999999999995</ele><time>2026-04-16T05:03:15.951Z</time></trkpt><trkpt lat="43.8593249" lon="11.2125632"><ele>324.2</ele><time>2026-04-16T05:03:18.959Z</time></trkpt><trkpt lat="43.85939" lon="11.2126387"><ele>324.6</ele><time>2026-04-16T05:03:20.957Z</time></trkpt><trkpt lat="43.8594722" lon="11.2127512"><ele>325.0</ele><time>2026-04-16T05:03:22.957Z</time></trkpt><trkpt lat="43.8595543" lon="11.2128447"><ele>325.0</ele><time>2026-04-16T05:03:24.964Z</time></trkpt><trkpt lat="43.8596426" lon="11.2129309"><ele>325.0</ele><time>2026-04-16T05:03:26.94Z</time></trkpt><trkpt lat="43.8597291" lon="11.2130297"><ele>325.0</ele><time>2026-04-16T05:03:28.959Z</time></trkpt><trkpt lat="43.8597736" lon="11.2131009"><ele>325.0</ele><time>2026-04-16T05:03:29.963Z</time></trkpt><trkpt lat="43.8598216" lon="11.2131688"><ele>325.0</ele><time>2026-04-16T05:03:30.96Z</time></trkpt><trkpt lat="43.859879" lon="11.2132271"><ele>325.0</ele><time>2026-04-16T05:03:31.957Z</time></trkpt><trkpt lat="43.8599564" lon="11.2132676"><ele>324.8333333333333</ele><time>2026-04-16T05:03:32.956Z</time></trkpt><trkpt lat="43.8600154" lon="11.2133407"><ele>324.66666666666663</ele><time>2026-04-16T05:03:33.95Z</time></trkpt><trkpt lat="43.8600834" lon="11.2133935"><ele>324.5</ele><time>2026-04-16T05:03:34.953Z</time></trkpt><trkpt lat="43.8601538" lon="11.2134593"><ele>324.3333333333333</ele><time>2026-04-16T05:03:35.956Z</time></trkpt><trkpt lat="43.8602127" lon="11.2135216"><ele>324.1666666666667</ele><time>2026-04-16T05:03:36.944Z</time></trkpt><trkpt lat="43.8602672" lon="11.2135981"><ele>324.0</ele><time>2026-04-16T05:03:37.966Z</time></trkpt><trkpt lat="43.8603231" lon="11.2136757"><ele>324.0</ele><time>2026-04-16T05:03:38.954Z</time></trkpt><trkpt lat="43.8603708" lon="11.213772"><ele>324.0</ele><time>2026-04-16T05:03:39.95Z</time></trkpt><trkpt lat="43.8604181" lon="11.2138499"><ele>324.0</ele><time>2026-04-16T05:03:40.96Z</time></trkpt><trkpt lat="43.8604618" lon="11.2139378"><ele>324.0</ele><time>2026-04-16T05:03:41.952Z</time></trkpt><trkpt lat="43.8605059" lon="11.2140442"><ele>324.0</ele><time>2026-04-16T05:03:42.945Z</time></trkpt><trkpt lat="43.860539" lon="11.2141586"><ele>324.0</ele><time>2026-04-16T05:03:43.961Z</time></trkpt><trkpt lat="43.8605873" lon="11.2142848"><ele>324.75</ele><time>2026-04-16T05:03:44.957Z</time></trkpt><trkpt lat="43.8606492" lon="11.2144228"><ele>325.5</ele><time>2026-04-16T05:03:45.961Z</time></trkpt><trkpt lat="43.8606875" lon="11.2145774"><ele>326.25</ele><time>2026-04-16T05:03:46.965Z</time></trkpt><trkpt lat="43.86073" lon="11.2147321"><ele>327.0</ele><time>2026-04-16T05:03:47.959Z</time></trkpt><trkpt lat="43.8607665" lon="11.2148725"><ele>327.5</ele><time>2026-04-16T05:03:48.964Z</time></trkpt><trkpt lat="43.8607933" lon="11.2149816"><ele>328.0</ele><time>2026-04-16T05:03:49.961Z</time></trkpt><trkpt lat="43.8608282" lon="11.2150745"><ele>328.5</ele><time>2026-04-16T05:03:50.962Z</time></trkpt><trkpt lat="43.8608554" lon="11.2151649"><ele>329.0</ele><time>2026-04-16T05:03:51.962Z</time></trkpt><trkpt lat="43.8608797" lon="11.2152545"><ele>329.5</ele><time>2026-04-16T05:03:52.959Z</time></trkpt><trkpt lat="43.8609083" lon="11.2153537"><ele>330.0</ele><time>2026-04-16T05:03:53.963Z</time></trkpt><trkpt lat="43.8609386" lon="11.2154695"><ele>327.1666666666667</ele><time>2026-04-16T05:03:54.966Z</time></trkpt><trkpt lat="43.8609709" lon="11.2155845"><ele>324.3333333333333</ele><time>2026-04-16T05:03:55.958Z</time></trkpt><trkpt lat="43.8610051" lon="11.2156917"><ele>321.5</ele><time>2026-04-16T05:03:56.954Z</time></trkpt><trkpt lat="43.861039" lon="11.2158002"><ele>318.66666666666663</ele><time>2026-04-16T05:03:57.965Z</time></trkpt><trkpt lat="43.8610728" lon="11.2159131"><ele>315.8333333333333</ele><time>2026-04-16T05:03:58.96Z</time></trkpt><trkpt lat="43.8611039" lon="11.2160223"><ele>313.0</ele><time>2026-04-16T05:03:59.961Z</time></trkpt><trkpt lat="43.8611393" lon="11.2161208"><ele>313.0</ele><time>2026-04-16T05:04:00.966Z</time></trkpt><trkpt lat="43.8611874" lon="11.2161918"><ele>313.0</ele><time>2026-04-16T05:04:01.967Z</time></trkpt><trkpt lat="43.8612557" lon="11.2163008"><ele>313.0</ele><time>2026-04-16T05:04:03.954Z</time></trkpt><trkpt lat="43.861268" lon="11.2163987"><ele>313.0</ele><time>2026-04-16T05:04:04.959Z</time></trkpt><trkpt lat="43.8612787" lon="11.2165203"><ele>313.0</ele><time>2026-04-16T05:04:05.961Z</time></trkpt><trkpt lat="43.861285" lon="11.2166389"><ele>313.0</ele><time>2026-04-16T05:04:06.956Z</time></trkpt><trkpt lat="43.8612944" lon="11.2167615"><ele>314.3333333333333</ele><time>2026-04-16T05:04:07.964Z</time></trkpt><trkpt lat="43.8613014" lon="11.2168793"><ele>315.66666666666663</ele><time>2026-04-16T05:04:08.953Z</time></trkpt><trkpt lat="43.861304" lon="11.2169921"><ele>317.0</ele><time>2026-04-16T05:04:10.038Z</time></trkpt><trkpt lat="43.8613174" lon="11.2170933"><ele>318.3333333333333</ele><time>2026-04-16T05:04:10.965Z</time></trkpt><trkpt lat="43.8613308" lon="11.2171823"><ele>319.6666666666667</ele><time>2026-04-16T05:04:11.951Z</time></trkpt><trkpt lat="43.8613326" lon="11.2173123"><ele>321.0</ele><time>2026-04-16T05:04:13.967Z</time></trkpt><trkpt lat="43.8612584" lon="11.217349"><ele>322.20000000000005</ele><time>2026-04-16T05:04:16.946Z</time></trkpt><trkpt lat="43.8611931" lon="11.2173286"><ele>323.40000000000003</ele><time>2026-04-16T05:04:18.945Z</time></trkpt><trkpt lat="43.8612293" lon="11.2174791"><ele>324.6</ele><time>2026-04-16T05:04:21.958Z</time></trkpt><trkpt lat="43.8612628" lon="11.2176106"><ele>325.8</ele><time>2026-04-16T05:04:22.961Z</time></trkpt><trkpt lat="43.861284" lon="11.2177558"><ele>327.0</ele><time>2026-04-16T05:04:23.961Z</time></trkpt><trkpt lat="43.8612952" lon="11.2179222"><ele>327.0</ele><time>2026-04-16T05:04:25.02Z</time></trkpt><trkpt lat="43.8613001" lon="11.2180883"><ele>327.0</ele><time>2026-04-16T05:04:26.016Z</time></trkpt><trkpt lat="43.8613076" lon="11.2182275"><ele>327.0</ele><time>2026-04-16T05:04:26.968Z</time></trkpt><trkpt lat="43.8613154" lon="11.218387"><ele>327.0</ele><time>2026-04-16T05:04:27.959Z</time></trkpt><trkpt lat="43.8613304" lon="11.2185523"><ele>328.0</ele><time>2026-04-16T05:04:28.988Z</time></trkpt><trkpt lat="43.8613452" lon="11.2187184"><ele>329.0</ele><time>2026-04-16T05:04:29.993Z</time></trkpt><trkpt lat="43.8613641" lon="11.2188913"><ele>330.0</ele><time>2026-04-16T05:04:30.981Z</time></trkpt><trkpt lat="43.8613979" lon="11.2190657"><ele>331.0</ele><time>2026-04-16T05:04:31.965Z</time></trkpt><trkpt lat="43.8614547" lon="11.2192323"><ele>332.5</ele><time>2026-04-16T05:04:33.013Z</time></trkpt><trkpt lat="43.8615279" lon="11.2193887"><ele>334.0</ele><time>2026-04-16T05:04:33.964Z</time></trkpt><trkpt lat="43.8616131" lon="11.219534"><ele>335.5</ele><time>2026-04-16T05:04:34.972Z</time></trkpt><trkpt lat="43.8616924" lon="11.2196827"><ele>337.0</ele><time>2026-04-16T05:04:35.965Z</time></trkpt><trkpt lat="43.861773" lon="11.2198298"><ele>339.0</ele><time>2026-04-16T05:04:36.98Z</time></trkpt><trkpt lat="43.8618481" lon="11.2199777"><ele>341.0</ele><time>2026-04-16T05:04:37.968Z</time></trkpt><trkpt lat="43.8619253" lon="11.2201212"><ele>343.0</ele><time>2026-04-16T05:04:38.956Z</time></trkpt><trkpt lat="43.8620067" lon="11.2202568"><ele>345.0</ele><time>2026-04-16T05:04:39.969Z</time></trkpt><trkpt lat="43.8620799" lon="11.2203934"><ele>345.0</ele><time>2026-04-16T05:04:40.98Z</time></trkpt><trkpt lat="43.8621549" lon="11.220529"><ele>345.0</ele><time>2026-04-16T05:04:41.961Z</time></trkpt><trkpt lat="43.8622255" lon="11.2206686"><ele>345.0</ele><time>2026-04-16T05:04:42.943Z</time></trkpt><trkpt lat="43.8622838" lon="11.2208057"><ele>345.0</ele><time>2026-04-16T05:04:43.965Z</time></trkpt><trkpt lat="43.862338" lon="11.2209484"><ele>347.75</ele><time>2026-04-16T05:04:45.013Z</time></trkpt><trkpt lat="43.862384" lon="11.2211027"><ele>350.5</ele><time>2026-04-16T05:04:46.015Z</time></trkpt><trkpt lat="43.8624148" lon="11.2212534"><ele>353.25</ele><time>2026-04-16T05:04:46.967Z</time></trkpt><trkpt lat="43.8624428" lon="11.2214108"><ele>356.0</ele><time>2026-04-16T05:04:48.032Z</time></trkpt><trkpt lat="43.8624786" lon="11.2215586"><ele>358.20000000000005</ele><time>2026-04-16T05:04:48.959Z</time></trkpt><trkpt lat="43.8625193" lon="11.2217019"><ele>360.40000000000003</ele><time>2026-04-16T05:04:49.962Z</time></trkpt><trkpt lat="43.8625677" lon="11.2218332"><ele>362.6</ele><time>2026-04-16T05:04:50.99Z</time></trkpt><trkpt lat="43.8626174" lon="11.2219486"><ele>364.8</ele><time>2026-04-16T05:04:51.951Z</time></trkpt><trkpt lat="43.8626713" lon="11.2220547"><ele>367.0</ele><time>2026-04-16T05:04:52.966Z</time></trkpt><trkpt lat="43.862729" lon="11.222158"><ele>367.0</ele><time>2026-04-16T05:04:53.967Z</time></trkpt><trkpt lat="43.8627763" lon="11.2222559"><ele>367.0</ele><time>2026-04-16T05:04:54.956Z</time></trkpt><trkpt lat="43.8628267" lon="11.2223567"><ele>367.0</ele><time>2026-04-16T05:04:55.971Z</time></trkpt><trkpt lat="43.8628651" lon="11.2224704"><ele>367.0</ele><time>2026-04-16T05:04:56.965Z</time></trkpt><trkpt lat="43.8628885" lon="11.2225862"><ele>367.0</ele><time>2026-04-16T05:04:57.975Z</time></trkpt><trkpt lat="43.8629037" lon="11.2227007"><ele>367.0</ele><time>2026-04-16T05:04:58.954Z</time></trkpt><trkpt lat="43.8629141" lon="11.2228067"><ele>369.16666666666663</ele><time>2026-04-16T05:04:59.954Z</time></trkpt><trkpt lat="43.862924" lon="11.2229076"><ele>371.3333333333333</ele><time>2026-04-16T05:05:00.967Z</time></trkpt><trkpt lat="43.8629361" lon="11.2230107"><ele>373.5</ele><time>2026-04-16T05:05:01.97Z</time></trkpt><trkpt lat="43.8629481" lon="11.2231155"><ele>375.6666666666667</ele><time>2026-04-16T05:05:02.972Z</time></trkpt><trkpt lat="43.8629647" lon="11.2232211"><ele>377.83333333333337</ele><time>2026-04-16T05:05:03.974Z</time></trkpt><trkpt lat="43.8629765" lon="11.2233452"><ele>380.0</ele><time>2026-04-16T05:05:04.961Z</time></trkpt><trkpt lat="43.862987" lon="11.2234735"><ele>383.2</ele><time>2026-04-16T05:05:05.969Z</time></trkpt><trkpt lat="43.8629923" lon="11.2235983"><ele>386.4</ele><time>2026-04-16T05:05:06.961Z</time></trkpt><trkpt lat="43.8630017" lon="11.2237291"><ele>389.6</ele><time>2026-04-16T05:05:08.021Z</time></trkpt><trkpt lat="43.8630254" lon="11.2238554"><ele>392.8</ele><time>2026-04-16T05:05:08.966Z</time></trkpt><trkpt lat="43.8630649" lon="11.2239693"><ele>396.0</ele><time>2026-04-16T05:05:09.963Z</time></trkpt><trkpt lat="43.8631143" lon="11.2240597"><ele>398.6</ele><time>2026-04-16T05:05:10.977Z</time></trkpt><trkpt lat="43.8631737" lon="11.224159"><ele>401.20000000000005</ele><time>2026-04-16T05:05:11.97Z</time></trkpt><trkpt lat="43.8632386" lon="11.2242622"><ele>403.79999999999995</ele><time>2026-04-16T05:05:12.965Z</time></trkpt><trkpt lat="43.8633131" lon="11.2243536"><ele>406.4</ele><time>2026-04-16T05:05:13.973Z</time></trkpt><trkpt lat="43.8633931" lon="11.2244456"><ele>409.0</ele><time>2026-04-16T05:05:14.97Z</time></trkpt><trkpt lat="43.8634804" lon="11.2245347"><ele>409.5</ele><time>2026-04-16T05:05:15.965Z</time></trkpt><trkpt lat="43.8635735" lon="11.2246235"><ele>410.0</ele><time>2026-04-16T05:05:16.968Z</time></trkpt><trkpt lat="43.8636682" lon="11.2247154"><ele>410.5</ele><time>2026-04-16T05:05:17.97Z</time></trkpt><trkpt lat="43.863762" lon="11.2248061"><ele>411.0</ele><time>2026-04-16T05:05:18.971Z</time></trkpt><trkpt lat="43.8638726" lon="11.2248963"><ele>413.25</ele><time>2026-04-16T05:05:19.975Z</time></trkpt><trkpt lat="43.8639943" lon="11.2249837"><ele>415.5</ele><time>2026-04-16T05:05:20.962Z</time></trkpt><trkpt lat="43.8641241" lon="11.2250234"><ele>417.75</ele><time>2026-04-16T05:05:21.97Z</time></trkpt><trkpt lat="43.8642609" lon="11.2250576"><ele>420.0</ele><time>2026-04-16T05:05:22.968Z</time></trkpt><trkpt lat="43.8643992" lon="11.2250976"><ele>423.4</ele><time>2026-04-16T05:05:23.97Z</time></trkpt><trkpt lat="43.8645159" lon="11.2251403"><ele>426.8</ele><time>2026-04-16T05:05:24.968Z</time></trkpt><trkpt lat="43.864606" lon="11.225211"><ele>430.20000000000005</ele><time>2026-04-16T05:05:25.979Z</time></trkpt><trkpt lat="43.8646813" lon="11.22528"><ele>433.6</ele><time>2026-04-16T05:05:26.977Z</time></trkpt><trkpt lat="43.8647451" lon="11.2253518"><ele>437.0</ele><time>2026-04-16T05:05:27.967Z</time></trkpt><trkpt lat="43.8647999" lon="11.2254215"><ele>436.99999999999994</ele><time>2026-04-16T05:05:28.974Z</time></trkpt><trkpt lat="43.8648829" lon="11.2255174"><ele>437.0</ele><time>2026-04-16T05:05:30.971Z</time></trkpt><trkpt lat="43.8649454" lon="11.2254972"><ele>437.0</ele><time>2026-04-16T05:05:33.978Z</time></trkpt><trkpt lat="43.8649625" lon="11.2253705"><ele>437.0</ele><time>2026-04-16T05:05:36.99Z</time></trkpt><trkpt lat="43.8649793" lon="11.2252472"><ele>436.99999999999994</ele><time>2026-04-16T05:05:39.973Z</time></trkpt><trkpt lat="43.8649976" lon="11.2251598"><ele>437.0</ele><time>2026-04-16T05:05:42.004Z</time></trkpt><trkpt lat="43.8650285" lon="11.2250569"><ele>436.99999999999994</ele><time>2026-04-16T05:05:43.979Z</time></trkpt><trkpt lat="43.8650905" lon="11.224974"><ele>437.0</ele><time>2026-04-16T05:05:45.965Z</time></trkpt><trkpt lat="43.8651787" lon="11.2248836"><ele>437.0</ele><time>2026-04-16T05:05:47.971Z</time></trkpt><trkpt lat="43.8652586" lon="11.2248203"><ele>437.0</ele><time>2026-04-16T05:05:49.969Z</time></trkpt><trkpt lat="43.8653347" lon="11.2248363"><ele>436.99999999999994</ele><time>2026-04-16T05:05:52.968Z</time></trkpt><trkpt lat="43.8653623" lon="11.2249255"><ele>437.0</ele><time>2026-04-16T05:05:56.976Z</time></trkpt><trkpt lat="43.8653935" lon="11.2250242"><ele>439.99999999999994</ele><time>2026-04-16T05:06:00.97Z</time></trkpt><trkpt lat="43.8654636" lon="11.2250442"><ele>443.0</ele><time>2026-04-16T05:06:03.963Z</time></trkpt><trkpt lat="43.8655007" lon="11.2251334"><ele>446.0</ele><time>2026-04-16T05:06:07.966Z</time></trkpt><trkpt lat="43.8654628" lon="11.225213"><ele>449.0</ele><time>2026-04-16T05:06:11.963Z</time></trkpt><trkpt lat="43.8654839" lon="11.225329"><ele>451.99999999999994</ele><time>2026-04-16T05:06:14.976Z</time></trkpt><trkpt lat="43.86547" lon="11.2254394"><ele>455.0</ele><time>2026-04-16T05:06:16.979Z</time></trkpt><trkpt lat="43.8654507" lon="11.2255649"><ele>457.99999999999994</ele><time>2026-04-16T05:06:18.978Z</time></trkpt><trkpt lat="43.8654654" lon="11.2256961"><ele>461.0</ele><time>2026-04-16T05:06:20.973Z</time></trkpt><trkpt lat="43.8654987" lon="11.2257906"><ele>464.0</ele><time>2026-04-16T05:06:22.971Z</time></trkpt><trkpt lat="43.8655603" lon="11.2258794"><ele>467.0</ele><time>2026-04-16T05:06:25.972Z</time></trkpt><trkpt lat="43.8656323" lon="11.2259162"><ele>469.99999999999994</ele><time>2026-04-16T05:06:27.968Z</time></trkpt><trkpt lat="43.8656964" lon="11.2259805"><ele>473.0</ele><time>2026-04-16T05:06:29.965Z</time></trkpt><trkpt lat="43.8657824" lon="11.2260055"><ele>473.0</ele><time>2026-04-16T05:06:32.952Z</time></trkpt><trkpt lat="43.8658339" lon="11.2259404"><ele>473.0</ele><time>2026-04-16T05:06:35.957Z</time></trkpt><trkpt lat="43.8659044" lon="11.2258748"><ele>473.0</ele><time>2026-04-16T05:06:38.97Z</time></trkpt><trkpt lat="43.8659723" lon="11.2258578"><ele>473.0</ele><time>2026-04-16T05:06:40.969Z</time></trkpt><trkpt lat="43.866043" lon="11.2258591"><ele>473.0</ele><time>2026-04-16T05:06:42.983Z</time></trkpt><trkpt lat="43.8661261" lon="11.2258899"><ele>473.0</ele><time>2026-04-16T05:06:45.971Z</time></trkpt><trkpt lat="43.8661878" lon="11.2258498"><ele>473.0</ele><time>2026-04-16T05:06:47.963Z</time></trkpt><trkpt lat="43.8662468" lon="11.2258111"><ele>479.79999999999995</ele><time>2026-04-16T05:06:49.967Z</time></trkpt><trkpt lat="43.8663217" lon="11.2257788"><ele>486.59999999999997</ele><time>2026-04-16T05:06:51.968Z</time></trkpt><trkpt lat="43.8664132" lon="11.2257372"><ele>493.40000000000003</ele><time>2026-04-16T05:06:53.979Z</time></trkpt><trkpt lat="43.866497" lon="11.2257035"><ele>500.20000000000005</ele><time>2026-04-16T05:06:55.967Z</time></trkpt><trkpt lat="43.86659" lon="11.2256848"><ele>507.0</ele><time>2026-04-16T05:06:57.966Z</time></trkpt><trkpt lat="43.8666936" lon="11.2256746"><ele>507.0</ele><time>2026-04-16T05:06:59.967Z</time></trkpt><trkpt lat="43.8667725" lon="11.2256496"><ele>507.0</ele><time>2026-04-16T05:07:01.972Z</time></trkpt><trkpt lat="43.8668357" lon="11.225636"><ele>507.0</ele><time>2026-04-16T05:07:03.98Z</time></trkpt><trkpt lat="43.8669286" lon="11.2256351"><ele>507.0</ele><time>2026-04-16T05:07:06.952Z</time></trkpt><trkpt lat="43.8669922" lon="11.2256243"><ele>507.0</ele><time>2026-04-16T05:07:08.966Z</time></trkpt><trkpt lat="43.8670847" lon="11.2256265"><ele>507.0</ele><time>2026-04-16T05:07:11.97Z</time></trkpt><trkpt lat="43.8671496" lon="11.2256238"><ele>506.3333333333333</ele><time>2026-04-16T05:07:13.965Z</time></trkpt><trkpt lat="43.8672341" lon="11.2256237"><ele>505.66666666666663</ele><time>2026-04-16T05:07:16.964Z</time></trkpt><trkpt lat="43.8673168" lon="11.2256018"><ele>505.0</ele><time>2026-04-16T05:07:20.969Z</time></trkpt><trkpt lat="43.867408" lon="11.2255823"><ele>504.3333333333333</ele><time>2026-04-16T05:07:23.965Z</time></trkpt><trkpt lat="43.8674951" lon="11.2255684"><ele>503.66666666666663</ele><time>2026-04-16T05:07:27.046Z</time></trkpt><trkpt lat="43.8675717" lon="11.225592"><ele>503.0</ele><time>2026-04-16T05:07:28.963Z</time></trkpt><trkpt lat="43.867635" lon="11.2256045"><ele>505.66666666666663</ele><time>2026-04-16T05:07:30.958Z</time></trkpt><trkpt lat="43.8677206" lon="11.2256142"><ele>508.3333333333333</ele><time>2026-04-16T05:07:33.953Z</time></trkpt><trkpt lat="43.8677877" lon="11.2256201"><ele>511.0</ele><time>2026-04-16T05:07:36.986Z</time></trkpt><trkpt lat="43.8678597" lon="11.2256555"><ele>513.6666666666666</ele><time>2026-04-16T05:07:39.973Z</time></trkpt><trkpt lat="43.8679416" lon="11.225659"><ele>516.3333333333334</ele><time>2026-04-16T05:07:43.948Z</time></trkpt><trkpt lat="43.8680257" lon="11.2256855"><ele>519.0</ele><time>2026-04-16T05:07:46.975Z</time></trkpt><trkpt lat="43.8681009" lon="11.2257191"><ele>524.3333333333334</ele><time>2026-04-16T05:07:50.971Z</time></trkpt><trkpt lat="43.8681622" lon="11.2257626"><ele>529.6666666666666</ele><time>2026-04-16T05:07:53.973Z</time></trkpt><trkpt lat="43.8682498" lon="11.2258147"><ele>535.0</ele><time>2026-04-16T05:07:56.985Z</time></trkpt><trkpt lat="43.8683101" lon="11.2258701"><ele>540.3333333333333</ele><time>2026-04-16T05:07:58.974Z</time></trkpt><trkpt lat="43.8683788" lon="11.2259216"><ele>545.6666666666666</ele><time>2026-04-16T05:08:00.967Z</time></trkpt><trkpt lat="43.86844" lon="11.2259761"><ele>551.0</ele><time>2026-04-16T05:08:02.968Z</time></trkpt><trkpt lat="43.8684928" lon="11.2260241"><ele>551.3333333333333</ele><time>2026-04-16T05:08:04.981Z</time></trkpt><trkpt lat="43.8685752" lon="11.2260737"><ele>551.6666666666666</ele><time>2026-04-16T05:08:07.976Z</time></trkpt><trkpt lat="43.8686633" lon="11.2261123"><ele>552.0</ele><time>2026-04-16T05:08:10.975Z</time></trkpt><trkpt lat="43.8687264" lon="11.2261543"><ele>552.3333333333334</ele><time>2026-04-16T05:08:13.033Z</time></trkpt><trkpt lat="43.8688387" lon="11.2262023"><ele>552.6666666666667</ele><time>2026-04-16T05:08:14.97Z</time></trkpt><trkpt lat="43.8688754" lon="11.2262759"><ele>553.0</ele><time>2026-04-16T05:08:16.978Z</time></trkpt><trkpt lat="43.8689047" lon="11.226355"><ele>553.0</ele><time>2026-04-16T05:08:18.959Z</time></trkpt><trkpt lat="43.868935" lon="11.226448"><ele>553.0</ele><time>2026-04-16T05:08:20.957Z</time></trkpt><trkpt lat="43.8689589" lon="11.2265539"><ele>553.0</ele><time>2026-04-16T05:08:23.974Z</time></trkpt><trkpt lat="43.8689501" lon="11.2266603"><ele>553.0</ele><time>2026-04-16T05:08:26.944Z</time></trkpt><trkpt lat="43.8689469" lon="11.2267766"><ele>553.0</ele><time>2026-04-16T05:08:28.969Z</time></trkpt><trkpt lat="43.8689043" lon="11.2269007"><ele>553.0</ele><time>2026-04-16T05:08:31.958Z</time></trkpt><trkpt lat="43.868861" lon="11.2270063"><ele>555.6666666666667</ele><time>2026-04-16T05:08:34.958Z</time></trkpt><trkpt lat="43.8688164" lon="11.227108"><ele>558.3333333333334</ele><time>2026-04-16T05:08:37.958Z</time></trkpt><trkpt lat="43.8687811" lon="11.2272014"><ele>561.0</ele><time>2026-04-16T05:08:39.963Z</time></trkpt><trkpt lat="43.8687491" lon="11.2272887"><ele>563.6666666666666</ele><time>2026-04-16T05:08:42.023Z</time></trkpt><trkpt lat="43.8687221" lon="11.2273957"><ele>566.3333333333333</ele><time>2026-04-16T05:08:43.964Z</time></trkpt><trkpt lat="43.8686946" lon="11.2275085"><ele>569.0</ele><time>2026-04-16T05:08:45.967Z</time></trkpt><trkpt lat="43.8686814" lon="11.2276082"><ele>571.2857142857143</ele><time>2026-04-16T05:08:47.958Z</time></trkpt><trkpt lat="43.8686729" lon="11.2277149"><ele>573.5714285714286</ele><time>2026-04-16T05:08:49.964Z</time></trkpt><trkpt lat="43.868668" lon="11.2278073"><ele>575.8571428571429</ele><time>2026-04-16T05:08:51.959Z</time></trkpt><trkpt lat="43.8686724" lon="11.2278984"><ele>578.1428571428571</ele><time>2026-04-16T05:08:53.963Z</time></trkpt><trkpt lat="43.868676" lon="11.2279929"><ele>580.4285714285714</ele><time>2026-04-16T05:08:55.965Z</time></trkpt><trkpt lat="43.8686892" lon="11.2280867"><ele>582.7142857142858</ele><time>2026-04-16T05:08:57.953Z</time></trkpt><trkpt lat="43.8686956" lon="11.2281788"><ele>585.0</ele><time>2026-04-16T05:08:59.96Z</time></trkpt><trkpt lat="43.8687044" lon="11.2282669"><ele>587.8333333333334</ele><time>2026-04-16T05:09:01.968Z</time></trkpt><trkpt lat="43.8687441" lon="11.2283798"><ele>590.6666666666666</ele><time>2026-04-16T05:09:04.97Z</time></trkpt><trkpt lat="43.8687782" lon="11.2284887"><ele>593.5</ele><time>2026-04-16T05:09:07.963Z</time></trkpt><trkpt lat="43.8687717" lon="11.2286071"><ele>596.3333333333333</ele><time>2026-04-16T05:09:10.96Z</time></trkpt><trkpt lat="43.8687739" lon="11.2287255"><ele>599.1666666666666</ele><time>2026-04-16T05:09:13.972Z</time></trkpt><trkpt lat="43.8687835" lon="11.2288144"><ele>602.0</ele><time>2026-04-16T05:09:15.961Z</time></trkpt><trkpt lat="43.868798" lon="11.2289132"><ele>606.1666666666666</ele><time>2026-04-16T05:09:18.968Z</time></trkpt><trkpt lat="43.8688379" lon="11.2290154"><ele>610.3333333333333</ele><time>2026-04-16T05:09:21.973Z</time></trkpt><trkpt lat="43.8688747" lon="11.2291203"><ele>614.5</ele><time>2026-04-16T05:09:24.981Z</time></trkpt><trkpt lat="43.8688541" lon="11.2292426"><ele>618.6666666666666</ele><time>2026-04-16T05:09:27.969Z</time></trkpt><trkpt lat="43.8688906" lon="11.2293368"><ele>622.8333333333334</ele><time>2026-04-16T05:09:31.97Z</time></trkpt><trkpt lat="43.8689616" lon="11.2293306"><ele>627.0</ele><time>2026-04-16T05:09:35.972Z</time></trkpt><trkpt lat="43.8690282" lon="11.2293109"><ele>627.0</ele><time>2026-04-16T05:09:40.964Z</time></trkpt><trkpt lat="43.8691184" lon="11.2293032"><ele>627.0</ele><time>2026-04-16T05:09:43.956Z</time></trkpt><trkpt lat="43.8691909" lon="11.2293531"><ele>627.0</ele><time>2026-04-16T05:09:45.965Z</time></trkpt><trkpt lat="43.8692596" lon="11.2293965"><ele>627.0</ele><time>2026-04-16T05:09:47.967Z</time></trkpt><trkpt lat="43.8693253" lon="11.2294287"><ele>627.0</ele><time>2026-04-16T05:09:49.956Z</time></trkpt><trkpt lat="43.8694116" lon="11.2294611"><ele>627.0</ele><time>2026-04-16T05:09:52.948Z</time></trkpt><trkpt lat="43.8694978" lon="11.2295049"><ele>627.2</ele><time>2026-04-16T05:09:55.967Z</time></trkpt><trkpt lat="43.8695595" lon="11.2296706"><ele>627.4000000000001</ele><time>2026-04-16T05:09:56.971Z</time></trkpt><trkpt lat="43.8696064" lon="11.2297463"><ele>627.5999999999999</ele><time>2026-04-16T05:09:57.975Z</time></trkpt><trkpt lat="43.8696685" lon="11.2298149"><ele>627.8</ele><time>2026-04-16T05:09:59.971Z</time></trkpt><trkpt lat="43.8697404" lon="11.2298662"><ele>628.0</ele><time>2026-04-16T05:10:01.977Z</time></trkpt><trkpt lat="43.8698126" lon="11.2299305"><ele>632.8333333333334</ele><time>2026-04-16T05:10:03.971Z</time></trkpt><trkpt lat="43.8698805" lon="11.2299804"><ele>637.6666666666667</ele><time>2026-04-16T05:10:05.964Z</time></trkpt><trkpt lat="43.8699499" lon="11.2300128"><ele>642.5</ele><time>2026-04-16T05:10:07.969Z</time></trkpt><trkpt lat="43.8700107" lon="11.2300636"><ele>647.3333333333334</ele><time>2026-04-16T05:10:09.945Z</time></trkpt><trkpt lat="43.8700865" lon="11.2301106"><ele>652.1666666666666</ele><time>2026-04-16T05:10:11.963Z</time></trkpt><trkpt lat="43.8701552" lon="11.230144"><ele>657.0</ele><time>2026-04-16T05:10:14.965Z</time></trkpt><trkpt lat="43.870215" lon="11.2302139"><ele>657.5</ele><time>2026-04-16T05:10:17.967Z</time></trkpt><trkpt lat="43.8702839" lon="11.2302861"><ele>658.0</ele><time>2026-04-16T05:10:20.97Z</time></trkpt><trkpt lat="43.8703431" lon="11.2303309"><ele>658.5</ele><time>2026-04-16T05:10:22.958Z</time></trkpt><trkpt lat="43.8703981" lon="11.2303874"><ele>659.0</ele><time>2026-04-16T05:10:24.958Z</time></trkpt><trkpt lat="43.8704741" lon="11.2304612"><ele>659.5</ele><time>2026-04-16T05:10:26.963Z</time></trkpt><trkpt lat="43.8705203" lon="11.2305272"><ele>660.0</ele><time>2026-04-16T05:10:28.957Z</time></trkpt><trkpt lat="43.8705913" lon="11.2306058"><ele>665.1666666666666</ele><time>2026-04-16T05:10:31.954Z</time></trkpt><trkpt lat="43.8706398" lon="11.2306862"><ele>670.3333333333334</ele><time>2026-04-16T05:10:34.976Z</time></trkpt><trkpt lat="43.8707006" lon="11.2307511"><ele>675.5</ele><time>2026-04-16T05:10:39.955Z</time></trkpt><trkpt lat="43.8707732" lon="11.2308247"><ele>680.6666666666667</ele><time>2026-04-16T05:10:42.963Z</time></trkpt><trkpt lat="43.8708309" lon="11.2308788"><ele>685.8333333333334</ele><time>2026-04-16T05:10:44.969Z</time></trkpt><trkpt lat="43.8708956" lon="11.2309398"><ele>691.0</ele><time>2026-04-16T05:10:47.973Z</time></trkpt><trkpt lat="43.8709615" lon="11.2309575"><ele>693.0</ele><time>2026-04-16T05:10:50.962Z</time></trkpt><trkpt lat="43.8710383" lon="11.2308975"><ele>695.0</ele><time>2026-04-16T05:10:53.963Z</time></trkpt><trkpt lat="43.8711294" lon="11.2308379"><ele>697.0</ele><time>2026-04-16T05:10:56.966Z</time></trkpt><trkpt lat="43.871244" lon="11.230822"><ele>699.0</ele><time>2026-04-16T05:10:58.971Z</time></trkpt><trkpt lat="43.8713359" lon="11.2308132"><ele>701.0</ele><time>2026-04-16T05:11:00.973Z</time></trkpt><trkpt lat="43.8714009" lon="11.2307939"><ele>701.0</ele><time>2026-04-16T05:11:01.957Z</time></trkpt><trkpt lat="43.8714779" lon="11.2307632"><ele>701.0</ele><time>2026-04-16T05:11:03.954Z</time></trkpt><trkpt lat="43.8715473" lon="11.2307347"><ele>701.0</ele><time>2026-04-16T05:11:05.953Z</time></trkpt><trkpt lat="43.8716366" lon="11.230709"><ele>701.0</ele><time>2026-04-16T05:11:07.955Z</time></trkpt><trkpt lat="43.871718" lon="11.2306837"><ele>701.0</ele><time>2026-04-16T05:11:09.974Z</time></trkpt><trkpt lat="43.8717912" lon="11.2306909"><ele>701.0</ele><time>2026-04-16T05:11:11.943Z</time></trkpt><trkpt lat="43.8718729" lon="11.2307147"><ele>703.5</ele><time>2026-04-16T05:11:14.947Z</time></trkpt><trkpt lat="43.8719514" lon="11.2307508"><ele>706.0</ele><time>2026-04-16T05:11:16.967Z</time></trkpt><trkpt lat="43.8720358" lon="11.230781"><ele>708.5</ele><time>2026-04-16T05:11:18.981Z</time></trkpt><trkpt lat="43.8721119" lon="11.230808"><ele>711.0</ele><time>2026-04-16T05:11:20.966Z</time></trkpt><trkpt lat="43.8721972" lon="11.2308079"><ele>713.5</ele><time>2026-04-16T05:11:22.956Z</time></trkpt><trkpt lat="43.8722796" lon="11.2308215"><ele>716.0</ele><time>2026-04-16T05:11:24.967Z</time></trkpt><trkpt lat="43.8723689" lon="11.2308599"><ele>716.0</ele><time>2026-04-16T05:11:26.969Z</time></trkpt><trkpt lat="43.8724704" lon="11.2308971"><ele>716.0</ele><time>2026-04-16T05:11:28.964Z</time></trkpt><trkpt lat="43.8725712" lon="11.230946"><ele>716.0</ele><time>2026-04-16T05:11:30.973Z</time></trkpt><trkpt lat="43.8726429" lon="11.2309756"><ele>716.0</ele><time>2026-04-16T05:11:32.966Z</time></trkpt><trkpt lat="43.8727251" lon="11.2310047"><ele>716.0</ele><time>2026-04-16T05:11:34.963Z</time></trkpt><trkpt lat="43.8728339" lon="11.231065"><ele>715.1666666666666</ele><time>2026-04-16T05:11:36.949Z</time></trkpt><trkpt lat="43.8729318" lon="11.2311103"><ele>714.3333333333333</ele><time>2026-04-16T05:11:38.966Z</time></trkpt><trkpt lat="43.8730321" lon="11.2311519"><ele>713.5</ele><time>2026-04-16T05:11:40.963Z</time></trkpt><trkpt lat="43.8730963" lon="11.2311723"><ele>712.6666666666666</ele><time>2026-04-16T05:11:42.948Z</time></trkpt><trkpt lat="43.8731588" lon="11.2311972"><ele>711.8333333333334</ele><time>2026-04-16T05:11:44.968Z</time></trkpt><trkpt lat="43.8732201" lon="11.2312312"><ele>711.0</ele><time>2026-04-16T05:11:46.973Z</time></trkpt><trkpt lat="43.8733078" lon="11.2312824"><ele>711.0</ele><time>2026-04-16T05:11:49.968Z</time></trkpt><trkpt lat="43.8733727" lon="11.2313246"><ele>711.0</ele><time>2026-04-16T05:11:51.969Z</time></trkpt><trkpt lat="43.8734601" lon="11.2313764"><ele>711.0</ele><time>2026-04-16T05:11:54.976Z</time></trkpt><trkpt lat="43.8735252" lon="11.2314207"><ele>711.0</ele><time>2026-04-16T05:11:56.947Z</time></trkpt><trkpt lat="43.8735972" lon="11.2314558"><ele>711.0</ele><time>2026-04-16T05:11:58.966Z</time></trkpt><trkpt lat="43.8736699" lon="11.2314692"><ele>711.0</ele><time>2026-04-16T05:12:00.973Z</time></trkpt><trkpt lat="43.8737505" lon="11.2315134"><ele>716.8333333333334</ele><time>2026-04-16T05:12:02.957Z</time></trkpt><trkpt lat="43.873844" lon="11.2315483"><ele>722.6666666666666</ele><time>2026-04-16T05:12:04.953Z</time></trkpt><trkpt lat="43.8739232" lon="11.2315877"><ele>728.5</ele><time>2026-04-16T05:12:06.957Z</time></trkpt><trkpt lat="43.873983" lon="11.231629"><ele>734.3333333333333</ele><time>2026-04-16T05:12:08.96Z</time></trkpt><trkpt lat="43.8740586" lon="11.2316927"><ele>740.1666666666666</ele><time>2026-04-16T05:12:11.971Z</time></trkpt><trkpt lat="43.8741508" lon="11.2317262"><ele>746.0</ele><time>2026-04-16T05:12:14.952Z</time></trkpt><trkpt lat="43.8742204" lon="11.2317279"><ele>746.6666666666666</ele><time>2026-04-16T05:12:16.967Z</time></trkpt><trkpt lat="43.8743014" lon="11.2317488"><ele>747.3333333333333</ele><time>2026-04-16T05:12:20.962Z</time></trkpt><trkpt lat="43.8743722" lon="11.2317862"><ele>748.0</ele><time>2026-04-16T05:12:23.956Z</time></trkpt><trkpt lat="43.874447" lon="11.2318269"><ele>748.6666666666666</ele><time>2026-04-16T05:12:26.964Z</time></trkpt><trkpt lat="43.8745116" lon="11.2318471"><ele>749.3333333333334</ele><time>2026-04-16T05:12:28.958Z</time></trkpt><trkpt lat="43.87458" lon="11.2319134"><ele>750.0</ele><time>2026-04-16T05:12:31.969Z</time></trkpt><trkpt lat="43.874649" lon="11.2319732"><ele>750.0</ele><time>2026-04-16T05:12:34.958Z</time></trkpt><trkpt lat="43.8747334" lon="11.2320159"><ele>750.0</ele><time>2026-04-16T05:12:37.966Z</time></trkpt><trkpt lat="43.8747994" lon="11.2320439"><ele>750.0</ele><time>2026-04-16T05:12:40.972Z</time></trkpt><trkpt lat="43.874858" lon="11.2320768"><ele>750.0</ele><time>2026-04-16T05:12:43.96Z</time></trkpt><trkpt lat="43.8749283" lon="11.2321167"><ele>750.0</ele><time>2026-04-16T05:12:45.971Z</time></trkpt><trkpt lat="43.8749943" lon="11.2321465"><ele>750.0</ele><time>2026-04-16T05:12:47.969Z</time></trkpt><trkpt lat="43.8750646" lon="11.232174"><ele>750.0</ele><time>2026-04-16T05:12:49.979Z</time></trkpt><trkpt lat="43.8751406" lon="11.2322139"><ele>749.8333333333334</ele><time>2026-04-16T05:12:51.956Z</time></trkpt><trkpt lat="43.8752086" lon="11.2322473"><ele>749.6666666666666</ele><time>2026-04-16T05:12:53.951Z</time></trkpt><trkpt lat="43.8752876" lon="11.2322802"><ele>749.5</ele><time>2026-04-16T05:12:55.972Z</time></trkpt><trkpt lat="43.8753485" lon="11.2323186"><ele>749.3333333333333</ele><time>2026-04-16T05:12:57.959Z</time></trkpt><trkpt lat="43.875415" lon="11.2323537"><ele>749.1666666666666</ele><time>2026-04-16T05:12:59.967Z</time></trkpt><trkpt lat="43.8754924" lon="11.2323987"><ele>749.0</ele><time>2026-04-16T05:13:01.963Z</time></trkpt><trkpt lat="43.8755606" lon="11.2324481"><ele>755.3333333333333</ele><time>2026-04-16T05:13:03.968Z</time></trkpt><trkpt lat="43.875632" lon="11.2324977"><ele>761.6666666666666</ele><time>2026-04-16T05:13:05.959Z</time></trkpt><trkpt lat="43.875709" lon="11.2325401"><ele>768.0</ele><time>2026-04-16T05:13:07.971Z</time></trkpt><trkpt lat="43.875773" lon="11.2325656"><ele>774.3333333333333</ele><time>2026-04-16T05:13:09.965Z</time></trkpt><trkpt lat="43.8758435" lon="11.2325923"><ele>780.6666666666666</ele><time>2026-04-16T05:13:11.961Z</time></trkpt><trkpt lat="43.8759303" lon="11.2326232"><ele>787.0</ele><time>2026-04-16T05:13:14.953Z</time></trkpt><trkpt lat="43.8760025" lon="11.232649"><ele>787.4285714285714</ele><time>2026-04-16T05:13:16.958Z</time></trkpt><trkpt lat="43.8760692" lon="11.2327096"><ele>787.8571428571429</ele><time>2026-04-16T05:13:18.954Z</time></trkpt><trkpt lat="43.8761323" lon="11.2327559"><ele>788.2857142857142</ele><time>2026-04-16T05:13:20.951Z</time></trkpt><trkpt lat="43.8761962" lon="11.2327977"><ele>788.7142857142858</ele><time>2026-04-16T05:13:23.955Z</time></trkpt><trkpt lat="43.8762816" lon="11.2328355"><ele>789.1428571428572</ele><time>2026-04-16T05:14:36.952Z</time></trkpt><trkpt lat="43.8763454" lon="11.2328522"><ele>789.5714285714286</ele><time>2026-04-16T05:14:39.95Z</time></trkpt><trkpt lat="43.8764065" lon="11.2328832"><ele>790.0</ele><time>2026-04-16T05:14:42.941Z</time></trkpt><trkpt lat="43.8764619" lon="11.2329293"><ele>789.9999999999999</ele><time>2026-04-16T05:14:45.945Z</time></trkpt><trkpt lat="43.876522" lon="11.2329742"><ele>790.0</ele><time>2026-04-16T05:14:49.952Z</time></trkpt><trkpt lat="43.8766029" lon="11.2330649"><ele>790.0</ele><time>2026-04-16T05:15:05.94Z</time></trkpt><trkpt lat="43.8766601" lon="11.2331291"><ele>790.0</ele><time>2026-04-16T05:15:30.944Z</time></trkpt><trkpt lat="43.8767313" lon="11.2331252"><ele>789.9999999999999</ele><time>2026-04-16T05:15:35.946Z</time></trkpt><trkpt lat="43.876858" lon="11.2331251"><ele>790.0</ele><time>2026-04-16T05:17:45.97Z</time></trkpt><trkpt lat="43.8767764" lon="11.2331295"><ele>789.9999999999999</ele><time>2026-04-16T05:18:20.969Z</time></trkpt><trkpt lat="43.8767081" lon="11.2331195"><ele>790.0</ele><time>2026-04-16T05:18:23.969Z</time></trkpt><trkpt lat="43.8766342" lon="11.2330938"><ele>790.0</ele><time>2026-04-16T05:18:27.97Z</time></trkpt><trkpt lat="43.876575" lon="11.2330473"><ele>790.0</ele><time>2026-04-16T05:18:30.966Z</time></trkpt><trkpt lat="43.8765206" lon="11.2329906"><ele>789.9999999999999</ele><time>2026-04-16T05:18:32.953Z</time></trkpt><trkpt lat="43.8764567" lon="11.2329339"><ele>790.0</ele><time>2026-04-16T05:18:33.968Z</time></trkpt><trkpt lat="43.8763465" lon="11.2328951"><ele>790.0</ele><time>2026-04-16T05:18:35.951Z</time></trkpt><trkpt lat="43.8762436" lon="11.2328728"><ele>790.0</ele><time>2026-04-16T05:18:37.973Z</time></trkpt><trkpt lat="43.8761284" lon="11.2328529"><ele>790.0</ele><time>2026-04-16T05:18:39.969Z</time></trkpt><trkpt lat="43.8760142" lon="11.2328593"><ele>790.0</ele><time>2026-04-16T05:18:41.963Z</time></trkpt><trkpt lat="43.8758995" lon="11.2328786"><ele>789.4</ele><time>2026-04-16T05:18:43.966Z</time></trkpt><trkpt lat="43.8757982" lon="11.2329014"><ele>788.8</ele><time>2026-04-16T05:18:45.97Z</time></trkpt><trkpt lat="43.8756836" lon="11.2329241"><ele>788.2</ele><time>2026-04-16T05:18:47.971Z</time></trkpt><trkpt lat="43.8755754" lon="11.2329386"><ele>787.6</ele><time>2026-04-16T05:18:49.972Z</time></trkpt><trkpt lat="43.87548" lon="11.2329619"><ele>787.0</ele><time>2026-04-16T05:18:51.963Z</time></trkpt><trkpt lat="43.8753807" lon="11.2329981"><ele>787.0</ele><time>2026-04-16T05:18:53.959Z</time></trkpt><trkpt lat="43.8752636" lon="11.2330193"><ele>787.0</ele><time>2026-04-16T05:18:55.964Z</time></trkpt><trkpt lat="43.8751514" lon="11.2330483"><ele>787.0</ele><time>2026-04-16T05:18:57.963Z</time></trkpt><trkpt lat="43.8750379" lon="11.2330694"><ele>787.0</ele><time>2026-04-16T05:18:59.973Z</time></trkpt><trkpt lat="43.874926" lon="11.2330569"><ele>785.0</ele><time>2026-04-16T05:19:01.965Z</time></trkpt><trkpt lat="43.8748072" lon="11.2330478"><ele>783.0</ele><time>2026-04-16T05:19:03.972Z</time></trkpt><trkpt lat="43.8747447" lon="11.2330352"><ele>781.0</ele><time>2026-04-16T05:19:04.964Z</time></trkpt><trkpt lat="43.874622" lon="11.2330073"><ele>779.0</ele><time>2026-04-16T05:19:06.966Z</time></trkpt><trkpt lat="43.8745081" lon="11.2330022"><ele>777.0</ele><time>2026-04-16T05:19:08.967Z</time></trkpt><trkpt lat="43.8743993" lon="11.2329902"><ele>777.0</ele><time>2026-04-16T05:19:10.966Z</time></trkpt><trkpt lat="43.8742805" lon="11.2329603"><ele>777.0</ele><time>2026-04-16T05:19:12.963Z</time></trkpt><trkpt lat="43.8741553" lon="11.232938"><ele>777.0</ele><time>2026-04-16T05:19:14.975Z</time></trkpt><trkpt lat="43.874046" lon="11.2328902"><ele>777.0</ele><time>2026-04-16T05:19:16.964Z</time></trkpt><trkpt lat="43.8739828" lon="11.2328618"><ele>777.0</ele><time>2026-04-16T05:19:17.97Z</time></trkpt><trkpt lat="43.8739181" lon="11.232831"><ele>776.6666666666666</ele><time>2026-04-16T05:19:18.957Z</time></trkpt><trkpt lat="43.8738587" lon="11.2327959"><ele>776.3333333333333</ele><time>2026-04-16T05:19:19.96Z</time></trkpt><trkpt lat="43.8737977" lon="11.232764"><ele>776.0</ele><time>2026-04-16T05:19:20.977Z</time></trkpt><trkpt lat="43.8736882" lon="11.2327064"><ele>775.6666666666666</ele><time>2026-04-16T05:19:22.963Z</time></trkpt><trkpt lat="43.8736273" lon="11.2326728"><ele>775.3333333333333</ele><time>2026-04-16T05:19:23.966Z</time></trkpt><trkpt lat="43.873563" lon="11.2326244"><ele>775.0</ele><time>2026-04-16T05:19:24.963Z</time></trkpt><trkpt lat="43.8734948" lon="11.2325885"><ele>775.1666666666666</ele><time>2026-04-16T05:19:25.972Z</time></trkpt><trkpt lat="43.8734293" lon="11.2325516"><ele>775.3333333333333</ele><time>2026-04-16T05:19:26.966Z</time></trkpt><trkpt lat="43.8733587" lon="11.2325167"><ele>775.5</ele><time>2026-04-16T05:19:27.965Z</time></trkpt><trkpt lat="43.8732882" lon="11.2324817"><ele>775.6666666666667</ele><time>2026-04-16T05:19:28.961Z</time></trkpt><trkpt lat="43.8732107" lon="11.2324589"><ele>775.8333333333334</ele><time>2026-04-16T05:19:29.97Z</time></trkpt><trkpt lat="43.8731356" lon="11.2324353"><ele>776.0</ele><time>2026-04-16T05:19:30.972Z</time></trkpt><trkpt lat="43.8730586" lon="11.2324197"><ele>776.0</ele><time>2026-04-16T05:19:31.956Z</time></trkpt><trkpt lat="43.8729892" lon="11.2324025"><ele>776.0</ele><time>2026-04-16T05:19:32.967Z</time></trkpt><trkpt lat="43.8729249" lon="11.2323864"><ele>776.0</ele><time>2026-04-16T05:19:33.972Z</time></trkpt><trkpt lat="43.8728552" lon="11.232373"><ele>776.0</ele><time>2026-04-16T05:19:34.97Z</time></trkpt><trkpt lat="43.8727879" lon="11.2323668"><ele>776.0</ele><time>2026-04-16T05:19:35.969Z</time></trkpt><trkpt lat="43.8727135" lon="11.2323622"><ele>776.0</ele><time>2026-04-16T05:19:36.967Z</time></trkpt><trkpt lat="43.872641" lon="11.232354"><ele>776.0</ele><time>2026-04-16T05:19:37.968Z</time></trkpt><trkpt lat="43.8725681" lon="11.2323491"><ele>775.1428571428571</ele><time>2026-04-16T05:19:38.945Z</time></trkpt><trkpt lat="43.8724985" lon="11.2323508"><ele>774.2857142857143</ele><time>2026-04-16T05:19:40.022Z</time></trkpt><trkpt lat="43.8724313" lon="11.2323388"><ele>773.4285714285714</ele><time>2026-04-16T05:19:40.968Z</time></trkpt><trkpt lat="43.8723671" lon="11.2323378"><ele>772.5714285714286</ele><time>2026-04-16T05:19:42.026Z</time></trkpt><trkpt lat="43.8722995" lon="11.2323359"><ele>771.7142857142858</ele><time>2026-04-16T05:19:42.958Z</time></trkpt><trkpt lat="43.8722353" lon="11.2323335"><ele>770.8571428571429</ele><time>2026-04-16T05:19:43.968Z</time></trkpt><trkpt lat="43.8721658" lon="11.2323454"><ele>770.0</ele><time>2026-04-16T05:19:44.967Z</time></trkpt><trkpt lat="43.8720927" lon="11.2323589"><ele>770.0000000000001</ele><time>2026-04-16T05:19:45.959Z</time></trkpt><trkpt lat="43.8720258" lon="11.2323796"><ele>770.0</ele><time>2026-04-16T05:19:46.958Z</time></trkpt><trkpt lat="43.8719625" lon="11.2324054"><ele>770.0</ele><time>2026-04-16T05:19:48.023Z</time></trkpt><trkpt lat="43.8718996" lon="11.2324231"><ele>770.0</ele><time>2026-04-16T05:19:48.959Z</time></trkpt><trkpt lat="43.8717779" lon="11.2324603"><ele>770.0000000000001</ele><time>2026-04-16T05:19:50.959Z</time></trkpt><trkpt lat="43.8717162" lon="11.2324834"><ele>770.0</ele><time>2026-04-16T05:19:51.975Z</time></trkpt><trkpt lat="43.8715993" lon="11.2325395"><ele>768.0</ele><time>2026-04-16T05:19:53.969Z</time></trkpt><trkpt lat="43.8715345" lon="11.2325661"><ele>766.0</ele><time>2026-04-16T05:19:54.976Z</time></trkpt><trkpt lat="43.8714703" lon="11.2325979"><ele>764.0</ele><time>2026-04-16T05:19:55.965Z</time></trkpt><trkpt lat="43.8714082" lon="11.2326221"><ele>762.0</ele><time>2026-04-16T05:19:57.049Z</time></trkpt><trkpt lat="43.871345" lon="11.2326469"><ele>760.0</ele><time>2026-04-16T05:19:58.034Z</time></trkpt><trkpt lat="43.8712741" lon="11.2326631"><ele>758.0</ele><time>2026-04-16T05:19:58.968Z</time></trkpt><trkpt lat="43.8711996" lon="11.2326689"><ele>756.0</ele><time>2026-04-16T05:19:59.963Z</time></trkpt><trkpt lat="43.8711199" lon="11.2326666"><ele>756.0</ele><time>2026-04-16T05:20:00.969Z</time></trkpt><trkpt lat="43.8710493" lon="11.2326713"><ele>756.0</ele><time>2026-04-16T05:20:01.962Z</time></trkpt><trkpt lat="43.8709839" lon="11.2326651"><ele>756.0</ele><time>2026-04-16T05:20:02.967Z</time></trkpt><trkpt lat="43.8709208" lon="11.2326608"><ele>756.0</ele><time>2026-04-16T05:20:03.976Z</time></trkpt><trkpt lat="43.8707929" lon="11.2326323"><ele>756.0</ele><time>2026-04-16T05:20:06.029Z</time></trkpt><trkpt lat="43.8707268" lon="11.2326164"><ele>756.0</ele><time>2026-04-16T05:20:07.03Z</time></trkpt><trkpt lat="43.8706597" lon="11.2326042"><ele>753.8571428571429</ele><time>2026-04-16T05:20:07.971Z</time></trkpt><trkpt lat="43.8705955" lon="11.2326046"><ele>751.7142857142858</ele><time>2026-04-16T05:20:08.973Z</time></trkpt><trkpt lat="43.8705261" lon="11.232599"><ele>749.5714285714286</ele><time>2026-04-16T05:20:09.973Z</time></trkpt><trkpt lat="43.8704607" lon="11.2325959"><ele>747.4285714285714</ele><time>2026-04-16T05:20:10.985Z</time></trkpt><trkpt lat="43.8703945" lon="11.2326055"><ele>745.2857142857143</ele><time>2026-04-16T05:20:11.979Z</time></trkpt><trkpt lat="43.8703292" lon="11.2326187"><ele>743.1428571428571</ele><time>2026-04-16T05:20:12.975Z</time></trkpt><trkpt lat="43.8702269" lon="11.2326961"><ele>741.0</ele><time>2026-04-16T05:20:14.971Z</time></trkpt><trkpt lat="43.870131" lon="11.2327903"><ele>738.5999999999999</ele><time>2026-04-16T05:20:16.974Z</time></trkpt><trkpt lat="43.8700887" lon="11.2328594"><ele>736.2</ele><time>2026-04-16T05:20:17.977Z</time></trkpt><trkpt lat="43.8700216" lon="11.232995"><ele>733.8</ele><time>2026-04-16T05:20:20.036Z</time></trkpt><trkpt lat="43.8699757" lon="11.233152"><ele>731.4000000000001</ele><time>2026-04-16T05:20:21.973Z</time></trkpt><trkpt lat="43.8699458" lon="11.2333221"><ele>729.0</ele><time>2026-04-16T05:20:23.974Z</time></trkpt><trkpt lat="43.8699327" lon="11.2334097"><ele>729.0</ele><time>2026-04-16T05:20:24.977Z</time></trkpt><trkpt lat="43.869921" lon="11.2335006"><ele>729.0</ele><time>2026-04-16T05:20:25.981Z</time></trkpt><trkpt lat="43.8698984" lon="11.2336729"><ele>729.0</ele><time>2026-04-16T05:20:27.981Z</time></trkpt><trkpt lat="43.8698798" lon="11.2338444"><ele>729.0</ele><time>2026-04-16T05:20:29.992Z</time></trkpt><trkpt lat="43.8698764" lon="11.2340124"><ele>729.0</ele><time>2026-04-16T05:20:31.975Z</time></trkpt><trkpt lat="43.8698716" lon="11.2340997"><ele>730.5</ele><time>2026-04-16T05:20:32.968Z</time></trkpt><trkpt lat="43.8698706" lon="11.2342724"><ele>732.0</ele><time>2026-04-16T05:20:34.977Z</time></trkpt><trkpt lat="43.8698788" lon="11.2344398"><ele>733.5</ele><time>2026-04-16T05:20:37.036Z</time></trkpt><trkpt lat="43.8698869" lon="11.234597"><ele>735.0</ele><time>2026-04-16T05:20:38.982Z</time></trkpt><trkpt lat="43.8699115" lon="11.2347715"><ele>733.4285714285714</ele><time>2026-04-16T05:20:40.97Z</time></trkpt><trkpt lat="43.8699239" lon="11.2348574"><ele>731.8571428571429</ele><time>2026-04-16T05:20:41.974Z</time></trkpt><trkpt lat="43.8699376" lon="11.2349438"><ele>730.2857142857142</ele><time>2026-04-16T05:20:42.983Z</time></trkpt><trkpt lat="43.8699528" lon="11.2350341"><ele>728.7142857142858</ele><time>2026-04-16T05:20:43.98Z</time></trkpt><trkpt lat="43.8699669" lon="11.2351283"><ele>727.1428571428571</ele><time>2026-04-16T05:20:44.961Z</time></trkpt><trkpt lat="43.8699843" lon="11.2352152"><ele>725.5714285714286</ele><time>2026-04-16T05:20:45.987Z</time></trkpt><trkpt lat="43.8699948" lon="11.2353049"><ele>724.0</ele><time>2026-04-16T05:20:47.021Z</time></trkpt><trkpt lat="43.8700063" lon="11.2353932"><ele>724.0</ele><time>2026-04-16T05:20:47.967Z</time></trkpt><trkpt lat="43.8700216" lon="11.2354848"><ele>724.0</ele><time>2026-04-16T05:20:48.983Z</time></trkpt><trkpt lat="43.8700358" lon="11.2355824"><ele>724.0</ele><time>2026-04-16T05:20:49.987Z</time></trkpt><trkpt lat="43.8700447" lon="11.2356777"><ele>724.0</ele><time>2026-04-16T05:20:51.036Z</time></trkpt><trkpt lat="43.8700513" lon="11.2357737"><ele>724.0</ele><time>2026-04-16T05:20:51.969Z</time></trkpt><trkpt lat="43.8700586" lon="11.2358688"><ele>724.0</ele><time>2026-04-16T05:20:53.062Z</time></trkpt><trkpt lat="43.8700672" lon="11.2359632"><ele>724.0</ele><time>2026-04-16T05:20:53.973Z</time></trkpt><trkpt lat="43.8700752" lon="11.2360534"><ele>720.4000000000001</ele><time>2026-04-16T05:20:54.974Z</time></trkpt><trkpt lat="43.8700939" lon="11.2362239"><ele>716.8</ele><time>2026-04-16T05:20:56.979Z</time></trkpt><trkpt lat="43.8701011" lon="11.2363138"><ele>713.2</ele><time>2026-04-16T05:20:57.959Z</time></trkpt><trkpt lat="43.8701195" lon="11.2364937"><ele>709.5999999999999</ele><time>2026-04-16T05:20:59.976Z</time></trkpt><trkpt lat="43.8701264" lon="11.236589"><ele>706.0</ele><time>2026-04-16T05:21:00.979Z</time></trkpt><trkpt lat="43.8701256" lon="11.2367506"><ele>705.1999999999999</ele><time>2026-04-16T05:21:02.96Z</time></trkpt><trkpt lat="43.8700684" lon="11.2368745"><ele>704.4</ele><time>2026-04-16T05:21:04.984Z</time></trkpt><trkpt lat="43.8699532" lon="11.2369632"><ele>703.6</ele><time>2026-04-16T05:21:06.971Z</time></trkpt><trkpt lat="43.8698587" lon="11.237036"><ele>702.8</ele><time>2026-04-16T05:21:08.963Z</time></trkpt><trkpt lat="43.869803" lon="11.2370795"><ele>702.0</ele><time>2026-04-16T05:21:09.963Z</time></trkpt><trkpt lat="43.8697455" lon="11.2371181"><ele>702.0</ele><time>2026-04-16T05:21:10.985Z</time></trkpt><trkpt lat="43.8696769" lon="11.2371739"><ele>702.0</ele><time>2026-04-16T05:21:11.979Z</time></trkpt><trkpt lat="43.8696157" lon="11.2372284"><ele>702.0</ele><time>2026-04-16T05:21:13.028Z</time></trkpt><trkpt lat="43.8695542" lon="11.2372781"><ele>702.0</ele><time>2026-04-16T05:21:13.96Z</time></trkpt><trkpt lat="43.8694948" lon="11.237313"><ele>702.0</ele><time>2026-04-16T05:21:14.974Z</time></trkpt><trkpt lat="43.869378" lon="11.237385"><ele>702.0</ele><time>2026-04-16T05:21:16.978Z</time></trkpt><trkpt lat="43.8693192" lon="11.2374238"><ele>699.5</ele><time>2026-04-16T05:21:17.984Z</time></trkpt><trkpt lat="43.8692143" lon="11.2375098"><ele>697.0</ele><time>2026-04-16T05:21:19.968Z</time></trkpt><trkpt lat="43.869158" lon="11.237566"><ele>694.5</ele><time>2026-04-16T05:21:21Z</time></trkpt><trkpt lat="43.8691117" lon="11.2376261"><ele>692.0</ele><time>2026-04-16T05:21:21.97Z</time></trkpt><trkpt lat="43.8690621" lon="11.2376877"><ele>689.5</ele><time>2026-04-16T05:21:23.03Z</time></trkpt><trkpt lat="43.8689669" lon="11.2377959"><ele>687.0</ele><time>2026-04-16T05:21:24.974Z</time></trkpt><trkpt lat="43.8688874" lon="11.237926"><ele>687.0</ele><time>2026-04-16T05:21:26.977Z</time></trkpt><trkpt lat="43.8688538" lon="11.2380035"><ele>687.0</ele><time>2026-04-16T05:21:27.972Z</time></trkpt><trkpt lat="43.8688259" lon="11.2380874"><ele>687.0</ele><time>2026-04-16T05:21:28.976Z</time></trkpt><trkpt lat="43.868769" lon="11.2382403"><ele>687.0</ele><time>2026-04-16T05:21:30.978Z</time></trkpt><trkpt lat="43.8687324" lon="11.2383132"><ele>687.0</ele><time>2026-04-16T05:21:31.974Z</time></trkpt><trkpt lat="43.8686633" lon="11.2384417"><ele>687.0</ele><time>2026-04-16T05:21:33.987Z</time></trkpt><trkpt lat="43.8685914" lon="11.238541"><ele>686.1428571428572</ele><time>2026-04-16T05:21:35.98Z</time></trkpt><trkpt lat="43.868544" lon="11.2386012"><ele>685.2857142857142</ele><time>2026-04-16T05:21:36.969Z</time></trkpt><trkpt lat="43.8684868" lon="11.2386476"><ele>684.4285714285714</ele><time>2026-04-16T05:21:37.982Z</time></trkpt><trkpt lat="43.8684225" lon="11.238684"><ele>683.5714285714287</ele><time>2026-04-16T05:21:38.984Z</time></trkpt><trkpt lat="43.8683587" lon="11.2387308"><ele>682.7142857142858</ele><time>2026-04-16T05:21:39.974Z</time></trkpt><trkpt lat="43.8682966" lon="11.2387818"><ele>681.8571428571429</ele><time>2026-04-16T05:21:40.971Z</time></trkpt><trkpt lat="43.8682184" lon="11.2388223"><ele>681.0</ele><time>2026-04-16T05:21:41.98Z</time></trkpt><trkpt lat="43.8681328" lon="11.2388578"><ele>681.0</ele><time>2026-04-16T05:21:42.976Z</time></trkpt><trkpt lat="43.8680522" lon="11.2388899"><ele>681.0</ele><time>2026-04-16T05:21:43.961Z</time></trkpt><trkpt lat="43.8679747" lon="11.2389221"><ele>681.0</ele><time>2026-04-16T05:21:44.977Z</time></trkpt><trkpt lat="43.8678979" lon="11.2389532"><ele>681.0</ele><time>2026-04-16T05:21:45.987Z</time></trkpt><trkpt lat="43.8678191" lon="11.238985"><ele>681.0</ele><time>2026-04-16T05:21:46.972Z</time></trkpt><trkpt lat="43.8677443" lon="11.2390024"><ele>681.0</ele><time>2026-04-16T05:21:47.981Z</time></trkpt><trkpt lat="43.8676809" lon="11.2390255"><ele>681.1999999999999</ele><time>2026-04-16T05:21:48.978Z</time></trkpt><trkpt lat="43.8675687" lon="11.2390708"><ele>681.4</ele><time>2026-04-16T05:21:50.986Z</time></trkpt><trkpt lat="43.8675051" lon="11.2390874"><ele>681.6</ele><time>2026-04-16T05:21:51.984Z</time></trkpt><trkpt lat="43.8673863" lon="11.239149"><ele>681.8</ele><time>2026-04-16T05:21:53.963Z</time></trkpt><trkpt lat="43.8672639" lon="11.2391776"><ele>682.0</ele><time>2026-04-16T05:21:55.975Z</time></trkpt><trkpt lat="43.8671985" lon="11.2391816"><ele>682.0</ele><time>2026-04-16T05:21:56.989Z</time></trkpt><trkpt lat="43.8670886" lon="11.2391601"><ele>682.0</ele><time>2026-04-16T05:21:58.982Z</time></trkpt><trkpt lat="43.8669679" lon="11.2391564"><ele>682.0</ele><time>2026-04-16T05:22:00.979Z</time></trkpt><trkpt lat="43.866843" lon="11.2391681"><ele>682.0</ele><time>2026-04-16T05:22:02.98Z</time></trkpt><trkpt lat="43.866773" lon="11.2391808"><ele>682.0</ele><time>2026-04-16T05:22:03.988Z</time></trkpt><trkpt lat="43.866707" lon="11.2391977"><ele>681.6</ele><time>2026-04-16T05:22:04.983Z</time></trkpt><trkpt lat="43.8666451" lon="11.2392175"><ele>681.2</ele><time>2026-04-16T05:22:05.986Z</time></trkpt><trkpt lat="43.8665522" lon="11.2393001"><ele>680.8</ele><time>2026-04-16T05:22:07.982Z</time></trkpt><trkpt lat="43.8664786" lon="11.2394073"><ele>680.4</ele><time>2026-04-16T05:22:09.981Z</time></trkpt><trkpt lat="43.8664027" lon="11.2395275"><ele>680.0</ele><time>2026-04-16T05:22:11.992Z</time></trkpt><trkpt lat="43.8663375" lon="11.2396636"><ele>680.5</ele><time>2026-04-16T05:22:13.996Z</time></trkpt><trkpt lat="43.8662771" lon="11.2398032"><ele>681.0</ele><time>2026-04-16T05:22:15.982Z</time></trkpt><trkpt lat="43.8662475" lon="11.2399302"><ele>681.5</ele><time>2026-04-16T05:22:17.973Z</time></trkpt><trkpt lat="43.8662773" lon="11.2400245"><ele>682.0</ele><time>2026-04-16T05:22:20.978Z</time></trkpt><trkpt lat="43.8663306" lon="11.2400785"><ele>682.5</ele><time>2026-04-16T05:22:42.99Z</time></trkpt><trkpt lat="43.8663647" lon="11.2401665"><ele>683.0</ele><time>2026-04-16T05:22:46.968Z</time></trkpt><trkpt lat="43.8663634" lon="11.2402561"><ele>683.0</ele><time>2026-04-16T05:22:49.975Z</time></trkpt><trkpt lat="43.8663307" lon="11.2403826"><ele>683.0</ele><time>2026-04-16T05:22:52.978Z</time></trkpt><trkpt lat="43.8662888" lon="11.2404947"><ele>683.0</ele><time>2026-04-16T05:22:55.988Z</time></trkpt><trkpt lat="43.8662606" lon="11.2405861"><ele>683.0</ele><time>2026-04-16T05:22:58Z</time></trkpt><trkpt lat="43.8662688" lon="11.2407107"><ele>683.0</ele><time>2026-04-16T05:23:00.983Z</time></trkpt><trkpt lat="43.8663138" lon="11.240772"><ele>683.0</ele><time>2026-04-16T05:23:03.986Z</time></trkpt><trkpt lat="43.8663924" lon="11.2407564"><ele>680.8333333333333</ele><time>2026-04-16T05:23:08.956Z</time></trkpt><trkpt lat="43.86647" lon="11.2407497"><ele>678.6666666666666</ele><time>2026-04-16T05:23:11.97Z</time></trkpt><trkpt lat="43.8665414" lon="11.2407786"><ele>676.5</ele><time>2026-04-16T05:23:14.994Z</time></trkpt><trkpt lat="43.8666109" lon="11.2408263"><ele>674.3333333333334</ele><time>2026-04-16T05:23:17.964Z</time></trkpt><trkpt lat="43.8666797" lon="11.2408672"><ele>672.1666666666667</ele><time>2026-04-16T05:23:20.972Z</time></trkpt><trkpt lat="43.8667454" lon="11.2409106"><ele>670.0</ele><time>2026-04-16T05:23:22.96Z</time></trkpt><trkpt lat="43.8668109" lon="11.240954"><ele>670.0</ele><time>2026-04-16T05:23:24.963Z</time></trkpt><trkpt lat="43.8668666" lon="11.2410155"><ele>670.0</ele><time>2026-04-16T05:23:26.953Z</time></trkpt><trkpt lat="43.8669279" lon="11.241077"><ele>670.0</ele><time>2026-04-16T05:23:28.966Z</time></trkpt><trkpt lat="43.8669684" lon="11.2411721"><ele>670.0</ele><time>2026-04-16T05:23:31.949Z</time></trkpt><trkpt lat="43.867017" lon="11.2412798"><ele>670.0</ele><time>2026-04-16T05:23:34.95Z</time></trkpt><trkpt lat="43.8670546" lon="11.2413645"><ele>670.0</ele><time>2026-04-16T05:23:36.96Z</time></trkpt><trkpt lat="43.8671114" lon="11.2414256"><ele>665.0</ele><time>2026-04-16T05:23:38.954Z</time></trkpt><trkpt lat="43.8672003" lon="11.2414828"><ele>660.0</ele><time>2026-04-16T05:23:42.033Z</time></trkpt><trkpt lat="43.8672621" lon="11.2415404"><ele>655.0</ele><time>2026-04-16T05:23:43.962Z</time></trkpt><trkpt lat="43.8673362" lon="11.2416332"><ele>650.0</ele><time>2026-04-16T05:23:46.95Z</time></trkpt><trkpt lat="43.8673993" lon="11.2417183"><ele>645.0</ele><time>2026-04-16T05:23:48.969Z</time></trkpt><trkpt lat="43.8674732" lon="11.2418157"><ele>645.0</ele><time>2026-04-16T05:23:51.018Z</time></trkpt><trkpt lat="43.8675133" lon="11.2419188"><ele>645.0</ele><time>2026-04-16T05:23:53.026Z</time></trkpt><trkpt lat="43.8675187" lon="11.24203"><ele>645.0</ele><time>2026-04-16T05:23:54.963Z</time></trkpt><trkpt lat="43.8675168" lon="11.2421514"><ele>645.0</ele><time>2026-04-16T05:23:56.973Z</time></trkpt><trkpt lat="43.8675108" lon="11.2422554"><ele>645.0</ele><time>2026-04-16T05:23:58.958Z</time></trkpt><trkpt lat="43.8674768" lon="11.2423382"><ele>645.0</ele><time>2026-04-16T05:24:00.961Z</time></trkpt><trkpt lat="43.867441" lon="11.2424394"><ele>643.2</ele><time>2026-04-16T05:24:02.966Z</time></trkpt><trkpt lat="43.8674306" lon="11.2425289"><ele>641.4</ele><time>2026-04-16T05:24:03.977Z</time></trkpt><trkpt lat="43.8674059" lon="11.2426604"><ele>639.6</ele><time>2026-04-16T05:24:05.95Z</time></trkpt><trkpt lat="43.8673833" lon="11.2427763"><ele>637.8</ele><time>2026-04-16T05:24:07.958Z</time></trkpt><trkpt lat="43.867345" lon="11.2429208"><ele>636.0</ele><time>2026-04-16T05:24:09.952Z</time></trkpt><trkpt lat="43.8672961" lon="11.2430485"><ele>638.2857142857142</ele><time>2026-04-16T05:24:11.969Z</time></trkpt><trkpt lat="43.8672617" lon="11.2431328"><ele>640.5714285714287</ele><time>2026-04-16T05:24:12.969Z</time></trkpt><trkpt lat="43.8672222" lon="11.2432218"><ele>642.8571428571429</ele><time>2026-04-16T05:24:13.967Z</time></trkpt><trkpt lat="43.8671915" lon="11.2433122"><ele>645.1428571428571</ele><time>2026-04-16T05:24:14.96Z</time></trkpt><trkpt lat="43.8671636" lon="11.2434025"><ele>647.4285714285713</ele><time>2026-04-16T05:24:15.961Z</time></trkpt><trkpt lat="43.8671264" lon="11.2434927"><ele>649.7142857142858</ele><time>2026-04-16T05:24:16.972Z</time></trkpt><trkpt lat="43.867099" lon="11.2435837"><ele>652.0</ele><time>2026-04-16T05:24:17.984Z</time></trkpt><trkpt lat="43.8670727" lon="11.2436751"><ele>652.0</ele><time>2026-04-16T05:24:18.965Z</time></trkpt><trkpt lat="43.8670463" lon="11.2437643"><ele>652.0</ele><time>2026-04-16T05:24:19.965Z</time></trkpt><trkpt lat="43.867014" lon="11.2439309"><ele>652.0</ele><time>2026-04-16T05:24:21.966Z</time></trkpt><trkpt lat="43.8669935" lon="11.2440302"><ele>652.0</ele><time>2026-04-16T05:24:22.959Z</time></trkpt><trkpt lat="43.8669743" lon="11.2441266"><ele>652.0</ele><time>2026-04-16T05:24:23.964Z</time></trkpt><trkpt lat="43.8669609" lon="11.2442205"><ele>652.0</ele><time>2026-04-16T05:24:24.966Z</time></trkpt><trkpt lat="43.8669582" lon="11.244312"><ele>654.2</ele><time>2026-04-16T05:24:25.955Z</time></trkpt><trkpt lat="43.8669561" lon="11.2444734"><ele>656.4000000000001</ele><time>2026-04-16T05:24:27.969Z</time></trkpt><trkpt lat="43.8669909" lon="11.2446399"><ele>658.5999999999999</ele><time>2026-04-16T05:24:29.97Z</time></trkpt><trkpt lat="43.8669972" lon="11.2447296"><ele>660.8</ele><time>2026-04-16T05:24:30.972Z</time></trkpt><trkpt lat="43.8670014" lon="11.244901"><ele>663.0</ele><time>2026-04-16T05:24:32.97Z</time></trkpt><trkpt lat="43.867004" lon="11.2450071"><ele>663.5</ele><time>2026-04-16T05:24:33.971Z</time></trkpt><trkpt lat="43.8670011" lon="11.2451113"><ele>664.0</ele><time>2026-04-16T05:24:34.969Z</time></trkpt><trkpt lat="43.8669946" lon="11.2452254"><ele>664.5</ele><time>2026-04-16T05:24:35.963Z</time></trkpt><trkpt lat="43.8669928" lon="11.2453359"><ele>665.0</ele><time>2026-04-16T05:24:36.965Z</time></trkpt><trkpt lat="43.8669882" lon="11.2454403"><ele>665.5</ele><time>2026-04-16T05:24:38.029Z</time></trkpt><trkpt lat="43.8669844" lon="11.245537"><ele>666.0</ele><time>2026-04-16T05:24:39.03Z</time></trkpt><trkpt lat="43.866986" lon="11.2456926"><ele>666.0</ele><time>2026-04-16T05:24:40.966Z</time></trkpt><trkpt lat="43.86699" lon="11.24578"><ele>666.0</ele><time>2026-04-16T05:24:41.973Z</time></trkpt><trkpt lat="43.8670045" lon="11.2459321"><ele>666.0</ele><time>2026-04-16T05:24:44.043Z</time></trkpt><trkpt lat="43.86703" lon="11.2460895"><ele>666.0</ele><time>2026-04-16T05:24:45.969Z</time></trkpt><trkpt lat="43.867032" lon="11.2462468"><ele>666.0</ele><time>2026-04-16T05:24:47.964Z</time></trkpt><trkpt lat="43.8670203" lon="11.2464166"><ele>665.5999999999999</ele><time>2026-04-16T05:24:49.978Z</time></trkpt><trkpt lat="43.8670095" lon="11.2465811"><ele>665.2</ele><time>2026-04-16T05:24:51.966Z</time></trkpt><trkpt lat="43.8670205" lon="11.2467624"><ele>664.8</ele><time>2026-04-16T05:24:53.965Z</time></trkpt><trkpt lat="43.8670211" lon="11.2468529"><ele>664.4000000000001</ele><time>2026-04-16T05:24:54.967Z</time></trkpt><trkpt lat="43.8670205" lon="11.2470125"><ele>664.0</ele><time>2026-04-16T05:24:56.967Z</time></trkpt><trkpt lat="43.8670167" lon="11.2471035"><ele>664.0</ele><time>2026-04-16T05:24:57.966Z</time></trkpt><trkpt lat="43.8670054" lon="11.2472631"><ele>664.0</ele><time>2026-04-16T05:24:59.965Z</time></trkpt><trkpt lat="43.8669752" lon="11.2474203"><ele>664.0</ele><time>2026-04-16T05:25:01.965Z</time></trkpt><trkpt lat="43.8669516" lon="11.2475048"><ele>664.0</ele><time>2026-04-16T05:25:02.952Z</time></trkpt><trkpt lat="43.8669151" lon="11.2476486"><ele>664.0</ele><time>2026-04-16T05:25:04.967Z</time></trkpt><trkpt lat="43.8668843" lon="11.2478058"><ele>664.0</ele><time>2026-04-16T05:25:06.969Z</time></trkpt><trkpt lat="43.866868" lon="11.2479628"><ele>664.0</ele><time>2026-04-16T05:25:08.967Z</time></trkpt><trkpt lat="43.8668731" lon="11.2481453"><ele>664.0</ele><time>2026-04-16T05:25:10.972Z</time></trkpt><trkpt lat="43.8668757" lon="11.2482395"><ele>664.0</ele><time>2026-04-16T05:25:11.962Z</time></trkpt><trkpt lat="43.8668707" lon="11.2483378"><ele>664.0</ele><time>2026-04-16T05:25:12.96Z</time></trkpt><trkpt lat="43.8668768" lon="11.2484448"><ele>664.1666666666667</ele><time>2026-04-16T05:25:13.966Z</time></trkpt><trkpt lat="43.8668665" lon="11.2485532"><ele>664.3333333333334</ele><time>2026-04-16T05:25:14.96Z</time></trkpt><trkpt lat="43.8668585" lon="11.2486708"><ele>664.5</ele><time>2026-04-16T05:25:15.967Z</time></trkpt><trkpt lat="43.8668601" lon="11.2487669"><ele>664.6666666666666</ele><time>2026-04-16T05:25:16.973Z</time></trkpt><trkpt lat="43.866863" lon="11.2489294"><ele>664.8333333333333</ele><time>2026-04-16T05:25:18.972Z</time></trkpt><trkpt lat="43.8668664" lon="11.2490168"><ele>665.0</ele><time>2026-04-16T05:25:19.948Z</time></trkpt><trkpt lat="43.8668726" lon="11.2491093"><ele>665.0</ele><time>2026-04-16T05:25:20.973Z</time></trkpt><trkpt lat="43.8668732" lon="11.249211"><ele>665.0</ele><time>2026-04-16T05:25:21.972Z</time></trkpt><trkpt lat="43.8668677" lon="11.2493141"><ele>665.0</ele><time>2026-04-16T05:25:22.969Z</time></trkpt><trkpt lat="43.8668488" lon="11.2494171"><ele>665.0</ele><time>2026-04-16T05:25:23.993Z</time></trkpt><trkpt lat="43.8668276" lon="11.2495123"><ele>665.0</ele><time>2026-04-16T05:25:24.963Z</time></trkpt><trkpt lat="43.8668023" lon="11.2496126"><ele>665.0</ele><time>2026-04-16T05:25:25.967Z</time></trkpt><trkpt lat="43.8667869" lon="11.2497121"><ele>665.0</ele><time>2026-04-16T05:25:26.972Z</time></trkpt><trkpt lat="43.8667648" lon="11.24981"><ele>658.2</ele><time>2026-04-16T05:25:27.961Z</time></trkpt><trkpt lat="43.8667368" lon="11.2498971"><ele>651.4</ele><time>2026-04-16T05:25:28.968Z</time></trkpt><trkpt lat="43.8667195" lon="11.2499886"><ele>644.6</ele><time>2026-04-16T05:25:29.967Z</time></trkpt><trkpt lat="43.8667155" lon="11.2501496"><ele>637.8</ele><time>2026-04-16T05:25:31.96Z</time></trkpt><trkpt lat="43.8667322" lon="11.2502996"><ele>631.0</ele><time>2026-04-16T05:25:33.972Z</time></trkpt><trkpt lat="43.866749" lon="11.2504494"><ele>631.0</ele><time>2026-04-16T05:25:35.962Z</time></trkpt><trkpt lat="43.8667751" lon="11.2506154"><ele>631.0</ele><time>2026-04-16T05:25:37.971Z</time></trkpt><trkpt lat="43.866792" lon="11.2507018"><ele>631.0</ele><time>2026-04-16T05:25:38.99Z</time></trkpt><trkpt lat="43.866819" lon="11.2507833"><ele>631.0</ele><time>2026-04-16T05:25:39.966Z</time></trkpt><trkpt lat="43.8668439" lon="11.2508667"><ele>631.0</ele><time>2026-04-16T05:25:40.967Z</time></trkpt><trkpt lat="43.8668739" lon="11.2509477"><ele>631.0</ele><time>2026-04-16T05:25:41.965Z</time></trkpt><trkpt lat="43.8669215" lon="11.2511045"><ele>630.0</ele><time>2026-04-16T05:25:43.968Z</time></trkpt><trkpt lat="43.8669513" lon="11.2511857"><ele>629.0</ele><time>2026-04-16T05:25:44.969Z</time></trkpt><trkpt lat="43.8669956" lon="11.2513299"><ele>628.0</ele><time>2026-04-16T05:25:46.968Z</time></trkpt><trkpt lat="43.8670311" lon="11.2514588"><ele>627.0</ele><time>2026-04-16T05:25:48.977Z</time></trkpt><trkpt lat="43.8670269" lon="11.2516026"><ele>626.0</ele><time>2026-04-16T05:25:50.964Z</time></trkpt><trkpt lat="43.8669889" lon="11.2517545"><ele>626.0</ele><time>2026-04-16T05:25:53.028Z</time></trkpt><trkpt lat="43.8669313" lon="11.2518973"><ele>626.0</ele><time>2026-04-16T05:25:54.955Z</time></trkpt><trkpt lat="43.8668952" lon="11.2519693"><ele>626.0</ele><time>2026-04-16T05:25:55.976Z</time></trkpt><trkpt lat="43.866847" lon="11.2520374"><ele>626.0</ele><time>2026-04-16T05:25:56.973Z</time></trkpt><trkpt lat="43.8667978" lon="11.2521142"><ele>626.0</ele><time>2026-04-16T05:25:57.97Z</time></trkpt><trkpt lat="43.8667506" lon="11.252189"><ele>626.0</ele><time>2026-04-16T05:25:58.964Z</time></trkpt><trkpt lat="43.8667081" lon="11.252268"><ele>624.8333333333333</ele><time>2026-04-16T05:25:59.966Z</time></trkpt><trkpt lat="43.8666471" lon="11.2524023"><ele>623.6666666666666</ele><time>2026-04-16T05:26:01.969Z</time></trkpt><trkpt lat="43.8666712" lon="11.252491"><ele>622.5</ele><time>2026-04-16T05:26:04.044Z</time></trkpt><trkpt lat="43.866727" lon="11.2525463"><ele>621.3333333333334</ele><time>2026-04-16T05:26:05.969Z</time></trkpt><trkpt lat="43.8668037" lon="11.2526124"><ele>620.1666666666667</ele><time>2026-04-16T05:26:07.966Z</time></trkpt><trkpt lat="43.8668915" lon="11.2526323"><ele>619.0</ele><time>2026-04-16T05:26:09.961Z</time></trkpt><trkpt lat="43.8669747" lon="11.2527053"><ele>618.1666666666667</ele><time>2026-04-16T05:26:11.967Z</time></trkpt><trkpt lat="43.8670607" lon="11.2527109"><ele>617.3333333333334</ele><time>2026-04-16T05:26:13.975Z</time></trkpt><trkpt lat="43.8671255" lon="11.2526825"><ele>616.5</ele><time>2026-04-16T05:26:15.973Z</time></trkpt><trkpt lat="43.8671905" lon="11.2526369"><ele>615.6666666666666</ele><time>2026-04-16T05:26:17.981Z</time></trkpt><trkpt lat="43.8672616" lon="11.2525882"><ele>614.8333333333333</ele><time>2026-04-16T05:26:19.97Z</time></trkpt><trkpt lat="43.8673512" lon="11.2525397"><ele>614.0</ele><time>2026-04-16T05:26:21.953Z</time></trkpt><trkpt lat="43.8674219" lon="11.2524809"><ele>614.0</ele><time>2026-04-16T05:26:23.971Z</time></trkpt><trkpt lat="43.8674853" lon="11.2524224"><ele>614.0</ele><time>2026-04-16T05:26:25.974Z</time></trkpt><trkpt lat="43.8675731" lon="11.252389"><ele>614.0</ele><time>2026-04-16T05:26:27.971Z</time></trkpt><trkpt lat="43.8676416" lon="11.2523763"><ele>614.0</ele><time>2026-04-16T05:26:29.966Z</time></trkpt><trkpt lat="43.8677242" lon="11.2523621"><ele>614.0</ele><time>2026-04-16T05:26:32.967Z</time></trkpt><trkpt lat="43.8678176" lon="11.2523254"><ele>614.0</ele><time>2026-04-16T05:26:35.971Z</time></trkpt><trkpt lat="43.8679103" lon="11.2523168"><ele>611.6666666666666</ele><time>2026-04-16T05:26:37.96Z</time></trkpt><trkpt lat="43.8679739" lon="11.2523281"><ele>609.3333333333333</ele><time>2026-04-16T05:26:39.038Z</time></trkpt><trkpt lat="43.8680361" lon="11.2523659"><ele>607.0</ele><time>2026-04-16T05:26:39.982Z</time></trkpt><trkpt lat="43.8681526" lon="11.2524618"><ele>604.6666666666666</ele><time>2026-04-16T05:26:41.965Z</time></trkpt><trkpt lat="43.8682094" lon="11.2525095"><ele>602.3333333333334</ele><time>2026-04-16T05:26:42.972Z</time></trkpt><trkpt lat="43.8682583" lon="11.2525652"><ele>600.0</ele><time>2026-04-16T05:26:43.973Z</time></trkpt><trkpt lat="43.8683435" lon="11.2526819"><ele>600.0</ele><time>2026-04-16T05:26:45.965Z</time></trkpt><trkpt lat="43.8684189" lon="11.2527983"><ele>600.0</ele><time>2026-04-16T05:26:47.969Z</time></trkpt><trkpt lat="43.8684922" lon="11.252912"><ele>600.0</ele><time>2026-04-16T05:26:49.975Z</time></trkpt><trkpt lat="43.8685701" lon="11.2530211"><ele>600.0</ele><time>2026-04-16T05:26:51.964Z</time></trkpt><trkpt lat="43.8686512" lon="11.2531017"><ele>600.0</ele><time>2026-04-16T05:26:53.957Z</time></trkpt><trkpt lat="43.868746" lon="11.2531523"><ele>598.5</ele><time>2026-04-16T05:26:55.959Z</time></trkpt><trkpt lat="43.868811" lon="11.2532395"><ele>597.0</ele><time>2026-04-16T05:26:57.966Z</time></trkpt><trkpt lat="43.8688053" lon="11.2533547"><ele>595.5</ele><time>2026-04-16T05:26:59.949Z</time></trkpt><trkpt lat="43.868722" lon="11.2533386"><ele>594.0</ele><time>2026-04-16T05:27:03.96Z</time></trkpt><trkpt lat="43.8686518" lon="11.2533419"><ele>592.5</ele><time>2026-04-16T05:27:07.027Z</time></trkpt><trkpt lat="43.8685854" lon="11.2533319"><ele>591.0</ele><time>2026-04-16T05:27:09.032Z</time></trkpt><trkpt lat="43.8685122" lon="11.253336"><ele>591.0</ele><time>2026-04-16T05:27:11.957Z</time></trkpt><trkpt lat="43.8685681" lon="11.2534435"><ele>591.0</ele><time>2026-04-16T05:27:15.963Z</time></trkpt><trkpt lat="43.8686319" lon="11.2535516"><ele>591.0</ele><time>2026-04-16T05:27:18.036Z</time></trkpt><trkpt lat="43.868684" lon="11.253661"><ele>591.0</ele><time>2026-04-16T05:27:19.958Z</time></trkpt><trkpt lat="43.8687479" lon="11.2537706"><ele>591.0</ele><time>2026-04-16T05:27:21.96Z</time></trkpt><trkpt lat="43.8688081" lon="11.253872"><ele>591.0</ele><time>2026-04-16T05:27:23.955Z</time></trkpt><trkpt lat="43.8688614" lon="11.2539476"><ele>591.0</ele><time>2026-04-16T05:27:25.959Z</time></trkpt><trkpt lat="43.8689175" lon="11.2540002"><ele>591.0</ele><time>2026-04-16T05:27:28.044Z</time></trkpt><trkpt lat="43.868984" lon="11.2540839"><ele>591.0</ele><time>2026-04-16T05:27:29.967Z</time></trkpt><trkpt lat="43.8690474" lon="11.2541231"><ele>591.0</ele><time>2026-04-16T05:27:32.965Z</time></trkpt><trkpt lat="43.8690902" lon="11.2541978"><ele>591.0</ele><time>2026-04-16T05:27:38.066Z</time></trkpt><trkpt lat="43.8691561" lon="11.2542778"><ele>585.6</ele><time>2026-04-16T05:27:39.96Z</time></trkpt><trkpt lat="43.8692367" lon="11.254364"><ele>580.2</ele><time>2026-04-16T05:27:41.964Z</time></trkpt><trkpt lat="43.869312" lon="11.2544458"><ele>574.8</ele><time>2026-04-16T05:27:44.032Z</time></trkpt><trkpt lat="43.8693938" lon="11.254522"><ele>569.4</ele><time>2026-04-16T05:27:45.97Z</time></trkpt><trkpt lat="43.8694769" lon="11.2545835"><ele>564.0</ele><time>2026-04-16T05:27:47.966Z</time></trkpt><trkpt lat="43.8695573" lon="11.2546142"><ele>564.0</ele><time>2026-04-16T05:27:49.963Z</time></trkpt><trkpt lat="43.8696274" lon="11.2546503"><ele>564.0</ele><time>2026-04-16T05:27:51.962Z</time></trkpt><trkpt lat="43.8696979" lon="11.2546815"><ele>564.0</ele><time>2026-04-16T05:27:53.972Z</time></trkpt><trkpt lat="43.869765" lon="11.2547013"><ele>564.0</ele><time>2026-04-16T05:27:55.956Z</time></trkpt><trkpt lat="43.8698564" lon="11.2547314"><ele>564.0</ele><time>2026-04-16T05:27:58.969Z</time></trkpt><trkpt lat="43.8699458" lon="11.2547674"><ele>564.0</ele><time>2026-04-16T05:28:01.965Z</time></trkpt><trkpt lat="43.8700104" lon="11.2547913"><ele>558.2</ele><time>2026-04-16T05:28:03.967Z</time></trkpt><trkpt lat="43.8700768" lon="11.2548234"><ele>552.4</ele><time>2026-04-16T05:28:05.964Z</time></trkpt><trkpt lat="43.8701861" lon="11.2548874"><ele>546.6</ele><time>2026-04-16T05:28:07.962Z</time></trkpt><trkpt lat="43.8702788" lon="11.2549972"><ele>540.8</ele><time>2026-04-16T05:28:09.959Z</time></trkpt><trkpt lat="43.8703694" lon="11.2550944"><ele>535.0</ele><time>2026-04-16T05:28:11.977Z</time></trkpt><trkpt lat="43.8704646" lon="11.255171"><ele>535.0</ele><time>2026-04-16T05:28:14.032Z</time></trkpt><trkpt lat="43.8705612" lon="11.2552443"><ele>535.0</ele><time>2026-04-16T05:28:15.961Z</time></trkpt><trkpt lat="43.8706445" lon="11.2553389"><ele>535.0</ele><time>2026-04-16T05:28:17.957Z</time></trkpt><trkpt lat="43.870738" lon="11.2554321"><ele>535.0</ele><time>2026-04-16T05:28:19.96Z</time></trkpt><trkpt lat="43.8708307" lon="11.255501"><ele>535.0</ele><time>2026-04-16T05:28:22.033Z</time></trkpt><trkpt lat="43.8709201" lon="11.2555574"><ele>530.4</ele><time>2026-04-16T05:28:24.036Z</time></trkpt><trkpt lat="43.8710051" lon="11.2555814"><ele>525.8</ele><time>2026-04-16T05:28:25.954Z</time></trkpt><trkpt lat="43.8711066" lon="11.2555865"><ele>521.2</ele><time>2026-04-16T05:28:27.967Z</time></trkpt><trkpt lat="43.8712052" lon="11.2555911"><ele>516.6</ele><time>2026-04-16T05:28:29.96Z</time></trkpt><trkpt lat="43.8713023" lon="11.2555716"><ele>512.0</ele><time>2026-04-16T05:28:31.964Z</time></trkpt><trkpt lat="43.8714035" lon="11.2555586"><ele>511.99999999999994</ele><time>2026-04-16T05:28:33.955Z</time></trkpt><trkpt lat="43.8714916" lon="11.2555563"><ele>512.0</ele><time>2026-04-16T05:28:35.955Z</time></trkpt><trkpt lat="43.8715562" lon="11.2555746"><ele>512.0</ele><time>2026-04-16T05:28:37.963Z</time></trkpt><trkpt lat="43.8716252" lon="11.2555898"><ele>512.0</ele><time>2026-04-16T05:29:35.976Z</time></trkpt><trkpt lat="43.8717362" lon="11.2555587"><ele>511.99999999999994</ele><time>2026-04-16T05:29:38.985Z</time></trkpt><trkpt lat="43.871841" lon="11.2555204"><ele>512.0</ele><time>2026-04-16T05:29:41.036Z</time></trkpt><trkpt lat="43.871955" lon="11.2554593"><ele>510.3333333333333</ele><time>2026-04-16T05:29:42.974Z</time></trkpt><trkpt lat="43.8720197" lon="11.2554362"><ele>508.66666666666663</ele><time>2026-04-16T05:29:43.975Z</time></trkpt><trkpt lat="43.8720859" lon="11.2554134"><ele>507.0</ele><time>2026-04-16T05:29:44.97Z</time></trkpt><trkpt lat="43.8721558" lon="11.2553984"><ele>505.33333333333337</ele><time>2026-04-16T05:29:45.979Z</time></trkpt><trkpt lat="43.8722251" lon="11.2553805"><ele>503.6666666666667</ele><time>2026-04-16T05:29:47.032Z</time></trkpt><trkpt lat="43.8723463" lon="11.255349"><ele>502.0</ele><time>2026-04-16T05:29:49.029Z</time></trkpt><trkpt lat="43.8724057" lon="11.255319"><ele>502.00000000000006</ele><time>2026-04-16T05:29:49.953Z</time></trkpt><trkpt lat="43.8724613" lon="11.2552743"><ele>502.0</ele><time>2026-04-16T05:29:50.959Z</time></trkpt><trkpt lat="43.8725543" lon="11.2551895"><ele>502.0</ele><time>2026-04-16T05:29:52.962Z</time></trkpt><trkpt lat="43.8725975" lon="11.2551181"><ele>502.0</ele><time>2026-04-16T05:29:54.963Z</time></trkpt><trkpt lat="43.8726331" lon="11.2550004"><ele>502.00000000000006</ele><time>2026-04-16T05:29:57.97Z</time></trkpt><trkpt lat="43.8726654" lon="11.2548986"><ele>502.0</ele><time>2026-04-16T05:29:59.959Z</time></trkpt><trkpt lat="43.8727033" lon="11.2547647"><ele>501.20000000000005</ele><time>2026-04-16T05:30:01.959Z</time></trkpt><trkpt lat="43.8727432" lon="11.2546131"><ele>500.40000000000003</ele><time>2026-04-16T05:30:03.973Z</time></trkpt><trkpt lat="43.872803" lon="11.2545077"><ele>499.59999999999997</ele><time>2026-04-16T05:30:05.973Z</time></trkpt><trkpt lat="43.8729014" lon="11.2544412"><ele>498.79999999999995</ele><time>2026-04-16T05:30:07.987Z</time></trkpt><trkpt lat="43.8730079" lon="11.2543978"><ele>498.0</ele><time>2026-04-16T05:30:09.971Z</time></trkpt><trkpt lat="43.8730826" lon="11.2543659"><ele>498.0</ele><time>2026-04-16T05:30:10.967Z</time></trkpt><trkpt lat="43.8731596" lon="11.2543375"><ele>498.0</ele><time>2026-04-16T05:30:11.958Z</time></trkpt><trkpt lat="43.8732349" lon="11.254307"><ele>498.0</ele><time>2026-04-16T05:30:13.028Z</time></trkpt><trkpt lat="43.8733006" lon="11.2542851"><ele>498.0</ele><time>2026-04-16T05:30:14.056Z</time></trkpt><trkpt lat="43.8733667" lon="11.2542721"><ele>498.0</ele><time>2026-04-16T05:30:14.966Z</time></trkpt><trkpt lat="43.8734761" lon="11.2542223"><ele>498.0</ele><time>2026-04-16T05:30:16.958Z</time></trkpt><trkpt lat="43.8735642" lon="11.254123"><ele>496.4</ele><time>2026-04-16T05:30:19.033Z</time></trkpt><trkpt lat="43.8736321" lon="11.2540257"><ele>494.79999999999995</ele><time>2026-04-16T05:30:20.959Z</time></trkpt><trkpt lat="43.8737298" lon="11.2540039"><ele>493.2</ele><time>2026-04-16T05:30:23.027Z</time></trkpt><trkpt lat="43.8738556" lon="11.2539911"><ele>491.6</ele><time>2026-04-16T05:30:24.958Z</time></trkpt><trkpt lat="43.8739579" lon="11.2539791"><ele>490.0</ele><time>2026-04-16T05:30:26.965Z</time></trkpt><trkpt lat="43.8740435" lon="11.2539631"><ele>492.6</ele><time>2026-04-16T05:30:29.034Z</time></trkpt><trkpt lat="43.8741358" lon="11.2538987"><ele>495.2</ele><time>2026-04-16T05:30:30.967Z</time></trkpt><trkpt lat="43.8742447" lon="11.2538168"><ele>497.79999999999995</ele><time>2026-04-16T05:30:33.036Z</time></trkpt><trkpt lat="43.8743234" lon="11.2537566"><ele>500.4</ele><time>2026-04-16T05:30:34.966Z</time></trkpt><trkpt lat="43.8743706" lon="11.2536374"><ele>503.0</ele><time>2026-04-16T05:30:37.978Z</time></trkpt><trkpt lat="43.87442" lon="11.2535408"><ele>502.99999999999994</ele><time>2026-04-16T05:30:39.97Z</time></trkpt><trkpt lat="43.8745095" lon="11.2534391"><ele>503.0</ele><time>2026-04-16T05:30:41.962Z</time></trkpt><trkpt lat="43.8745871" lon="11.2534212"><ele>503.0</ele><time>2026-04-16T05:30:42.983Z</time></trkpt><trkpt lat="43.8746632" lon="11.2534196"><ele>503.0</ele><time>2026-04-16T05:30:43.977Z</time></trkpt><trkpt lat="43.8747458" lon="11.2534244"><ele>502.99999999999994</ele><time>2026-04-16T05:30:44.971Z</time></trkpt><trkpt lat="43.8748324" lon="11.2534341"><ele>503.0</ele><time>2026-04-16T05:30:45.981Z</time></trkpt><trkpt lat="43.874922" lon="11.2534271"><ele>502.99999999999994</ele><time>2026-04-16T05:30:46.989Z</time></trkpt><trkpt lat="43.8750167" lon="11.2534011"><ele>503.0</ele><time>2026-04-16T05:30:47.966Z</time></trkpt><trkpt lat="43.8751079" lon="11.2533596"><ele>503.0</ele><time>2026-04-16T05:30:49.035Z</time></trkpt><trkpt lat="43.8751879" lon="11.2533213"><ele>503.0</ele><time>2026-04-16T05:30:49.982Z</time></trkpt><trkpt lat="43.8752632" lon="11.2532932"><ele>502.99999999999994</ele><time>2026-04-16T05:30:50.974Z</time></trkpt><trkpt lat="43.8753326" lon="11.2532915"><ele>503.0</ele><time>2026-04-16T05:30:51.98Z</time></trkpt><trkpt lat="43.8753984" lon="11.2533017"><ele>504.59999999999997</ele><time>2026-04-16T05:30:52.977Z</time></trkpt><trkpt lat="43.8755211" lon="11.2533095"><ele>506.19999999999993</ele><time>2026-04-16T05:30:54.965Z</time></trkpt><trkpt lat="43.8756262" lon="11.253344"><ele>507.8</ele><time>2026-04-16T05:30:56.962Z</time></trkpt><trkpt lat="43.8757196" lon="11.2533997"><ele>509.4</ele><time>2026-04-16T05:30:58.981Z</time></trkpt><trkpt lat="43.8757974" lon="11.2534831"><ele>511.0</ele><time>2026-04-16T05:31:00.982Z</time></trkpt><trkpt lat="43.8758867" lon="11.2535793"><ele>513.0</ele><time>2026-04-16T05:31:02.968Z</time></trkpt><trkpt lat="43.8759398" lon="11.2536377"><ele>515.0</ele><time>2026-04-16T05:31:03.971Z</time></trkpt><trkpt lat="43.8759922" lon="11.2536939"><ele>517.0</ele><time>2026-04-16T05:31:04.983Z</time></trkpt><trkpt lat="43.8760497" lon="11.2537496"><ele>519.0</ele><time>2026-04-16T05:31:05.972Z</time></trkpt><trkpt lat="43.8761227" lon="11.2538039"><ele>521.0</ele><time>2026-04-16T05:31:06.976Z</time></trkpt><trkpt lat="43.8761978" lon="11.2538634"><ele>523.0</ele><time>2026-04-16T05:31:07.97Z</time></trkpt><trkpt lat="43.876267" lon="11.2539269"><ele>521.8333333333334</ele><time>2026-04-16T05:31:08.978Z</time></trkpt><trkpt lat="43.8763405" lon="11.2539866"><ele>520.6666666666667</ele><time>2026-04-16T05:31:09.978Z</time></trkpt><trkpt lat="43.87641" lon="11.254039"><ele>519.5</ele><time>2026-04-16T05:31:10.978Z</time></trkpt><trkpt lat="43.8764736" lon="11.2540792"><ele>518.3333333333334</ele><time>2026-04-16T05:31:11.966Z</time></trkpt><trkpt lat="43.8765344" lon="11.2541144"><ele>517.1666666666666</ele><time>2026-04-16T05:31:12.973Z</time></trkpt><trkpt lat="43.87664" lon="11.2541411"><ele>516.0</ele><time>2026-04-16T05:31:14.977Z</time></trkpt><trkpt lat="43.8767218" lon="11.2541977"><ele>519.2</ele><time>2026-04-16T05:31:16.977Z</time></trkpt><trkpt lat="43.8767804" lon="11.2542851"><ele>522.4000000000001</ele><time>2026-04-16T05:31:18.972Z</time></trkpt><trkpt lat="43.8768637" lon="11.2543438"><ele>525.6</ele><time>2026-04-16T05:31:20.982Z</time></trkpt><trkpt lat="43.8769638" lon="11.2543148"><ele>528.8000000000001</ele><time>2026-04-16T05:31:22.982Z</time></trkpt><trkpt lat="43.8770656" lon="11.2543062"><ele>532.0</ele><time>2026-04-16T05:31:24.959Z</time></trkpt><trkpt lat="43.8771461" lon="11.25433"><ele>532.0</ele><time>2026-04-16T05:31:26.975Z</time></trkpt><trkpt lat="43.8772267" lon="11.2543538"><ele>532.0</ele><time>2026-04-16T05:31:28.975Z</time></trkpt><trkpt lat="43.8772931" lon="11.2543367"><ele>532.0</ele><time>2026-04-16T05:31:30.982Z</time></trkpt><trkpt lat="43.8773645" lon="11.2543371"><ele>532.0</ele><time>2026-04-16T05:31:40.979Z</time></trkpt><trkpt lat="43.8774443" lon="11.254308"><ele>532.0</ele><time>2026-04-16T05:31:53.982Z</time></trkpt><trkpt lat="43.8775205" lon="11.2542609"><ele>532.0</ele><time>2026-04-16T05:31:55.979Z</time></trkpt><trkpt lat="43.8776064" lon="11.254236"><ele>531.4</ele><time>2026-04-16T05:31:57.975Z</time></trkpt><trkpt lat="43.8777075" lon="11.2542239"><ele>530.8000000000001</ele><time>2026-04-16T05:31:59.973Z</time></trkpt><trkpt lat="43.8777993" lon="11.2542284"><ele>530.2</ele><time>2026-04-16T05:32:01.967Z</time></trkpt><trkpt lat="43.877879" lon="11.2542583"><ele>529.6</ele><time>2026-04-16T05:32:03.961Z</time></trkpt><trkpt lat="43.8779603" lon="11.2543256"><ele>529.0</ele><time>2026-04-16T05:32:06.048Z</time></trkpt><trkpt lat="43.878093" lon="11.2544327"><ele>529.0</ele><time>2026-04-16T05:32:08.972Z</time></trkpt><trkpt lat="43.8781881" lon="11.2544399"><ele>529.0</ele><time>2026-04-16T05:32:10.958Z</time></trkpt><trkpt lat="43.8782801" lon="11.2544306"><ele>529.0</ele><time>2026-04-16T05:32:12.959Z</time></trkpt><trkpt lat="43.8783551" lon="11.2543764"><ele>529.0</ele><time>2026-04-16T05:32:14.968Z</time></trkpt><trkpt lat="43.8784121" lon="11.2543047"><ele>529.0</ele><time>2026-04-16T05:32:16.955Z</time></trkpt><trkpt lat="43.8784571" lon="11.2542012"><ele>529.0</ele><time>2026-04-16T05:32:19.033Z</time></trkpt><trkpt lat="43.8785043" lon="11.2540774"><ele>528.5</ele><time>2026-04-16T05:32:20.965Z</time></trkpt><trkpt lat="43.8785257" lon="11.2539728"><ele>528.0</ele><time>2026-04-16T05:32:22.964Z</time></trkpt><trkpt lat="43.878563" lon="11.2538957"><ele>527.5</ele><time>2026-04-16T05:32:26.967Z</time></trkpt><trkpt lat="43.8786087" lon="11.2539619"><ele>527.0</ele><time>2026-04-16T05:32:32.959Z</time></trkpt><trkpt lat="43.8786184" lon="11.254069"><ele>526.5</ele><time>2026-04-16T05:32:35.963Z</time></trkpt><trkpt lat="43.8786338" lon="11.2541772"><ele>526.0</ele><time>2026-04-16T05:32:38.963Z</time></trkpt><trkpt lat="43.87865" lon="11.2543005"><ele>523.3333333333334</ele><time>2026-04-16T05:32:41.968Z</time></trkpt><trkpt lat="43.8786661" lon="11.2543875"><ele>520.6666666666667</ele><time>2026-04-16T05:32:43.989Z</time></trkpt><trkpt lat="43.8786951" lon="11.254498"><ele>518.0</ele><time>2026-04-16T05:32:45.969Z</time></trkpt><trkpt lat="43.8787208" lon="11.2546113"><ele>515.3333333333334</ele><time>2026-04-16T05:32:47.961Z</time></trkpt><trkpt lat="43.8787498" lon="11.2547348"><ele>512.6666666666666</ele><time>2026-04-16T05:32:49.95Z</time></trkpt><trkpt lat="43.8787637" lon="11.2548904"><ele>510.0</ele><time>2026-04-16T05:32:51.964Z</time></trkpt><trkpt lat="43.8787793" lon="11.25504"><ele>508.3333333333333</ele><time>2026-04-16T05:32:53.961Z</time></trkpt><trkpt lat="43.8787962" lon="11.2551517"><ele>506.66666666666663</ele><time>2026-04-16T05:32:55.963Z</time></trkpt><trkpt lat="43.8788134" lon="11.2552381"><ele>505.0</ele><time>2026-04-16T05:33:04.977Z</time></trkpt><trkpt lat="43.8788072" lon="11.2551487"><ele>503.3333333333333</ele><time>2026-04-16T05:35:04.972Z</time></trkpt><trkpt lat="43.8788016" lon="11.2550301"><ele>501.66666666666663</ele><time>2026-04-16T05:35:07.974Z</time></trkpt><trkpt lat="43.8787955" lon="11.2549285"><ele>500.0</ele><time>2026-04-16T05:35:10.024Z</time></trkpt><trkpt lat="43.8787866" lon="11.2548164"><ele>502.0</ele><time>2026-04-16T05:35:11.969Z</time></trkpt><trkpt lat="43.878757" lon="11.2546919"><ele>504.0</ele><time>2026-04-16T05:35:13.986Z</time></trkpt><trkpt lat="43.8787195" lon="11.2545731"><ele>506.0</ele><time>2026-04-16T05:35:15.978Z</time></trkpt><trkpt lat="43.8786773" lon="11.2544609"><ele>508.0</ele><time>2026-04-16T05:35:17.966Z</time></trkpt><trkpt lat="43.8786606" lon="11.2543458"><ele>510.0</ele><time>2026-04-16T05:35:20.983Z</time></trkpt><trkpt lat="43.8786365" lon="11.2542233"><ele>510.0</ele><time>2026-04-16T05:35:23.971Z</time></trkpt><trkpt lat="43.8786266" lon="11.2540985"><ele>510.0</ele><time>2026-04-16T05:35:26.964Z</time></trkpt><trkpt lat="43.8786443" lon="11.2539597"><ele>510.0</ele><time>2026-04-16T05:35:30.029Z</time></trkpt><trkpt lat="43.8786843" lon="11.2538056"><ele>510.0</ele><time>2026-04-16T05:35:31.987Z</time></trkpt><trkpt lat="43.8786931" lon="11.2536847"><ele>510.0</ele><time>2026-04-16T05:35:33.973Z</time></trkpt><trkpt lat="43.8786943" lon="11.2535714"><ele>513.2</ele><time>2026-04-16T05:35:35.968Z</time></trkpt><trkpt lat="43.8787354" lon="11.2534777"><ele>516.4</ele><time>2026-04-16T05:35:38.97Z</time></trkpt><trkpt lat="43.878819" lon="11.2534603"><ele>519.6</ele><time>2026-04-16T05:35:40.966Z</time></trkpt><trkpt lat="43.8789375" lon="11.2534493"><ele>522.8</ele><time>2026-04-16T05:35:42.966Z</time></trkpt><trkpt lat="43.8790342" lon="11.2534606"><ele>526.0</ele><time>2026-04-16T05:35:44.968Z</time></trkpt><trkpt lat="43.8791218" lon="11.2534549"><ele>526.0</ele><time>2026-04-16T05:35:46.973Z</time></trkpt><trkpt lat="43.8792002" lon="11.2534402"><ele>526.0</ele><time>2026-04-16T05:35:48.966Z</time></trkpt><trkpt lat="43.8792799" lon="11.2534367"><ele>526.0</ele><time>2026-04-16T05:35:50.956Z</time></trkpt><trkpt lat="43.8793458" lon="11.2534404"><ele>526.0</ele><time>2026-04-16T05:35:52.965Z</time></trkpt><trkpt lat="43.8794265" lon="11.2533833"><ele>526.0</ele><time>2026-04-16T05:35:56.028Z</time></trkpt><trkpt lat="43.8794942" lon="11.2533462"><ele>526.0</ele><time>2026-04-16T05:35:57.958Z</time></trkpt><trkpt lat="43.8795742" lon="11.2532943"><ele>525.7142857142857</ele><time>2026-04-16T05:35:59.952Z</time></trkpt><trkpt lat="43.8796353" lon="11.253233"><ele>525.4285714285713</ele><time>2026-04-16T05:36:01.987Z</time></trkpt><trkpt lat="43.8796946" lon="11.253171"><ele>525.1428571428571</ele><time>2026-04-16T05:36:03.966Z</time></trkpt><trkpt lat="43.8797672" lon="11.2531507"><ele>524.8571428571429</ele><time>2026-04-16T05:36:05.96Z</time></trkpt><trkpt lat="43.8798433" lon="11.2531531"><ele>524.5714285714287</ele><time>2026-04-16T05:36:07.964Z</time></trkpt><trkpt lat="43.879921" lon="11.2531435"><ele>524.2857142857143</ele><time>2026-04-16T05:36:11.971Z</time></trkpt><trkpt lat="43.8799891" lon="11.2531441"><ele>524.0</ele><time>2026-04-16T05:36:14.962Z</time></trkpt><trkpt lat="43.8800759" lon="11.2531272"><ele>523.8333333333333</ele><time>2026-04-16T05:36:18.952Z</time></trkpt><trkpt lat="43.8801568" lon="11.2530953"><ele>523.6666666666666</ele><time>2026-04-16T05:36:21.962Z</time></trkpt><trkpt lat="43.8802533" lon="11.2530749"><ele>523.5</ele><time>2026-04-16T05:36:24.967Z</time></trkpt><trkpt lat="43.88033" lon="11.2530649"><ele>523.3333333333334</ele><time>2026-04-16T05:36:27.959Z</time></trkpt><trkpt lat="43.8804017" lon="11.2530658"><ele>523.1666666666667</ele><time>2026-04-16T05:36:32.963Z</time></trkpt><trkpt lat="43.8804657" lon="11.2531094"><ele>523.0</ele><time>2026-04-16T05:36:37.966Z</time></trkpt><trkpt lat="43.8805414" lon="11.2531403"><ele>523.0</ele><time>2026-04-16T05:36:40.966Z</time></trkpt><trkpt lat="43.8806412" lon="11.2531618"><ele>523.0</ele><time>2026-04-16T05:36:43.961Z</time></trkpt><trkpt lat="43.8807282" lon="11.253175"><ele>523.0</ele><time>2026-04-16T05:36:45.966Z</time></trkpt><trkpt lat="43.8808175" lon="11.2531777"><ele>523.0</ele><time>2026-04-16T05:36:47.952Z</time></trkpt><trkpt lat="43.8808811" lon="11.2531807"><ele>523.0</ele><time>2026-04-16T05:36:49.998Z</time></trkpt><trkpt lat="43.880966" lon="11.2531642"><ele>523.0</ele><time>2026-04-16T05:36:52.958Z</time></trkpt><trkpt lat="43.8810316" lon="11.2531268"><ele>522.9999999999999</ele><time>2026-04-16T05:36:55.968Z</time></trkpt><trkpt lat="43.881095" lon="11.2530867"><ele>523.0</ele><time>2026-04-16T05:36:59.959Z</time></trkpt><trkpt lat="43.8811487" lon="11.2530397"><ele>523.0</ele><time>2026-04-16T05:37:02.981Z</time></trkpt><trkpt lat="43.8811907" lon="11.2529731"><ele>523.0</ele><time>2026-04-16T05:37:05.965Z</time></trkpt><trkpt lat="43.8812363" lon="11.2528698"><ele>523.0</ele><time>2026-04-16T05:37:09.024Z</time></trkpt><trkpt lat="43.8812702" lon="11.2527726"><ele>522.9999999999999</ele><time>2026-04-16T05:37:10.962Z</time></trkpt><trkpt lat="43.8813017" lon="11.2526862"><ele>523.0</ele><time>2026-04-16T05:37:12.986Z</time></trkpt><trkpt lat="43.8813282" lon="11.2525716"><ele>523.0</ele><time>2026-04-16T05:37:16.028Z</time></trkpt><trkpt lat="43.8813872" lon="11.2525181"><ele>523.0</ele><time>2026-04-16T05:37:18.965Z</time></trkpt><trkpt lat="43.8814665" lon="11.2525129"><ele>523.0</ele><time>2026-04-16T05:37:21.96Z</time></trkpt><trkpt lat="43.8815372" lon="11.2525472"><ele>523.0</ele><time>2026-04-16T05:37:24.038Z</time></trkpt><trkpt lat="43.8816147" lon="11.2525733"><ele>523.0</ele><time>2026-04-16T05:37:25.961Z</time></trkpt><trkpt lat="43.8816964" lon="11.2525964"><ele>523.0</ele><time>2026-04-16T05:37:27.956Z</time></trkpt><trkpt lat="43.8817744" lon="11.2526048"><ele>522.5</ele><time>2026-04-16T05:37:29.956Z</time></trkpt><trkpt lat="43.8818503" lon="11.2526245"><ele>522.0</ele><time>2026-04-16T05:37:32.015Z</time></trkpt><trkpt lat="43.8819265" lon="11.2526385"><ele>521.5</ele><time>2026-04-16T05:37:33.963Z</time></trkpt><trkpt lat="43.8819934" lon="11.2526556"><ele>521.0</ele><time>2026-04-16T05:37:35.959Z</time></trkpt><trkpt lat="43.8820634" lon="11.2526727"><ele>520.5</ele><time>2026-04-16T05:37:37.963Z</time></trkpt><trkpt lat="43.8821295" lon="11.2526981"><ele>520.0</ele><time>2026-04-16T05:37:39.946Z</time></trkpt><trkpt lat="43.8822105" lon="11.2527512"><ele>520.0</ele><time>2026-04-16T05:37:42.955Z</time></trkpt><trkpt lat="43.8822907" lon="11.252825"><ele>520.0</ele><time>2026-04-16T05:37:45.953Z</time></trkpt><trkpt lat="43.8823522" lon="11.2528854"><ele>520.0</ele><time>2026-04-16T05:37:47.958Z</time></trkpt><trkpt lat="43.8824206" lon="11.2529359"><ele>520.0</ele><time>2026-04-16T05:37:49.953Z</time></trkpt><trkpt lat="43.8824829" lon="11.2529861"><ele>520.0</ele><time>2026-04-16T05:37:51.954Z</time></trkpt><trkpt lat="43.8825372" lon="11.2530446"><ele>520.0</ele><time>2026-04-16T05:37:53.968Z</time></trkpt><trkpt lat="43.8825919" lon="11.2531043"><ele>517.5</ele><time>2026-04-16T05:37:55.97Z</time></trkpt><trkpt lat="43.8826733" lon="11.253156"><ele>515.0</ele><time>2026-04-16T05:37:58.958Z</time></trkpt><trkpt lat="43.8827504" lon="11.2531572"><ele>512.5</ele><time>2026-04-16T05:38:02.039Z</time></trkpt><trkpt lat="43.8828224" lon="11.2531469"><ele>510.0</ele><time>2026-04-16T05:38:05.963Z</time></trkpt><trkpt lat="43.8828869" lon="11.253171"><ele>507.50000000000006</ele><time>2026-04-16T05:40:24.942Z</time></trkpt><trkpt lat="43.8829506" lon="11.2531431"><ele>505.0</ele><time>2026-04-16T05:40:32.94Z</time></trkpt><trkpt lat="43.8830389" lon="11.2531114"><ele>505.0</ele><time>2026-04-16T05:40:43.958Z</time></trkpt><trkpt lat="43.8830945" lon="11.2530529"><ele>504.99999999999994</ele><time>2026-04-16T05:40:51.949Z</time></trkpt><trkpt lat="43.8831491" lon="11.2529981"><ele>505.0</ele><time>2026-04-16T05:40:57.973Z</time></trkpt><trkpt lat="43.8831857" lon="11.252927"><ele>505.0</ele><time>2026-04-16T05:41:05.96Z</time></trkpt><trkpt lat="43.8832195" lon="11.2528463"><ele>504.99999999999994</ele><time>2026-04-16T05:41:15.956Z</time></trkpt><trkpt lat="43.8832581" lon="11.252766"><ele>505.0</ele><time>2026-04-16T05:41:22.963Z</time></trkpt><trkpt lat="43.8833043" lon="11.2526767"><ele>505.0</ele><time>2026-04-16T05:41:33.952Z</time></trkpt><trkpt lat="43.8833506" lon="11.2526048"><ele>505.00000000000006</ele><time>2026-04-16T05:41:40.954Z</time></trkpt><trkpt lat="43.8833872" lon="11.2525135"><ele>505.0</ele><time>2026-04-16T05:41:51.937Z</time></trkpt><trkpt lat="43.8834024" lon="11.2524163"><ele>505.0</ele><time>2026-04-16T05:42:05.955Z</time></trkpt><trkpt lat="43.8834642" lon="11.2523202"><ele>505.0</ele><time>2026-04-16T05:42:24.877Z</time></trkpt><trkpt lat="43.8835341" lon="11.2523126"><ele>505.00000000000006</ele><time>2026-04-16T05:42:30.955Z</time></trkpt><trkpt lat="43.8836101" lon="11.2523022"><ele>505.0</ele><time>2026-04-16T05:42:36.958Z</time></trkpt><trkpt lat="43.8836776" lon="11.2523021"><ele>504.2857142857143</ele><time>2026-04-16T05:42:41.963Z</time></trkpt><trkpt lat="43.8837521" lon="11.2523175"><ele>503.57142857142856</ele><time>2026-04-16T05:42:47.953Z</time></trkpt><trkpt lat="43.8838186" lon="11.2523261"><ele>502.85714285714283</ele><time>2026-04-16T05:42:53.949Z</time></trkpt><trkpt lat="43.8838813" lon="11.2523426"><ele>502.1428571428571</ele><time>2026-04-16T05:42:58.934Z</time></trkpt><trkpt lat="43.8839486" lon="11.2523647"><ele>501.42857142857144</ele><time>2026-04-16T05:43:03.951Z</time></trkpt><trkpt lat="43.8840182" lon="11.2523804"><ele>500.71428571428567</ele><time>2026-04-16T05:43:08.938Z</time></trkpt><trkpt lat="43.8840816" lon="11.2523944"><ele>500.0</ele><time>2026-04-16T05:43:14.939Z</time></trkpt><trkpt lat="43.8841542" lon="11.2524298"><ele>500.0</ele><time>2026-04-16T05:43:24.947Z</time></trkpt><trkpt lat="43.8842357" lon="11.2524535"><ele>500.0</ele><time>2026-04-16T05:43:33.936Z</time></trkpt><trkpt lat="43.8842978" lon="11.2524866"><ele>500.0</ele><time>2026-04-16T05:43:44.88Z</time></trkpt><trkpt lat="43.8843635" lon="11.2525002"><ele>500.0</ele><time>2026-04-16T05:43:54.955Z</time></trkpt><trkpt lat="43.8844257" lon="11.2525148"><ele>500.0</ele><time>2026-04-16T05:44:04.941Z</time></trkpt><trkpt lat="43.8844938" lon="11.2525245"><ele>500.0</ele><time>2026-04-16T05:44:12.961Z</time></trkpt><trkpt lat="43.8845593" lon="11.2525346"><ele>500.0</ele><time>2026-04-16T05:44:20.97Z</time></trkpt><trkpt lat="43.8846343" lon="11.2525384"><ele>500.0</ele><time>2026-04-16T05:44:26.957Z</time></trkpt><trkpt lat="43.8847057" lon="11.2525308"><ele>500.0</ele><time>2026-04-16T05:44:33.952Z</time></trkpt><trkpt lat="43.8847691" lon="11.2525002"><ele>500.0</ele><time>2026-04-16T05:44:41.969Z</time></trkpt><trkpt lat="43.8848334" lon="11.2524598"><ele>500.0</ele><time>2026-04-16T05:44:47.954Z</time></trkpt><trkpt lat="43.8848965" lon="11.2524278"><ele>500.0</ele><time>2026-04-16T05:44:53.968Z</time></trkpt><trkpt lat="43.884955" lon="11.2523854"><ele>500.0</ele><time>2026-04-16T05:45:02.97Z</time></trkpt><trkpt lat="43.8850176" lon="11.2523636"><ele>500.0</ele><time>2026-04-16T05:45:09.96Z</time></trkpt><trkpt lat="43.8850826" lon="11.2523518"><ele>498.66666666666663</ele><time>2026-04-16T05:45:16.966Z</time></trkpt><trkpt lat="43.8851506" lon="11.2523294"><ele>497.3333333333333</ele><time>2026-04-16T05:45:22.916Z</time></trkpt><trkpt lat="43.8852507" lon="11.2523432"><ele>496.0</ele><time>2026-04-16T05:45:34.832Z</time></trkpt><trkpt lat="43.8853177" lon="11.252355"><ele>494.66666666666663</ele><time>2026-04-16T05:45:42.971Z</time></trkpt><trkpt lat="43.8853817" lon="11.2523959"><ele>493.3333333333333</ele><time>2026-04-16T05:45:50.943Z</time></trkpt><trkpt lat="43.8854553" lon="11.2524178"><ele>492.0</ele><time>2026-04-16T05:45:59.963Z</time></trkpt><trkpt lat="43.8855236" lon="11.2524497"><ele>492.00000000000006</ele><time>2026-04-16T05:46:04.963Z</time></trkpt><trkpt lat="43.8855909" lon="11.2524553"><ele>492.0</ele><time>2026-04-16T05:46:16.921Z</time></trkpt><trkpt lat="43.8856608" lon="11.2524736"><ele>492.00000000000006</ele><time>2026-04-16T05:46:21.037Z</time></trkpt><trkpt lat="43.8857177" lon="11.2525419"><ele>492.00000000000006</ele><time>2026-04-16T05:46:25.956Z</time></trkpt><trkpt lat="43.8857548" lon="11.2526168"><ele>492.0</ele><time>2026-04-16T05:46:30.033Z</time></trkpt><trkpt lat="43.8858216" lon="11.2526688"><ele>492.00000000000006</ele><time>2026-04-16T05:46:35.95Z</time></trkpt><trkpt lat="43.8858911" lon="11.2527037"><ele>492.00000000000006</ele><time>2026-04-16T05:46:40.957Z</time></trkpt><trkpt lat="43.885951" lon="11.2527359"><ele>492.00000000000006</ele><time>2026-04-16T05:46:45.96Z</time></trkpt><trkpt lat="43.8860043" lon="11.2527824"><ele>492.0</ele><time>2026-04-16T05:46:51.95Z</time></trkpt><trkpt lat="43.8860599" lon="11.2528366"><ele>492.00000000000006</ele><time>2026-04-16T05:47:00.86Z</time></trkpt><trkpt lat="43.8861115" lon="11.2528938"><ele>492.00000000000006</ele><time>2026-04-16T05:47:06.864Z</time></trkpt><trkpt lat="43.8861764" lon="11.2529338"><ele>492.0</ele><time>2026-04-16T05:47:13.955Z</time></trkpt><trkpt lat="43.8862291" lon="11.2530006"><ele>492.00000000000006</ele><time>2026-04-16T05:47:19.953Z</time></trkpt><trkpt lat="43.8862846" lon="11.2530504"><ele>492.00000000000006</ele><time>2026-04-16T05:47:26.949Z</time></trkpt><trkpt lat="43.886314" lon="11.2531411"><ele>490.1428571428572</ele><time>2026-04-16T05:47:36.955Z</time></trkpt><trkpt lat="43.886322" lon="11.2532308"><ele>488.28571428571433</ele><time>2026-04-16T05:47:43.923Z</time></trkpt><trkpt lat="43.8863292" lon="11.2533286"><ele>486.42857142857144</ele><time>2026-04-16T05:47:52.954Z</time></trkpt><trkpt lat="43.8863357" lon="11.2534196"><ele>484.5714285714286</ele><time>2026-04-16T05:48:02.958Z</time></trkpt><trkpt lat="43.8863787" lon="11.2533558"><ele>482.7142857142858</ele><time>2026-04-16T05:48:31.963Z</time></trkpt><trkpt lat="43.886336" lon="11.2532719"><ele>480.85714285714283</ele><time>2026-04-16T05:48:45.966Z</time></trkpt><trkpt lat="43.88629" lon="11.2531998"><ele>479.0</ele><time>2026-04-16T05:48:53.857Z</time></trkpt><trkpt lat="43.8862373" lon="11.2531471"><ele>480.85714285714283</ele><time>2026-04-16T05:49:11.921Z</time></trkpt><trkpt lat="43.886182" lon="11.2530932"><ele>482.7142857142858</ele><time>2026-04-16T05:49:22.967Z</time></trkpt><trkpt lat="43.8861336" lon="11.2530347"><ele>484.5714285714286</ele><time>2026-04-16T05:49:30.968Z</time></trkpt><trkpt lat="43.8860771" lon="11.2529914"><ele>486.42857142857144</ele><time>2026-04-16T05:49:38.961Z</time></trkpt><trkpt lat="43.8860177" lon="11.2529516"><ele>488.28571428571433</ele><time>2026-04-16T05:49:46.954Z</time></trkpt><trkpt lat="43.8859736" lon="11.252882"><ele>490.1428571428572</ele><time>2026-04-16T05:49:55.958Z</time></trkpt><trkpt lat="43.8859243" lon="11.252821"><ele>492.00000000000006</ele><time>2026-04-16T05:50:05.957Z</time></trkpt><trkpt lat="43.8858623" lon="11.2527791"><ele>492.00000000000006</ele><time>2026-04-16T05:50:13.917Z</time></trkpt><trkpt lat="43.8858068" lon="11.2527174"><ele>492.0</ele><time>2026-04-16T05:50:25.963Z</time></trkpt><trkpt lat="43.8857485" lon="11.2526699"><ele>492.00000000000006</ele><time>2026-04-16T05:50:33.958Z</time></trkpt><trkpt lat="43.8857026" lon="11.2526056"><ele>492.00000000000006</ele><time>2026-04-16T05:50:44.951Z</time></trkpt><trkpt lat="43.8856621" lon="11.2525382"><ele>492.0</ele><time>2026-04-16T05:50:52.968Z</time></trkpt><trkpt lat="43.8856054" lon="11.2524983"><ele>492.00000000000006</ele><time>2026-04-16T05:50:59.963Z</time></trkpt><trkpt lat="43.8855481" lon="11.2524533"><ele>492.00000000000006</ele><time>2026-04-16T05:51:07.033Z</time></trkpt><trkpt lat="43.8854905" lon="11.2524079"><ele>492.00000000000006</ele><time>2026-04-16T05:51:17.948Z</time></trkpt><trkpt lat="43.885425" lon="11.2523725"><ele>492.0</ele><time>2026-04-16T05:51:26.95Z</time></trkpt><trkpt lat="43.8853625" lon="11.2523607"><ele>492.00000000000006</ele><time>2026-04-16T05:51:35.958Z</time></trkpt><trkpt lat="43.885288" lon="11.2523584"><ele>492.00000000000006</ele><time>2026-04-16T05:51:49.875Z</time></trkpt><trkpt lat="43.8852245" lon="11.2523707"><ele>492.0</ele><time>2026-04-16T05:51:59.937Z</time></trkpt><trkpt lat="43.8851311" lon="11.2524146"><ele>492.00000000000006</ele><time>2026-04-16T05:52:15.961Z</time></trkpt><trkpt lat="43.8850717" lon="11.2524603"><ele>492.00000000000006</ele><time>2026-04-16T05:52:21.952Z</time></trkpt><trkpt lat="43.8850029" lon="11.2524984"><ele>493.1428571428572</ele><time>2026-04-16T05:52:27.959Z</time></trkpt><trkpt lat="43.8849389" lon="11.2525226"><ele>494.28571428571433</ele><time>2026-04-16T05:52:34.923Z</time></trkpt><trkpt lat="43.8848744" lon="11.2525284"><ele>495.42857142857144</ele><time>2026-04-16T05:52:40.962Z</time></trkpt><trkpt lat="43.884804" lon="11.252517"><ele>496.5714285714286</ele><time>2026-04-16T05:52:47.925Z</time></trkpt><trkpt lat="43.8847354" lon="11.2525241"><ele>497.7142857142858</ele><time>2026-04-16T05:52:54.961Z</time></trkpt><trkpt lat="43.8846678" lon="11.252533"><ele>498.85714285714283</ele><time>2026-04-16T05:53:00.956Z</time></trkpt><trkpt lat="43.8845984" lon="11.2525393"><ele>500.0</ele><time>2026-04-16T05:53:06.907Z</time></trkpt><trkpt lat="43.8845323" lon="11.2525288"><ele>500.0</ele><time>2026-04-16T05:53:12.964Z</time></trkpt><trkpt lat="43.8844631" lon="11.2525135"><ele>500.0</ele><time>2026-04-16T05:53:19.947Z</time></trkpt><trkpt lat="43.8844006" lon="11.2524945"><ele>500.0</ele><time>2026-04-16T05:53:25.965Z</time></trkpt><trkpt lat="43.8843296" lon="11.2524723"><ele>500.0</ele><time>2026-04-16T05:53:32.955Z</time></trkpt><trkpt lat="43.8842631" lon="11.2524504"><ele>500.0</ele><time>2026-04-16T05:53:38.871Z</time></trkpt><trkpt lat="43.8842073" lon="11.2524075"><ele>500.0</ele><time>2026-04-16T05:53:43.988Z</time></trkpt><trkpt lat="43.8841389" lon="11.2523747"><ele>500.0</ele><time>2026-04-16T05:53:49.927Z</time></trkpt><trkpt lat="43.884069" lon="11.252354"><ele>500.0</ele><time>2026-04-16T05:53:55.934Z</time></trkpt><trkpt lat="43.8839952" lon="11.2523309"><ele>500.0</ele><time>2026-04-16T05:54:01.959Z</time></trkpt><trkpt lat="43.8839354" lon="11.252299"><ele>500.0</ele><time>2026-04-16T05:54:07.959Z</time></trkpt><trkpt lat="43.8838803" lon="11.2522536"><ele>500.0</ele><time>2026-04-16T05:54:14.963Z</time></trkpt><trkpt lat="43.8838115" lon="11.252241"><ele>500.0</ele><time>2026-04-16T05:54:22.948Z</time></trkpt><trkpt lat="43.8837507" lon="11.2522754"><ele>500.0</ele><time>2026-04-16T05:54:32.946Z</time></trkpt><trkpt lat="43.8836843" lon="11.2523016"><ele>500.0</ele><time>2026-04-16T05:54:38.961Z</time></trkpt><trkpt lat="43.8836247" lon="11.2523528"><ele>500.0</ele><time>2026-04-16T05:54:45.954Z</time></trkpt><trkpt lat="43.8835683" lon="11.2523939"><ele>500.0</ele><time>2026-04-16T05:54:56.957Z</time></trkpt><trkpt lat="43.8835118" lon="11.2524411"><ele>500.0</ele><time>2026-04-16T05:55:03.948Z</time></trkpt><trkpt lat="43.8834724" lon="11.2525183"><ele>500.0</ele><time>2026-04-16T05:55:11.953Z</time></trkpt><trkpt lat="43.8834367" lon="11.2525964"><ele>500.0</ele><time>2026-04-16T05:55:20.958Z</time></trkpt><trkpt lat="43.8834094" lon="11.2526904"><ele>500.0</ele><time>2026-04-16T05:55:26.953Z</time></trkpt><trkpt lat="43.8833765" lon="11.2527752"><ele>500.0</ele><time>2026-04-16T05:55:34.954Z</time></trkpt><trkpt lat="43.8833422" lon="11.2528548"><ele>500.71428571428567</ele><time>2026-04-16T05:55:40.97Z</time></trkpt><trkpt lat="43.8832983" lon="11.2529197"><ele>501.42857142857144</ele><time>2026-04-16T05:55:49.961Z</time></trkpt><trkpt lat="43.8832447" lon="11.2529773"><ele>502.1428571428571</ele><time>2026-04-16T05:55:58.953Z</time></trkpt><trkpt lat="43.8831833" lon="11.2530237"><ele>502.85714285714283</ele><time>2026-04-16T05:56:09.961Z</time></trkpt><trkpt lat="43.8831254" lon="11.2530594"><ele>503.57142857142856</ele><time>2026-04-16T05:56:20.957Z</time></trkpt><trkpt lat="43.8830639" lon="11.2530854"><ele>504.2857142857143</ele><time>2026-04-16T05:56:28.964Z</time></trkpt><trkpt lat="43.8831337" lon="11.2530597"><ele>505.0</ele><time>2026-04-16T05:57:27.948Z</time></trkpt><trkpt lat="43.8831819" lon="11.2529791"><ele>505.00000000000006</ele><time>2026-04-16T05:57:32.939Z</time></trkpt><trkpt lat="43.8832332" lon="11.2528944"><ele>505.0</ele><time>2026-04-16T05:57:37.947Z</time></trkpt><trkpt lat="43.8832565" lon="11.2528022"><ele>505.0</ele><time>2026-04-16T05:57:41.945Z</time></trkpt><trkpt lat="43.8832984" lon="11.2527041"><ele>505.0</ele><time>2026-04-16T05:57:46.945Z</time></trkpt><trkpt lat="43.8833321" lon="11.2526209"><ele>505.00000000000006</ele><time>2026-04-16T05:57:49.95Z</time></trkpt><trkpt lat="43.8833961" lon="11.2525387"><ele>505.0</ele><time>2026-04-16T05:57:52.954Z</time></trkpt><trkpt lat="43.8834515" lon="11.2524826"><ele>504.2857142857143</ele><time>2026-04-16T05:57:55.946Z</time></trkpt><trkpt lat="43.8835133" lon="11.2524049"><ele>503.57142857142856</ele><time>2026-04-16T05:57:58.946Z</time></trkpt><trkpt lat="43.8835659" lon="11.2523321"><ele>502.85714285714283</ele><time>2026-04-16T05:58:01.942Z</time></trkpt><trkpt lat="43.8836207" lon="11.2522572"><ele>502.1428571428571</ele><time>2026-04-16T05:58:06.945Z</time></trkpt><trkpt lat="43.8836955" lon="11.252266"><ele>501.42857142857144</ele><time>2026-04-16T05:58:09.941Z</time></trkpt><trkpt lat="43.8837584" lon="11.2522836"><ele>500.71428571428567</ele><time>2026-04-16T05:58:11.944Z</time></trkpt><trkpt lat="43.8838303" lon="11.2523102"><ele>500.0</ele><time>2026-04-16T05:58:13.942Z</time></trkpt><trkpt lat="43.8839565" lon="11.2523383"><ele>500.0</ele><time>2026-04-16T05:58:15.941Z</time></trkpt><trkpt lat="43.8840589" lon="11.2523718"><ele>500.0</ele><time>2026-04-16T05:58:17.939Z</time></trkpt><trkpt lat="43.8841673" lon="11.2524009"><ele>500.0</ele><time>2026-04-16T05:58:19.942Z</time></trkpt><trkpt lat="43.8842569" lon="11.2524413"><ele>500.0</ele><time>2026-04-16T05:58:21.957Z</time></trkpt><trkpt lat="43.8843347" lon="11.2524479"><ele>500.0</ele><time>2026-04-16T05:58:23.942Z</time></trkpt><trkpt lat="43.8844062" lon="11.2524646"><ele>499.99999999999994</ele><time>2026-04-16T05:58:25.942Z</time></trkpt><trkpt lat="43.8844836" lon="11.2524854"><ele>500.0</ele><time>2026-04-16T05:58:27.943Z</time></trkpt><trkpt lat="43.8845458" lon="11.252513"><ele>500.0</ele><time>2026-04-16T05:58:29.946Z</time></trkpt><trkpt lat="43.8846309" lon="11.2525389"><ele>500.0</ele><time>2026-04-16T05:58:32.941Z</time></trkpt><trkpt lat="43.8847252" lon="11.2525543"><ele>499.99999999999994</ele><time>2026-04-16T05:58:34.941Z</time></trkpt><trkpt lat="43.8848049" lon="11.2525504"><ele>500.0</ele><time>2026-04-16T05:58:36.942Z</time></trkpt><trkpt lat="43.8848784" lon="11.2525356"><ele>499.99999999999994</ele><time>2026-04-16T05:58:38.951Z</time></trkpt><trkpt lat="43.8849328" lon="11.2524806"><ele>500.0</ele><time>2026-04-16T05:58:40.938Z</time></trkpt><trkpt lat="43.8850039" lon="11.2524111"><ele>500.0</ele><time>2026-04-16T05:58:43.963Z</time></trkpt><trkpt lat="43.8850754" lon="11.2523491"><ele>500.0</ele><time>2026-04-16T05:58:46.966Z</time></trkpt><trkpt lat="43.8851475" lon="11.2523135"><ele>499.99999999999994</ele><time>2026-04-16T05:58:49.962Z</time></trkpt><trkpt lat="43.8852202" lon="11.2523143"><ele>500.0</ele><time>2026-04-16T05:58:52.958Z</time></trkpt><trkpt lat="43.8853077" lon="11.2523396"><ele>498.66666666666663</ele><time>2026-04-16T05:58:55.96Z</time></trkpt><trkpt lat="43.8853764" lon="11.252365"><ele>497.3333333333333</ele><time>2026-04-16T05:58:57.962Z</time></trkpt><trkpt lat="43.8854506" lon="11.2523901"><ele>496.0</ele><time>2026-04-16T05:58:59.958Z</time></trkpt><trkpt lat="43.8855269" lon="11.2524234"><ele>494.66666666666663</ele><time>2026-04-16T05:59:02.969Z</time></trkpt><trkpt lat="43.8855926" lon="11.2524443"><ele>493.3333333333333</ele><time>2026-04-16T05:59:05.969Z</time></trkpt><trkpt lat="43.8856565" lon="11.2524929"><ele>492.0</ele><time>2026-04-16T05:59:09.968Z</time></trkpt><trkpt lat="43.8857224" lon="11.2525718"><ele>492.00000000000006</ele><time>2026-04-16T05:59:13.976Z</time></trkpt><trkpt lat="43.8857735" lon="11.2526234"><ele>492.0</ele><time>2026-04-16T05:59:15.96Z</time></trkpt><trkpt lat="43.8858223" lon="11.2526796"><ele>492.00000000000006</ele><time>2026-04-16T05:59:17.967Z</time></trkpt><trkpt lat="43.8858728" lon="11.2527403"><ele>492.00000000000006</ele><time>2026-04-16T05:59:19.969Z</time></trkpt><trkpt lat="43.8859507" lon="11.2528122"><ele>492.0</ele><time>2026-04-16T05:59:22.968Z</time></trkpt><trkpt lat="43.8860336" lon="11.2528763"><ele>492.00000000000006</ele><time>2026-04-16T05:59:25.961Z</time></trkpt><trkpt lat="43.8860878" lon="11.2529239"><ele>492.00000000000006</ele><time>2026-04-16T05:59:27.973Z</time></trkpt><trkpt lat="43.886152" lon="11.2530031"><ele>492.0</ele><time>2026-04-16T05:59:30.964Z</time></trkpt><trkpt lat="43.886226" lon="11.2530622"><ele>492.0</ele><time>2026-04-16T05:59:33.965Z</time></trkpt><trkpt lat="43.8862889" lon="11.2531181"><ele>492.0</ele><time>2026-04-16T05:59:36.972Z</time></trkpt><trkpt lat="43.8863319" lon="11.2532117"><ele>492.0</ele><time>2026-04-16T05:59:40.967Z</time></trkpt><trkpt lat="43.8863808" lon="11.2533049"><ele>492.0</ele><time>2026-04-16T05:59:43.938Z</time></trkpt><trkpt lat="43.8864019" lon="11.2533875"><ele>492.0</ele><time>2026-04-16T05:59:45.948Z</time></trkpt><trkpt lat="43.8864047" lon="11.2534777"><ele>490.1428571428572</ele><time>2026-04-16T05:59:47.962Z</time></trkpt><trkpt lat="43.8863938" lon="11.2535807"><ele>488.28571428571433</ele><time>2026-04-16T05:59:49.98Z</time></trkpt><trkpt lat="43.8863663" lon="11.2536673"><ele>486.42857142857144</ele><time>2026-04-16T05:59:51.961Z</time></trkpt><trkpt lat="43.8863246" lon="11.2537853"><ele>484.5714285714286</ele><time>2026-04-16T05:59:54.962Z</time></trkpt><trkpt lat="43.8862995" lon="11.2538797"><ele>482.7142857142858</ele><time>2026-04-16T05:59:57.961Z</time></trkpt><trkpt lat="43.8863146" lon="11.2539677"><ele>480.85714285714283</ele><time>2026-04-16T06:00:00.964Z</time></trkpt><trkpt lat="43.8863513" lon="11.2540409"><ele>479.0</ele><time>2026-04-16T06:00:04.971Z</time></trkpt><trkpt lat="43.8864135" lon="11.2540618"><ele>478.99999999999994</ele><time>2026-04-16T06:00:19.943Z</time></trkpt><trkpt lat="43.8864645" lon="11.2539729"><ele>479.0</ele><time>2026-04-16T06:00:23.961Z</time></trkpt><trkpt lat="43.8865091" lon="11.2539107"><ele>479.0</ele><time>2026-04-16T06:00:26.949Z</time></trkpt><trkpt lat="43.8865673" lon="11.2538201"><ele>479.0</ele><time>2026-04-16T06:00:29.965Z</time></trkpt><trkpt lat="43.8866392" lon="11.2537496"><ele>478.99999999999994</ele><time>2026-04-16T06:00:32.964Z</time></trkpt><trkpt lat="43.8867086" lon="11.2537014"><ele>479.0</ele><time>2026-04-16T06:00:35.962Z</time></trkpt><trkpt lat="43.8867639" lon="11.2536548"><ele>476.3333333333333</ele><time>2026-04-16T06:00:38.964Z</time></trkpt><trkpt lat="43.8868297" lon="11.2536238"><ele>473.66666666666663</ele><time>2026-04-16T06:00:41.948Z</time></trkpt><trkpt lat="43.886918" lon="11.2536214"><ele>471.0</ele><time>2026-04-16T06:00:44.948Z</time></trkpt><trkpt lat="43.8870076" lon="11.2536155"><ele>468.33333333333337</ele><time>2026-04-16T06:00:47.96Z</time></trkpt><trkpt lat="43.887091" lon="11.253589"><ele>465.6666666666667</ele><time>2026-04-16T06:00:50.972Z</time></trkpt><trkpt lat="43.8871511" lon="11.253533"><ele>463.0</ele><time>2026-04-16T06:00:53.963Z</time></trkpt><trkpt lat="43.8871961" lon="11.2534399"><ele>463.00000000000006</ele><time>2026-04-16T06:00:56.968Z</time></trkpt><trkpt lat="43.8872447" lon="11.253361"><ele>463.0</ele><time>2026-04-16T06:00:58.96Z</time></trkpt><trkpt lat="43.8872957" lon="11.253283"><ele>463.0</ele><time>2026-04-16T06:00:59.968Z</time></trkpt><trkpt lat="43.8873491" lon="11.253222"><ele>463.0</ele><time>2026-04-16T06:01:00.973Z</time></trkpt><trkpt lat="43.8874194" lon="11.2531233"><ele>463.00000000000006</ele><time>2026-04-16T06:01:02.964Z</time></trkpt><trkpt lat="43.887501" lon="11.2530425"><ele>463.0</ele><time>2026-04-16T06:01:04.966Z</time></trkpt><trkpt lat="43.8875517" lon="11.2529427"><ele>465.6666666666667</ele><time>2026-04-16T06:01:06.961Z</time></trkpt><trkpt lat="43.8875888" lon="11.252855"><ele>468.33333333333337</ele><time>2026-04-16T06:01:08.97Z</time></trkpt><trkpt lat="43.8876406" lon="11.2527727"><ele>471.0</ele><time>2026-04-16T06:01:10.969Z</time></trkpt><trkpt lat="43.8876815" lon="11.2526949"><ele>473.66666666666663</ele><time>2026-04-16T06:01:12.942Z</time></trkpt><trkpt lat="43.8877288" lon="11.2526112"><ele>476.3333333333333</ele><time>2026-04-16T06:01:35.035Z</time></trkpt><trkpt lat="43.8877878" lon="11.2525362"><ele>479.0</ele><time>2026-04-16T06:01:37.966Z</time></trkpt><trkpt lat="43.8878388" lon="11.2524593"><ele>474.71428571428567</ele><time>2026-04-16T06:01:40.978Z</time></trkpt><trkpt lat="43.8878887" lon="11.2523924"><ele>470.42857142857144</ele><time>2026-04-16T06:01:42.966Z</time></trkpt><trkpt lat="43.887931" lon="11.2523046"><ele>466.1428571428571</ele><time>2026-04-16T06:01:45.965Z</time></trkpt><trkpt lat="43.8879701" lon="11.2522078"><ele>461.85714285714283</ele><time>2026-04-16T06:01:50.026Z</time></trkpt><trkpt lat="43.888016" lon="11.2521043"><ele>457.57142857142856</ele><time>2026-04-16T06:01:54.985Z</time></trkpt><trkpt lat="43.8880603" lon="11.2520303"><ele>453.2857142857143</ele><time>2026-04-16T06:01:57.965Z</time></trkpt><trkpt lat="43.8880939" lon="11.251954"><ele>449.0</ele><time>2026-04-16T06:01:59.942Z</time></trkpt><trkpt lat="43.8881096" lon="11.2518672"><ele>448.99999999999994</ele><time>2026-04-16T06:02:02.013Z</time></trkpt><trkpt lat="43.8881205" lon="11.2517687"><ele>449.0</ele><time>2026-04-16T06:02:03.961Z</time></trkpt><trkpt lat="43.8881298" lon="11.2516696"><ele>449.0</ele><time>2026-04-16T06:02:05.962Z</time></trkpt><trkpt lat="43.8881265" lon="11.2515433"><ele>449.0</ele><time>2026-04-16T06:02:09.033Z</time></trkpt><trkpt lat="43.8881226" lon="11.251447"><ele>448.99999999999994</ele><time>2026-04-16T06:02:11.036Z</time></trkpt><trkpt lat="43.8881154" lon="11.2513378"><ele>449.0</ele><time>2026-04-16T06:02:12.992Z</time></trkpt><trkpt lat="43.8880939" lon="11.2512365"><ele>447.57142857142856</ele><time>2026-04-16T06:02:14.974Z</time></trkpt><trkpt lat="43.8880498" lon="11.2511639"><ele>446.1428571428571</ele><time>2026-04-16T06:02:16.985Z</time></trkpt><trkpt lat="43.888005" lon="11.2511003"><ele>444.71428571428567</ele><time>2026-04-16T06:02:18.969Z</time></trkpt><trkpt lat="43.88795" lon="11.2510459"><ele>443.2857142857143</ele><time>2026-04-16T06:02:22.964Z</time></trkpt><trkpt lat="43.887894" lon="11.2509932"><ele>441.85714285714283</ele><time>2026-04-16T06:02:26.958Z</time></trkpt><trkpt lat="43.8878264" lon="11.2509426"><ele>440.42857142857144</ele><time>2026-04-16T06:02:30.963Z</time></trkpt><trkpt lat="43.8877862" lon="11.2508682"><ele>439.0</ele><time>2026-04-16T06:02:34.961Z</time></trkpt><trkpt lat="43.887757" lon="11.2507839"><ele>439.00000000000006</ele><time>2026-04-16T06:02:40.948Z</time></trkpt><trkpt lat="43.8878252" lon="11.2508336"><ele>439.0</ele><time>2026-04-16T06:05:21.974Z</time></trkpt><trkpt lat="43.8878907" lon="11.2508882"><ele>439.0</ele><time>2026-04-16T06:05:25.05Z</time></trkpt><trkpt lat="43.8879661" lon="11.2509558"><ele>439.0</ele><time>2026-04-16T06:05:27.96Z</time></trkpt><trkpt lat="43.8880169" lon="11.2510094"><ele>439.00000000000006</ele><time>2026-04-16T06:05:29.966Z</time></trkpt><trkpt lat="43.8880625" lon="11.2510744"><ele>439.0</ele><time>2026-04-16T06:05:31.965Z</time></trkpt><trkpt lat="43.8881092" lon="11.2511856"><ele>439.00000000000006</ele><time>2026-04-16T06:05:35.01Z</time></trkpt><trkpt lat="43.8881449" lon="11.2512954"><ele>439.0</ele><time>2026-04-16T06:05:37.961Z</time></trkpt><trkpt lat="43.8881608" lon="11.2514077"><ele>439.0</ele><time>2026-04-16T06:05:40.956Z</time></trkpt><trkpt lat="43.8881436" lon="11.2515385"><ele>439.0</ele><time>2026-04-16T06:05:43.951Z</time></trkpt><trkpt lat="43.8881315" lon="11.2516361"><ele>439.00000000000006</ele><time>2026-04-16T06:05:46.034Z</time></trkpt><trkpt lat="43.888124" lon="11.2517283"><ele>439.0</ele><time>2026-04-16T06:05:47.969Z</time></trkpt><trkpt lat="43.8881012" lon="11.2518336"><ele>440.00000000000006</ele><time>2026-04-16T06:05:50.94Z</time></trkpt><trkpt lat="43.888064" lon="11.251933"><ele>441.0</ele><time>2026-04-16T06:05:53.961Z</time></trkpt><trkpt lat="43.8880261" lon="11.2520262"><ele>442.0</ele><time>2026-04-16T06:05:56.968Z</time></trkpt><trkpt lat="43.8880036" lon="11.2521108"><ele>443.0</ele><time>2026-04-16T06:06:00.972Z</time></trkpt><trkpt lat="43.8879667" lon="11.2521821"><ele>444.00000000000006</ele><time>2026-04-16T06:06:02.961Z</time></trkpt><trkpt lat="43.8879193" lon="11.252281"><ele>445.0</ele><time>2026-04-16T06:06:05.947Z</time></trkpt><trkpt lat="43.8878618" lon="11.252367"><ele>445.0</ele><time>2026-04-16T06:06:08.97Z</time></trkpt><trkpt lat="43.8878069" lon="11.2524408"><ele>445.0</ele><time>2026-04-16T06:06:11.966Z</time></trkpt><trkpt lat="43.8877689" lon="11.2525108"><ele>445.0</ele><time>2026-04-16T06:06:16.958Z</time></trkpt><trkpt lat="43.8877344" lon="11.2525986"><ele>445.0</ele><time>2026-04-16T06:06:19.962Z</time></trkpt><trkpt lat="43.8877012" lon="11.2526739"><ele>445.0</ele><time>2026-04-16T06:06:21.971Z</time></trkpt><trkpt lat="43.8876689" lon="11.2527613"><ele>445.0</ele><time>2026-04-16T06:06:23.971Z</time></trkpt><trkpt lat="43.8876264" lon="11.252856"><ele>445.0</ele><time>2026-04-16T06:06:25.956Z</time></trkpt><trkpt lat="43.8875755" lon="11.252927"><ele>448.00000000000006</ele><time>2026-04-16T06:06:26.962Z</time></trkpt><trkpt lat="43.887516" lon="11.2530458"><ele>451.0</ele><time>2026-04-16T06:06:28.962Z</time></trkpt><trkpt lat="43.8874645" lon="11.2531618"><ele>454.0</ele><time>2026-04-16T06:06:30.966Z</time></trkpt><trkpt lat="43.8874167" lon="11.2532627"><ele>457.0</ele><time>2026-04-16T06:06:33.972Z</time></trkpt><trkpt lat="43.8873701" lon="11.2533434"><ele>460.00000000000006</ele><time>2026-04-16T06:06:39.963Z</time></trkpt><trkpt lat="43.8873413" lon="11.2534239"><ele>463.0</ele><time>2026-04-16T06:06:42.96Z</time></trkpt><trkpt lat="43.8872925" lon="11.2534994"><ele>463.0</ele><time>2026-04-16T06:06:46.952Z</time></trkpt><trkpt lat="43.8872216" lon="11.2535376"><ele>462.99999999999994</ele><time>2026-04-16T06:06:49.959Z</time></trkpt><trkpt lat="43.887164" lon="11.2535729"><ele>463.0</ele><time>2026-04-16T06:07:08.968Z</time></trkpt><trkpt lat="43.887088" lon="11.2535709"><ele>463.0</ele><time>2026-04-16T06:07:11.98Z</time></trkpt><trkpt lat="43.8870138" lon="11.253599"><ele>462.99999999999994</ele><time>2026-04-16T06:07:14.985Z</time></trkpt><trkpt lat="43.8869611" lon="11.2536482"><ele>463.0</ele><time>2026-04-16T06:07:17.981Z</time></trkpt><trkpt lat="43.8869042" lon="11.2537084"><ele>463.0</ele><time>2026-04-16T06:07:21.037Z</time></trkpt><trkpt lat="43.8868392" lon="11.2537817"><ele>463.00000000000006</ele><time>2026-04-16T06:07:23.984Z</time></trkpt><trkpt lat="43.8867672" lon="11.253847"><ele>463.0</ele><time>2026-04-16T06:07:26.975Z</time></trkpt><trkpt lat="43.8866969" lon="11.2539178"><ele>463.0</ele><time>2026-04-16T06:07:29.973Z</time></trkpt><trkpt lat="43.8866497" lon="11.2539967"><ele>463.0</ele><time>2026-04-16T06:07:33.079Z</time></trkpt><trkpt lat="43.886583" lon="11.2540635"><ele>463.00000000000006</ele><time>2026-04-16T06:07:35.965Z</time></trkpt><trkpt lat="43.8865238" lon="11.2541361"><ele>463.0</ele><time>2026-04-16T06:07:38.971Z</time></trkpt><trkpt lat="43.8864861" lon="11.2542112"><ele>464.1666666666667</ele><time>2026-04-16T06:07:42.028Z</time></trkpt><trkpt lat="43.8864293" lon="11.25429"><ele>465.33333333333337</ele><time>2026-04-16T06:07:44.965Z</time></trkpt><trkpt lat="43.8863553" lon="11.2543269"><ele>466.5</ele><time>2026-04-16T06:07:57.964Z</time></trkpt><trkpt lat="43.8863269" lon="11.2544205"><ele>467.66666666666663</ele><time>2026-04-16T06:08:00.966Z</time></trkpt><trkpt lat="43.8862869" lon="11.2545172"><ele>468.8333333333333</ele><time>2026-04-16T06:08:03.969Z</time></trkpt><trkpt lat="43.8862409" lon="11.254614"><ele>470.0</ele><time>2026-04-16T06:08:18.961Z</time></trkpt><trkpt lat="43.886181" lon="11.2546958"><ele>469.49999999999994</ele><time>2026-04-16T06:08:36.031Z</time></trkpt><trkpt lat="43.8861178" lon="11.2548406"><ele>469.0</ele><time>2026-04-16T06:08:53.976Z</time></trkpt><trkpt lat="43.886098" lon="11.2549321"><ele>468.5</ele><time>2026-04-16T06:09:06.966Z</time></trkpt><trkpt lat="43.8860809" lon="11.2550257"><ele>468.0</ele><time>2026-04-16T06:09:14.938Z</time></trkpt><trkpt lat="43.886065" lon="11.2551105"><ele>467.49999999999994</ele><time>2026-04-16T06:09:22.965Z</time></trkpt><trkpt lat="43.8860409" lon="11.2552013"><ele>467.0</ele><time>2026-04-16T06:09:33.965Z</time></trkpt><trkpt lat="43.8860046" lon="11.2552796"><ele>466.99999999999994</ele><time>2026-04-16T06:09:40.964Z</time></trkpt><trkpt lat="43.8859527" lon="11.2553374"><ele>467.0</ele><time>2026-04-16T06:09:50.983Z</time></trkpt><trkpt lat="43.8859749" lon="11.2554246"><ele>466.99999999999994</ele><time>2026-04-16T06:10:25.959Z</time></trkpt><trkpt lat="43.8860312" lon="11.2554746"><ele>466.99999999999994</ele><time>2026-04-16T06:10:37.302Z</time></trkpt><trkpt lat="43.8861032" lon="11.255509"><ele>467.0</ele><time>2026-04-16T06:10:42.949Z</time></trkpt><trkpt lat="43.8860943" lon="11.255596"><ele>466.99999999999994</ele><time>2026-04-16T06:10:52.962Z</time></trkpt><trkpt lat="43.8860635" lon="11.2556745"><ele>466.99999999999994</ele><time>2026-04-16T06:11:01.94Z</time></trkpt><trkpt lat="43.8860457" lon="11.255764"><ele>466.99999999999994</ele><time>2026-04-16T06:11:09.958Z</time></trkpt><trkpt lat="43.8860775" lon="11.2556499"><ele>467.0</ele><time>2026-04-16T06:11:48.95Z</time></trkpt><trkpt lat="43.886047" lon="11.2555727"><ele>466.99999999999994</ele><time>2026-04-16T06:12:00.96Z</time></trkpt><trkpt lat="43.8859991" lon="11.2554894"><ele>466.99999999999994</ele><time>2026-04-16T06:12:19.953Z</time></trkpt><trkpt lat="43.8860262" lon="11.2554014"><ele>467.0</ele><time>2026-04-16T06:12:25.982Z</time></trkpt><trkpt lat="43.8860396" lon="11.2553039"><ele>466.99999999999994</ele><time>2026-04-16T06:12:35.966Z</time></trkpt><trkpt lat="43.8860485" lon="11.2552163"><ele>466.99999999999994</ele><time>2026-04-16T06:12:42.96Z</time></trkpt><trkpt lat="43.8860547" lon="11.2551256"><ele>466.99999999999994</ele><time>2026-04-16T06:12:53.958Z</time></trkpt><trkpt lat="43.8860724" lon="11.2550385"><ele>467.0</ele><time>2026-04-16T06:13:00.857Z</time></trkpt><trkpt lat="43.8860909" lon="11.2549529"><ele>467.0</ele><time>2026-04-16T06:13:10.959Z</time></trkpt><trkpt lat="43.8861004" lon="11.2548636"><ele>467.0</ele><time>2026-04-16T06:13:25.956Z</time></trkpt><trkpt lat="43.8861416" lon="11.2547384"><ele>466.99999999999994</ele><time>2026-04-16T06:14:10.969Z</time></trkpt><trkpt lat="43.886195" lon="11.2546342"><ele>467.0</ele><time>2026-04-16T06:14:14.987Z</time></trkpt><trkpt lat="43.8862368" lon="11.2545517"><ele>467.49999999999994</ele><time>2026-04-16T06:14:17.881Z</time></trkpt><trkpt lat="43.8862653" lon="11.2544579"><ele>468.0</ele><time>2026-04-16T06:14:31.977Z</time></trkpt><trkpt lat="43.8863095" lon="11.2543805"><ele>468.5</ele><time>2026-04-16T06:14:34.965Z</time></trkpt><trkpt lat="43.8863715" lon="11.2542961"><ele>469.0</ele><time>2026-04-16T06:14:38.98Z</time></trkpt><trkpt lat="43.8864112" lon="11.2542225"><ele>469.49999999999994</ele><time>2026-04-16T06:14:41.971Z</time></trkpt><trkpt lat="43.8864624" lon="11.2541344"><ele>470.0</ele><time>2026-04-16T06:14:44.974Z</time></trkpt><trkpt lat="43.8865238" lon="11.254064"><ele>469.99999999999994</ele><time>2026-04-16T06:14:47.969Z</time></trkpt><trkpt lat="43.8865943" lon="11.2539818"><ele>470.0</ele><time>2026-04-16T06:14:50.977Z</time></trkpt><trkpt lat="43.8866556" lon="11.2538926"><ele>470.0</ele><time>2026-04-16T06:14:53.965Z</time></trkpt><trkpt lat="43.8867187" lon="11.253825"><ele>470.0</ele><time>2026-04-16T06:14:56.968Z</time></trkpt><trkpt lat="43.8867855" lon="11.2537661"><ele>469.99999999999994</ele><time>2026-04-16T06:15:00.981Z</time></trkpt><trkpt lat="43.8868472" lon="11.2537067"><ele>470.0</ele><time>2026-04-16T06:15:03.97Z</time></trkpt><trkpt lat="43.8869315" lon="11.253686"><ele>469.0</ele><time>2026-04-16T06:15:07.959Z</time></trkpt><trkpt lat="43.8870043" lon="11.2536693"><ele>467.99999999999994</ele><time>2026-04-16T06:15:11.986Z</time></trkpt><trkpt lat="43.887059" lon="11.2536231"><ele>467.0</ele><time>2026-04-16T06:15:16.978Z</time></trkpt><trkpt lat="43.8871077" lon="11.2535535"><ele>466.0</ele><time>2026-04-16T06:15:28.969Z</time></trkpt><trkpt lat="43.8871496" lon="11.2534865"><ele>464.99999999999994</ele><time>2026-04-16T06:15:31.971Z</time></trkpt><trkpt lat="43.8871983" lon="11.2534279"><ele>464.0</ele><time>2026-04-16T06:15:33.976Z</time></trkpt><trkpt lat="43.8872438" lon="11.2533672"><ele>463.0</ele><time>2026-04-16T06:15:35.985Z</time></trkpt><trkpt lat="43.8872858" lon="11.2532975"><ele>463.0</ele><time>2026-04-16T06:15:37.969Z</time></trkpt><trkpt lat="43.8873348" lon="11.2532166"><ele>462.99999999999994</ele><time>2026-04-16T06:15:40.98Z</time></trkpt><trkpt lat="43.8873926" lon="11.253137"><ele>463.0</ele><time>2026-04-16T06:15:43.968Z</time></trkpt><trkpt lat="43.8874473" lon="11.2530542"><ele>463.0</ele><time>2026-04-16T06:15:46.983Z</time></trkpt><trkpt lat="43.8874934" lon="11.2529902"><ele>462.99999999999994</ele><time>2026-04-16T06:15:49.961Z</time></trkpt><trkpt lat="43.8875526" lon="11.2529472"><ele>463.0</ele><time>2026-04-16T06:16:01.951Z</time></trkpt><trkpt lat="43.8875124" lon="11.253025"><ele>463.0</ele><time>2026-04-16T06:16:09.977Z</time></trkpt><trkpt lat="43.8874516" lon="11.2531087"><ele>463.0</ele><time>2026-04-16T06:16:11.973Z</time></trkpt><trkpt lat="43.8874046" lon="11.253195"><ele>462.99999999999994</ele><time>2026-04-16T06:16:13.971Z</time></trkpt><trkpt lat="43.8873655" lon="11.2532741"><ele>463.0</ele><time>2026-04-16T06:16:16.979Z</time></trkpt><trkpt lat="43.8873058" lon="11.2533501"><ele>463.0</ele><time>2026-04-16T06:16:19.986Z</time></trkpt><trkpt lat="43.8873" lon="11.2534483"><ele>462.99999999999994</ele><time>2026-04-16T06:16:58.952Z</time></trkpt><trkpt lat="43.8872617" lon="11.2535384"><ele>463.0</ele><time>2026-04-16T06:17:02.957Z</time></trkpt><trkpt lat="43.8871985" lon="11.2535652"><ele>463.0</ele><time>2026-04-16T06:17:05.955Z</time></trkpt><trkpt lat="43.8871202" lon="11.2535754"><ele>463.0</ele><time>2026-04-16T06:17:08.959Z</time></trkpt><trkpt lat="43.8870337" lon="11.2535683"><ele>462.99999999999994</ele><time>2026-04-16T06:17:11.96Z</time></trkpt><trkpt lat="43.8869737" lon="11.2536118"><ele>463.0</ele><time>2026-04-16T06:17:14.952Z</time></trkpt><trkpt lat="43.8869219" lon="11.2536631"><ele>463.0</ele><time>2026-04-16T06:17:17.956Z</time></trkpt><trkpt lat="43.8868673" lon="11.2537126"><ele>462.99999999999994</ele><time>2026-04-16T06:17:20.956Z</time></trkpt><trkpt lat="43.8867993" lon="11.2537955"><ele>463.0</ele><time>2026-04-16T06:17:23.954Z</time></trkpt><trkpt lat="43.8867451" lon="11.2538576"><ele>463.0</ele><time>2026-04-16T06:17:25.955Z</time></trkpt><trkpt lat="43.886681" lon="11.2539412"><ele>464.1666666666667</ele><time>2026-04-16T06:17:28.958Z</time></trkpt><trkpt lat="43.8866259" lon="11.2540174"><ele>465.33333333333337</ele><time>2026-04-16T06:17:31.961Z</time></trkpt><trkpt lat="43.8865708" lon="11.2540788"><ele>466.5</ele><time>2026-04-16T06:17:34.955Z</time></trkpt><trkpt lat="43.8865243" lon="11.254163"><ele>467.66666666666663</ele><time>2026-04-16T06:17:37.955Z</time></trkpt><trkpt lat="43.8864791" lon="11.254264"><ele>468.8333333333333</ele><time>2026-04-16T06:17:40.96Z</time></trkpt><trkpt lat="43.8864332" lon="11.2543292"><ele>470.0</ele><time>2026-04-16T06:17:44.954Z</time></trkpt><trkpt lat="43.8863595" lon="11.2543909"><ele>470.0</ele><time>2026-04-16T06:17:58.949Z</time></trkpt><trkpt lat="43.8863097" lon="11.2544566"><ele>469.99999999999994</ele><time>2026-04-16T06:18:10.949Z</time></trkpt><trkpt lat="43.8862896" lon="11.2545429"><ele>470.0</ele><time>2026-04-16T06:18:14.953Z</time></trkpt><trkpt lat="43.8862647" lon="11.2546295"><ele>470.0</ele><time>2026-04-16T06:18:35.95Z</time></trkpt><trkpt lat="43.8862135" lon="11.2546927"><ele>469.99999999999994</ele><time>2026-04-16T06:19:10.971Z</time></trkpt><trkpt lat="43.8861813" lon="11.2547973"><ele>470.0</ele><time>2026-04-16T06:19:15.976Z</time></trkpt><trkpt lat="43.8861568" lon="11.2548854"><ele>470.0</ele><time>2026-04-16T06:19:18.963Z</time></trkpt><trkpt lat="43.8861322" lon="11.254995"><ele>469.49999999999994</ele><time>2026-04-16T06:19:21.954Z</time></trkpt><trkpt lat="43.8861088" lon="11.2550763"><ele>469.0</ele><time>2026-04-16T06:19:23.977Z</time></trkpt><trkpt lat="43.8860596" lon="11.2551803"><ele>468.5</ele><time>2026-04-16T06:19:26.98Z</time></trkpt><trkpt lat="43.8860203" lon="11.255274"><ele>468.0</ele><time>2026-04-16T06:19:29.966Z</time></trkpt><trkpt lat="43.8860796" lon="11.2553397"><ele>467.49999999999994</ele><time>2026-04-16T06:19:33.961Z</time></trkpt><trkpt lat="43.8861357" lon="11.2553951"><ele>467.0</ele><time>2026-04-16T06:19:37.96Z</time></trkpt><trkpt lat="43.8860921" lon="11.2554786"><ele>466.99999999999994</ele><time>2026-04-16T06:19:40.986Z</time></trkpt><trkpt lat="43.8860534" lon="11.2555634"><ele>467.0</ele><time>2026-04-16T06:19:43.961Z</time></trkpt><trkpt lat="43.8860645" lon="11.2556748"><ele>466.99999999999994</ele><time>2026-04-16T06:19:47.98Z</time></trkpt><trkpt lat="43.88611" lon="11.2557434"><ele>466.99999999999994</ele><time>2026-04-16T06:19:51.975Z</time></trkpt><trkpt lat="43.8861662" lon="11.2556784"><ele>467.0</ele><time>2026-04-16T06:20:01.97Z</time></trkpt><trkpt lat="43.8862313" lon="11.2556502"><ele>466.99999999999994</ele><time>2026-04-16T06:20:05.96Z</time></trkpt><trkpt lat="43.8863024" lon="11.2556517"><ele>466.99999999999994</ele><time>2026-04-16T06:20:08.974Z</time></trkpt><trkpt lat="43.886364" lon="11.2556286"><ele>466.99999999999994</ele><time>2026-04-16T06:20:10.968Z</time></trkpt><trkpt lat="43.8864448" lon="11.2555813"><ele>467.0</ele><time>2026-04-16T06:20:13.982Z</time></trkpt><trkpt lat="43.8865064" lon="11.2555481"><ele>466.99999999999994</ele><time>2026-04-16T06:20:16.972Z</time></trkpt><trkpt lat="43.8865637" lon="11.2555005"><ele>466.99999999999994</ele><time>2026-04-16T06:20:22.958Z</time></trkpt><trkpt lat="43.8866137" lon="11.2554235"><ele>467.0</ele><time>2026-04-16T06:20:25.977Z</time></trkpt><trkpt lat="43.8866523" lon="11.2553245"><ele>466.99999999999994</ele><time>2026-04-16T06:20:28.973Z</time></trkpt><trkpt lat="43.8866955" lon="11.2552532"><ele>466.99999999999994</ele><time>2026-04-16T06:20:33.973Z</time></trkpt><trkpt lat="43.8867545" lon="11.255212"><ele>466.99999999999994</ele><time>2026-04-16T06:20:44.953Z</time></trkpt><trkpt lat="43.8867399" lon="11.2551211"><ele>467.0</ele><time>2026-04-16T06:20:48.981Z</time></trkpt><trkpt lat="43.8866937" lon="11.2550571"><ele>467.0</ele><time>2026-04-16T06:20:51.963Z</time></trkpt><trkpt lat="43.8866247" lon="11.2549912"><ele>467.0</ele><time>2026-04-16T06:20:54.986Z</time></trkpt><trkpt lat="43.8865874" lon="11.2549134"><ele>466.99999999999994</ele><time>2026-04-16T06:20:57.979Z</time></trkpt><trkpt lat="43.8866827" lon="11.2549317"><ele>467.0</ele><time>2026-04-16T06:21:10.98Z</time></trkpt><trkpt lat="43.8867454" lon="11.2550239"><ele>466.3333333333333</ele><time>2026-04-16T06:21:12.968Z</time></trkpt><trkpt lat="43.8868006" lon="11.2550913"><ele>465.66666666666663</ele><time>2026-04-16T06:21:14.972Z</time></trkpt><trkpt lat="43.8868391" lon="11.2551854"><ele>465.0</ele><time>2026-04-16T06:21:17.978Z</time></trkpt><trkpt lat="43.886858" lon="11.2553064"><ele>464.33333333333337</ele><time>2026-04-16T06:21:20.979Z</time></trkpt><trkpt lat="43.8868461" lon="11.2554119"><ele>463.6666666666667</ele><time>2026-04-16T06:21:22.989Z</time></trkpt><trkpt lat="43.8868328" lon="11.2555399"><ele>463.0</ele><time>2026-04-16T06:21:24.963Z</time></trkpt><trkpt lat="43.8868128" lon="11.255692"><ele>461.2</ele><time>2026-04-16T06:21:26.963Z</time></trkpt><trkpt lat="43.8868113" lon="11.2558295"><ele>459.4</ele><time>2026-04-16T06:21:28.971Z</time></trkpt><trkpt lat="43.8868529" lon="11.2559546"><ele>457.59999999999997</ele><time>2026-04-16T06:21:30.967Z</time></trkpt><trkpt lat="43.886916" lon="11.2560764"><ele>455.79999999999995</ele><time>2026-04-16T06:21:32.982Z</time></trkpt><trkpt lat="43.8869907" lon="11.2561893"><ele>454.0</ele><time>2026-04-16T06:21:34.971Z</time></trkpt><trkpt lat="43.8870674" lon="11.2563038"><ele>454.0</ele><time>2026-04-16T06:21:36.978Z</time></trkpt><trkpt lat="43.8871518" lon="11.2563688"><ele>454.0</ele><time>2026-04-16T06:21:38.979Z</time></trkpt><trkpt lat="43.8872471" lon="11.2564231"><ele>454.0</ele><time>2026-04-16T06:21:40.965Z</time></trkpt><trkpt lat="43.8873495" lon="11.2564112"><ele>454.0</ele><time>2026-04-16T06:21:42.973Z</time></trkpt><trkpt lat="43.8874362" lon="11.256321"><ele>454.0</ele><time>2026-04-16T06:21:44.969Z</time></trkpt><trkpt lat="43.8875262" lon="11.2562595"><ele>454.0</ele><time>2026-04-16T06:21:46.97Z</time></trkpt><trkpt lat="43.8875381" lon="11.2563832"><ele>454.0</ele><time>2026-04-16T06:21:49.97Z</time></trkpt><trkpt lat="43.8874881" lon="11.2564678"><ele>454.0</ele><time>2026-04-16T06:21:51.97Z</time></trkpt><trkpt lat="43.8873984" lon="11.2565455"><ele>454.0</ele><time>2026-04-16T06:21:53.969Z</time></trkpt><trkpt lat="43.8873149" lon="11.2566605"><ele>454.0</ele><time>2026-04-16T06:21:55.977Z</time></trkpt><trkpt lat="43.8872589" lon="11.2568121"><ele>451.7142857142857</ele><time>2026-04-16T06:21:57.971Z</time></trkpt><trkpt lat="43.8872365" lon="11.2568996"><ele>449.42857142857144</ele><time>2026-04-16T06:21:58.976Z</time></trkpt><trkpt lat="43.8872138" lon="11.2569918"><ele>447.14285714285717</ele><time>2026-04-16T06:21:59.974Z</time></trkpt><trkpt lat="43.8871917" lon="11.2570817"><ele>444.8571428571429</ele><time>2026-04-16T06:22:00.968Z</time></trkpt><trkpt lat="43.8871671" lon="11.257168"><ele>442.57142857142856</ele><time>2026-04-16T06:22:01.976Z</time></trkpt><trkpt lat="43.8871395" lon="11.2572518"><ele>440.28571428571433</ele><time>2026-04-16T06:22:02.968Z</time></trkpt><trkpt lat="43.8871091" lon="11.2573419"><ele>438.0</ele><time>2026-04-16T06:22:03.976Z</time></trkpt><trkpt lat="43.8870806" lon="11.2574394"><ele>435.5714285714286</ele><time>2026-04-16T06:22:04.97Z</time></trkpt><trkpt lat="43.8870523" lon="11.2575315"><ele>433.1428571428571</ele><time>2026-04-16T06:22:05.981Z</time></trkpt><trkpt lat="43.8870338" lon="11.2576166"><ele>430.7142857142857</ele><time>2026-04-16T06:22:06.982Z</time></trkpt><trkpt lat="43.8870161" lon="11.2577041"><ele>428.28571428571433</ele><time>2026-04-16T06:22:07.954Z</time></trkpt><trkpt lat="43.8870013" lon="11.2577967"><ele>425.8571428571429</ele><time>2026-04-16T06:22:08.965Z</time></trkpt><trkpt lat="43.8869938" lon="11.2578961"><ele>423.42857142857144</ele><time>2026-04-16T06:22:09.968Z</time></trkpt><trkpt lat="43.8869936" lon="11.2580022"><ele>421.0</ele><time>2026-04-16T06:22:10.973Z</time></trkpt><trkpt lat="43.8869888" lon="11.2581071"><ele>421.00000000000006</ele><time>2026-04-16T06:22:11.966Z</time></trkpt><trkpt lat="43.8869839" lon="11.2581994"><ele>421.0</ele><time>2026-04-16T06:22:12.973Z</time></trkpt><trkpt lat="43.8869592" lon="11.2583333"><ele>421.0</ele><time>2026-04-16T06:22:14.962Z</time></trkpt><trkpt lat="43.8868965" lon="11.2583756"><ele>421.0</ele><time>2026-04-16T06:22:16.976Z</time></trkpt><trkpt lat="43.8868569" lon="11.2582667"><ele>421.00000000000006</ele><time>2026-04-16T06:22:18.975Z</time></trkpt><trkpt lat="43.886854" lon="11.2581266"><ele>421.0</ele><time>2026-04-16T06:22:20.963Z</time></trkpt><trkpt lat="43.8868081" lon="11.25805"><ele>419.1666666666667</ele><time>2026-04-16T06:22:22.977Z</time></trkpt><trkpt lat="43.8867445" lon="11.2581195"><ele>417.33333333333337</ele><time>2026-04-16T06:22:24.976Z</time></trkpt><trkpt lat="43.88673" lon="11.2582817"><ele>415.5</ele><time>2026-04-16T06:22:26.978Z</time></trkpt><trkpt lat="43.8867274" lon="11.2583943"><ele>413.66666666666663</ele><time>2026-04-16T06:22:27.976Z</time></trkpt><trkpt lat="43.8867107" lon="11.2585005"><ele>411.8333333333333</ele><time>2026-04-16T06:22:29.033Z</time></trkpt><trkpt lat="43.8866893" lon="11.2586071"><ele>410.0</ele><time>2026-04-16T06:22:30.042Z</time></trkpt><trkpt lat="43.8866714" lon="11.2587038"><ele>410.0</ele><time>2026-04-16T06:22:30.956Z</time></trkpt><trkpt lat="43.8866527" lon="11.2587901"><ele>410.0</ele><time>2026-04-16T06:22:31.962Z</time></trkpt><trkpt lat="43.8866211" lon="11.2589478"><ele>410.0</ele><time>2026-04-16T06:22:34.031Z</time></trkpt><trkpt lat="43.8866007" lon="11.2590876"><ele>410.0</ele><time>2026-04-16T06:22:35.97Z</time></trkpt><trkpt lat="43.8866565" lon="11.2592007"><ele>410.0</ele><time>2026-04-16T06:22:37.965Z</time></trkpt><trkpt lat="43.8867408" lon="11.2592491"><ele>409.3333333333333</ele><time>2026-04-16T06:22:39.972Z</time></trkpt><trkpt lat="43.8868274" lon="11.2592282"><ele>408.66666666666663</ele><time>2026-04-16T06:22:42.029Z</time></trkpt><trkpt lat="43.8869188" lon="11.2591476"><ele>408.0</ele><time>2026-04-16T06:22:43.965Z</time></trkpt><trkpt lat="43.8869695" lon="11.2590882"><ele>407.33333333333337</ele><time>2026-04-16T06:22:45.002Z</time></trkpt><trkpt lat="43.88702" lon="11.2590138"><ele>406.6666666666667</ele><time>2026-04-16T06:22:45.964Z</time></trkpt><trkpt lat="43.8870815" lon="11.2589489"><ele>406.0</ele><time>2026-04-16T06:22:46.966Z</time></trkpt><trkpt lat="43.8871537" lon="11.2588826"><ele>406.0</ele><time>2026-04-16T06:22:47.957Z</time></trkpt><trkpt lat="43.887234" lon="11.2588083"><ele>406.0</ele><time>2026-04-16T06:22:48.962Z</time></trkpt><trkpt lat="43.8873086" lon="11.2587447"><ele>406.0</ele><time>2026-04-16T06:22:50.029Z</time></trkpt><trkpt lat="43.8873836" lon="11.2586909"><ele>406.0</ele><time>2026-04-16T06:22:51.027Z</time></trkpt><trkpt lat="43.8874482" lon="11.2586379"><ele>406.0</ele><time>2026-04-16T06:22:52.028Z</time></trkpt><trkpt lat="43.8875466" lon="11.2585395"><ele>406.00000000000006</ele><time>2026-04-16T06:22:53.97Z</time></trkpt><trkpt lat="43.8876181" lon="11.2584548"><ele>406.0</ele><time>2026-04-16T06:22:55.97Z</time></trkpt><trkpt lat="43.8876835" lon="11.258406"><ele>406.0</ele><time>2026-04-16T06:22:57.954Z</time></trkpt><trkpt lat="43.8876477" lon="11.2585236"><ele>406.0</ele><time>2026-04-16T06:23:02.016Z</time></trkpt><trkpt lat="43.8875858" lon="11.258651"><ele>406.00000000000006</ele><time>2026-04-16T06:23:03.968Z</time></trkpt><trkpt lat="43.8875399" lon="11.2587112"><ele>406.0</ele><time>2026-04-16T06:23:04.974Z</time></trkpt><trkpt lat="43.8874884" lon="11.258784"><ele>406.00000000000006</ele><time>2026-04-16T06:23:05.961Z</time></trkpt><trkpt lat="43.8874371" lon="11.2588607"><ele>406.0</ele><time>2026-04-16T06:23:06.965Z</time></trkpt><trkpt lat="43.8873832" lon="11.2589302"><ele>406.0</ele><time>2026-04-16T06:23:07.961Z</time></trkpt><trkpt lat="43.8873257" lon="11.2590074"><ele>406.0</ele><time>2026-04-16T06:23:08.975Z</time></trkpt><trkpt lat="43.8872732" lon="11.2590923"><ele>406.00000000000006</ele><time>2026-04-16T06:23:10.032Z</time></trkpt><trkpt lat="43.8872252" lon="11.2591668"><ele>406.0</ele><time>2026-04-16T06:23:11.033Z</time></trkpt><trkpt lat="43.8871762" lon="11.2592342"><ele>402.6666666666667</ele><time>2026-04-16T06:23:12.03Z</time></trkpt><trkpt lat="43.8871275" lon="11.2593076"><ele>399.33333333333337</ele><time>2026-04-16T06:23:12.974Z</time></trkpt><trkpt lat="43.887087" lon="11.2593922"><ele>396.0</ele><time>2026-04-16T06:23:13.971Z</time></trkpt><trkpt lat="43.8870529" lon="11.2594721"><ele>392.66666666666663</ele><time>2026-04-16T06:23:15.005Z</time></trkpt><trkpt lat="43.8870224" lon="11.2595546"><ele>389.3333333333333</ele><time>2026-04-16T06:23:16.029Z</time></trkpt><trkpt lat="43.8869491" lon="11.259692"><ele>386.0</ele><time>2026-04-16T06:23:17.955Z</time></trkpt><trkpt lat="43.8868734" lon="11.2597961"><ele>382.0</ele><time>2026-04-16T06:23:19.979Z</time></trkpt><trkpt lat="43.8868002" lon="11.259917"><ele>378.0</ele><time>2026-04-16T06:23:22.04Z</time></trkpt><trkpt lat="43.886769" lon="11.2600581"><ele>374.0</ele><time>2026-04-16T06:23:23.962Z</time></trkpt><trkpt lat="43.8868058" lon="11.2601697"><ele>370.0</ele><time>2026-04-16T06:23:26.031Z</time></trkpt><trkpt lat="43.88689" lon="11.2602039"><ele>366.0</ele><time>2026-04-16T06:23:27.959Z</time></trkpt><trkpt lat="43.8869977" lon="11.2601864"><ele>366.0</ele><time>2026-04-16T06:23:30.008Z</time></trkpt><trkpt lat="43.8870994" lon="11.2600915"><ele>366.0</ele><time>2026-04-16T06:23:32.03Z</time></trkpt><trkpt lat="43.8871698" lon="11.2599628"><ele>366.0</ele><time>2026-04-16T06:23:34.03Z</time></trkpt><trkpt lat="43.8872138" lon="11.2598509"><ele>366.0</ele><time>2026-04-16T06:23:36.029Z</time></trkpt><trkpt lat="43.8872822" lon="11.2598207"><ele>366.0</ele><time>2026-04-16T06:23:38.966Z</time></trkpt><trkpt lat="43.8872671" lon="11.2599565"><ele>366.0</ele><time>2026-04-16T06:23:42.045Z</time></trkpt><trkpt lat="43.8872524" lon="11.2600674"><ele>366.0</ele><time>2026-04-16T06:23:43.963Z</time></trkpt><trkpt lat="43.8872286" lon="11.2601873"><ele>366.0</ele><time>2026-04-16T06:23:45.972Z</time></trkpt><trkpt lat="43.8872027" lon="11.2603423"><ele>366.0</ele><time>2026-04-16T06:23:48.002Z</time></trkpt><trkpt lat="43.887193" lon="11.2604494"><ele>366.0</ele><time>2026-04-16T06:23:48.972Z</time></trkpt><trkpt lat="43.8871673" lon="11.2605371"><ele>366.0</ele><time>2026-04-16T06:23:50.028Z</time></trkpt><trkpt lat="43.8871308" lon="11.2606128"><ele>363.8</ele><time>2026-04-16T06:23:50.951Z</time></trkpt><trkpt lat="43.8870847" lon="11.2606787"><ele>361.6</ele><time>2026-04-16T06:23:51.954Z</time></trkpt><trkpt lat="43.88701" lon="11.2608326"><ele>359.4</ele><time>2026-04-16T06:23:53.955Z</time></trkpt><trkpt lat="43.8869719" lon="11.2609662"><ele>357.2</ele><time>2026-04-16T06:23:55.957Z</time></trkpt><trkpt lat="43.8870107" lon="11.2610782"><ele>355.0</ele><time>2026-04-16T06:23:57.965Z</time></trkpt><trkpt lat="43.8870932" lon="11.2611944"><ele>355.0</ele><time>2026-04-16T06:24:00.011Z</time></trkpt><trkpt lat="43.8871405" lon="11.2613529"><ele>355.0</ele><time>2026-04-16T06:24:02.019Z</time></trkpt><trkpt lat="43.8871677" lon="11.2615073"><ele>355.0</ele><time>2026-04-16T06:24:03.952Z</time></trkpt><trkpt lat="43.8871821" lon="11.2616485"><ele>355.0</ele><time>2026-04-16T06:24:06.039Z</time></trkpt><trkpt lat="43.8872433" lon="11.2617403"><ele>355.0</ele><time>2026-04-16T06:24:07.966Z</time></trkpt><trkpt lat="43.8873425" lon="11.261791"><ele>354.66666666666663</ele><time>2026-04-16T06:24:09.958Z</time></trkpt><trkpt lat="43.8874293" lon="11.2618337"><ele>354.3333333333333</ele><time>2026-04-16T06:24:11.951Z</time></trkpt><trkpt lat="43.8874909" lon="11.2618644"><ele>354.0</ele><time>2026-04-16T06:24:14.961Z</time></trkpt><trkpt lat="43.88755" lon="11.2617549"><ele>353.6666666666667</ele><time>2026-04-16T06:24:18.961Z</time></trkpt><trkpt lat="43.8875783" lon="11.261654"><ele>353.33333333333337</ele><time>2026-04-16T06:24:20.951Z</time></trkpt><trkpt lat="43.8876303" lon="11.2615188"><ele>353.0</ele><time>2026-04-16T06:24:22.953Z</time></trkpt><trkpt lat="43.8876834" lon="11.2613569"><ele>356.7142857142857</ele><time>2026-04-16T06:24:25.031Z</time></trkpt><trkpt lat="43.8877167" lon="11.2612753"><ele>360.42857142857144</ele><time>2026-04-16T06:24:25.977Z</time></trkpt><trkpt lat="43.8877523" lon="11.2612015"><ele>364.14285714285717</ele><time>2026-04-16T06:24:26.945Z</time></trkpt><trkpt lat="43.8877944" lon="11.261124"><ele>367.8571428571429</ele><time>2026-04-16T06:24:27.968Z</time></trkpt><trkpt lat="43.8878257" lon="11.2610365"><ele>371.57142857142856</ele><time>2026-04-16T06:24:28.957Z</time></trkpt><trkpt lat="43.8878509" lon="11.2609417"><ele>375.28571428571433</ele><time>2026-04-16T06:24:29.96Z</time></trkpt><trkpt lat="43.8878839" lon="11.260838"><ele>379.0</ele><time>2026-04-16T06:24:30.961Z</time></trkpt><trkpt lat="43.887911" lon="11.2607511"><ele>379.00000000000006</ele><time>2026-04-16T06:24:31.975Z</time></trkpt><trkpt lat="43.8879413" lon="11.260649"><ele>379.0</ele><time>2026-04-16T06:24:32.965Z</time></trkpt><trkpt lat="43.8879671" lon="11.260563"><ele>379.0</ele><time>2026-04-16T06:24:34.028Z</time></trkpt><trkpt lat="43.8879863" lon="11.2604703"><ele>379.0</ele><time>2026-04-16T06:24:34.959Z</time></trkpt><trkpt lat="43.8880133" lon="11.2603822"><ele>379.0</ele><time>2026-04-16T06:24:35.962Z</time></trkpt><trkpt lat="43.8880461" lon="11.2602983"><ele>379.00000000000006</ele><time>2026-04-16T06:24:36.97Z</time></trkpt><trkpt lat="43.88809" lon="11.2602294"><ele>379.0</ele><time>2026-04-16T06:24:37.987Z</time></trkpt><trkpt lat="43.8881457" lon="11.2601646"><ele>378.66666666666663</ele><time>2026-04-16T06:24:39.03Z</time></trkpt><trkpt lat="43.8882029" lon="11.2600998"><ele>378.3333333333333</ele><time>2026-04-16T06:24:40.029Z</time></trkpt><trkpt lat="43.8882657" lon="11.2600366"><ele>378.0</ele><time>2026-04-16T06:24:41.031Z</time></trkpt><trkpt lat="43.8883309" lon="11.2599675"><ele>377.6666666666667</ele><time>2026-04-16T06:24:41.964Z</time></trkpt><trkpt lat="43.8883973" lon="11.2598906"><ele>377.33333333333337</ele><time>2026-04-16T06:24:42.96Z</time></trkpt><trkpt lat="43.8884712" lon="11.2597865"><ele>377.0</ele><time>2026-04-16T06:24:43.969Z</time></trkpt><trkpt lat="43.8885367" lon="11.2596911"><ele>377.0</ele><time>2026-04-16T06:24:44.971Z</time></trkpt><trkpt lat="43.8886065" lon="11.2595794"><ele>377.0</ele><time>2026-04-16T06:24:45.975Z</time></trkpt><trkpt lat="43.8886677" lon="11.2594594"><ele>377.0</ele><time>2026-04-16T06:24:47.019Z</time></trkpt><trkpt lat="43.888744" lon="11.2593283"><ele>377.0</ele><time>2026-04-16T06:24:47.971Z</time></trkpt><trkpt lat="43.8888196" lon="11.2591814"><ele>377.0</ele><time>2026-04-16T06:24:48.98Z</time></trkpt><trkpt lat="43.8888924" lon="11.2590439"><ele>377.0</ele><time>2026-04-16T06:24:49.97Z</time></trkpt><trkpt lat="43.8889563" lon="11.2589275"><ele>377.0</ele><time>2026-04-16T06:24:50.972Z</time></trkpt><trkpt lat="43.8890081" lon="11.2587999"><ele>377.0</ele><time>2026-04-16T06:24:51.974Z</time></trkpt><trkpt lat="43.8890442" lon="11.2586562"><ele>377.0</ele><time>2026-04-16T06:24:52.984Z</time></trkpt><trkpt lat="43.8890802" lon="11.2585324"><ele>376.0</ele><time>2026-04-16T06:24:53.98Z</time></trkpt><trkpt lat="43.8891166" lon="11.2584283"><ele>375.0</ele><time>2026-04-16T06:24:54.969Z</time></trkpt><trkpt lat="43.8891697" lon="11.2583476"><ele>374.0</ele><time>2026-04-16T06:24:55.984Z</time></trkpt><trkpt lat="43.8892327" lon="11.2582651"><ele>373.0</ele><time>2026-04-16T06:24:56.975Z</time></trkpt><trkpt lat="43.8892992" lon="11.2581713"><ele>372.0</ele><time>2026-04-16T06:24:57.967Z</time></trkpt><trkpt lat="43.8893858" lon="11.2580755"><ele>372.0</ele><time>2026-04-16T06:24:58.974Z</time></trkpt><trkpt lat="43.8894721" lon="11.2579827"><ele>372.0</ele><time>2026-04-16T06:24:59.969Z</time></trkpt><trkpt lat="43.889558" lon="11.257877"><ele>372.0</ele><time>2026-04-16T06:25:00.976Z</time></trkpt><trkpt lat="43.8896422" lon="11.2577713"><ele>372.0</ele><time>2026-04-16T06:25:01.965Z</time></trkpt><trkpt lat="43.8897222" lon="11.2576632"><ele>372.0</ele><time>2026-04-16T06:25:02.971Z</time></trkpt><trkpt lat="43.889816" lon="11.2575601"><ele>372.0</ele><time>2026-04-16T06:25:03.98Z</time></trkpt><trkpt lat="43.8899092" lon="11.2574806"><ele>372.0</ele><time>2026-04-16T06:25:04.975Z</time></trkpt><trkpt lat="43.8900076" lon="11.2574279"><ele>372.0</ele><time>2026-04-16T06:25:05.97Z</time></trkpt><trkpt lat="43.8901087" lon="11.2573713"><ele>372.0</ele><time>2026-04-16T06:25:06.991Z</time></trkpt><trkpt lat="43.8902135" lon="11.2573309"><ele>372.0</ele><time>2026-04-16T06:25:07.963Z</time></trkpt><trkpt lat="43.8903333" lon="11.2572924"><ele>371.25</ele><time>2026-04-16T06:25:08.974Z</time></trkpt><trkpt lat="43.8904506" lon="11.2572565"><ele>370.5</ele><time>2026-04-16T06:25:09.979Z</time></trkpt><trkpt lat="43.8905731" lon="11.2572134"><ele>369.75</ele><time>2026-04-16T06:25:10.975Z</time></trkpt><trkpt lat="43.8906905" lon="11.2571745"><ele>369.0</ele><time>2026-04-16T06:25:11.993Z</time></trkpt><trkpt lat="43.8908207" lon="11.2571596"><ele>372.2</ele><time>2026-04-16T06:25:12.951Z</time></trkpt><trkpt lat="43.8909345" lon="11.2571554"><ele>375.4</ele><time>2026-04-16T06:25:13.972Z</time></trkpt><trkpt lat="43.8910451" lon="11.2571504"><ele>378.6</ele><time>2026-04-16T06:25:14.965Z</time></trkpt><trkpt lat="43.8911486" lon="11.257119"><ele>381.8</ele><time>2026-04-16T06:25:15.97Z</time></trkpt><trkpt lat="43.8912622" lon="11.2570835"><ele>385.0</ele><time>2026-04-16T06:25:16.976Z</time></trkpt><trkpt lat="43.8913748" lon="11.2570471"><ele>385.0</ele><time>2026-04-16T06:25:17.973Z</time></trkpt><trkpt lat="43.8914804" lon="11.2570251"><ele>385.0</ele><time>2026-04-16T06:25:18.974Z</time></trkpt><trkpt lat="43.8915835" lon="11.257012"><ele>385.0</ele><time>2026-04-16T06:25:19.969Z</time></trkpt><trkpt lat="43.8916826" lon="11.2569909"><ele>385.0</ele><time>2026-04-16T06:25:20.974Z</time></trkpt><trkpt lat="43.8917746" lon="11.256991"><ele>385.0</ele><time>2026-04-16T06:25:21.965Z</time></trkpt><trkpt lat="43.8918644" lon="11.2569903"><ele>387.6</ele><time>2026-04-16T06:25:22.972Z</time></trkpt><trkpt lat="43.8919496" lon="11.2570068"><ele>390.2</ele><time>2026-04-16T06:25:23.98Z</time></trkpt><trkpt lat="43.8920297" lon="11.25701"><ele>392.79999999999995</ele><time>2026-04-16T06:25:24.986Z</time></trkpt><trkpt lat="43.8921293" lon="11.2570136"><ele>395.4</ele><time>2026-04-16T06:25:25.969Z</time></trkpt><trkpt lat="43.8922246" lon="11.2570085"><ele>398.0</ele><time>2026-04-16T06:25:26.973Z</time></trkpt><trkpt lat="43.8923255" lon="11.2569942"><ele>398.0</ele><time>2026-04-16T06:25:27.971Z</time></trkpt><trkpt lat="43.8924235" lon="11.2569688"><ele>398.0</ele><time>2026-04-16T06:25:28.972Z</time></trkpt><trkpt lat="43.8925181" lon="11.25694"><ele>398.0</ele><time>2026-04-16T06:25:29.974Z</time></trkpt><trkpt lat="43.8926223" lon="11.2569023"><ele>398.0</ele><time>2026-04-16T06:25:30.96Z</time></trkpt><trkpt lat="43.8927192" lon="11.2568748"><ele>398.0</ele><time>2026-04-16T06:25:31.977Z</time></trkpt><trkpt lat="43.8928057" lon="11.2568515"><ele>398.0</ele><time>2026-04-16T06:25:32.983Z</time></trkpt><trkpt lat="43.8928949" lon="11.2568034"><ele>398.0</ele><time>2026-04-16T06:25:33.979Z</time></trkpt><trkpt lat="43.8929758" lon="11.2567525"><ele>398.0</ele><time>2026-04-16T06:25:34.971Z</time></trkpt><trkpt lat="43.893066" lon="11.2567022"><ele>398.0</ele><time>2026-04-16T06:25:35.966Z</time></trkpt><trkpt lat="43.8931442" lon="11.2566239"><ele>398.0</ele><time>2026-04-16T06:25:36.969Z</time></trkpt><trkpt lat="43.8932106" lon="11.2565393"><ele>398.0</ele><time>2026-04-16T06:25:37.974Z</time></trkpt><trkpt lat="43.8932628" lon="11.2564705"><ele>398.0</ele><time>2026-04-16T06:25:38.971Z</time></trkpt><trkpt lat="43.8933148" lon="11.2563516"><ele>398.0</ele><time>2026-04-16T06:25:40.969Z</time></trkpt><trkpt lat="43.8932287" lon="11.2562761"><ele>398.0</ele><time>2026-04-16T06:25:42.973Z</time></trkpt><trkpt lat="43.8931021" lon="11.256272"><ele>398.0</ele><time>2026-04-16T06:25:44.976Z</time></trkpt><trkpt lat="43.8930242" lon="11.2562725"><ele>401.3333333333333</ele><time>2026-04-16T06:25:45.973Z</time></trkpt><trkpt lat="43.8929496" lon="11.2562737"><ele>404.66666666666663</ele><time>2026-04-16T06:25:46.97Z</time></trkpt><trkpt lat="43.8928723" lon="11.2562692"><ele>408.0</ele><time>2026-04-16T06:25:47.971Z</time></trkpt><trkpt lat="43.8927935" lon="11.2562647"><ele>411.33333333333337</ele><time>2026-04-16T06:25:48.967Z</time></trkpt><trkpt lat="43.8927159" lon="11.2562523"><ele>414.6666666666667</ele><time>2026-04-16T06:25:49.968Z</time></trkpt><trkpt lat="43.8926374" lon="11.2562519"><ele>418.0</ele><time>2026-04-16T06:25:50.978Z</time></trkpt><trkpt lat="43.8925425" lon="11.2562597"><ele>418.79999999999995</ele><time>2026-04-16T06:25:51.98Z</time></trkpt><trkpt lat="43.8924522" lon="11.2562264"><ele>419.6</ele><time>2026-04-16T06:25:52.981Z</time></trkpt><trkpt lat="43.8923808" lon="11.2561977"><ele>420.4</ele><time>2026-04-16T06:25:53.955Z</time></trkpt><trkpt lat="43.8922954" lon="11.2561154"><ele>421.20000000000005</ele><time>2026-04-16T06:25:55.973Z</time></trkpt><trkpt lat="43.8923628" lon="11.255993"><ele>422.0</ele><time>2026-04-16T06:25:57.977Z</time></trkpt><trkpt lat="43.892473" lon="11.2558992"><ele>421.99999999999994</ele><time>2026-04-16T06:25:59.975Z</time></trkpt><trkpt lat="43.8925312" lon="11.255805"><ele>422.0</ele><time>2026-04-16T06:26:00.977Z</time></trkpt><trkpt lat="43.8925865" lon="11.2557117"><ele>422.0</ele><time>2026-04-16T06:26:01.967Z</time></trkpt><trkpt lat="43.8926321" lon="11.255629"><ele>422.0</ele><time>2026-04-16T06:26:02.975Z</time></trkpt><trkpt lat="43.8926679" lon="11.2555293"><ele>421.99999999999994</ele><time>2026-04-16T06:26:03.977Z</time></trkpt><trkpt lat="43.8927013" lon="11.2554507"><ele>422.0</ele><time>2026-04-16T06:26:04.971Z</time></trkpt><trkpt lat="43.892728" lon="11.2553621"><ele>423.99999999999994</ele><time>2026-04-16T06:26:05.982Z</time></trkpt><trkpt lat="43.8927458" lon="11.2552743"><ele>426.0</ele><time>2026-04-16T06:26:06.989Z</time></trkpt><trkpt lat="43.892763" lon="11.2551676"><ele>428.0</ele><time>2026-04-16T06:26:07.958Z</time></trkpt><trkpt lat="43.8927728" lon="11.2550723"><ele>430.0</ele><time>2026-04-16T06:26:08.975Z</time></trkpt><trkpt lat="43.892797" lon="11.2549554"><ele>431.99999999999994</ele><time>2026-04-16T06:26:10.983Z</time></trkpt><trkpt lat="43.8928732" lon="11.2548514"><ele>434.0</ele><time>2026-04-16T06:26:12.971Z</time></trkpt><trkpt lat="43.8929191" lon="11.2547871"><ele>435.14285714285717</ele><time>2026-04-16T06:26:13.971Z</time></trkpt><trkpt lat="43.8929653" lon="11.2547212"><ele>436.2857142857143</ele><time>2026-04-16T06:26:14.977Z</time></trkpt><trkpt lat="43.8930078" lon="11.2546513"><ele>437.42857142857144</ele><time>2026-04-16T06:26:15.966Z</time></trkpt><trkpt lat="43.8930546" lon="11.2545738"><ele>438.57142857142856</ele><time>2026-04-16T06:26:16.98Z</time></trkpt><trkpt lat="43.8931" lon="11.254485"><ele>439.7142857142857</ele><time>2026-04-16T06:26:17.963Z</time></trkpt><trkpt lat="43.8931447" lon="11.2543981"><ele>440.8571428571429</ele><time>2026-04-16T06:26:18.982Z</time></trkpt><trkpt lat="43.8931947" lon="11.2543"><ele>442.0</ele><time>2026-04-16T06:26:19.984Z</time></trkpt><trkpt lat="43.8932731" lon="11.2541752"><ele>442.0</ele><time>2026-04-16T06:26:21.985Z</time></trkpt><trkpt lat="43.8933015" lon="11.2540847"><ele>442.00000000000006</ele><time>2026-04-16T06:26:23.957Z</time></trkpt><trkpt lat="43.8933343" lon="11.2539596"><ele>442.00000000000006</ele><time>2026-04-16T06:26:25.971Z</time></trkpt><trkpt lat="43.8934104" lon="11.2538392"><ele>442.0</ele><time>2026-04-16T06:26:27.977Z</time></trkpt><trkpt lat="43.893506" lon="11.2537315"><ele>442.0</ele><time>2026-04-16T06:26:29.977Z</time></trkpt><trkpt lat="43.8935986" lon="11.2536468"><ele>444.20000000000005</ele><time>2026-04-16T06:26:31.962Z</time></trkpt><trkpt lat="43.893677" lon="11.2535875"><ele>446.40000000000003</ele><time>2026-04-16T06:26:33.971Z</time></trkpt><trkpt lat="43.8937513" lon="11.2535226"><ele>448.59999999999997</ele><time>2026-04-16T06:26:35.992Z</time></trkpt><trkpt lat="43.8938478" lon="11.2534459"><ele>450.79999999999995</ele><time>2026-04-16T06:26:37.981Z</time></trkpt><trkpt lat="43.8939247" lon="11.2533409"><ele>453.0</ele><time>2026-04-16T06:26:39.98Z</time></trkpt><trkpt lat="43.8939268" lon="11.25321"><ele>455.2</ele><time>2026-04-16T06:26:42.974Z</time></trkpt><trkpt lat="43.8938534" lon="11.2531169"><ele>457.4</ele><time>2026-04-16T06:26:44.978Z</time></trkpt><trkpt lat="43.893818" lon="11.2530272"><ele>459.59999999999997</ele><time>2026-04-16T06:26:46.96Z</time></trkpt><trkpt lat="43.8938182" lon="11.2529043"><ele>461.79999999999995</ele><time>2026-04-16T06:26:48.976Z</time></trkpt><trkpt lat="43.8938245" lon="11.252767"><ele>464.0</ele><time>2026-04-16T06:26:50.985Z</time></trkpt><trkpt lat="43.8938598" lon="11.2526116"><ele>464.0</ele><time>2026-04-16T06:26:52.967Z</time></trkpt><trkpt lat="43.8939187" lon="11.2524538"><ele>464.0</ele><time>2026-04-16T06:26:54.957Z</time></trkpt><trkpt lat="43.893957" lon="11.2523754"><ele>464.0</ele><time>2026-04-16T06:26:55.977Z</time></trkpt><trkpt lat="43.8939958" lon="11.2523023"><ele>464.0</ele><time>2026-04-16T06:26:56.976Z</time></trkpt><trkpt lat="43.8940869" lon="11.2522282"><ele>464.0</ele><time>2026-04-16T06:26:58.976Z</time></trkpt><trkpt lat="43.8941563" lon="11.2521668"><ele>466.0</ele><time>2026-04-16T06:27:23.979Z</time></trkpt><trkpt lat="43.894203" lon="11.2520852"><ele>468.0</ele><time>2026-04-16T06:27:25.976Z</time></trkpt><trkpt lat="43.8942557" lon="11.2519826"><ele>470.0</ele><time>2026-04-16T06:27:27.965Z</time></trkpt><trkpt lat="43.8943027" lon="11.2518635"><ele>472.0</ele><time>2026-04-16T06:27:29.971Z</time></trkpt><trkpt lat="43.8943592" lon="11.2517062"><ele>474.0</ele><time>2026-04-16T06:27:31.972Z</time></trkpt><trkpt lat="43.8943947" lon="11.2516227"><ele>475.8571428571428</ele><time>2026-04-16T06:27:32.981Z</time></trkpt><trkpt lat="43.8944258" lon="11.2515368"><ele>477.71428571428567</ele><time>2026-04-16T06:27:33.964Z</time></trkpt><trkpt lat="43.8944552" lon="11.2514551"><ele>479.57142857142856</ele><time>2026-04-16T06:27:34.969Z</time></trkpt><trkpt lat="43.894484" lon="11.2513735"><ele>481.4285714285714</ele><time>2026-04-16T06:27:35.979Z</time></trkpt><trkpt lat="43.8945168" lon="11.2512826"><ele>483.2857142857142</ele><time>2026-04-16T06:27:36.975Z</time></trkpt><trkpt lat="43.894551" lon="11.2511744"><ele>485.14285714285717</ele><time>2026-04-16T06:27:37.977Z</time></trkpt><trkpt lat="43.8945877" lon="11.2510779"><ele>487.0</ele><time>2026-04-16T06:27:38.977Z</time></trkpt><trkpt lat="43.8946343" lon="11.2509948"><ele>488.14285714285717</ele><time>2026-04-16T06:27:39.955Z</time></trkpt><trkpt lat="43.894673" lon="11.2509128"><ele>489.2857142857142</ele><time>2026-04-16T06:27:40.978Z</time></trkpt><trkpt lat="43.8947173" lon="11.2508246"><ele>490.4285714285714</ele><time>2026-04-16T06:27:41.983Z</time></trkpt><trkpt lat="43.8947628" lon="11.2507309"><ele>491.57142857142856</ele><time>2026-04-16T06:27:42.986Z</time></trkpt><trkpt lat="43.8947993" lon="11.2506483"><ele>492.71428571428567</ele><time>2026-04-16T06:27:43.975Z</time></trkpt><trkpt lat="43.8948421" lon="11.2505676"><ele>493.8571428571428</ele><time>2026-04-16T06:27:44.977Z</time></trkpt><trkpt lat="43.8948794" lon="11.2504903"><ele>494.99999999999994</ele><time>2026-04-16T06:27:45.985Z</time></trkpt><trkpt lat="43.894913" lon="11.2504114"><ele>496.4</ele><time>2026-04-16T06:27:46.975Z</time></trkpt><trkpt lat="43.8949535" lon="11.2503337"><ele>497.8</ele><time>2026-04-16T06:27:47.975Z</time></trkpt><trkpt lat="43.8950166" lon="11.2502072"><ele>499.20000000000005</ele><time>2026-04-16T06:27:49.982Z</time></trkpt><trkpt lat="43.8950131" lon="11.2500942"><ele>500.6</ele><time>2026-04-16T06:27:51.976Z</time></trkpt><trkpt lat="43.894962" lon="11.2499987"><ele>502.0</ele><time>2026-04-16T06:27:53.96Z</time></trkpt><trkpt lat="43.8948576" lon="11.2499136"><ele>502.0</ele><time>2026-04-16T06:27:55.97Z</time></trkpt><trkpt lat="43.8947581" lon="11.2498229"><ele>502.00000000000006</ele><time>2026-04-16T06:27:57.974Z</time></trkpt><trkpt lat="43.8946553" lon="11.2497689"><ele>502.00000000000006</ele><time>2026-04-16T06:27:59.984Z</time></trkpt><trkpt lat="43.8945462" lon="11.2497845"><ele>502.0</ele><time>2026-04-16T06:28:01.973Z</time></trkpt><trkpt lat="43.8944609" lon="11.2498625"><ele>502.0</ele><time>2026-04-16T06:28:03.981Z</time></trkpt><trkpt lat="43.8943847" lon="11.2499436"><ele>502.0</ele><time>2026-04-16T06:28:05.982Z</time></trkpt><trkpt lat="43.8943022" lon="11.2499953"><ele>502.00000000000006</ele><time>2026-04-16T06:28:07.989Z</time></trkpt><trkpt lat="43.8942074" lon="11.2499805"><ele>502.00000000000006</ele><time>2026-04-16T06:28:09.99Z</time></trkpt><trkpt lat="43.894115" lon="11.2498954"><ele>502.0</ele><time>2026-04-16T06:28:11.982Z</time></trkpt><trkpt lat="43.8940342" lon="11.2497797"><ele>502.0</ele><time>2026-04-16T06:28:13.979Z</time></trkpt><trkpt lat="43.8939829" lon="11.2496635"><ele>506.20000000000005</ele><time>2026-04-16T06:28:15.976Z</time></trkpt><trkpt lat="43.8939277" lon="11.2495776"><ele>510.40000000000003</ele><time>2026-04-16T06:28:17.981Z</time></trkpt><trkpt lat="43.8938671" lon="11.2495111"><ele>514.5999999999999</ele><time>2026-04-16T06:28:19.977Z</time></trkpt><trkpt lat="43.893774" lon="11.249417"><ele>518.8</ele><time>2026-04-16T06:28:21.976Z</time></trkpt><trkpt lat="43.8936809" lon="11.2493552"><ele>523.0</ele><time>2026-04-16T06:28:23.98Z</time></trkpt><trkpt lat="43.8936046" lon="11.2492669"><ele>523.0</ele><time>2026-04-16T06:28:25.974Z</time></trkpt><trkpt lat="43.8935459" lon="11.2491651"><ele>523.0</ele><time>2026-04-16T06:28:27.985Z</time></trkpt><trkpt lat="43.8935029" lon="11.2490892"><ele>523.0</ele><time>2026-04-16T06:28:29.971Z</time></trkpt><trkpt lat="43.8935657" lon="11.2490315"><ele>523.0</ele><time>2026-04-16T06:28:32.987Z</time></trkpt><trkpt lat="43.8936307" lon="11.2490476"><ele>523.0</ele><time>2026-04-16T06:28:34.98Z</time></trkpt><trkpt lat="43.8936946" lon="11.249013"><ele>523.0</ele><time>2026-04-16T06:28:36.985Z</time></trkpt><trkpt lat="43.8937468" lon="11.2489285"><ele>524.0</ele><time>2026-04-16T06:28:38.97Z</time></trkpt><trkpt lat="43.8938299" lon="11.2488269"><ele>525.0</ele><time>2026-04-16T06:28:40.987Z</time></trkpt><trkpt lat="43.8939343" lon="11.2487589"><ele>526.0</ele><time>2026-04-16T06:28:42.977Z</time></trkpt><trkpt lat="43.8940263" lon="11.2486851"><ele>527.0</ele><time>2026-04-16T06:28:44.96Z</time></trkpt><trkpt lat="43.8941087" lon="11.2485653"><ele>527.0</ele><time>2026-04-16T06:28:46.981Z</time></trkpt><trkpt lat="43.8941593" lon="11.2484897"><ele>527.0</ele><time>2026-04-16T06:28:47.973Z</time></trkpt><trkpt lat="43.8942037" lon="11.2483988"><ele>527.0</ele><time>2026-04-16T06:28:48.982Z</time></trkpt><trkpt lat="43.8942589" lon="11.2483031"><ele>527.0</ele><time>2026-04-16T06:28:49.977Z</time></trkpt><trkpt lat="43.8943124" lon="11.2482063"><ele>527.0</ele><time>2026-04-16T06:28:50.973Z</time></trkpt><trkpt lat="43.8943573" lon="11.2481272"><ele>527.0</ele><time>2026-04-16T06:28:51.982Z</time></trkpt><trkpt lat="43.8944326" lon="11.2480169"><ele>529.3333333333333</ele><time>2026-04-16T06:28:53.978Z</time></trkpt><trkpt lat="43.8944884" lon="11.2479743"><ele>531.6666666666666</ele><time>2026-04-16T06:28:56.976Z</time></trkpt><trkpt lat="43.8945578" lon="11.2479365"><ele>534.0</ele><time>2026-04-16T06:29:09.972Z</time></trkpt><trkpt lat="43.8946525" lon="11.2479002"><ele>536.3333333333334</ele><time>2026-04-16T06:29:12.979Z</time></trkpt><trkpt lat="43.8947192" lon="11.2478922"><ele>538.6666666666667</ele><time>2026-04-16T06:29:14.978Z</time></trkpt><trkpt lat="43.8947939" lon="11.2478813"><ele>541.0</ele><time>2026-04-16T06:29:16.967Z</time></trkpt><trkpt lat="43.8948597" lon="11.247825"><ele>541.0</ele><time>2026-04-16T06:29:18.974Z</time></trkpt><trkpt lat="43.8949421" lon="11.2477707"><ele>541.0</ele><time>2026-04-16T06:29:20.981Z</time></trkpt><trkpt lat="43.895001" lon="11.2477389"><ele>541.0</ele><time>2026-04-16T06:29:22.98Z</time></trkpt><trkpt lat="43.8950702" lon="11.247693"><ele>541.0</ele><time>2026-04-16T06:29:36.974Z</time></trkpt><trkpt lat="43.8950826" lon="11.2475559"><ele>541.0</ele><time>2026-04-16T06:29:39.985Z</time></trkpt><trkpt lat="43.8950886" lon="11.2474668"><ele>541.0</ele><time>2026-04-16T06:29:41.966Z</time></trkpt><trkpt lat="43.8951019" lon="11.2473481"><ele>544.0</ele><time>2026-04-16T06:29:44.976Z</time></trkpt><trkpt lat="43.8951449" lon="11.2472716"><ele>547.0</ele><time>2026-04-16T06:29:46.972Z</time></trkpt><trkpt lat="43.8951966" lon="11.2471737"><ele>550.0</ele><time>2026-04-16T06:29:48.977Z</time></trkpt><trkpt lat="43.8952399" lon="11.2470966"><ele>553.0</ele><time>2026-04-16T06:29:50.976Z</time></trkpt><trkpt lat="43.8952766" lon="11.2470185"><ele>556.0</ele><time>2026-04-16T06:29:52.973Z</time></trkpt><trkpt lat="43.8952691" lon="11.2469101"><ele>559.0</ele><time>2026-04-16T06:29:55.973Z</time></trkpt><trkpt lat="43.8952522" lon="11.2468"><ele>559.0</ele><time>2026-04-16T06:29:57.978Z</time></trkpt><trkpt lat="43.8952412" lon="11.246686"><ele>559.0</ele><time>2026-04-16T06:29:59.985Z</time></trkpt><trkpt lat="43.8952256" lon="11.2465745"><ele>559.0</ele><time>2026-04-16T06:30:02.984Z</time></trkpt><trkpt lat="43.8952091" lon="11.2464676"><ele>559.0</ele><time>2026-04-16T06:30:05.981Z</time></trkpt><trkpt lat="43.8951724" lon="11.2463748"><ele>559.0</ele><time>2026-04-16T06:30:07.99Z</time></trkpt><trkpt lat="43.8951122" lon="11.2463099"><ele>559.0</ele><time>2026-04-16T06:30:09.993Z</time></trkpt><trkpt lat="43.8950482" lon="11.2462349"><ele>559.0</ele><time>2026-04-16T06:30:11.978Z</time></trkpt><trkpt lat="43.8949699" lon="11.2461953"><ele>559.0</ele><time>2026-04-16T06:30:13.972Z</time></trkpt><trkpt lat="43.8948931" lon="11.2461592"><ele>559.0</ele><time>2026-04-16T06:30:15.977Z</time></trkpt><trkpt lat="43.8948227" lon="11.2461294"><ele>559.0</ele><time>2026-04-16T06:30:17.977Z</time></trkpt><trkpt lat="43.8947548" lon="11.2460951"><ele>559.0</ele><time>2026-04-16T06:30:19.968Z</time></trkpt><trkpt lat="43.8946748" lon="11.2460468"><ele>559.0</ele><time>2026-04-16T06:30:22.983Z</time></trkpt><trkpt lat="43.8946089" lon="11.2460128"><ele>559.0</ele><time>2026-04-16T06:30:24.978Z</time></trkpt><trkpt lat="43.8945475" lon="11.2459582"><ele>559.0</ele><time>2026-04-16T06:30:26.969Z</time></trkpt><trkpt lat="43.894519" lon="11.2458709"><ele>559.0</ele><time>2026-04-16T06:30:28.981Z</time></trkpt><trkpt lat="43.8944997" lon="11.2457448"><ele>559.0</ele><time>2026-04-16T06:30:30.972Z</time></trkpt><trkpt lat="43.8944563" lon="11.2456145"><ele>559.0</ele><time>2026-04-16T06:30:32.99Z</time></trkpt><trkpt lat="43.8944261" lon="11.2454951"><ele>559.0</ele><time>2026-04-16T06:30:34.982Z</time></trkpt><trkpt lat="43.8944119" lon="11.2453584"><ele>561.4</ele><time>2026-04-16T06:30:36.98Z</time></trkpt><trkpt lat="43.8943889" lon="11.2452263"><ele>563.8</ele><time>2026-04-16T06:30:38.976Z</time></trkpt><trkpt lat="43.8943429" lon="11.2451025"><ele>566.2</ele><time>2026-04-16T06:30:40.971Z</time></trkpt><trkpt lat="43.8943002" lon="11.2449889"><ele>568.6</ele><time>2026-04-16T06:30:42.974Z</time></trkpt><trkpt lat="43.8942824" lon="11.2448625"><ele>571.0</ele><time>2026-04-16T06:30:44.968Z</time></trkpt><trkpt lat="43.8942775" lon="11.2447213"><ele>571.6666666666667</ele><time>2026-04-16T06:30:46.976Z</time></trkpt><trkpt lat="43.8942814" lon="11.2446269"><ele>572.3333333333334</ele><time>2026-04-16T06:30:48.963Z</time></trkpt><trkpt lat="43.8943012" lon="11.244528"><ele>573.0</ele><time>2026-04-16T06:30:51.979Z</time></trkpt><trkpt lat="43.8942953" lon="11.2444128"><ele>573.6666666666666</ele><time>2026-04-16T06:30:54.971Z</time></trkpt><trkpt lat="43.8942921" lon="11.2442786"><ele>574.3333333333333</ele><time>2026-04-16T06:30:57.974Z</time></trkpt><trkpt lat="43.8942999" lon="11.2441419"><ele>575.0</ele><time>2026-04-16T06:30:59.962Z</time></trkpt><trkpt lat="43.8943245" lon="11.2440348"><ele>575.6666666666666</ele><time>2026-04-16T06:31:02.982Z</time></trkpt><trkpt lat="43.894326" lon="11.2438893"><ele>576.3333333333333</ele><time>2026-04-16T06:31:05.972Z</time></trkpt><trkpt lat="43.8943173" lon="11.2437805"><ele>577.0</ele><time>2026-04-16T06:31:07.982Z</time></trkpt><trkpt lat="43.8942876" lon="11.2436901"><ele>577.6666666666666</ele><time>2026-04-16T06:31:09.964Z</time></trkpt><trkpt lat="43.894235" lon="11.2435913"><ele>578.3333333333334</ele><time>2026-04-16T06:31:11.983Z</time></trkpt><trkpt lat="43.8941788" lon="11.2434728"><ele>579.0</ele><time>2026-04-16T06:31:13.979Z</time></trkpt><trkpt lat="43.8941424" lon="11.2433617"><ele>577.0</ele><time>2026-04-16T06:31:15.983Z</time></trkpt><trkpt lat="43.8940927" lon="11.2432587"><ele>575.0</ele><time>2026-04-16T06:31:17.975Z</time></trkpt><trkpt lat="43.8940347" lon="11.243169"><ele>573.0</ele><time>2026-04-16T06:31:19.976Z</time></trkpt><trkpt lat="43.8940019" lon="11.2430745"><ele>571.0</ele><time>2026-04-16T06:31:22.048Z</time></trkpt><trkpt lat="43.8939777" lon="11.242974"><ele>569.0</ele><time>2026-04-16T06:31:23.973Z</time></trkpt><trkpt lat="43.8939726" lon="11.2428631"><ele>567.0</ele><time>2026-04-16T06:31:25.972Z</time></trkpt><trkpt lat="43.8939649" lon="11.2427574"><ele>567.0</ele><time>2026-04-16T06:31:27.98Z</time></trkpt><trkpt lat="43.8939568" lon="11.2426693"><ele>567.0</ele><time>2026-04-16T06:31:29.99Z</time></trkpt><trkpt lat="43.8939566" lon="11.2425525"><ele>567.0</ele><time>2026-04-16T06:31:32.973Z</time></trkpt><trkpt lat="43.8939872" lon="11.2424189"><ele>567.0</ele><time>2026-04-16T06:31:35.986Z</time></trkpt><trkpt lat="43.8940344" lon="11.2423368"><ele>567.0</ele><time>2026-04-16T06:31:38.039Z</time></trkpt><trkpt lat="43.8940633" lon="11.2422073"><ele>567.0</ele><time>2026-04-16T06:31:39.974Z</time></trkpt><trkpt lat="43.8940879" lon="11.2420747"><ele>566.8333333333334</ele><time>2026-04-16T06:31:41.996Z</time></trkpt><trkpt lat="43.8940989" lon="11.2419547"><ele>566.6666666666666</ele><time>2026-04-16T06:31:43.988Z</time></trkpt><trkpt lat="43.894099" lon="11.2418593"><ele>566.5</ele><time>2026-04-16T06:31:46.026Z</time></trkpt><trkpt lat="43.8940808" lon="11.241757"><ele>566.3333333333333</ele><time>2026-04-16T06:31:48.985Z</time></trkpt><trkpt lat="43.8940351" lon="11.2416508"><ele>566.1666666666666</ele><time>2026-04-16T06:31:52.034Z</time></trkpt><trkpt lat="43.8940226" lon="11.2415504"><ele>566.0</ele><time>2026-04-16T06:31:53.976Z</time></trkpt><trkpt lat="43.8940045" lon="11.2414218"><ele>565.8333333333333</ele><time>2026-04-16T06:31:55.961Z</time></trkpt><trkpt lat="43.8939721" lon="11.2412853"><ele>565.6666666666666</ele><time>2026-04-16T06:31:57.99Z</time></trkpt><trkpt lat="43.8939357" lon="11.2411736"><ele>565.5</ele><time>2026-04-16T06:31:59.983Z</time></trkpt><trkpt lat="43.8939113" lon="11.2410833"><ele>565.3333333333334</ele><time>2026-04-16T06:32:01.975Z</time></trkpt><trkpt lat="43.893887" lon="11.2409837"><ele>565.1666666666667</ele><time>2026-04-16T06:32:03.972Z</time></trkpt><trkpt lat="43.8938553" lon="11.2408528"><ele>565.0</ele><time>2026-04-16T06:32:05.964Z</time></trkpt><trkpt lat="43.8938169" lon="11.2407072"><ele>564.3333333333334</ele><time>2026-04-16T06:32:07.968Z</time></trkpt><trkpt lat="43.8938106" lon="11.2405631"><ele>563.6666666666667</ele><time>2026-04-16T06:32:09.974Z</time></trkpt><trkpt lat="43.8938181" lon="11.2404282"><ele>563.0</ele><time>2026-04-16T06:32:11.971Z</time></trkpt><trkpt lat="43.8938603" lon="11.2403507"><ele>562.3333333333334</ele><time>2026-04-16T06:32:14.963Z</time></trkpt><trkpt lat="43.8937813" lon="11.2402989"><ele>561.6666666666666</ele><time>2026-04-16T06:32:27.036Z</time></trkpt><trkpt lat="43.8937265" lon="11.2402426"><ele>561.0</ele><time>2026-04-16T06:32:28.975Z</time></trkpt><trkpt lat="43.8936815" lon="11.2401674"><ele>561.0</ele><time>2026-04-16T06:32:30.965Z</time></trkpt><trkpt lat="43.8936652" lon="11.2400579"><ele>561.0</ele><time>2026-04-16T06:32:32.958Z</time></trkpt><trkpt lat="43.8936509" lon="11.2399305"><ele>561.0</ele><time>2026-04-16T06:32:34.958Z</time></trkpt><trkpt lat="43.8935988" lon="11.2398467"><ele>561.0</ele><time>2026-04-16T06:32:38.034Z</time></trkpt><trkpt lat="43.8935331" lon="11.2397597"><ele>561.0</ele><time>2026-04-16T06:32:42.96Z</time></trkpt><trkpt lat="43.8934985" lon="11.2396758"><ele>561.0</ele><time>2026-04-16T06:32:44.964Z</time></trkpt><trkpt lat="43.8934518" lon="11.2395966"><ele>560.1666666666666</ele><time>2026-04-16T06:32:47.97Z</time></trkpt><trkpt lat="43.8933871" lon="11.2395471"><ele>559.3333333333334</ele><time>2026-04-16T06:32:51.964Z</time></trkpt><trkpt lat="43.8934452" lon="11.2396391"><ele>558.5</ele><time>2026-04-16T06:33:17.965Z</time></trkpt><trkpt lat="43.8935114" lon="11.2397171"><ele>557.6666666666667</ele><time>2026-04-16T06:33:19.972Z</time></trkpt><trkpt lat="43.8935739" lon="11.2397902"><ele>556.8333333333334</ele><time>2026-04-16T06:33:21.965Z</time></trkpt><trkpt lat="43.893619" lon="11.2397275"><ele>556.0</ele><time>2026-04-16T06:33:38.969Z</time></trkpt><trkpt lat="43.8935788" lon="11.2396424"><ele>556.0</ele><time>2026-04-16T06:33:42.973Z</time></trkpt><trkpt lat="43.8935492" lon="11.2395632"><ele>556.0</ele><time>2026-04-16T06:33:44.96Z</time></trkpt><trkpt lat="43.8935268" lon="11.2394795"><ele>556.0</ele><time>2026-04-16T06:33:46.973Z</time></trkpt><trkpt lat="43.8935216" lon="11.2393708"><ele>556.0</ele><time>2026-04-16T06:33:49.977Z</time></trkpt><trkpt lat="43.8935028" lon="11.2392432"><ele>556.0</ele><time>2026-04-16T06:33:52.97Z</time></trkpt><trkpt lat="43.8934992" lon="11.2391408"><ele>556.0</ele><time>2026-04-16T06:33:54.97Z</time></trkpt><trkpt lat="43.8934993" lon="11.2390355"><ele>555.0</ele><time>2026-04-16T06:33:56.98Z</time></trkpt><trkpt lat="43.893486" lon="11.2389266"><ele>554.0</ele><time>2026-04-16T06:33:58.97Z</time></trkpt><trkpt lat="43.8934641" lon="11.238826"><ele>553.0</ele><time>2026-04-16T06:34:00.976Z</time></trkpt><trkpt lat="43.8934434" lon="11.238736"><ele>552.0</ele><time>2026-04-16T06:34:02.974Z</time></trkpt><trkpt lat="43.8934253" lon="11.2386457"><ele>551.0</ele><time>2026-04-16T06:34:04.976Z</time></trkpt><trkpt lat="43.8933937" lon="11.2385393"><ele>550.0</ele><time>2026-04-16T06:34:06.98Z</time></trkpt><trkpt lat="43.8933737" lon="11.2384253"><ele>555.3333333333334</ele><time>2026-04-16T06:34:08.972Z</time></trkpt><trkpt lat="43.8933628" lon="11.2383235"><ele>560.6666666666667</ele><time>2026-04-16T06:34:10.974Z</time></trkpt><trkpt lat="43.8933472" lon="11.2382119"><ele>566.0</ele><time>2026-04-16T06:34:13.97Z</time></trkpt><trkpt lat="43.8933217" lon="11.2381169"><ele>571.3333333333334</ele><time>2026-04-16T06:34:29.977Z</time></trkpt><trkpt lat="43.8933164" lon="11.2379819"><ele>576.6666666666666</ele><time>2026-04-16T06:34:52.973Z</time></trkpt><trkpt lat="43.8933056" lon="11.2378762"><ele>582.0</ele><time>2026-04-16T06:34:59.975Z</time></trkpt><trkpt lat="43.8933013" lon="11.2377819"><ele>582.0</ele><time>2026-04-16T06:35:08.036Z</time></trkpt><trkpt lat="43.8932953" lon="11.2376924"><ele>582.0</ele><time>2026-04-16T06:35:13.963Z</time></trkpt><trkpt lat="43.8932962" lon="11.2376024"><ele>582.0</ele><time>2026-04-16T06:35:21.963Z</time></trkpt><trkpt lat="43.8933215" lon="11.2375195"><ele>582.0</ele><time>2026-04-16T06:35:57.957Z</time></trkpt><trkpt lat="43.8933312" lon="11.2374153"><ele>582.0</ele><time>2026-04-16T06:36:07.842Z</time></trkpt><trkpt lat="43.8933353" lon="11.2375158"><ele>582.0</ele><time>2026-04-16T06:42:13.965Z</time></trkpt><trkpt lat="43.8933379" lon="11.2376097"><ele>582.0</ele><time>2026-04-16T06:42:20.967Z</time></trkpt><trkpt lat="43.8933377" lon="11.2376989"><ele>582.0</ele><time>2026-04-16T06:42:29.945Z</time></trkpt><trkpt lat="43.8933407" lon="11.2377966"><ele>582.0</ele><time>2026-04-16T06:42:36.951Z</time></trkpt><trkpt lat="43.8932763" lon="11.2377968"><ele>582.0</ele><time>2026-04-16T06:43:22.952Z</time></trkpt><trkpt lat="43.893254" lon="11.2377144"><ele>582.0</ele><time>2026-04-16T06:43:37.964Z</time></trkpt><trkpt lat="43.893212" lon="11.2376491"><ele>582.0</ele><time>2026-04-16T06:43:59.957Z</time></trkpt><trkpt lat="43.893174" lon="11.2375743"><ele>582.0</ele><time>2026-04-16T06:44:19.967Z</time></trkpt><trkpt lat="43.893107" lon="11.2374616"><ele>582.0</ele><time>2026-04-16T06:45:19.96Z</time></trkpt><trkpt lat="43.8931787" lon="11.2374701"><ele>582.0</ele><time>2026-04-16T06:45:39.023Z</time></trkpt><trkpt lat="43.8932164" lon="11.2375477"><ele>582.0</ele><time>2026-04-16T06:45:49.034Z</time></trkpt><trkpt lat="43.8932481" lon="11.2376362"><ele>582.0</ele><time>2026-04-16T06:45:55.862Z</time></trkpt><trkpt lat="43.8932516" lon="11.2377285"><ele>582.0</ele><time>2026-04-16T06:46:05.955Z</time></trkpt><trkpt lat="43.8932927" lon="11.2377996"><ele>582.0</ele><time>2026-04-16T06:46:15.956Z</time></trkpt><trkpt lat="43.8932947" lon="11.2378999"><ele>582.0</ele><time>2026-04-16T06:46:58.962Z</time></trkpt><trkpt lat="43.8932936" lon="11.2380037"><ele>582.0</ele><time>2026-04-16T06:47:18.969Z</time></trkpt><trkpt lat="43.8932986" lon="11.2381236"><ele>582.6666666666666</ele><time>2026-04-16T06:47:20.951Z</time></trkpt><trkpt lat="43.8933237" lon="11.2382772"><ele>583.3333333333334</ele><time>2026-04-16T06:47:22.94Z</time></trkpt><trkpt lat="43.8933667" lon="11.2384002"><ele>584.0</ele><time>2026-04-16T06:47:24.963Z</time></trkpt><trkpt lat="43.893385" lon="11.2385052"><ele>584.6666666666667</ele><time>2026-04-16T06:47:26.961Z</time></trkpt><trkpt lat="43.8934048" lon="11.2385919"><ele>585.3333333333334</ele><time>2026-04-16T06:47:28.959Z</time></trkpt><trkpt lat="43.8934365" lon="11.2387128"><ele>586.0</ele><time>2026-04-16T06:47:30.968Z</time></trkpt><trkpt lat="43.893462" lon="11.2388057"><ele>581.0</ele><time>2026-04-16T06:47:32.958Z</time></trkpt><trkpt lat="43.8934667" lon="11.2389008"><ele>576.0</ele><time>2026-04-16T06:47:34.965Z</time></trkpt><trkpt lat="43.8934728" lon="11.2390071"><ele>571.0</ele><time>2026-04-16T06:47:36.964Z</time></trkpt><trkpt lat="43.8934754" lon="11.2391116"><ele>566.0</ele><time>2026-04-16T06:47:38.944Z</time></trkpt><trkpt lat="43.8934979" lon="11.2392294"><ele>561.0</ele><time>2026-04-16T06:47:41.964Z</time></trkpt><trkpt lat="43.8935162" lon="11.2393456"><ele>556.0</ele><time>2026-04-16T06:47:43.946Z</time></trkpt><trkpt lat="43.8935628" lon="11.2394715"><ele>556.0</ele><time>2026-04-16T06:47:45.96Z</time></trkpt><trkpt lat="43.8936019" lon="11.2395413"><ele>556.0</ele><time>2026-04-16T06:47:46.967Z</time></trkpt><trkpt lat="43.8936666" lon="11.2396692"><ele>556.0</ele><time>2026-04-16T06:47:48.969Z</time></trkpt><trkpt lat="43.8936911" lon="11.23981"><ele>556.0</ele><time>2026-04-16T06:47:50.972Z</time></trkpt><trkpt lat="43.8937049" lon="11.2399532"><ele>556.0</ele><time>2026-04-16T06:47:52.97Z</time></trkpt><trkpt lat="43.8937384" lon="11.240095"><ele>557.0</ele><time>2026-04-16T06:47:54.967Z</time></trkpt><trkpt lat="43.8937772" lon="11.240225"><ele>558.0</ele><time>2026-04-16T06:47:56.949Z</time></trkpt><trkpt lat="43.8938065" lon="11.2403502"><ele>559.0</ele><time>2026-04-16T06:47:58.965Z</time></trkpt><trkpt lat="43.8938329" lon="11.2404937"><ele>560.0</ele><time>2026-04-16T06:48:00.963Z</time></trkpt><trkpt lat="43.8938607" lon="11.24063"><ele>561.0</ele><time>2026-04-16T06:48:02.967Z</time></trkpt><trkpt lat="43.8938997" lon="11.2407553"><ele>561.8</ele><time>2026-04-16T06:48:04.966Z</time></trkpt><trkpt lat="43.893942" lon="11.2408813"><ele>562.6</ele><time>2026-04-16T06:48:06.968Z</time></trkpt><trkpt lat="43.8939784" lon="11.2410019"><ele>563.4</ele><time>2026-04-16T06:48:08.965Z</time></trkpt><trkpt lat="43.8939959" lon="11.2411231"><ele>564.2</ele><time>2026-04-16T06:48:10.972Z</time></trkpt><trkpt lat="43.8940029" lon="11.2412415"><ele>565.0</ele><time>2026-04-16T06:48:12.965Z</time></trkpt><trkpt lat="43.8940184" lon="11.2413556"><ele>565.0</ele><time>2026-04-16T06:48:14.964Z</time></trkpt><trkpt lat="43.8940574" lon="11.2414616"><ele>565.0</ele><time>2026-04-16T06:48:16.97Z</time></trkpt><trkpt lat="43.8940982" lon="11.2415602"><ele>565.0</ele><time>2026-04-16T06:48:18.961Z</time></trkpt><trkpt lat="43.8941156" lon="11.2416818"><ele>565.0</ele><time>2026-04-16T06:48:21.969Z</time></trkpt><trkpt lat="43.8941293" lon="11.2417829"><ele>565.0</ele><time>2026-04-16T06:48:25.03Z</time></trkpt><trkpt lat="43.8941278" lon="11.241911"><ele>565.0</ele><time>2026-04-16T06:48:39.964Z</time></trkpt><trkpt lat="43.8941119" lon="11.2420186"><ele>565.1666666666667</ele><time>2026-04-16T06:48:42.027Z</time></trkpt><trkpt lat="43.8940824" lon="11.2420964"><ele>565.3333333333334</ele><time>2026-04-16T06:48:42.962Z</time></trkpt><trkpt lat="43.8940327" lon="11.2422103"><ele>565.5</ele><time>2026-04-16T06:48:44.969Z</time></trkpt><trkpt lat="43.8939911" lon="11.2423094"><ele>565.6666666666666</ele><time>2026-04-16T06:48:46.972Z</time></trkpt><trkpt lat="43.8939947" lon="11.2424071"><ele>565.8333333333333</ele><time>2026-04-16T06:48:49.025Z</time></trkpt><trkpt lat="43.8939892" lon="11.2425367"><ele>566.0</ele><time>2026-04-16T06:48:50.97Z</time></trkpt><trkpt lat="43.8939998" lon="11.2426835"><ele>566.2</ele><time>2026-04-16T06:48:52.979Z</time></trkpt><trkpt lat="43.8940061" lon="11.2428234"><ele>566.4000000000001</ele><time>2026-04-16T06:48:54.972Z</time></trkpt><trkpt lat="43.8940311" lon="11.2429676"><ele>566.6</ele><time>2026-04-16T06:48:56.968Z</time></trkpt><trkpt lat="43.8940773" lon="11.2430967"><ele>566.8000000000001</ele><time>2026-04-16T06:48:58.963Z</time></trkpt><trkpt lat="43.8941287" lon="11.243218"><ele>567.0</ele><time>2026-04-16T06:49:00.954Z</time></trkpt><trkpt lat="43.8941672" lon="11.2433506"><ele>565.8000000000001</ele><time>2026-04-16T06:49:02.975Z</time></trkpt><trkpt lat="43.8942267" lon="11.2434679"><ele>564.6</ele><time>2026-04-16T06:49:04.948Z</time></trkpt><trkpt lat="43.8943026" lon="11.243586"><ele>563.4000000000001</ele><time>2026-04-16T06:49:07.028Z</time></trkpt><trkpt lat="43.8943435" lon="11.2437242"><ele>562.2</ele><time>2026-04-16T06:49:09.043Z</time></trkpt><trkpt lat="43.8943502" lon="11.2438561"><ele>561.0</ele><time>2026-04-16T06:49:11.012Z</time></trkpt><trkpt lat="43.8943426" lon="11.2439976"><ele>563.3333333333334</ele><time>2026-04-16T06:49:12.949Z</time></trkpt><trkpt lat="43.8943293" lon="11.2441355"><ele>565.6666666666666</ele><time>2026-04-16T06:49:15.001Z</time></trkpt><trkpt lat="43.8943267" lon="11.2442855"><ele>568.0</ele><time>2026-04-16T06:49:17.033Z</time></trkpt><trkpt lat="43.8943193" lon="11.2444034"><ele>570.3333333333333</ele><time>2026-04-16T06:49:18.961Z</time></trkpt><trkpt lat="43.8943003" lon="11.2445065"><ele>572.6666666666666</ele><time>2026-04-16T06:49:20.96Z</time></trkpt><trkpt lat="43.8942904" lon="11.244607"><ele>575.0</ele><time>2026-04-16T06:49:22.933Z</time></trkpt><trkpt lat="43.8942935" lon="11.2447456"><ele>574.3333333333333</ele><time>2026-04-16T06:49:25.062Z</time></trkpt><trkpt lat="43.8943206" lon="11.2448989"><ele>573.6666666666666</ele><time>2026-04-16T06:49:26.96Z</time></trkpt><trkpt lat="43.8943742" lon="11.2450478"><ele>573.0</ele><time>2026-04-16T06:49:28.965Z</time></trkpt><trkpt lat="43.8943974" lon="11.2451299"><ele>572.3333333333334</ele><time>2026-04-16T06:49:29.952Z</time></trkpt><trkpt lat="43.8944098" lon="11.2452247"><ele>571.6666666666667</ele><time>2026-04-16T06:49:30.991Z</time></trkpt><trkpt lat="43.8944232" lon="11.2453164"><ele>571.0</ele><time>2026-04-16T06:49:31.951Z</time></trkpt><trkpt lat="43.8944388" lon="11.2454048"><ele>571.0</ele><time>2026-04-16T06:49:32.965Z</time></trkpt><trkpt lat="43.8944785" lon="11.2455516"><ele>571.0</ele><time>2026-04-16T06:49:34.954Z</time></trkpt><trkpt lat="43.8945089" lon="11.2456593"><ele>571.0</ele><time>2026-04-16T06:49:36.959Z</time></trkpt><trkpt lat="43.8945262" lon="11.24578"><ele>571.0</ele><time>2026-04-16T06:49:38.949Z</time></trkpt><trkpt lat="43.8946013" lon="11.245888"><ele>571.0</ele><time>2026-04-16T06:49:40.958Z</time></trkpt><trkpt lat="43.8946906" lon="11.245952"><ele>569.0</ele><time>2026-04-16T06:49:42.94Z</time></trkpt><trkpt lat="43.8947588" lon="11.2459933"><ele>567.0</ele><time>2026-04-16T06:49:44.958Z</time></trkpt><trkpt lat="43.8948184" lon="11.2460307"><ele>565.0</ele><time>2026-04-16T06:49:46.972Z</time></trkpt><trkpt lat="43.8948925" lon="11.2460852"><ele>563.0</ele><time>2026-04-16T06:49:48.963Z</time></trkpt><trkpt lat="43.8949963" lon="11.2461322"><ele>561.0</ele><time>2026-04-16T06:49:50.961Z</time></trkpt><trkpt lat="43.8950982" lon="11.2461732"><ele>559.0</ele><time>2026-04-16T06:49:52.955Z</time></trkpt><trkpt lat="43.8951678" lon="11.2462437"><ele>559.0</ele><time>2026-04-16T06:49:54.961Z</time></trkpt><trkpt lat="43.8952428" lon="11.246356"><ele>559.0</ele><time>2026-04-16T06:49:56.957Z</time></trkpt><trkpt lat="43.8952682" lon="11.2464469"><ele>559.0</ele><time>2026-04-16T06:49:59.037Z</time></trkpt><trkpt lat="43.8952909" lon="11.2465537"><ele>559.0</ele><time>2026-04-16T06:50:01.96Z</time></trkpt><trkpt lat="43.8953117" lon="11.2466531"><ele>559.0</ele><time>2026-04-16T06:50:03.965Z</time></trkpt><trkpt lat="43.895338" lon="11.2467778"><ele>559.0</ele><time>2026-04-16T06:50:05.949Z</time></trkpt><trkpt lat="43.8953592" lon="11.2468892"><ele>559.0</ele><time>2026-04-16T06:50:07.962Z</time></trkpt><trkpt lat="43.895353" lon="11.2469945"><ele>559.0</ele><time>2026-04-16T06:50:10.958Z</time></trkpt><trkpt lat="43.8952945" lon="11.2470989"><ele>559.0</ele><time>2026-04-16T06:50:13.965Z</time></trkpt><trkpt lat="43.8952429" lon="11.2471636"><ele>559.0</ele><time>2026-04-16T06:50:15.971Z</time></trkpt><trkpt lat="43.8951902" lon="11.2472482"><ele>559.0</ele><time>2026-04-16T06:50:17.952Z</time></trkpt><trkpt lat="43.8951703" lon="11.2473449"><ele>559.0</ele><time>2026-04-16T06:50:19.944Z</time></trkpt><trkpt lat="43.8951824" lon="11.2474496"><ele>557.5</ele><time>2026-04-16T06:50:21.971Z</time></trkpt><trkpt lat="43.8951889" lon="11.2475492"><ele>556.0</ele><time>2026-04-16T06:50:23.957Z</time></trkpt><trkpt lat="43.8952279" lon="11.2476247"><ele>554.5</ele><time>2026-04-16T06:50:25.965Z</time></trkpt><trkpt lat="43.8952932" lon="11.2476342"><ele>553.0</ele><time>2026-04-16T06:50:27.962Z</time></trkpt><trkpt lat="43.8953822" lon="11.247609"><ele>551.5</ele><time>2026-04-16T06:50:30.944Z</time></trkpt><trkpt lat="43.8954477" lon="11.2475996"><ele>550.0</ele><time>2026-04-16T06:50:32.962Z</time></trkpt><trkpt lat="43.8955361" lon="11.2476027"><ele>550.0</ele><time>2026-04-16T06:50:35.957Z</time></trkpt><trkpt lat="43.8956123" lon="11.2476058"><ele>550.0</ele><time>2026-04-16T06:50:37.963Z</time></trkpt><trkpt lat="43.895694" lon="11.2476015"><ele>550.0</ele><time>2026-04-16T06:50:39.959Z</time></trkpt><trkpt lat="43.8957625" lon="11.2476052"><ele>550.0</ele><time>2026-04-16T06:50:41.967Z</time></trkpt><trkpt lat="43.8958454" lon="11.2476078"><ele>550.0</ele><time>2026-04-16T06:50:43.962Z</time></trkpt><trkpt lat="43.8959506" lon="11.2476276"><ele>550.0</ele><time>2026-04-16T06:50:45.972Z</time></trkpt><trkpt lat="43.8960945" lon="11.2477063"><ele>549.5</ele><time>2026-04-16T06:50:48.958Z</time></trkpt><trkpt lat="43.8961917" lon="11.2477496"><ele>549.0</ele><time>2026-04-16T06:50:50.951Z</time></trkpt><trkpt lat="43.8962964" lon="11.2478009"><ele>548.5</ele><time>2026-04-16T06:50:52.961Z</time></trkpt><trkpt lat="43.8963619" lon="11.2478415"><ele>548.0</ele><time>2026-04-16T06:50:54.965Z</time></trkpt><trkpt lat="43.896414" lon="11.2478925"><ele>547.5</ele><time>2026-04-16T06:50:56.97Z</time></trkpt><trkpt lat="43.8964933" lon="11.2479579"><ele>547.0</ele><time>2026-04-16T06:50:59.963Z</time></trkpt><trkpt lat="43.8965556" lon="11.2479992"><ele>547.0</ele><time>2026-04-16T06:51:02.956Z</time></trkpt><trkpt lat="43.8966121" lon="11.2480515"><ele>547.0</ele><time>2026-04-16T06:51:05.967Z</time></trkpt><trkpt lat="43.8966719" lon="11.2481096"><ele>547.0</ele><time>2026-04-16T06:51:08.967Z</time></trkpt><trkpt lat="43.8967505" lon="11.2481912"><ele>547.0</ele><time>2026-04-16T06:51:11.962Z</time></trkpt><trkpt lat="43.8968056" lon="11.2482441"><ele>547.0</ele><time>2026-04-16T06:51:13.957Z</time></trkpt><trkpt lat="43.8968699" lon="11.2483184"><ele>547.0</ele><time>2026-04-16T06:51:15.96Z</time></trkpt><trkpt lat="43.8969508" lon="11.2483835"><ele>546.1428571428571</ele><time>2026-04-16T06:51:17.948Z</time></trkpt><trkpt lat="43.8970099" lon="11.2484327"><ele>545.2857142857142</ele><time>2026-04-16T06:51:19.963Z</time></trkpt><trkpt lat="43.8970604" lon="11.2485006"><ele>544.4285714285714</ele><time>2026-04-16T06:51:22.051Z</time></trkpt><trkpt lat="43.8971116" lon="11.2485596"><ele>543.5714285714286</ele><time>2026-04-16T06:51:23.966Z</time></trkpt><trkpt lat="43.8971867" lon="11.2485965"><ele>542.7142857142858</ele><time>2026-04-16T06:51:26.979Z</time></trkpt><trkpt lat="43.8972508" lon="11.2486176"><ele>541.8571428571429</ele><time>2026-04-16T06:51:28.965Z</time></trkpt><trkpt lat="43.8973375" lon="11.2486396"><ele>541.0</ele><time>2026-04-16T06:51:32.029Z</time></trkpt><trkpt lat="43.897399" lon="11.2486782"><ele>541.0</ele><time>2026-04-16T06:51:34.963Z</time></trkpt><trkpt lat="43.8974623" lon="11.248669"><ele>541.0</ele><time>2026-04-16T06:51:39.967Z</time></trkpt><trkpt lat="43.8975127" lon="11.2485797"><ele>541.0</ele><time>2026-04-16T06:51:51.967Z</time></trkpt><trkpt lat="43.8975908" lon="11.2485456"><ele>541.0</ele><time>2026-04-16T06:51:54.949Z</time></trkpt><trkpt lat="43.8976666" lon="11.2484866"><ele>541.0</ele><time>2026-04-16T06:51:56.956Z</time></trkpt><trkpt lat="43.8977654" lon="11.2484006"><ele>541.0</ele><time>2026-04-16T06:51:58.962Z</time></trkpt><trkpt lat="43.897858" lon="11.2483197"><ele>540.2</ele><time>2026-04-16T06:52:00.972Z</time></trkpt><trkpt lat="43.8979455" lon="11.2482614"><ele>539.4000000000001</ele><time>2026-04-16T06:52:02.958Z</time></trkpt><trkpt lat="43.8980458" lon="11.2481834"><ele>538.6</ele><time>2026-04-16T06:52:04.967Z</time></trkpt><trkpt lat="43.8981431" lon="11.2481268"><ele>537.8000000000001</ele><time>2026-04-16T06:52:06.962Z</time></trkpt><trkpt lat="43.8982436" lon="11.2480607"><ele>537.0</ele><time>2026-04-16T06:52:08.968Z</time></trkpt><trkpt lat="43.8983451" lon="11.2479938"><ele>535.5</ele><time>2026-04-16T06:52:10.961Z</time></trkpt><trkpt lat="43.8984137" lon="11.2479173"><ele>534.0</ele><time>2026-04-16T06:52:12.962Z</time></trkpt><trkpt lat="43.8984896" lon="11.2478443"><ele>532.5</ele><time>2026-04-16T06:52:14.97Z</time></trkpt><trkpt lat="43.8985598" lon="11.2477965"><ele>531.0</ele><time>2026-04-16T06:52:16.949Z</time></trkpt><trkpt lat="43.8986284" lon="11.2477342"><ele>529.5</ele><time>2026-04-16T06:52:18.97Z</time></trkpt><trkpt lat="43.8987007" lon="11.2476727"><ele>528.0</ele><time>2026-04-16T06:52:20.962Z</time></trkpt><trkpt lat="43.8987677" lon="11.2476408"><ele>526.0</ele><time>2026-04-16T06:52:23.961Z</time></trkpt><trkpt lat="43.8988524" lon="11.2476544"><ele>524.0</ele><time>2026-04-16T06:52:26.97Z</time></trkpt><trkpt lat="43.8989375" lon="11.2476511"><ele>522.0</ele><time>2026-04-16T06:52:29.964Z</time></trkpt><trkpt lat="43.8990019" lon="11.2476058"><ele>520.0</ele><time>2026-04-16T06:52:32.964Z</time></trkpt><trkpt lat="43.8990693" lon="11.2475211"><ele>518.0</ele><time>2026-04-16T06:52:35.968Z</time></trkpt><trkpt lat="43.8991317" lon="11.247436"><ele>516.0</ele><time>2026-04-16T06:52:38.964Z</time></trkpt><trkpt lat="43.8991652" lon="11.2473619"><ele>514.5</ele><time>2026-04-16T06:52:41.958Z</time></trkpt><trkpt lat="43.8992096" lon="11.2472745"><ele>513.0</ele><time>2026-04-16T06:52:44.957Z</time></trkpt><trkpt lat="43.8992727" lon="11.2471742"><ele>511.5</ele><time>2026-04-16T06:52:47.952Z</time></trkpt><trkpt lat="43.8993272" lon="11.2470935"><ele>510.0</ele><time>2026-04-16T06:52:49.964Z</time></trkpt><trkpt lat="43.8993872" lon="11.2470094"><ele>508.5</ele><time>2026-04-16T06:52:51.961Z</time></trkpt><trkpt lat="43.8994498" lon="11.2469312"><ele>507.0</ele><time>2026-04-16T06:52:53.968Z</time></trkpt><trkpt lat="43.8995097" lon="11.2468532"><ele>506.6666666666667</ele><time>2026-04-16T06:52:55.949Z</time></trkpt><trkpt lat="43.8995538" lon="11.2467639"><ele>506.33333333333337</ele><time>2026-04-16T06:52:57.956Z</time></trkpt><trkpt lat="43.8995986" lon="11.2466826"><ele>506.0</ele><time>2026-04-16T06:52:59.958Z</time></trkpt><trkpt lat="43.8996452" lon="11.2466202"><ele>505.6666666666667</ele><time>2026-04-16T06:53:02.042Z</time></trkpt><trkpt lat="43.8997046" lon="11.2465353"><ele>505.33333333333337</ele><time>2026-04-16T06:53:04.986Z</time></trkpt><trkpt lat="43.8997694" lon="11.2464614"><ele>505.0</ele><time>2026-04-16T06:53:07.981Z</time></trkpt><trkpt lat="43.8998327" lon="11.246384"><ele>505.50000000000006</ele><time>2026-04-16T06:53:10.966Z</time></trkpt><trkpt lat="43.8998745" lon="11.246311"><ele>506.0</ele><time>2026-04-16T06:53:13.99Z</time></trkpt><trkpt lat="43.8999391" lon="11.2462638"><ele>506.5</ele><time>2026-04-16T06:53:16.965Z</time></trkpt><trkpt lat="43.900017" lon="11.2462018"><ele>507.0</ele><time>2026-04-16T06:53:19.974Z</time></trkpt><trkpt lat="43.9000721" lon="11.2461499"><ele>507.50000000000006</ele><time>2026-04-16T06:53:22.023Z</time></trkpt><trkpt lat="43.9001358" lon="11.2461057"><ele>508.0</ele><time>2026-04-16T06:53:24.968Z</time></trkpt><trkpt lat="43.900212" lon="11.2460642"><ele>508.00000000000006</ele><time>2026-04-16T06:53:27.967Z</time></trkpt><trkpt lat="43.9003115" lon="11.2460642"><ele>508.0</ele><time>2026-04-16T06:53:31.035Z</time></trkpt><trkpt lat="43.9003843" lon="11.2460745"><ele>508.0</ele><time>2026-04-16T06:53:32.968Z</time></trkpt><trkpt lat="43.9004578" lon="11.2460623"><ele>508.0</ele><time>2026-04-16T06:53:34.974Z</time></trkpt><trkpt lat="43.9005324" lon="11.2460197"><ele>508.00000000000006</ele><time>2026-04-16T06:53:37.982Z</time></trkpt><trkpt lat="43.900601" lon="11.2459562"><ele>508.0</ele><time>2026-04-16T06:53:40.977Z</time></trkpt><trkpt lat="43.9006508" lon="11.2458738"><ele>508.0</ele><time>2026-04-16T06:53:44.976Z</time></trkpt><trkpt lat="43.9007063" lon="11.2457974"><ele>508.0</ele><time>2026-04-16T06:53:47.977Z</time></trkpt><trkpt lat="43.9007544" lon="11.2457324"><ele>508.0</ele><time>2026-04-16T06:53:51.031Z</time></trkpt><trkpt lat="43.9008129" lon="11.2456566"><ele>508.0</ele><time>2026-04-16T06:53:53.963Z</time></trkpt><trkpt lat="43.9008722" lon="11.2455967"><ele>508.0</ele><time>2026-04-16T06:53:56.977Z</time></trkpt><trkpt lat="43.9009385" lon="11.2455394"><ele>508.0</ele><time>2026-04-16T06:54:00.967Z</time></trkpt><trkpt lat="43.9010047" lon="11.2455111"><ele>508.0</ele><time>2026-04-16T06:54:02.977Z</time></trkpt><trkpt lat="43.9010707" lon="11.2454769"><ele>507.50000000000006</ele><time>2026-04-16T06:54:05.965Z</time></trkpt><trkpt lat="43.9011449" lon="11.2454635"><ele>507.0</ele><time>2026-04-16T06:54:08.974Z</time></trkpt><trkpt lat="43.9012248" lon="11.2454693"><ele>506.5</ele><time>2026-04-16T06:54:12.031Z</time></trkpt><trkpt lat="43.901316" lon="11.2454839"><ele>506.0</ele><time>2026-04-16T06:54:14.979Z</time></trkpt><trkpt lat="43.9014089" lon="11.2455085"><ele>505.50000000000006</ele><time>2026-04-16T06:54:17.968Z</time></trkpt><trkpt lat="43.9015024" lon="11.2455267"><ele>505.0</ele><time>2026-04-16T06:54:20.991Z</time></trkpt><trkpt lat="43.9015671" lon="11.2455483"><ele>505.00000000000006</ele><time>2026-04-16T06:54:22.965Z</time></trkpt><trkpt lat="43.9016535" lon="11.2455731"><ele>505.0</ele><time>2026-04-16T06:54:26.031Z</time></trkpt><trkpt lat="43.9017258" lon="11.2455806"><ele>505.0</ele><time>2026-04-16T06:54:35.973Z</time></trkpt><trkpt lat="43.9017888" lon="11.2455532"><ele>505.0</ele><time>2026-04-16T06:54:41.962Z</time></trkpt><trkpt lat="43.9018669" lon="11.2454884"><ele>505.00000000000006</ele><time>2026-04-16T06:54:44.975Z</time></trkpt><trkpt lat="43.9019308" lon="11.2454502"><ele>505.0</ele><time>2026-04-16T06:54:47.038Z</time></trkpt><trkpt lat="43.9020039" lon="11.2454036"><ele>508.33333333333337</ele><time>2026-04-16T06:54:48.958Z</time></trkpt><trkpt lat="43.9020991" lon="11.2453556"><ele>511.6666666666667</ele><time>2026-04-16T06:54:50.97Z</time></trkpt><trkpt lat="43.9022072" lon="11.2453147"><ele>515.0</ele><time>2026-04-16T06:54:52.972Z</time></trkpt><trkpt lat="43.9022839" lon="11.2452682"><ele>518.3333333333334</ele><time>2026-04-16T06:54:54.981Z</time></trkpt><trkpt lat="43.9023565" lon="11.2452199"><ele>521.6666666666666</ele><time>2026-04-16T06:54:56.964Z</time></trkpt><trkpt lat="43.9024121" lon="11.245169"><ele>525.0</ele><time>2026-04-16T06:54:58.961Z</time></trkpt><trkpt lat="43.9024629" lon="11.2451148"><ele>525.0</ele><time>2026-04-16T06:55:00.958Z</time></trkpt><trkpt lat="43.9025233" lon="11.2450596"><ele>525.0</ele><time>2026-04-16T06:55:02.954Z</time></trkpt><trkpt lat="43.9025952" lon="11.2450144"><ele>525.0</ele><time>2026-04-16T06:55:04.965Z</time></trkpt><trkpt lat="43.9026791" lon="11.2449515"><ele>525.0</ele><time>2026-04-16T06:55:06.97Z</time></trkpt><trkpt lat="43.9027621" lon="11.2448989"><ele>525.0</ele><time>2026-04-16T06:55:08.974Z</time></trkpt><trkpt lat="43.9028289" lon="11.2448652"><ele>525.0</ele><time>2026-04-16T06:55:10.972Z</time></trkpt><trkpt lat="43.9028983" lon="11.2448284"><ele>525.0</ele><time>2026-04-16T06:55:15.013Z</time></trkpt><trkpt lat="43.9028403" lon="11.2448779"><ele>525.0</ele><time>2026-04-16T06:56:19.958Z</time></trkpt><trkpt lat="43.9027664" lon="11.24493"><ele>525.0</ele><time>2026-04-16T06:56:21.964Z</time></trkpt><trkpt lat="43.9027001" lon="11.24498"><ele>525.0</ele><time>2026-04-16T06:56:24.05Z</time></trkpt><trkpt lat="43.9026422" lon="11.2450162"><ele>525.0</ele><time>2026-04-16T06:56:26.021Z</time></trkpt><trkpt lat="43.90256" lon="11.2450772"><ele>525.0</ele><time>2026-04-16T06:56:28.965Z</time></trkpt><trkpt lat="43.9024808" lon="11.2451522"><ele>525.0</ele><time>2026-04-16T06:56:31.965Z</time></trkpt><trkpt lat="43.902401" lon="11.2452168"><ele>525.0</ele><time>2026-04-16T06:56:33.952Z</time></trkpt><trkpt lat="43.9023158" lon="11.2452802"><ele>525.0</ele><time>2026-04-16T06:56:35.945Z</time></trkpt><trkpt lat="43.9022352" lon="11.245332"><ele>525.0</ele><time>2026-04-16T06:56:37.96Z</time></trkpt><trkpt lat="43.9021591" lon="11.2453687"><ele>525.0</ele><time>2026-04-16T06:56:39.943Z</time></trkpt><trkpt lat="43.9020975" lon="11.2454041"><ele>525.0</ele><time>2026-04-16T06:56:41.956Z</time></trkpt><trkpt lat="43.9020338" lon="11.2454594"><ele>525.0</ele><time>2026-04-16T06:56:43.965Z</time></trkpt><trkpt lat="43.901978" lon="11.2455159"><ele>525.0</ele><time>2026-04-16T06:56:45.959Z</time></trkpt><trkpt lat="43.901919" lon="11.2455666"><ele>525.0</ele><time>2026-04-16T06:56:48.968Z</time></trkpt><trkpt lat="43.9018506" lon="11.2455909"><ele>525.0</ele><time>2026-04-16T06:56:52.948Z</time></trkpt><trkpt lat="43.901768" lon="11.2455715"><ele>525.0</ele><time>2026-04-16T06:56:56.949Z</time></trkpt><trkpt lat="43.9017032" lon="11.2455474"><ele>525.0</ele><time>2026-04-16T06:56:59.948Z</time></trkpt><trkpt lat="43.9016071" lon="11.245543"><ele>521.6666666666666</ele><time>2026-04-16T06:57:02.96Z</time></trkpt><trkpt lat="43.9015199" lon="11.245544"><ele>518.3333333333334</ele><time>2026-04-16T06:57:04.963Z</time></trkpt><trkpt lat="43.901438" lon="11.2455386"><ele>515.0</ele><time>2026-04-16T06:57:06.956Z</time></trkpt><trkpt lat="43.9013653" lon="11.2455298"><ele>511.6666666666667</ele><time>2026-04-16T06:57:08.963Z</time></trkpt><trkpt lat="43.9012975" lon="11.2455301"><ele>508.33333333333337</ele><time>2026-04-16T06:57:10.961Z</time></trkpt><trkpt lat="43.901218" lon="11.2455336"><ele>505.0</ele><time>2026-04-16T06:57:12.971Z</time></trkpt><trkpt lat="43.9011473" lon="11.2455415"><ele>505.0</ele><time>2026-04-16T06:57:14.969Z</time></trkpt><trkpt lat="43.901086" lon="11.2455621"><ele>504.99999999999994</ele><time>2026-04-16T06:57:16.955Z</time></trkpt><trkpt lat="43.901005" lon="11.2455837"><ele>505.0</ele><time>2026-04-16T06:57:19.968Z</time></trkpt><trkpt lat="43.9009434" lon="11.2456195"><ele>505.0</ele><time>2026-04-16T06:57:22.959Z</time></trkpt><trkpt lat="43.900927" lon="11.2454955"><ele>504.99999999999994</ele><time>2026-04-16T06:58:04.969Z</time></trkpt><trkpt lat="43.9009357" lon="11.2454019"><ele>505.0</ele><time>2026-04-16T06:58:08.969Z</time></trkpt><trkpt lat="43.900955" lon="11.2453004"><ele>505.0</ele><time>2026-04-16T06:58:11.971Z</time></trkpt><trkpt lat="43.9009572" lon="11.245206"><ele>505.00000000000006</ele><time>2026-04-16T06:58:15.961Z</time></trkpt><trkpt lat="43.9009872" lon="11.2451231"><ele>505.0</ele><time>2026-04-16T06:58:20.966Z</time></trkpt><trkpt lat="43.9009948" lon="11.2452326"><ele>505.0</ele><time>2026-04-16T06:59:10.044Z</time></trkpt><trkpt lat="43.9009716" lon="11.2453546"><ele>505.0</ele><time>2026-04-16T06:59:12.969Z</time></trkpt><trkpt lat="43.9009499" lon="11.2454662"><ele>505.00000000000006</ele><time>2026-04-16T06:59:15.964Z</time></trkpt><trkpt lat="43.9009203" lon="11.2455531"><ele>505.0</ele><time>2026-04-16T06:59:18.97Z</time></trkpt><trkpt lat="43.9008788" lon="11.2456403"><ele>505.4285714285714</ele><time>2026-04-16T06:59:21.962Z</time></trkpt><trkpt lat="43.9008542" lon="11.24573"><ele>505.8571428571428</ele><time>2026-04-16T06:59:25.027Z</time></trkpt><trkpt lat="43.9008917" lon="11.2458255"><ele>506.2857142857143</ele><time>2026-04-16T06:59:30.971Z</time></trkpt><trkpt lat="43.9009386" lon="11.2458966"><ele>506.71428571428567</ele><time>2026-04-16T06:59:34.962Z</time></trkpt><trkpt lat="43.9009264" lon="11.2459825"><ele>507.1428571428571</ele><time>2026-04-16T06:59:37.972Z</time></trkpt><trkpt lat="43.9009018" lon="11.2460829"><ele>507.57142857142856</ele><time>2026-04-16T06:59:46.031Z</time></trkpt><trkpt lat="43.9008665" lon="11.2461682"><ele>508.0</ele><time>2026-04-16T06:59:48.98Z</time></trkpt><trkpt lat="43.9008287" lon="11.246273"><ele>508.00000000000006</ele><time>2026-04-16T06:59:52.957Z</time></trkpt><trkpt lat="43.9007951" lon="11.2463473"><ele>508.0</ele><time>2026-04-16T06:59:54.975Z</time></trkpt><trkpt lat="43.9007562" lon="11.2464654"><ele>508.0</ele><time>2026-04-16T06:59:56.974Z</time></trkpt><trkpt lat="43.9007135" lon="11.2465636"><ele>508.0</ele><time>2026-04-16T06:59:58.968Z</time></trkpt><trkpt lat="43.9006777" lon="11.2466446"><ele>508.00000000000006</ele><time>2026-04-16T07:00:01.971Z</time></trkpt><trkpt lat="43.9006408" lon="11.2467427"><ele>508.0</ele><time>2026-04-16T07:00:12.96Z</time></trkpt><trkpt lat="43.9005929" lon="11.2468175"><ele>508.0</ele><time>2026-04-16T07:00:15.976Z</time></trkpt><trkpt lat="43.9006365" lon="11.2467057"><ele>508.0</ele><time>2026-04-16T07:00:48.962Z</time></trkpt><trkpt lat="43.9006686" lon="11.2466055"><ele>508.0</ele><time>2026-04-16T07:00:50.985Z</time></trkpt><trkpt lat="43.9007084" lon="11.2465197"><ele>508.0</ele><time>2026-04-16T07:00:52.985Z</time></trkpt><trkpt lat="43.9007419" lon="11.2464332"><ele>508.0</ele><time>2026-04-16T07:00:54.967Z</time></trkpt><trkpt lat="43.9007726" lon="11.2463538"><ele>508.0</ele><time>2026-04-16T07:00:57.078Z</time></trkpt><trkpt lat="43.9008076" lon="11.2462725"><ele>508.0</ele><time>2026-04-16T07:01:00.966Z</time></trkpt><trkpt lat="43.9008314" lon="11.2461662"><ele>508.0</ele><time>2026-04-16T07:01:08.04Z</time></trkpt><trkpt lat="43.9007965" lon="11.2460794"><ele>508.0</ele><time>2026-04-16T07:01:12.962Z</time></trkpt><trkpt lat="43.9007291" lon="11.2460378"><ele>508.0</ele><time>2026-04-16T07:01:17.033Z</time></trkpt><trkpt lat="43.9006404" lon="11.2460608"><ele>508.0</ele><time>2026-04-16T07:01:23.973Z</time></trkpt><trkpt lat="43.9005769" lon="11.2460602"><ele>508.0</ele><time>2026-04-16T07:01:25.963Z</time></trkpt><trkpt lat="43.9005045" lon="11.2460473"><ele>508.0</ele><time>2026-04-16T07:01:27.979Z</time></trkpt><trkpt lat="43.900436" lon="11.2460536"><ele>508.0</ele><time>2026-04-16T07:01:29.966Z</time></trkpt><trkpt lat="43.9003746" lon="11.2460736"><ele>508.0</ele><time>2026-04-16T07:01:32.032Z</time></trkpt><trkpt lat="43.9003038" lon="11.2461033"><ele>508.0</ele><time>2026-04-16T07:01:34.036Z</time></trkpt><trkpt lat="43.9002357" lon="11.2461121"><ele>508.0</ele><time>2026-04-16T07:01:36.978Z</time></trkpt><trkpt lat="43.9002193" lon="11.2460157"><ele>508.0</ele><time>2026-04-16T07:01:41.979Z</time></trkpt><trkpt lat="43.9002358" lon="11.2459166"><ele>508.0</ele><time>2026-04-16T07:01:44.967Z</time></trkpt><trkpt lat="43.900251" lon="11.2458158"><ele>508.0</ele><time>2026-04-16T07:01:48.976Z</time></trkpt><trkpt lat="43.9002719" lon="11.2457231"><ele>508.0</ele><time>2026-04-16T07:01:54.965Z</time></trkpt><trkpt lat="43.9002789" lon="11.2458139"><ele>508.00000000000006</ele><time>2026-04-16T07:02:04.025Z</time></trkpt><trkpt lat="43.9002315" lon="11.2458725"><ele>508.0</ele><time>2026-04-16T07:02:06.975Z</time></trkpt><trkpt lat="43.9001861" lon="11.2459369"><ele>508.0</ele><time>2026-04-16T07:02:08.971Z</time></trkpt><trkpt lat="43.9001551" lon="11.2460553"><ele>508.0</ele><time>2026-04-16T07:02:11.979Z</time></trkpt><trkpt lat="43.9001107" lon="11.2461494"><ele>508.00000000000006</ele><time>2026-04-16T07:02:15.978Z</time></trkpt><trkpt lat="43.9000388" lon="11.2462038"><ele>508.0</ele><time>2026-04-16T07:02:18.962Z</time></trkpt><trkpt lat="43.8999465" lon="11.2462246"><ele>506.42857142857144</ele><time>2026-04-16T07:02:21.966Z</time></trkpt><trkpt lat="43.8998784" lon="11.2462108"><ele>504.85714285714283</ele><time>2026-04-16T07:02:23.962Z</time></trkpt><trkpt lat="43.8998093" lon="11.2461946"><ele>503.2857142857143</ele><time>2026-04-16T07:02:25.953Z</time></trkpt><trkpt lat="43.8997424" lon="11.2461805"><ele>501.7142857142857</ele><time>2026-04-16T07:02:27.966Z</time></trkpt><trkpt lat="43.8996752" lon="11.2461634"><ele>500.1428571428571</ele><time>2026-04-16T07:02:30.033Z</time></trkpt><trkpt lat="43.8996003" lon="11.2461327"><ele>498.57142857142856</ele><time>2026-04-16T07:02:31.973Z</time></trkpt><trkpt lat="43.8995378" lon="11.2460904"><ele>497.0</ele><time>2026-04-16T07:02:33.968Z</time></trkpt><trkpt lat="43.8994753" lon="11.2460516"><ele>497.0</ele><time>2026-04-16T07:02:35.964Z</time></trkpt><trkpt lat="43.8994142" lon="11.2459943"><ele>497.0</ele><time>2026-04-16T07:02:38.031Z</time></trkpt><trkpt lat="43.8993648" lon="11.2459221"><ele>497.0</ele><time>2026-04-16T07:02:39.971Z</time></trkpt><trkpt lat="43.8993242" lon="11.2458415"><ele>497.0</ele><time>2026-04-16T07:02:41.967Z</time></trkpt><trkpt lat="43.8992787" lon="11.2457447"><ele>497.0</ele><time>2026-04-16T07:02:44.035Z</time></trkpt><trkpt lat="43.8992215" lon="11.2456806"><ele>497.0</ele><time>2026-04-16T07:02:44.962Z</time></trkpt><trkpt lat="43.8991739" lon="11.2456205"><ele>497.0</ele><time>2026-04-16T07:02:45.972Z</time></trkpt><trkpt lat="43.8991215" lon="11.2455534"><ele>495.20000000000005</ele><time>2026-04-16T07:02:46.961Z</time></trkpt><trkpt lat="43.8990784" lon="11.2454806"><ele>493.40000000000003</ele><time>2026-04-16T07:02:47.949Z</time></trkpt><trkpt lat="43.8989997" lon="11.2453582"><ele>491.59999999999997</ele><time>2026-04-16T07:02:50.07Z</time></trkpt><trkpt lat="43.898933" lon="11.2452495"><ele>489.79999999999995</ele><time>2026-04-16T07:02:51.958Z</time></trkpt><trkpt lat="43.8988798" lon="11.2451053"><ele>488.0</ele><time>2026-04-16T07:02:53.951Z</time></trkpt><trkpt lat="43.8988164" lon="11.2449804"><ele>488.0</ele><time>2026-04-16T07:02:55.96Z</time></trkpt><trkpt lat="43.8987736" lon="11.244916"><ele>487.99999999999994</ele><time>2026-04-16T07:02:56.96Z</time></trkpt><trkpt lat="43.8987017" lon="11.2448049"><ele>487.99999999999994</ele><time>2026-04-16T07:02:58.964Z</time></trkpt><trkpt lat="43.8986434" lon="11.2446881"><ele>488.0</ele><time>2026-04-16T07:03:00.976Z</time></trkpt><trkpt lat="43.8986232" lon="11.2445457"><ele>488.0</ele><time>2026-04-16T07:03:02.966Z</time></trkpt><trkpt lat="43.8986235" lon="11.2443958"><ele>486.16666666666663</ele><time>2026-04-16T07:03:05.029Z</time></trkpt><trkpt lat="43.8986145" lon="11.2442988"><ele>484.3333333333333</ele><time>2026-04-16T07:03:05.958Z</time></trkpt><trkpt lat="43.8986106" lon="11.2442034"><ele>482.5</ele><time>2026-04-16T07:03:06.964Z</time></trkpt><trkpt lat="43.8985984" lon="11.2441053"><ele>480.66666666666663</ele><time>2026-04-16T07:03:07.964Z</time></trkpt><trkpt lat="43.8985759" lon="11.2439402"><ele>478.8333333333333</ele><time>2026-04-16T07:03:09.962Z</time></trkpt><trkpt lat="43.8985635" lon="11.2437813"><ele>477.0</ele><time>2026-04-16T07:03:11.959Z</time></trkpt><trkpt lat="43.8985577" lon="11.2436286"><ele>478.20000000000005</ele><time>2026-04-16T07:03:13.974Z</time></trkpt><trkpt lat="43.8985393" lon="11.2434916"><ele>479.40000000000003</ele><time>2026-04-16T07:03:15.962Z</time></trkpt><trkpt lat="43.8984717" lon="11.2433567"><ele>480.59999999999997</ele><time>2026-04-16T07:03:18.005Z</time></trkpt><trkpt lat="43.8984014" lon="11.2432472"><ele>481.79999999999995</ele><time>2026-04-16T07:03:19.96Z</time></trkpt><trkpt lat="43.898329" lon="11.2431458"><ele>483.0</ele><time>2026-04-16T07:03:21.956Z</time></trkpt><trkpt lat="43.8982497" lon="11.2430574"><ele>480.59999999999997</ele><time>2026-04-16T07:03:23.96Z</time></trkpt><trkpt lat="43.8981755" lon="11.2429643"><ele>478.19999999999993</ele><time>2026-04-16T07:03:25.958Z</time></trkpt><trkpt lat="43.8981036" lon="11.2428786"><ele>475.8</ele><time>2026-04-16T07:03:27.964Z</time></trkpt><trkpt lat="43.8980397" lon="11.2427999"><ele>473.4</ele><time>2026-04-16T07:03:29.957Z</time></trkpt><trkpt lat="43.8979783" lon="11.2427083"><ele>471.0</ele><time>2026-04-16T07:03:31.959Z</time></trkpt><trkpt lat="43.8978955" lon="11.2426262"><ele>471.0</ele><time>2026-04-16T07:03:33.971Z</time></trkpt><trkpt lat="43.8978074" lon="11.2425557"><ele>471.0</ele><time>2026-04-16T07:03:35.959Z</time></trkpt><trkpt lat="43.8977191" lon="11.2425036"><ele>471.0</ele><time>2026-04-16T07:03:37.958Z</time></trkpt><trkpt lat="43.8976701" lon="11.2424399"><ele>471.0</ele><time>2026-04-16T07:03:39.972Z</time></trkpt><trkpt lat="43.8976702" lon="11.2423419"><ele>471.0</ele><time>2026-04-16T07:03:41.988Z</time></trkpt><trkpt lat="43.8976656" lon="11.2422064"><ele>471.0</ele><time>2026-04-16T07:03:43.956Z</time></trkpt><trkpt lat="43.8976655" lon="11.2421098"><ele>469.20000000000005</ele><time>2026-04-16T07:03:44.968Z</time></trkpt><trkpt lat="43.8976643" lon="11.2420208"><ele>467.40000000000003</ele><time>2026-04-16T07:03:45.963Z</time></trkpt><trkpt lat="43.8976473" lon="11.2418634"><ele>465.6</ele><time>2026-04-16T07:03:47.959Z</time></trkpt><trkpt lat="43.8976342" lon="11.241695"><ele>463.8</ele><time>2026-04-16T07:03:49.949Z</time></trkpt><trkpt lat="43.8976447" lon="11.2415378"><ele>462.0</ele><time>2026-04-16T07:03:51.963Z</time></trkpt><trkpt lat="43.897648" lon="11.2413909"><ele>460.6</ele><time>2026-04-16T07:03:53.965Z</time></trkpt><trkpt lat="43.8976431" lon="11.2412282"><ele>459.20000000000005</ele><time>2026-04-16T07:03:55.966Z</time></trkpt><trkpt lat="43.8976582" lon="11.2410589"><ele>457.8</ele><time>2026-04-16T07:03:57.949Z</time></trkpt><trkpt lat="43.8976662" lon="11.2409182"><ele>456.4</ele><time>2026-04-16T07:03:59.964Z</time></trkpt><trkpt lat="43.8976703" lon="11.2408241"><ele>455.0</ele><time>2026-04-16T07:04:00.962Z</time></trkpt><trkpt lat="43.8976819" lon="11.2407347"><ele>454.66666666666663</ele><time>2026-04-16T07:04:01.943Z</time></trkpt><trkpt lat="43.8977161" lon="11.2405726"><ele>454.3333333333333</ele><time>2026-04-16T07:04:03.96Z</time></trkpt><trkpt lat="43.8977593" lon="11.2404201"><ele>454.0</ele><time>2026-04-16T07:04:05.973Z</time></trkpt><trkpt lat="43.8977821" lon="11.2403241"><ele>453.66666666666663</ele><time>2026-04-16T07:04:06.952Z</time></trkpt><trkpt lat="43.8978053" lon="11.2402348"><ele>453.3333333333333</ele><time>2026-04-16T07:04:08.038Z</time></trkpt><trkpt lat="43.897826" lon="11.2401452"><ele>453.0</ele><time>2026-04-16T07:04:09.029Z</time></trkpt><trkpt lat="43.8978488" lon="11.2400486"><ele>453.0</ele><time>2026-04-16T07:04:10.025Z</time></trkpt><trkpt lat="43.8978651" lon="11.2399589"><ele>453.0</ele><time>2026-04-16T07:04:10.966Z</time></trkpt><trkpt lat="43.8978903" lon="11.2398714"><ele>453.0</ele><time>2026-04-16T07:04:11.961Z</time></trkpt><trkpt lat="43.8979235" lon="11.2397949"><ele>453.0</ele><time>2026-04-16T07:04:12.979Z</time></trkpt><trkpt lat="43.89796" lon="11.2396453"><ele>453.0</ele><time>2026-04-16T07:04:14.971Z</time></trkpt><trkpt lat="43.8979795" lon="11.2394741"><ele>453.0</ele><time>2026-04-16T07:04:16.978Z</time></trkpt><trkpt lat="43.8979914" lon="11.2393273"><ele>453.4</ele><time>2026-04-16T07:04:19.033Z</time></trkpt><trkpt lat="43.8980008" lon="11.2392192"><ele>453.79999999999995</ele><time>2026-04-16T07:04:20.972Z</time></trkpt><trkpt lat="43.8980007" lon="11.2390915"><ele>454.2</ele><time>2026-04-16T07:04:22.979Z</time></trkpt><trkpt lat="43.8979975" lon="11.2389548"><ele>454.6</ele><time>2026-04-16T07:04:25.029Z</time></trkpt><trkpt lat="43.8979733" lon="11.2388267"><ele>455.0</ele><time>2026-04-16T07:04:27.031Z</time></trkpt><trkpt lat="43.8979445" lon="11.2386876"><ele>453.0</ele><time>2026-04-16T07:04:29.029Z</time></trkpt><trkpt lat="43.8979013" lon="11.2385854"><ele>451.0</ele><time>2026-04-16T07:04:30.957Z</time></trkpt><trkpt lat="43.8978291" lon="11.2384572"><ele>449.0</ele><time>2026-04-16T07:04:33.027Z</time></trkpt><trkpt lat="43.8977465" lon="11.2383774"><ele>447.0</ele><time>2026-04-16T07:04:34.978Z</time></trkpt><trkpt lat="43.8976574" lon="11.2383332"><ele>445.0</ele><time>2026-04-16T07:04:36.97Z</time></trkpt><trkpt lat="43.8975856" lon="11.2383057"><ele>448.50000000000006</ele><time>2026-04-16T07:04:38.961Z</time></trkpt><trkpt lat="43.8975157" lon="11.2382856"><ele>452.0</ele><time>2026-04-16T07:04:40.982Z</time></trkpt><trkpt lat="43.8974235" lon="11.2382782"><ele>455.5</ele><time>2026-04-16T07:04:42.996Z</time></trkpt><trkpt lat="43.897336" lon="11.2382685"><ele>459.0</ele><time>2026-04-16T07:04:44.977Z</time></trkpt><trkpt lat="43.8972494" lon="11.2382483"><ele>462.50000000000006</ele><time>2026-04-16T07:04:46.983Z</time></trkpt><trkpt lat="43.897174" lon="11.2382567"><ele>466.0</ele><time>2026-04-16T07:04:48.986Z</time></trkpt><trkpt lat="43.8971027" lon="11.2382815"><ele>466.00000000000006</ele><time>2026-04-16T07:04:50.986Z</time></trkpt><trkpt lat="43.8970336" lon="11.2382729"><ele>466.0</ele><time>2026-04-16T07:04:53.031Z</time></trkpt><trkpt lat="43.8970271" lon="11.2381581"><ele>466.0</ele><time>2026-04-16T07:04:55.959Z</time></trkpt><trkpt lat="43.8970364" lon="11.2379891"><ele>466.0</ele><time>2026-04-16T07:04:57.964Z</time></trkpt><trkpt lat="43.8970412" lon="11.2378918"><ele>466.00000000000006</ele><time>2026-04-16T07:04:58.967Z</time></trkpt><trkpt lat="43.8970417" lon="11.2377971"><ele>466.0</ele><time>2026-04-16T07:05:00.077Z</time></trkpt><trkpt lat="43.89704" lon="11.2376405"><ele>461.20000000000005</ele><time>2026-04-16T07:05:01.959Z</time></trkpt><trkpt lat="43.8970396" lon="11.2374898"><ele>456.40000000000003</ele><time>2026-04-16T07:05:03.981Z</time></trkpt><trkpt lat="43.8970327" lon="11.2373477"><ele>451.6</ele><time>2026-04-16T07:05:05.967Z</time></trkpt><trkpt lat="43.8970302" lon="11.2371994"><ele>446.8</ele><time>2026-04-16T07:05:07.958Z</time></trkpt><trkpt lat="43.8970232" lon="11.2370522"><ele>442.0</ele><time>2026-04-16T07:05:10.028Z</time></trkpt><trkpt lat="43.896977" lon="11.2368962"><ele>438.20000000000005</ele><time>2026-04-16T07:05:11.947Z</time></trkpt><trkpt lat="43.896906" lon="11.2367563"><ele>434.40000000000003</ele><time>2026-04-16T07:05:13.961Z</time></trkpt><trkpt lat="43.8968654" lon="11.2366179"><ele>430.6</ele><time>2026-04-16T07:05:15.961Z</time></trkpt><trkpt lat="43.8968735" lon="11.2365118"><ele>426.79999999999995</ele><time>2026-04-16T07:05:17.955Z</time></trkpt><trkpt lat="43.8969061" lon="11.2364106"><ele>423.0</ele><time>2026-04-16T07:05:19.957Z</time></trkpt><trkpt lat="43.8969403" lon="11.236313"><ele>421.8333333333333</ele><time>2026-04-16T07:05:21.967Z</time></trkpt><trkpt lat="43.8969689" lon="11.2361949"><ele>420.66666666666663</ele><time>2026-04-16T07:05:23.961Z</time></trkpt><trkpt lat="43.8969739" lon="11.2360726"><ele>419.5</ele><time>2026-04-16T07:05:25.967Z</time></trkpt><trkpt lat="43.8969503" lon="11.2359558"><ele>418.3333333333333</ele><time>2026-04-16T07:05:27.969Z</time></trkpt><trkpt lat="43.8969353" lon="11.2358263"><ele>417.16666666666663</ele><time>2026-04-16T07:05:29.956Z</time></trkpt><trkpt lat="43.8969212" lon="11.2357409"><ele>416.0</ele><time>2026-04-16T07:05:30.962Z</time></trkpt><trkpt lat="43.896919" lon="11.2356465"><ele>415.0</ele><time>2026-04-16T07:05:31.96Z</time></trkpt><trkpt lat="43.8969333" lon="11.2354817"><ele>414.0</ele><time>2026-04-16T07:05:33.958Z</time></trkpt><trkpt lat="43.8969306" lon="11.2353197"><ele>413.0</ele><time>2026-04-16T07:05:35.96Z</time></trkpt><trkpt lat="43.8969103" lon="11.2351703"><ele>412.0</ele><time>2026-04-16T07:05:37.964Z</time></trkpt><trkpt lat="43.8969107" lon="11.2350473"><ele>411.0</ele><time>2026-04-16T07:05:39.96Z</time></trkpt><trkpt lat="43.8968964" lon="11.2349003"><ele>408.8333333333333</ele><time>2026-04-16T07:05:41.96Z</time></trkpt><trkpt lat="43.8968706" lon="11.234763"><ele>406.66666666666663</ele><time>2026-04-16T07:05:43.966Z</time></trkpt><trkpt lat="43.8968411" lon="11.2346446"><ele>404.5</ele><time>2026-04-16T07:05:45.956Z</time></trkpt><trkpt lat="43.8967959" lon="11.2345582"><ele>402.3333333333333</ele><time>2026-04-16T07:05:47.963Z</time></trkpt><trkpt lat="43.8967509" lon="11.2344872"><ele>400.16666666666663</ele><time>2026-04-16T07:05:49.967Z</time></trkpt><trkpt lat="43.8966923" lon="11.2344246"><ele>398.0</ele><time>2026-04-16T07:05:51.958Z</time></trkpt><trkpt lat="43.8966298" lon="11.2343857"><ele>401.8333333333333</ele><time>2026-04-16T07:05:53.95Z</time></trkpt><trkpt lat="43.896554" lon="11.2343505"><ele>405.66666666666663</ele><time>2026-04-16T07:05:55.966Z</time></trkpt><trkpt lat="43.8964883" lon="11.2342727"><ele>409.5</ele><time>2026-04-16T07:05:58.963Z</time></trkpt><trkpt lat="43.8964976" lon="11.2341807"><ele>413.33333333333337</ele><time>2026-04-16T07:06:00.962Z</time></trkpt><trkpt lat="43.8965118" lon="11.234045"><ele>417.1666666666667</ele><time>2026-04-16T07:06:02.96Z</time></trkpt><trkpt lat="43.8965291" lon="11.2338924"><ele>421.0</ele><time>2026-04-16T07:06:04.957Z</time></trkpt><trkpt lat="43.8965622" lon="11.2337539"><ele>421.0</ele><time>2026-04-16T07:06:06.955Z</time></trkpt><trkpt lat="43.8965835" lon="11.2336697"><ele>421.0</ele><time>2026-04-16T07:06:07.957Z</time></trkpt><trkpt lat="43.89662" lon="11.2334948"><ele>421.0</ele><time>2026-04-16T07:06:09.97Z</time></trkpt><trkpt lat="43.8966574" lon="11.2333481"><ele>421.0</ele><time>2026-04-16T07:06:11.969Z</time></trkpt><trkpt lat="43.8966835" lon="11.2332106"><ele>421.0</ele><time>2026-04-16T07:06:13.963Z</time></trkpt><trkpt lat="43.8967182" lon="11.2331068"><ele>419.6</ele><time>2026-04-16T07:06:15.951Z</time></trkpt><trkpt lat="43.8967428" lon="11.2329934"><ele>418.20000000000005</ele><time>2026-04-16T07:06:17.964Z</time></trkpt><trkpt lat="43.8967662" lon="11.2328721"><ele>416.79999999999995</ele><time>2026-04-16T07:06:19.957Z</time></trkpt><trkpt lat="43.8967877" lon="11.2327319"><ele>415.4</ele><time>2026-04-16T07:06:21.965Z</time></trkpt><trkpt lat="43.8968001" lon="11.2325838"><ele>414.0</ele><time>2026-04-16T07:06:23.944Z</time></trkpt><trkpt lat="43.896804" lon="11.2324939"><ele>409.5</ele><time>2026-04-16T07:06:24.964Z</time></trkpt><trkpt lat="43.8967763" lon="11.2323234"><ele>405.0</ele><time>2026-04-16T07:06:26.958Z</time></trkpt><trkpt lat="43.8967255" lon="11.2321735"><ele>400.5</ele><time>2026-04-16T07:06:28.966Z</time></trkpt><trkpt lat="43.8966626" lon="11.2320631"><ele>396.0</ele><time>2026-04-16T07:06:30.967Z</time></trkpt><trkpt lat="43.896581" lon="11.2319505"><ele>396.0</ele><time>2026-04-16T07:06:32.962Z</time></trkpt><trkpt lat="43.8964927" lon="11.2318387"><ele>396.0</ele><time>2026-04-16T07:06:34.967Z</time></trkpt><trkpt lat="43.8964106" lon="11.2317468"><ele>396.0</ele><time>2026-04-16T07:06:36.965Z</time></trkpt><trkpt lat="43.8963314" lon="11.2316694"><ele>396.0</ele><time>2026-04-16T07:06:38.954Z</time></trkpt><trkpt lat="43.8962291" lon="11.231586"><ele>396.0</ele><time>2026-04-16T07:06:40.962Z</time></trkpt><trkpt lat="43.8961414" lon="11.2314967"><ele>394.8333333333333</ele><time>2026-04-16T07:06:42.963Z</time></trkpt><trkpt lat="43.8960937" lon="11.231408"><ele>393.66666666666663</ele><time>2026-04-16T07:06:44.96Z</time></trkpt><trkpt lat="43.8961036" lon="11.2313106"><ele>392.5</ele><time>2026-04-16T07:06:47.971Z</time></trkpt><trkpt lat="43.8961331" lon="11.2312116"><ele>391.3333333333333</ele><time>2026-04-16T07:06:49.97Z</time></trkpt><trkpt lat="43.8961692" lon="11.2310899"><ele>390.16666666666663</ele><time>2026-04-16T07:06:51.961Z</time></trkpt><trkpt lat="43.8962298" lon="11.2309524"><ele>389.0</ele><time>2026-04-16T07:06:53.963Z</time></trkpt><trkpt lat="43.896255" lon="11.230867"><ele>388.99999999999994</ele><time>2026-04-16T07:06:54.961Z</time></trkpt><trkpt lat="43.8962937" lon="11.2307695"><ele>389.0</ele><time>2026-04-16T07:06:55.957Z</time></trkpt><trkpt lat="43.8963316" lon="11.2306811"><ele>389.0</ele><time>2026-04-16T07:06:56.961Z</time></trkpt><trkpt lat="43.8963727" lon="11.2305925"><ele>389.0</ele><time>2026-04-16T07:06:57.962Z</time></trkpt><trkpt lat="43.8964023" lon="11.2305026"><ele>388.99999999999994</ele><time>2026-04-16T07:06:58.951Z</time></trkpt><trkpt lat="43.8964445" lon="11.2303509"><ele>389.0</ele><time>2026-04-16T07:07:00.954Z</time></trkpt><trkpt lat="43.8965025" lon="11.230207"><ele>389.4</ele><time>2026-04-16T07:07:02.96Z</time></trkpt><trkpt lat="43.8965357" lon="11.2301275"><ele>389.79999999999995</ele><time>2026-04-16T07:07:03.963Z</time></trkpt><trkpt lat="43.8965735" lon="11.2299753"><ele>390.20000000000005</ele><time>2026-04-16T07:07:05.957Z</time></trkpt><trkpt lat="43.8966241" lon="11.2298269"><ele>390.6</ele><time>2026-04-16T07:07:07.968Z</time></trkpt><trkpt lat="43.8966588" lon="11.2296839"><ele>391.0</ele><time>2026-04-16T07:07:09.96Z</time></trkpt><trkpt lat="43.8967107" lon="11.2295743"><ele>386.4</ele><time>2026-04-16T07:07:11.957Z</time></trkpt><trkpt lat="43.8967964" lon="11.2295275"><ele>381.8</ele><time>2026-04-16T07:07:13.956Z</time></trkpt><trkpt lat="43.8968685" lon="11.2294828"><ele>377.2</ele><time>2026-04-16T07:07:15.972Z</time></trkpt><trkpt lat="43.8969411" lon="11.2294458"><ele>372.59999999999997</ele><time>2026-04-16T07:07:18.028Z</time></trkpt><trkpt lat="43.8970286" lon="11.2293526"><ele>368.0</ele><time>2026-04-16T07:07:19.957Z</time></trkpt><trkpt lat="43.8970853" lon="11.2292207"><ele>368.0</ele><time>2026-04-16T07:07:21.959Z</time></trkpt><trkpt lat="43.8971187" lon="11.2290793"><ele>368.0</ele><time>2026-04-16T07:07:23.965Z</time></trkpt><trkpt lat="43.8971503" lon="11.2289301"><ele>368.0</ele><time>2026-04-16T07:07:25.963Z</time></trkpt><trkpt lat="43.8971623" lon="11.2287874"><ele>368.0</ele><time>2026-04-16T07:07:28.076Z</time></trkpt><trkpt lat="43.8971539" lon="11.228619"><ele>368.0</ele><time>2026-04-16T07:07:30.088Z</time></trkpt><trkpt lat="43.8971381" lon="11.2285323"><ele>368.33333333333337</ele><time>2026-04-16T07:07:31.089Z</time></trkpt><trkpt lat="43.8970973" lon="11.2283821"><ele>368.6666666666667</ele><time>2026-04-16T07:07:33.081Z</time></trkpt><trkpt lat="43.897077" lon="11.2282425"><ele>369.0</ele><time>2026-04-16T07:07:35.075Z</time></trkpt><trkpt lat="43.8970547" lon="11.2281306"><ele>369.3333333333333</ele><time>2026-04-16T07:07:37.085Z</time></trkpt><trkpt lat="43.8970428" lon="11.2280419"><ele>369.66666666666663</ele><time>2026-04-16T07:07:39.073Z</time></trkpt><trkpt lat="43.8970747" lon="11.2279467"><ele>370.0</ele><time>2026-04-16T07:07:41.976Z</time></trkpt><trkpt lat="43.8971379" lon="11.227861"><ele>370.0</ele><time>2026-04-16T07:07:44.97Z</time></trkpt><trkpt lat="43.8972031" lon="11.2278137"><ele>370.0</ele><time>2026-04-16T07:07:46.972Z</time></trkpt><trkpt lat="43.8972819" lon="11.227782"><ele>370.0</ele><time>2026-04-16T07:07:49.973Z</time></trkpt><trkpt lat="43.8973511" lon="11.2277345"><ele>370.0</ele><time>2026-04-16T07:07:52.989Z</time></trkpt><trkpt lat="43.8974379" lon="11.2276872"><ele>370.0</ele><time>2026-04-16T07:07:55.972Z</time></trkpt><trkpt lat="43.8974969" lon="11.2276445"><ele>370.0</ele><time>2026-04-16T07:07:57.976Z</time></trkpt><trkpt lat="43.8975515" lon="11.2275893"><ele>366.8333333333333</ele><time>2026-04-16T07:07:59.978Z</time></trkpt><trkpt lat="43.8976047" lon="11.2275396"><ele>363.66666666666663</ele><time>2026-04-16T07:08:01.983Z</time></trkpt><trkpt lat="43.8976662" lon="11.2274816"><ele>360.5</ele><time>2026-04-16T07:08:03.982Z</time></trkpt><trkpt lat="43.8977507" lon="11.2273845"><ele>357.3333333333333</ele><time>2026-04-16T07:08:05.977Z</time></trkpt><trkpt lat="43.8978348" lon="11.2272772"><ele>354.1666666666667</ele><time>2026-04-16T07:08:07.982Z</time></trkpt><trkpt lat="43.8978874" lon="11.2271984"><ele>351.0</ele><time>2026-04-16T07:08:09.979Z</time></trkpt><trkpt lat="43.8979272" lon="11.2271122"><ele>351.0</ele><time>2026-04-16T07:08:11.988Z</time></trkpt><trkpt lat="43.8979669" lon="11.2270403"><ele>351.0</ele><time>2026-04-16T07:08:13.98Z</time></trkpt><trkpt lat="43.8980382" lon="11.2269729"><ele>351.0</ele><time>2026-04-16T07:08:15.984Z</time></trkpt><trkpt lat="43.898127" lon="11.2269157"><ele>351.0</ele><time>2026-04-16T07:08:17.99Z</time></trkpt><trkpt lat="43.8982055" lon="11.2268698"><ele>351.0</ele><time>2026-04-16T07:08:19.977Z</time></trkpt><trkpt lat="43.8982966" lon="11.2268154"><ele>351.0</ele><time>2026-04-16T07:08:21.981Z</time></trkpt><trkpt lat="43.8983894" lon="11.2267884"><ele>346.0</ele><time>2026-04-16T07:08:23.989Z</time></trkpt><trkpt lat="43.8984847" lon="11.2267561"><ele>341.0</ele><time>2026-04-16T07:08:25.982Z</time></trkpt><trkpt lat="43.8985713" lon="11.2267378"><ele>336.0</ele><time>2026-04-16T07:08:27.962Z</time></trkpt><trkpt lat="43.898649" lon="11.2267103"><ele>331.0</ele><time>2026-04-16T07:08:29.98Z</time></trkpt><trkpt lat="43.8987282" lon="11.2266328"><ele>326.0</ele><time>2026-04-16T07:08:32.982Z</time></trkpt><trkpt lat="43.8987955" lon="11.226536"><ele>327.0</ele><time>2026-04-16T07:08:34.984Z</time></trkpt><trkpt lat="43.8988558" lon="11.2264422"><ele>328.0</ele><time>2026-04-16T07:08:36.985Z</time></trkpt><trkpt lat="43.8989133" lon="11.22632"><ele>329.0</ele><time>2026-04-16T07:08:38.982Z</time></trkpt><trkpt lat="43.8989856" lon="11.2261832"><ele>330.0</ele><time>2026-04-16T07:08:40.983Z</time></trkpt><trkpt lat="43.8990586" lon="11.2261019"><ele>331.0</ele><time>2026-04-16T07:08:42.993Z</time></trkpt><trkpt lat="43.8991422" lon="11.2260389"><ele>331.0</ele><time>2026-04-16T07:08:44.961Z</time></trkpt><trkpt lat="43.8992294" lon="11.2260009"><ele>331.0</ele><time>2026-04-16T07:08:46.984Z</time></trkpt><trkpt lat="43.8993107" lon="11.225986"><ele>331.0</ele><time>2026-04-16T07:08:48.99Z</time></trkpt><trkpt lat="43.8993852" lon="11.2259762"><ele>331.0</ele><time>2026-04-16T07:08:50.975Z</time></trkpt><trkpt lat="43.8994692" lon="11.2259195"><ele>331.0</ele><time>2026-04-16T07:08:52.982Z</time></trkpt><trkpt lat="43.8995255" lon="11.2258203"><ele>331.0</ele><time>2026-04-16T07:08:54.977Z</time></trkpt><trkpt lat="43.8995705" lon="11.2257277"><ele>325.40000000000003</ele><time>2026-04-16T07:08:56.988Z</time></trkpt><trkpt lat="43.8996398" lon="11.2256446"><ele>319.8</ele><time>2026-04-16T07:08:58.983Z</time></trkpt><trkpt lat="43.8996776" lon="11.22553"><ele>314.20000000000005</ele><time>2026-04-16T07:09:00.972Z</time></trkpt><trkpt lat="43.8996372" lon="11.2254005"><ele>308.6</ele><time>2026-04-16T07:09:02.981Z</time></trkpt><trkpt lat="43.8995556" lon="11.2253129"><ele>303.0</ele><time>2026-04-16T07:09:04.986Z</time></trkpt><trkpt lat="43.8994846" lon="11.2252192"><ele>303.0</ele><time>2026-04-16T07:09:06.978Z</time></trkpt><trkpt lat="43.8994946" lon="11.2251156"><ele>303.0</ele><time>2026-04-16T07:09:08.971Z</time></trkpt><trkpt lat="43.8995222" lon="11.2249881"><ele>303.0</ele><time>2026-04-16T07:09:10.985Z</time></trkpt><trkpt lat="43.8995537" lon="11.2248443"><ele>303.0</ele><time>2026-04-16T07:09:12.981Z</time></trkpt><trkpt lat="43.8995887" lon="11.2247095"><ele>303.0</ele><time>2026-04-16T07:09:14.983Z</time></trkpt><trkpt lat="43.8996233" lon="11.2245673"><ele>301.2</ele><time>2026-04-16T07:09:16.991Z</time></trkpt><trkpt lat="43.8996356" lon="11.2244379"><ele>299.4</ele><time>2026-04-16T07:09:18.973Z</time></trkpt><trkpt lat="43.8996353" lon="11.224284"><ele>297.59999999999997</ele><time>2026-04-16T07:09:20.986Z</time></trkpt><trkpt lat="43.899618" lon="11.2241436"><ele>295.8</ele><time>2026-04-16T07:09:22.98Z</time></trkpt><trkpt lat="43.8995992" lon="11.2240024"><ele>294.0</ele><time>2026-04-16T07:09:24.986Z</time></trkpt><trkpt lat="43.8995796" lon="11.2238948"><ele>294.0</ele><time>2026-04-16T07:09:26.986Z</time></trkpt><trkpt lat="43.8995696" lon="11.2238025"><ele>294.0</ele><time>2026-04-16T07:09:28.965Z</time></trkpt><trkpt lat="43.8995886" lon="11.2236947"><ele>294.0</ele><time>2026-04-16T07:09:30.988Z</time></trkpt><trkpt lat="43.8996398" lon="11.2235574"><ele>294.0</ele><time>2026-04-16T07:09:32.988Z</time></trkpt><trkpt lat="43.8996996" lon="11.2234315"><ele>294.0</ele><time>2026-04-16T07:09:34.972Z</time></trkpt><trkpt lat="43.8997514" lon="11.2233354"><ele>294.0</ele><time>2026-04-16T07:09:36.965Z</time></trkpt><trkpt lat="43.8998399" lon="11.2232766"><ele>294.0</ele><time>2026-04-16T07:09:38.979Z</time></trkpt><trkpt lat="43.8999311" lon="11.2232494"><ele>294.0</ele><time>2026-04-16T07:09:40.982Z</time></trkpt><trkpt lat="43.90002" lon="11.2232119"><ele>294.0</ele><time>2026-04-16T07:09:42.979Z</time></trkpt><trkpt lat="43.9001008" lon="11.2231864"><ele>294.0</ele><time>2026-04-16T07:09:45.98Z</time></trkpt><trkpt lat="43.9001763" lon="11.2231626"><ele>294.0</ele><time>2026-04-16T07:09:48.974Z</time></trkpt><trkpt lat="43.900234" lon="11.2230811"><ele>291.2857142857143</ele><time>2026-04-16T07:09:50.98Z</time></trkpt><trkpt lat="43.9002848" lon="11.2230087"><ele>288.57142857142856</ele><time>2026-04-16T07:09:52.97Z</time></trkpt><trkpt lat="43.9003362" lon="11.2229325"><ele>285.8571428571429</ele><time>2026-04-16T07:09:54.983Z</time></trkpt><trkpt lat="43.9003801" lon="11.2228441"><ele>283.1428571428571</ele><time>2026-04-16T07:09:57.037Z</time></trkpt><trkpt lat="43.9004281" lon="11.2227586"><ele>280.42857142857144</ele><time>2026-04-16T07:09:59.028Z</time></trkpt><trkpt lat="43.9004654" lon="11.2226775"><ele>277.7142857142857</ele><time>2026-04-16T07:10:01.972Z</time></trkpt><trkpt lat="43.9004908" lon="11.2225844"><ele>275.0</ele><time>2026-04-16T07:10:35.966Z</time></trkpt><trkpt lat="43.9005256" lon="11.2224795"><ele>275.0</ele><time>2026-04-16T07:10:37.968Z</time></trkpt><trkpt lat="43.9006248" lon="11.2223044"><ele>275.0</ele><time>2026-04-16T07:10:40.964Z</time></trkpt><trkpt lat="43.9007347" lon="11.2223279"><ele>275.0</ele><time>2026-04-16T07:10:42.966Z</time></trkpt><trkpt lat="43.9008066" lon="11.2223452"><ele>275.0</ele><time>2026-04-16T07:10:43.952Z</time></trkpt><trkpt lat="43.9008867" lon="11.2223468"><ele>275.0</ele><time>2026-04-16T07:10:45.978Z</time></trkpt><trkpt lat="43.9009306" lon="11.2222594"><ele>276.2</ele><time>2026-04-16T07:10:47.965Z</time></trkpt><trkpt lat="43.9009844" lon="11.2221437"><ele>277.4</ele><time>2026-04-16T07:10:49.97Z</time></trkpt><trkpt lat="43.9010496" lon="11.2220081"><ele>278.6</ele><time>2026-04-16T07:10:51.973Z</time></trkpt><trkpt lat="43.901129" lon="11.2218914"><ele>279.8</ele><time>2026-04-16T07:10:53.963Z</time></trkpt><trkpt lat="43.9011778" lon="11.221834"><ele>281.0</ele><time>2026-04-16T07:10:54.972Z</time></trkpt><trkpt lat="43.9012333" lon="11.2217879"><ele>281.0</ele><time>2026-04-16T07:10:55.946Z</time></trkpt><trkpt lat="43.9013402" lon="11.2217669"><ele>281.0</ele><time>2026-04-16T07:10:57.982Z</time></trkpt><trkpt lat="43.9014025" lon="11.2217827"><ele>281.0</ele><time>2026-04-16T07:10:58.974Z</time></trkpt><trkpt lat="43.9014688" lon="11.2217976"><ele>281.0</ele><time>2026-04-16T07:10:59.971Z</time></trkpt><trkpt lat="43.9015422" lon="11.2218031"><ele>281.0</ele><time>2026-04-16T07:11:00.971Z</time></trkpt><trkpt lat="43.9016142" lon="11.2218094"><ele>281.0</ele><time>2026-04-16T07:11:01.967Z</time></trkpt><trkpt lat="43.9016829" lon="11.2218184"><ele>281.0</ele><time>2026-04-16T07:11:02.961Z</time></trkpt><trkpt lat="43.9017477" lon="11.2218379"><ele>281.0</ele><time>2026-04-16T07:11:03.967Z</time></trkpt><trkpt lat="43.9018149" lon="11.2218642"><ele>281.0</ele><time>2026-04-16T07:11:04.964Z</time></trkpt><trkpt lat="43.9018759" lon="11.2218986"><ele>281.0</ele><time>2026-04-16T07:11:05.966Z</time></trkpt><trkpt lat="43.9019816" lon="11.2219361"><ele>281.0</ele><time>2026-04-16T07:11:07.968Z</time></trkpt><trkpt lat="43.9020759" lon="11.2220071"><ele>281.0</ele><time>2026-04-16T07:11:10.041Z</time></trkpt><trkpt lat="43.9021795" lon="11.2220656"><ele>280.33333333333337</ele><time>2026-04-16T07:11:11.97Z</time></trkpt><trkpt lat="43.9022878" lon="11.2220831"><ele>279.6666666666667</ele><time>2026-04-16T07:11:14.026Z</time></trkpt><trkpt lat="43.902375" lon="11.2220721"><ele>279.0</ele><time>2026-04-16T07:11:15.962Z</time></trkpt><trkpt lat="43.902454" lon="11.2220562"><ele>278.3333333333333</ele><time>2026-04-16T07:11:17.978Z</time></trkpt><trkpt lat="43.9025198" lon="11.2220447"><ele>277.66666666666663</ele><time>2026-04-16T07:11:20.027Z</time></trkpt><trkpt lat="43.902606" lon="11.2220231"><ele>277.0</ele><time>2026-04-16T07:11:21.971Z</time></trkpt><trkpt lat="43.9026963" lon="11.2220085"><ele>274.5</ele><time>2026-04-16T07:11:24.03Z</time></trkpt><trkpt lat="43.9027599" lon="11.222005"><ele>272.0</ele><time>2026-04-16T07:11:25.969Z</time></trkpt><trkpt lat="43.9028315" lon="11.2219826"><ele>269.5</ele><time>2026-04-16T07:11:38.944Z</time></trkpt><trkpt lat="43.9029325" lon="11.2220007"><ele>267.0</ele><time>2026-04-16T07:11:41.979Z</time></trkpt><trkpt lat="43.9030607" lon="11.2220383"><ele>264.5</ele><time>2026-04-16T07:11:43.959Z</time></trkpt><trkpt lat="43.9031269" lon="11.2220645"><ele>262.0</ele><time>2026-04-16T07:11:44.962Z</time></trkpt><trkpt lat="43.903239" lon="11.2220863"><ele>262.0</ele><time>2026-04-16T07:11:46.962Z</time></trkpt><trkpt lat="43.9033455" lon="11.2221294"><ele>262.0</ele><time>2026-04-16T07:11:48.965Z</time></trkpt><trkpt lat="43.9034054" lon="11.2221595"><ele>262.0</ele><time>2026-04-16T07:11:50.016Z</time></trkpt><trkpt lat="43.9034867" lon="11.2221923"><ele>262.0</ele><time>2026-04-16T07:11:51.964Z</time></trkpt><trkpt lat="43.9034238" lon="11.2221474"><ele>262.0</ele><time>2026-04-16T07:11:59.958Z</time></trkpt><trkpt lat="43.9033213" lon="11.2221156"><ele>262.0</ele><time>2026-04-16T07:12:01.976Z</time></trkpt><trkpt lat="43.9032124" lon="11.2220425"><ele>262.0</ele><time>2026-04-16T07:12:03.954Z</time></trkpt><trkpt lat="43.9031581" lon="11.2219863"><ele>262.0</ele><time>2026-04-16T07:12:04.968Z</time></trkpt><trkpt lat="43.9030988" lon="11.2219302"><ele>262.0</ele><time>2026-04-16T07:12:05.957Z</time></trkpt><trkpt lat="43.9030355" lon="11.2218659"><ele>262.0</ele><time>2026-04-16T07:12:06.971Z</time></trkpt><trkpt lat="43.9029718" lon="11.2218207"><ele>262.0</ele><time>2026-04-16T07:12:07.965Z</time></trkpt><trkpt lat="43.9029185" lon="11.2217664"><ele>262.0</ele><time>2026-04-16T07:12:08.97Z</time></trkpt><trkpt lat="43.9028642" lon="11.2217162"><ele>262.0</ele><time>2026-04-16T07:12:09.966Z</time></trkpt><trkpt lat="43.902807" lon="11.2216635"><ele>262.0</ele><time>2026-04-16T07:12:10.962Z</time></trkpt><trkpt lat="43.902746" lon="11.2216117"><ele>262.0</ele><time>2026-04-16T07:12:11.965Z</time></trkpt><trkpt lat="43.9026414" lon="11.2215459"><ele>262.0</ele><time>2026-04-16T07:12:13.951Z</time></trkpt><trkpt lat="43.9025536" lon="11.2214961"><ele>262.0</ele><time>2026-04-16T07:12:15.958Z</time></trkpt><trkpt lat="43.9024879" lon="11.2214748"><ele>262.0</ele><time>2026-04-16T07:12:19.963Z</time></trkpt><trkpt lat="43.9025673" lon="11.221489"><ele>262.0</ele><time>2026-04-16T07:13:24.942Z</time></trkpt><trkpt lat="43.9026569" lon="11.2215308"><ele>262.0</ele><time>2026-04-16T07:13:26.97Z</time></trkpt><trkpt lat="43.9027536" lon="11.221601"><ele>262.0</ele><time>2026-04-16T07:13:28.954Z</time></trkpt><trkpt lat="43.9028525" lon="11.2216759"><ele>262.0</ele><time>2026-04-16T07:13:30.971Z</time></trkpt><trkpt lat="43.9029525" lon="11.221759"><ele>262.0</ele><time>2026-04-16T07:13:32.965Z</time></trkpt><trkpt lat="43.9030374" lon="11.2218449"><ele>262.0</ele><time>2026-04-16T07:13:35.035Z</time></trkpt><trkpt lat="43.9031191" lon="11.2219287"><ele>262.0</ele><time>2026-04-16T07:13:36.959Z</time></trkpt><trkpt lat="43.9032033" lon="11.2220263"><ele>262.0</ele><time>2026-04-16T07:13:38.968Z</time></trkpt><trkpt lat="43.9032936" lon="11.2220954"><ele>262.0</ele><time>2026-04-16T07:13:40.969Z</time></trkpt><trkpt lat="43.9033899" lon="11.2221464"><ele>262.0</ele><time>2026-04-16T07:13:42.963Z</time></trkpt><trkpt lat="43.9035008" lon="11.2222068"><ele>262.0</ele><time>2026-04-16T07:13:45.033Z</time></trkpt><trkpt lat="43.9035644" lon="11.2222251"><ele>261.0</ele><time>2026-04-16T07:13:45.977Z</time></trkpt><trkpt lat="43.9036294" lon="11.2222494"><ele>260.0</ele><time>2026-04-16T07:13:46.969Z</time></trkpt><trkpt lat="43.9036907" lon="11.2222696"><ele>259.0</ele><time>2026-04-16T07:13:47.976Z</time></trkpt><trkpt lat="43.9037976" lon="11.2223145"><ele>258.0</ele><time>2026-04-16T07:13:49.968Z</time></trkpt><trkpt lat="43.9039022" lon="11.2223778"><ele>257.0</ele><time>2026-04-16T07:13:51.969Z</time></trkpt><trkpt lat="43.9039967" lon="11.2224463"><ele>257.0</ele><time>2026-04-16T07:13:53.975Z</time></trkpt><trkpt lat="43.9040736" lon="11.2224722"><ele>257.0</ele><time>2026-04-16T07:13:55.981Z</time></trkpt><trkpt lat="43.9041466" lon="11.2224489"><ele>257.0</ele><time>2026-04-16T07:13:57.975Z</time></trkpt><trkpt lat="43.904205" lon="11.2223778"><ele>257.0</ele><time>2026-04-16T07:13:59.977Z</time></trkpt><trkpt lat="43.9042636" lon="11.2222734"><ele>257.0</ele><time>2026-04-16T07:14:01.969Z</time></trkpt><trkpt lat="43.9043314" lon="11.2221816"><ele>257.0</ele><time>2026-04-16T07:14:03.972Z</time></trkpt><trkpt lat="43.9044265" lon="11.222111"><ele>256.5</ele><time>2026-04-16T07:14:05.974Z</time></trkpt><trkpt lat="43.9044832" lon="11.2220714"><ele>256.0</ele><time>2026-04-16T07:14:06.982Z</time></trkpt><trkpt lat="43.9045423" lon="11.2220323"><ele>255.5</ele><time>2026-04-16T07:14:08.021Z</time></trkpt><trkpt lat="43.904607" lon="11.2219989"><ele>255.0</ele><time>2026-04-16T07:14:08.978Z</time></trkpt><trkpt lat="43.9047186" lon="11.2219459"><ele>254.50000000000003</ele><time>2026-04-16T07:14:10.966Z</time></trkpt><trkpt lat="43.9047792" lon="11.2219176"><ele>254.0</ele><time>2026-04-16T07:14:11.981Z</time></trkpt><trkpt lat="43.9048966" lon="11.2218923"><ele>254.0</ele><time>2026-04-16T07:14:13.976Z</time></trkpt><trkpt lat="43.9049942" lon="11.2218763"><ele>253.99999999999997</ele><time>2026-04-16T07:14:15.972Z</time></trkpt><trkpt lat="43.9050979" lon="11.2218388"><ele>253.99999999999997</ele><time>2026-04-16T07:14:17.973Z</time></trkpt><trkpt lat="43.9051965" lon="11.2217936"><ele>254.0</ele><time>2026-04-16T07:14:19.976Z</time></trkpt><trkpt lat="43.9052839" lon="11.2217435"><ele>254.0</ele><time>2026-04-16T07:14:21.978Z</time></trkpt><trkpt lat="43.9054067" lon="11.2217031"><ele>252.33333333333334</ele><time>2026-04-16T07:14:23.964Z</time></trkpt><trkpt lat="43.905472" lon="11.2216827"><ele>250.66666666666669</ele><time>2026-04-16T07:14:24.982Z</time></trkpt><trkpt lat="43.9055783" lon="11.2216602"><ele>249.0</ele><time>2026-04-16T07:14:26.974Z</time></trkpt><trkpt lat="43.905663" lon="11.2216641"><ele>247.33333333333331</ele><time>2026-04-16T07:14:28.955Z</time></trkpt><trkpt lat="43.9057379" lon="11.2216739"><ele>245.66666666666666</ele><time>2026-04-16T07:14:30.965Z</time></trkpt><trkpt lat="43.9058153" lon="11.22169"><ele>244.0</ele><time>2026-04-16T07:14:32.985Z</time></trkpt><trkpt lat="43.9059069" lon="11.2216872"><ele>239.79999999999998</ele><time>2026-04-16T07:14:34.981Z</time></trkpt><trkpt lat="43.9059972" lon="11.2216257"><ele>235.59999999999997</ele><time>2026-04-16T07:14:36.962Z</time></trkpt><trkpt lat="43.9060572" lon="11.2215208"><ele>231.4</ele><time>2026-04-16T07:14:38.975Z</time></trkpt><trkpt lat="43.9060751" lon="11.2213997"><ele>227.2</ele><time>2026-04-16T07:14:40.962Z</time></trkpt><trkpt lat="43.9060185" lon="11.2212949"><ele>223.0</ele><time>2026-04-16T07:14:43.972Z</time></trkpt><trkpt lat="43.9059468" lon="11.2212091"><ele>224.33333333333331</ele><time>2026-04-16T07:14:45.967Z</time></trkpt><trkpt lat="43.9058494" lon="11.2210922"><ele>225.66666666666666</ele><time>2026-04-16T07:14:47.982Z</time></trkpt><trkpt lat="43.9057919" lon="11.2210278"><ele>227.0</ele><time>2026-04-16T07:14:48.972Z</time></trkpt><trkpt lat="43.9057419" lon="11.2209701"><ele>228.33333333333331</ele><time>2026-04-16T07:14:49.967Z</time></trkpt><trkpt lat="43.9056864" lon="11.2209169"><ele>229.66666666666666</ele><time>2026-04-16T07:14:50.97Z</time></trkpt><trkpt lat="43.9056315" lon="11.220854"><ele>231.0</ele><time>2026-04-16T07:14:51.976Z</time></trkpt><trkpt lat="43.905579" lon="11.2207892"><ele>231.0</ele><time>2026-04-16T07:14:52.971Z</time></trkpt><trkpt lat="43.9054926" lon="11.2206661"><ele>231.00000000000003</ele><time>2026-04-16T07:14:54.975Z</time></trkpt><trkpt lat="43.9054255" lon="11.2205519"><ele>231.00000000000003</ele><time>2026-04-16T07:14:56.98Z</time></trkpt><trkpt lat="43.9053327" lon="11.2204229"><ele>231.0</ele><time>2026-04-16T07:14:58.971Z</time></trkpt><trkpt lat="43.905284" lon="11.2203654"><ele>231.0</ele><time>2026-04-16T07:14:59.978Z</time></trkpt><trkpt lat="43.9052597" lon="11.2202665"><ele>229.0</ele><time>2026-04-16T07:15:01.972Z</time></trkpt><trkpt lat="43.9052387" lon="11.2201743"><ele>227.0</ele><time>2026-04-16T07:15:03.977Z</time></trkpt><trkpt lat="43.9053302" lon="11.2201729"><ele>225.0</ele><time>2026-04-16T07:15:08.978Z</time></trkpt><trkpt lat="43.905407" lon="11.2201835"><ele>223.0</ele><time>2026-04-16T07:15:10.976Z</time></trkpt><trkpt lat="43.9054938" lon="11.2201624"><ele>221.0</ele><time>2026-04-16T07:15:12.978Z</time></trkpt><trkpt lat="43.9055581" lon="11.2201628"><ele>219.0</ele><time>2026-04-16T07:15:13.975Z</time></trkpt><trkpt lat="43.9056252" lon="11.2201567"><ele>219.0</ele><time>2026-04-16T07:15:14.97Z</time></trkpt><trkpt lat="43.9056925" lon="11.2201472"><ele>219.0</ele><time>2026-04-16T07:15:15.959Z</time></trkpt><trkpt lat="43.9057675" lon="11.2201168"><ele>219.0</ele><time>2026-04-16T07:15:16.975Z</time></trkpt><trkpt lat="43.9058519" lon="11.2200831"><ele>219.0</ele><time>2026-04-16T07:15:17.974Z</time></trkpt><trkpt lat="43.9059382" lon="11.220026"><ele>219.0</ele><time>2026-04-16T07:15:18.97Z</time></trkpt><trkpt lat="43.9060234" lon="11.2199769"><ele>219.0</ele><time>2026-04-16T07:15:19.977Z</time></trkpt><trkpt lat="43.9061056" lon="11.2199249"><ele>217.16666666666666</ele><time>2026-04-16T07:15:20.979Z</time></trkpt><trkpt lat="43.9061879" lon="11.2198728"><ele>215.33333333333331</ele><time>2026-04-16T07:15:22.031Z</time></trkpt><trkpt lat="43.9062677" lon="11.2198211"><ele>213.5</ele><time>2026-04-16T07:15:23.032Z</time></trkpt><trkpt lat="43.9063446" lon="11.2197686"><ele>211.66666666666666</ele><time>2026-04-16T07:15:23.952Z</time></trkpt><trkpt lat="43.9064278" lon="11.2197182"><ele>209.83333333333331</ele><time>2026-04-16T07:15:24.969Z</time></trkpt><trkpt lat="43.9065021" lon="11.219676"><ele>208.0</ele><time>2026-04-16T07:15:25.966Z</time></trkpt><trkpt lat="43.9065739" lon="11.2196504"><ele>206.99999999999997</ele><time>2026-04-16T07:15:26.961Z</time></trkpt><trkpt lat="43.9066395" lon="11.2196301"><ele>206.0</ele><time>2026-04-16T07:15:27.958Z</time></trkpt><trkpt lat="43.906714" lon="11.2196212"><ele>205.0</ele><time>2026-04-16T07:15:28.954Z</time></trkpt><trkpt lat="43.9067965" lon="11.2196138"><ele>204.0</ele><time>2026-04-16T07:15:29.957Z</time></trkpt><trkpt lat="43.9068916" lon="11.2196123"><ele>202.99999999999997</ele><time>2026-04-16T07:15:30.944Z</time></trkpt><trkpt lat="43.9069906" lon="11.2196151"><ele>202.0</ele><time>2026-04-16T07:15:31.973Z</time></trkpt><trkpt lat="43.9070883" lon="11.2196218"><ele>199.16666666666666</ele><time>2026-04-16T07:15:32.985Z</time></trkpt><trkpt lat="43.9071776" lon="11.2196328"><ele>196.33333333333331</ele><time>2026-04-16T07:15:33.96Z</time></trkpt><trkpt lat="43.9072579" lon="11.2196442"><ele>193.5</ele><time>2026-04-16T07:15:35.033Z</time></trkpt><trkpt lat="43.907328" lon="11.2196549"><ele>190.66666666666666</ele><time>2026-04-16T07:15:35.963Z</time></trkpt><trkpt lat="43.9074004" lon="11.2196617"><ele>187.83333333333331</ele><time>2026-04-16T07:15:36.962Z</time></trkpt><trkpt lat="43.9075339" lon="11.2196744"><ele>185.0</ele><time>2026-04-16T07:15:38.972Z</time></trkpt><trkpt lat="43.9075983" lon="11.219677"><ele>183.66666666666666</ele><time>2026-04-16T07:15:39.972Z</time></trkpt><trkpt lat="43.9076933" lon="11.2195751"><ele>182.33333333333331</ele><time>2026-04-16T07:15:41.974Z</time></trkpt><trkpt lat="43.907742" lon="11.2194972"><ele>181.0</ele><time>2026-04-16T07:15:42.965Z</time></trkpt><trkpt lat="43.9077783" lon="11.2194174"><ele>179.66666666666666</ele><time>2026-04-16T07:15:43.967Z</time></trkpt><trkpt lat="43.9078245" lon="11.219349"><ele>178.33333333333334</ele><time>2026-04-16T07:15:44.968Z</time></trkpt><trkpt lat="43.9078743" lon="11.2192802"><ele>177.0</ele><time>2026-04-16T07:15:45.966Z</time></trkpt><trkpt lat="43.9079262" lon="11.2192021"><ele>177.0</ele><time>2026-04-16T07:15:46.952Z</time></trkpt><trkpt lat="43.9079756" lon="11.2191217"><ele>177.0</ele><time>2026-04-16T07:15:47.964Z</time></trkpt><trkpt lat="43.9080321" lon="11.2190581"><ele>177.0</ele><time>2026-04-16T07:15:48.973Z</time></trkpt><trkpt lat="43.9080879" lon="11.2189888"><ele>177.0</ele><time>2026-04-16T07:15:49.98Z</time></trkpt><trkpt lat="43.9081475" lon="11.2189231"><ele>177.0</ele><time>2026-04-16T07:15:50.967Z</time></trkpt><trkpt lat="43.9082099" lon="11.2188583"><ele>177.0</ele><time>2026-04-16T07:15:51.968Z</time></trkpt><trkpt lat="43.9082743" lon="11.2187865"><ele>177.0</ele><time>2026-04-16T07:15:52.957Z</time></trkpt><trkpt lat="43.9083432" lon="11.2187285"><ele>177.0</ele><time>2026-04-16T07:15:53.96Z</time></trkpt><trkpt lat="43.9084035" lon="11.2186705"><ele>177.0</ele><time>2026-04-16T07:15:54.966Z</time></trkpt><trkpt lat="43.9084559" lon="11.2186167"><ele>177.0</ele><time>2026-04-16T07:15:55.966Z</time></trkpt><trkpt lat="43.9085112" lon="11.2185648"><ele>177.0</ele><time>2026-04-16T07:15:57.011Z</time></trkpt><trkpt lat="43.9085599" lon="11.2185032"><ele>177.0</ele><time>2026-04-16T07:15:57.967Z</time></trkpt><trkpt lat="43.9086176" lon="11.2184445"><ele>177.0</ele><time>2026-04-16T07:15:58.964Z</time></trkpt><trkpt lat="43.90868" lon="11.2183974"><ele>177.0</ele><time>2026-04-16T07:15:59.969Z</time></trkpt><trkpt lat="43.9087418" lon="11.2183556"><ele>177.0</ele><time>2026-04-16T07:16:00.968Z</time></trkpt><trkpt lat="43.9088055" lon="11.2183093"><ele>177.0</ele><time>2026-04-16T07:16:01.969Z</time></trkpt><trkpt lat="43.9088704" lon="11.2182576"><ele>177.0</ele><time>2026-04-16T07:16:02.964Z</time></trkpt><trkpt lat="43.908964" lon="11.2181641"><ele>177.0</ele><time>2026-04-16T07:16:04.967Z</time></trkpt><trkpt lat="43.9090332" lon="11.2180836"><ele>177.0</ele><time>2026-04-16T07:16:07.037Z</time></trkpt><trkpt lat="43.9091163" lon="11.2180183"><ele>176.83333333333334</ele><time>2026-04-16T07:16:08.957Z</time></trkpt><trkpt lat="43.9091911" lon="11.2179622"><ele>176.66666666666666</ele><time>2026-04-16T07:16:10.965Z</time></trkpt><trkpt lat="43.9092414" lon="11.2179002"><ele>176.5</ele><time>2026-04-16T07:16:12.966Z</time></trkpt><trkpt lat="43.9093059" lon="11.2178292"><ele>176.33333333333331</ele><time>2026-04-16T07:16:15.957Z</time></trkpt><trkpt lat="43.909368" lon="11.2177665"><ele>176.16666666666666</ele><time>2026-04-16T07:16:19.967Z</time></trkpt><trkpt lat="43.9094207" lon="11.2176906"><ele>176.0</ele><time>2026-04-16T07:16:22.956Z</time></trkpt><trkpt lat="43.9094452" lon="11.2175941"><ele>176.4</ele><time>2026-04-16T07:16:25.963Z</time></trkpt><trkpt lat="43.9093883" lon="11.2175234"><ele>176.8</ele><time>2026-04-16T07:16:27.969Z</time></trkpt><trkpt lat="43.9093109" lon="11.2174221"><ele>177.20000000000002</ele><time>2026-04-16T07:16:29.96Z</time></trkpt><trkpt lat="43.9092123" lon="11.2173118"><ele>177.60000000000002</ele><time>2026-04-16T07:16:31.965Z</time></trkpt><trkpt lat="43.9091448" lon="11.21724"><ele>178.0</ele><time>2026-04-16T07:16:32.967Z</time></trkpt><trkpt lat="43.9090793" lon="11.2171689"><ele>178.0</ele><time>2026-04-16T07:16:33.962Z</time></trkpt><trkpt lat="43.9090054" lon="11.2170832"><ele>178.0</ele><time>2026-04-16T07:16:34.978Z</time></trkpt><trkpt lat="43.9089288" lon="11.2169926"><ele>178.0</ele><time>2026-04-16T07:16:35.963Z</time></trkpt><trkpt lat="43.9088495" lon="11.2169068"><ele>178.0</ele><time>2026-04-16T07:16:36.963Z</time></trkpt><trkpt lat="43.9087735" lon="11.2168219"><ele>178.0</ele><time>2026-04-16T07:16:37.966Z</time></trkpt><trkpt lat="43.9087038" lon="11.2167385"><ele>178.0</ele><time>2026-04-16T07:16:39.03Z</time></trkpt><trkpt lat="43.9086314" lon="11.2166606"><ele>178.0</ele><time>2026-04-16T07:16:40.029Z</time></trkpt><trkpt lat="43.9085679" lon="11.216584"><ele>178.0</ele><time>2026-04-16T07:16:40.969Z</time></trkpt><trkpt lat="43.9085007" lon="11.2165142"><ele>178.0</ele><time>2026-04-16T07:16:41.971Z</time></trkpt><trkpt lat="43.9084271" lon="11.216439"><ele>178.0</ele><time>2026-04-16T07:16:42.97Z</time></trkpt><trkpt lat="43.9083504" lon="11.2163625"><ele>178.0</ele><time>2026-04-16T07:16:43.977Z</time></trkpt><trkpt lat="43.9082716" lon="11.2162872"><ele>178.2</ele><time>2026-04-16T07:16:44.997Z</time></trkpt><trkpt lat="43.9081891" lon="11.2162094"><ele>178.4</ele><time>2026-04-16T07:16:45.957Z</time></trkpt><trkpt lat="43.9081141" lon="11.2161355"><ele>178.6</ele><time>2026-04-16T07:16:47.031Z</time></trkpt><trkpt lat="43.9080373" lon="11.2160576"><ele>178.79999999999998</ele><time>2026-04-16T07:16:47.96Z</time></trkpt><trkpt lat="43.9079539" lon="11.2159806"><ele>179.0</ele><time>2026-04-16T07:16:48.969Z</time></trkpt><trkpt lat="43.9078657" lon="11.2159061"><ele>179.0</ele><time>2026-04-16T07:16:49.968Z</time></trkpt><trkpt lat="43.9077706" lon="11.2158205"><ele>179.0</ele><time>2026-04-16T07:16:50.959Z</time></trkpt><trkpt lat="43.9076765" lon="11.2157318"><ele>179.0</ele><time>2026-04-16T07:16:52.032Z</time></trkpt><trkpt lat="43.907578" lon="11.2156333"><ele>179.0</ele><time>2026-04-16T07:16:53.026Z</time></trkpt><trkpt lat="43.9074843" lon="11.2155431"><ele>178.5</ele><time>2026-04-16T07:16:53.957Z</time></trkpt><trkpt lat="43.9073943" lon="11.2154562"><ele>178.0</ele><time>2026-04-16T07:16:55.027Z</time></trkpt><trkpt lat="43.9073076" lon="11.2153635"><ele>177.5</ele><time>2026-04-16T07:16:55.961Z</time></trkpt><trkpt lat="43.9072209" lon="11.2152475"><ele>177.0</ele><time>2026-04-16T07:16:56.967Z</time></trkpt><trkpt lat="43.9071398" lon="11.2151092"><ele>177.0</ele><time>2026-04-16T07:16:57.978Z</time></trkpt><trkpt lat="43.9070718" lon="11.2149636"><ele>177.0</ele><time>2026-04-16T07:16:59.029Z</time></trkpt><trkpt lat="43.9070117" lon="11.214805"><ele>177.0</ele><time>2026-04-16T07:17:00.032Z</time></trkpt><trkpt lat="43.9069646" lon="11.2146357"><ele>177.0</ele><time>2026-04-16T07:17:00.957Z</time></trkpt><trkpt lat="43.9069173" lon="11.2144716"><ele>175.75</ele><time>2026-04-16T07:17:01.965Z</time></trkpt><trkpt lat="43.9068666" lon="11.2143076"><ele>174.5</ele><time>2026-04-16T07:17:02.95Z</time></trkpt><trkpt lat="43.9068117" lon="11.2141342"><ele>173.25</ele><time>2026-04-16T07:17:03.962Z</time></trkpt><trkpt lat="43.9067509" lon="11.2139596"><ele>172.0</ele><time>2026-04-16T07:17:04.954Z</time></trkpt><trkpt lat="43.9066949" lon="11.213794"><ele>172.0</ele><time>2026-04-16T07:17:05.958Z</time></trkpt><trkpt lat="43.906626" lon="11.2136313"><ele>172.0</ele><time>2026-04-16T07:17:06.981Z</time></trkpt><trkpt lat="43.9065556" lon="11.2134631"><ele>172.0</ele><time>2026-04-16T07:17:07.98Z</time></trkpt><trkpt lat="43.9064862" lon="11.2132884"><ele>172.0</ele><time>2026-04-16T07:17:08.959Z</time></trkpt><trkpt lat="43.906406" lon="11.2131173"><ele>173.25</ele><time>2026-04-16T07:17:10.029Z</time></trkpt><trkpt lat="43.9063296" lon="11.2129467"><ele>174.5</ele><time>2026-04-16T07:17:10.969Z</time></trkpt><trkpt lat="43.9062339" lon="11.2127877"><ele>175.75</ele><time>2026-04-16T07:17:11.973Z</time></trkpt><trkpt lat="43.9061207" lon="11.2126517"><ele>177.0</ele><time>2026-04-16T07:17:12.964Z</time></trkpt><trkpt lat="43.9059857" lon="11.2125397"><ele>172.66666666666666</ele><time>2026-04-16T07:17:13.967Z</time></trkpt><trkpt lat="43.905824" lon="11.2124678"><ele>168.33333333333331</ele><time>2026-04-16T07:17:14.965Z</time></trkpt><trkpt lat="43.9056629" lon="11.2123942"><ele>164.0</ele><time>2026-04-16T07:17:15.97Z</time></trkpt><trkpt lat="43.9055225" lon="11.2123418"><ele>164.6</ele><time>2026-04-16T07:17:16.966Z</time></trkpt><trkpt lat="43.9054285" lon="11.2122929"><ele>165.2</ele><time>2026-04-16T07:17:18.088Z</time></trkpt><trkpt lat="43.9053444" lon="11.212257"><ele>165.79999999999998</ele><time>2026-04-16T07:17:19.048Z</time></trkpt><trkpt lat="43.9052592" lon="11.2121695"><ele>166.39999999999998</ele><time>2026-04-16T07:17:20.024Z</time></trkpt><trkpt lat="43.9052034" lon="11.2120212"><ele>167.0</ele><time>2026-04-16T07:17:21.002Z</time></trkpt><trkpt lat="43.9051684" lon="11.2118535"><ele>167.0</ele><time>2026-04-16T07:17:22.022Z</time></trkpt><trkpt lat="43.9051432" lon="11.2116721"><ele>167.0</ele><time>2026-04-16T07:17:22.954Z</time></trkpt><trkpt lat="43.9051295" lon="11.2114889"><ele>167.0</ele><time>2026-04-16T07:17:23.964Z</time></trkpt><trkpt lat="43.9051272" lon="11.211292"><ele>167.0</ele><time>2026-04-16T07:17:25.033Z</time></trkpt><trkpt lat="43.9051329" lon="11.2110823"><ele>168.75</ele><time>2026-04-16T07:17:25.955Z</time></trkpt><trkpt lat="43.9051452" lon="11.2108705"><ele>170.5</ele><time>2026-04-16T07:17:27.026Z</time></trkpt><trkpt lat="43.9051483" lon="11.2106726"><ele>172.25</ele><time>2026-04-16T07:17:28.031Z</time></trkpt><trkpt lat="43.9051483" lon="11.2104772"><ele>174.0</ele><time>2026-04-16T07:17:29.026Z</time></trkpt><trkpt lat="43.9051479" lon="11.2102992"><ele>173.0</ele><time>2026-04-16T07:17:29.96Z</time></trkpt><trkpt lat="43.9051401" lon="11.2101498"><ele>172.0</ele><time>2026-04-16T07:17:30.95Z</time></trkpt><trkpt lat="43.9051125" lon="11.2100156"><ele>171.0</ele><time>2026-04-16T07:17:31.944Z</time></trkpt><trkpt lat="43.9050517" lon="11.2099151"><ele>170.0</ele><time>2026-04-16T07:17:33.05Z</time></trkpt><trkpt lat="43.9049614" lon="11.2098467"><ele>169.0</ele><time>2026-04-16T07:17:34.03Z</time></trkpt><trkpt lat="43.9048535" lon="11.2097861"><ele>177.0</ele><time>2026-04-16T07:17:34.98Z</time></trkpt><trkpt lat="43.9047435" lon="11.2097455"><ele>185.0</ele><time>2026-04-16T07:17:35.967Z</time></trkpt><trkpt lat="43.9046258" lon="11.209704"><ele>193.0</ele><time>2026-04-16T07:17:36.973Z</time></trkpt><trkpt lat="43.9045004" lon="11.2096611"><ele>201.0</ele><time>2026-04-16T07:17:37.989Z</time></trkpt><trkpt lat="43.9043647" lon="11.2096268"><ele>194.25</ele><time>2026-04-16T07:17:38.988Z</time></trkpt><trkpt lat="43.9042187" lon="11.2095911"><ele>187.5</ele><time>2026-04-16T07:17:39.965Z</time></trkpt><trkpt lat="43.9040724" lon="11.20954"><ele>180.75</ele><time>2026-04-16T07:17:40.956Z</time></trkpt><trkpt lat="43.9039294" lon="11.2094805"><ele>174.0</ele><time>2026-04-16T07:17:41.959Z</time></trkpt><trkpt lat="43.9037799" lon="11.2094144"><ele>174.0</ele><time>2026-04-16T07:17:42.973Z</time></trkpt><trkpt lat="43.9036426" lon="11.2093498"><ele>174.0</ele><time>2026-04-16T07:17:43.963Z</time></trkpt><trkpt lat="43.9035135" lon="11.209293"><ele>174.0</ele><time>2026-04-16T07:17:44.97Z</time></trkpt><trkpt lat="43.9034013" lon="11.2092339"><ele>174.0</ele><time>2026-04-16T07:17:45.965Z</time></trkpt><trkpt lat="43.9032935" lon="11.2091604"><ele>172.39999999999998</ele><time>2026-04-16T07:17:46.966Z</time></trkpt><trkpt lat="43.9032084" lon="11.2090679"><ele>170.8</ele><time>2026-04-16T07:17:47.968Z</time></trkpt><trkpt lat="43.9031489" lon="11.2089424"><ele>169.2</ele><time>2026-04-16T07:17:48.972Z</time></trkpt><trkpt lat="43.9031075" lon="11.208819"><ele>167.60000000000002</ele><time>2026-04-16T07:17:49.97Z</time></trkpt><trkpt lat="43.9030738" lon="11.2086912"><ele>166.0</ele><time>2026-04-16T07:17:50.966Z</time></trkpt><trkpt lat="43.9030465" lon="11.208562"><ele>166.0</ele><time>2026-04-16T07:17:51.954Z</time></trkpt><trkpt lat="43.9030292" lon="11.2084322"><ele>166.0</ele><time>2026-04-16T07:17:52.948Z</time></trkpt><trkpt lat="43.9030106" lon="11.2083109"><ele>166.0</ele><time>2026-04-16T07:17:53.975Z</time></trkpt><trkpt lat="43.9029875" lon="11.2081875"><ele>166.0</ele><time>2026-04-16T07:17:54.959Z</time></trkpt><trkpt lat="43.9029471" lon="11.2080803"><ele>166.0</ele><time>2026-04-16T07:17:55.967Z</time></trkpt><trkpt lat="43.902915" lon="11.2079811"><ele>166.0</ele><time>2026-04-16T07:17:56.974Z</time></trkpt><trkpt lat="43.9028559" lon="11.2078636"><ele>166.0</ele><time>2026-04-16T07:17:58.959Z</time></trkpt><trkpt lat="43.9028108" lon="11.2079327"><ele>166.0</ele><time>2026-04-16T07:18:00.951Z</time></trkpt><trkpt lat="43.9028258" lon="11.2080997"><ele>166.0</ele><time>2026-04-16T07:18:02.969Z</time></trkpt><trkpt lat="43.9028385" lon="11.2082041"><ele>166.0</ele><time>2026-04-16T07:18:03.95Z</time></trkpt><trkpt lat="43.9028532" lon="11.2083123"><ele>166.0</ele><time>2026-04-16T07:18:05.03Z</time></trkpt><trkpt lat="43.9028796" lon="11.2084651"><ele>166.0</ele><time>2026-04-16T07:18:07.047Z</time></trkpt><trkpt lat="43.902877" lon="11.2085597"><ele>166.0</ele><time>2026-04-16T07:18:08.965Z</time></trkpt><trkpt lat="43.9028327" lon="11.2086428"><ele>166.0</ele><time>2026-04-16T07:18:11.975Z</time></trkpt><trkpt lat="43.9027481" lon="11.2086691"><ele>166.0</ele><time>2026-04-16T07:18:14.956Z</time></trkpt><trkpt lat="43.9026776" lon="11.2086365"><ele>166.0</ele><time>2026-04-16T07:18:16.959Z</time></trkpt><trkpt lat="43.9025956" lon="11.2085878"><ele>166.0</ele><time>2026-04-16T07:18:18.991Z</time></trkpt><trkpt lat="43.9025139" lon="11.2084983"><ele>165.0</ele><time>2026-04-16T07:18:20.968Z</time></trkpt><trkpt lat="43.9024082" lon="11.2084393"><ele>164.0</ele><time>2026-04-16T07:18:22.966Z</time></trkpt><trkpt lat="43.9023389" lon="11.2084598"><ele>163.0</ele><time>2026-04-16T07:18:24.968Z</time></trkpt><trkpt lat="43.9023299" lon="11.2085481"><ele>162.0</ele><time>2026-04-16T07:18:26.963Z</time></trkpt><trkpt lat="43.9023438" lon="11.2086361"><ele>161.0</ele><time>2026-04-16T07:18:28.965Z</time></trkpt><trkpt lat="43.902393" lon="11.2087565"><ele>160.0</ele><time>2026-04-16T07:18:30.969Z</time></trkpt><trkpt lat="43.902457" lon="11.2088951"><ele>160.0</ele><time>2026-04-16T07:18:32.964Z</time></trkpt><trkpt lat="43.9024884" lon="11.208979"><ele>160.0</ele><time>2026-04-16T07:18:33.974Z</time></trkpt><trkpt lat="43.9025557" lon="11.2091143"><ele>160.0</ele><time>2026-04-16T07:18:35.969Z</time></trkpt><trkpt lat="43.9026132" lon="11.2092655"><ele>160.0</ele><time>2026-04-16T07:18:37.971Z</time></trkpt><trkpt lat="43.9026331" lon="11.2093569"><ele>160.0</ele><time>2026-04-16T07:18:38.971Z</time></trkpt><trkpt lat="43.9026495" lon="11.2094495"><ele>160.0</ele><time>2026-04-16T07:18:39.963Z</time></trkpt><trkpt lat="43.9027051" lon="11.2095885"><ele>160.4</ele><time>2026-04-16T07:18:42.03Z</time></trkpt><trkpt lat="43.9027587" lon="11.2097286"><ele>160.8</ele><time>2026-04-16T07:18:44.033Z</time></trkpt><trkpt lat="43.9027951" lon="11.2098032"><ele>161.2</ele><time>2026-04-16T07:18:45.03Z</time></trkpt><trkpt lat="43.9028341" lon="11.209879"><ele>161.6</ele><time>2026-04-16T07:18:45.961Z</time></trkpt><trkpt lat="43.9028988" lon="11.2100182"><ele>162.0</ele><time>2026-04-16T07:18:47.994Z</time></trkpt><trkpt lat="43.9029472" lon="11.210164"><ele>165.75</ele><time>2026-04-16T07:18:50.028Z</time></trkpt><trkpt lat="43.9029817" lon="11.2103089"><ele>169.5</ele><time>2026-04-16T07:18:51.953Z</time></trkpt><trkpt lat="43.9030044" lon="11.2104688"><ele>173.25</ele><time>2026-04-16T07:18:53.949Z</time></trkpt><trkpt lat="43.9030471" lon="11.2106281"><ele>177.0</ele><time>2026-04-16T07:18:55.96Z</time></trkpt><trkpt lat="43.9030798" lon="11.2107999"><ele>180.39999999999998</ele><time>2026-04-16T07:18:57.975Z</time></trkpt><trkpt lat="43.9031209" lon="11.2109565"><ele>183.79999999999998</ele><time>2026-04-16T07:19:00.029Z</time></trkpt><trkpt lat="43.9031628" lon="11.2110793"><ele>187.2</ele><time>2026-04-16T07:19:01.981Z</time></trkpt><trkpt lat="43.9032031" lon="11.2111786"><ele>190.6</ele><time>2026-04-16T07:19:05.034Z</time></trkpt><trkpt lat="43.9032438" lon="11.2112574"><ele>194.0</ele><time>2026-04-16T07:19:19.963Z</time></trkpt><trkpt lat="43.9032523" lon="11.2113754"><ele>194.00000000000003</ele><time>2026-04-16T07:19:22.973Z</time></trkpt><trkpt lat="43.903282" lon="11.2114793"><ele>194.0</ele><time>2026-04-16T07:19:25.963Z</time></trkpt><trkpt lat="43.9033182" lon="11.2115789"><ele>194.0</ele><time>2026-04-16T07:19:28.97Z</time></trkpt><trkpt lat="43.903338" lon="11.2116842"><ele>194.0</ele><time>2026-04-16T07:19:32.966Z</time></trkpt><trkpt lat="43.9033659" lon="11.2117846"><ele>194.00000000000003</ele><time>2026-04-16T07:19:41.961Z</time></trkpt><trkpt lat="43.9034003" lon="11.2118597"><ele>194.0</ele><time>2026-04-16T07:19:43.967Z</time></trkpt><trkpt lat="43.9034381" lon="11.2119533"><ele>193.83333333333334</ele><time>2026-04-16T07:19:45.966Z</time></trkpt><trkpt lat="43.9034717" lon="11.2120297"><ele>193.66666666666669</ele><time>2026-04-16T07:19:47.955Z</time></trkpt><trkpt lat="43.9034933" lon="11.212127"><ele>193.5</ele><time>2026-04-16T07:19:50.956Z</time></trkpt><trkpt lat="43.9035176" lon="11.2122344"><ele>193.33333333333331</ele><time>2026-04-16T07:19:53.964Z</time></trkpt><trkpt lat="43.9035591" lon="11.2123542"><ele>193.16666666666666</ele><time>2026-04-16T07:19:56.968Z</time></trkpt><trkpt lat="43.9035705" lon="11.2124609"><ele>193.0</ele><time>2026-04-16T07:19:58.962Z</time></trkpt><trkpt lat="43.9035543" lon="11.2125636"><ele>192.99999999999997</ele><time>2026-04-16T07:20:00.956Z</time></trkpt><trkpt lat="43.9035536" lon="11.2126712"><ele>193.0</ele><time>2026-04-16T07:20:02.959Z</time></trkpt><trkpt lat="43.9035602" lon="11.2127802"><ele>193.0</ele><time>2026-04-16T07:20:04.962Z</time></trkpt><trkpt lat="43.9035632" lon="11.2128776"><ele>193.0</ele><time>2026-04-16T07:20:06.971Z</time></trkpt><trkpt lat="43.9035779" lon="11.2129748"><ele>192.99999999999997</ele><time>2026-04-16T07:20:08.972Z</time></trkpt><trkpt lat="43.9035848" lon="11.2130902"><ele>193.0</ele><time>2026-04-16T07:20:11.966Z</time></trkpt><trkpt lat="43.9035894" lon="11.2132211"><ele>195.66666666666666</ele><time>2026-04-16T07:20:14.93Z</time></trkpt><trkpt lat="43.9036249" lon="11.2133329"><ele>198.33333333333331</ele><time>2026-04-16T07:20:17.941Z</time></trkpt><trkpt lat="43.9036572" lon="11.2134164"><ele>201.0</ele><time>2026-04-16T07:20:20.033Z</time></trkpt><trkpt lat="43.9036942" lon="11.2135065"><ele>203.66666666666669</ele><time>2026-04-16T07:20:21.995Z</time></trkpt><trkpt lat="43.9037324" lon="11.2136095"><ele>206.33333333333334</ele><time>2026-04-16T07:20:23.965Z</time></trkpt><trkpt lat="43.9037621" lon="11.2137276"><ele>209.0</ele><time>2026-04-16T07:20:25.963Z</time></trkpt><trkpt lat="43.9037838" lon="11.2138888"><ele>209.00000000000003</ele><time>2026-04-16T07:20:27.959Z</time></trkpt><trkpt lat="43.9038009" lon="11.2139735"><ele>209.0</ele><time>2026-04-16T07:20:28.966Z</time></trkpt><trkpt lat="43.9038242" lon="11.2141152"><ele>209.0</ele><time>2026-04-16T07:20:31.033Z</time></trkpt><trkpt lat="43.903831" lon="11.2142312"><ele>209.0</ele><time>2026-04-16T07:20:32.954Z</time></trkpt><trkpt lat="43.9038509" lon="11.214334"><ele>209.00000000000003</ele><time>2026-04-16T07:20:34.967Z</time></trkpt><trkpt lat="43.9038618" lon="11.2144777"><ele>209.0</ele><time>2026-04-16T07:20:36.963Z</time></trkpt><trkpt lat="43.903854" lon="11.2146341"><ele>211.79999999999998</ele><time>2026-04-16T07:20:38.976Z</time></trkpt><trkpt lat="43.9038326" lon="11.2147932"><ele>214.6</ele><time>2026-04-16T07:20:40.956Z</time></trkpt><trkpt lat="43.9037941" lon="11.2149419"><ele>217.4</ele><time>2026-04-16T07:20:42.959Z</time></trkpt><trkpt lat="43.9037733" lon="11.2150815"><ele>220.2</ele><time>2026-04-16T07:20:44.96Z</time></trkpt><trkpt lat="43.9037655" lon="11.21519"><ele>223.0</ele><time>2026-04-16T07:20:46.961Z</time></trkpt><trkpt lat="43.9037425" lon="11.2152851"><ele>223.28571428571428</ele><time>2026-04-16T07:20:49.963Z</time></trkpt><trkpt lat="43.9037462" lon="11.2153764"><ele>223.57142857142856</ele><time>2026-04-16T07:20:53.963Z</time></trkpt><trkpt lat="43.9038156" lon="11.2154076"><ele>223.8571428571429</ele><time>2026-04-16T07:20:57.037Z</time></trkpt><trkpt lat="43.9038825" lon="11.2154806"><ele>224.14285714285717</ele><time>2026-04-16T07:20:59.951Z</time></trkpt><trkpt lat="43.9039386" lon="11.2155741"><ele>224.42857142857144</ele><time>2026-04-16T07:21:01.964Z</time></trkpt><trkpt lat="43.9039854" lon="11.2156471"><ele>224.71428571428575</ele><time>2026-04-16T07:21:04.971Z</time></trkpt><trkpt lat="43.9040294" lon="11.2157096"><ele>225.00000000000003</ele><time>2026-04-16T07:21:21.953Z</time></trkpt><trkpt lat="43.9041007" lon="11.21574"><ele>225.66666666666666</ele><time>2026-04-16T07:21:24.951Z</time></trkpt><trkpt lat="43.9041742" lon="11.2157697"><ele>226.33333333333331</ele><time>2026-04-16T07:21:26.952Z</time></trkpt><trkpt lat="43.9042554" lon="11.2158212"><ele>227.0</ele><time>2026-04-16T07:21:28.949Z</time></trkpt><trkpt lat="43.9043235" lon="11.2158687"><ele>227.66666666666666</ele><time>2026-04-16T07:21:30.972Z</time></trkpt><trkpt lat="43.9044068" lon="11.2159039"><ele>228.33333333333331</ele><time>2026-04-16T07:21:32.95Z</time></trkpt><trkpt lat="43.9044963" lon="11.2159434"><ele>229.0</ele><time>2026-04-16T07:21:34.957Z</time></trkpt><trkpt lat="43.9045587" lon="11.215981"><ele>226.79999999999998</ele><time>2026-04-16T07:21:36.996Z</time></trkpt><trkpt lat="43.9046244" lon="11.2160342"><ele>224.59999999999997</ele><time>2026-04-16T07:21:38.967Z</time></trkpt><trkpt lat="43.9047013" lon="11.2160937"><ele>222.4</ele><time>2026-04-16T07:21:40.953Z</time></trkpt><trkpt lat="43.9047805" lon="11.2161574"><ele>220.2</ele><time>2026-04-16T07:21:42.956Z</time></trkpt><trkpt lat="43.9048852" lon="11.2162095"><ele>218.0</ele><time>2026-04-16T07:21:44.964Z</time></trkpt><trkpt lat="43.9049751" lon="11.2162724"><ele>218.0</ele><time>2026-04-16T07:21:46.952Z</time></trkpt><trkpt lat="43.9050381" lon="11.2163227"><ele>218.0</ele><time>2026-04-16T07:21:48.954Z</time></trkpt><trkpt lat="43.9050748" lon="11.216401"><ele>218.0</ele><time>2026-04-16T07:21:52.949Z</time></trkpt><trkpt lat="43.9050174" lon="11.2164417"><ele>218.0</ele><time>2026-04-16T07:21:55.952Z</time></trkpt><trkpt lat="43.904953" lon="11.216466"><ele>218.0</ele><time>2026-04-16T07:21:57.972Z</time></trkpt><trkpt lat="43.9048813" lon="11.2165165"><ele>218.0</ele><time>2026-04-16T07:21:59.97Z</time></trkpt><trkpt lat="43.9048031" lon="11.2165778"><ele>218.0</ele><time>2026-04-16T07:22:01.967Z</time></trkpt><trkpt lat="43.9047241" lon="11.2166389"><ele>219.50000000000003</ele><time>2026-04-16T07:22:03.985Z</time></trkpt><trkpt lat="43.9046455" lon="11.2167072"><ele>221.0</ele><time>2026-04-16T07:22:05.953Z</time></trkpt><trkpt lat="43.9045634" lon="11.2167615"><ele>222.5</ele><time>2026-04-16T07:22:07.973Z</time></trkpt><trkpt lat="43.904498" lon="11.2168118"><ele>224.0</ele><time>2026-04-16T07:22:09.971Z</time></trkpt><trkpt lat="43.9044265" lon="11.2168686"><ele>225.50000000000003</ele><time>2026-04-16T07:22:11.963Z</time></trkpt><trkpt lat="43.9043924" lon="11.2169753"><ele>227.0</ele><time>2026-04-16T07:22:13.97Z</time></trkpt><trkpt lat="43.9043741" lon="11.2170957"><ele>227.00000000000003</ele><time>2026-04-16T07:22:15.971Z</time></trkpt><trkpt lat="43.9043611" lon="11.2171938"><ele>227.0</ele><time>2026-04-16T07:22:17.983Z</time></trkpt><trkpt lat="43.9043522" lon="11.2173191"><ele>227.0</ele><time>2026-04-16T07:22:20.976Z</time></trkpt><trkpt lat="43.9042929" lon="11.2173553"><ele>227.0</ele><time>2026-04-16T07:22:22.979Z</time></trkpt><trkpt lat="43.904216" lon="11.2173432"><ele>227.00000000000003</ele><time>2026-04-16T07:22:24.975Z</time></trkpt><trkpt lat="43.9041205" lon="11.2172922"><ele>227.0</ele><time>2026-04-16T07:22:26.972Z</time></trkpt><trkpt lat="43.9040084" lon="11.2172255"><ele>229.00000000000003</ele><time>2026-04-16T07:22:28.973Z</time></trkpt><trkpt lat="43.9039463" lon="11.2171979"><ele>231.0</ele><time>2026-04-16T07:22:29.977Z</time></trkpt><trkpt lat="43.9038444" lon="11.2171264"><ele>233.0</ele><time>2026-04-16T07:22:31.981Z</time></trkpt><trkpt lat="43.9037567" lon="11.2170789"><ele>235.0</ele><time>2026-04-16T07:22:33.984Z</time></trkpt><trkpt lat="43.9036969" lon="11.2170409"><ele>237.00000000000003</ele><time>2026-04-16T07:22:35.977Z</time></trkpt><trkpt lat="43.9036215" lon="11.2169791"><ele>239.0</ele><time>2026-04-16T07:22:38.984Z</time></trkpt><trkpt lat="43.903544" lon="11.2169279"><ele>239.00000000000003</ele><time>2026-04-16T07:22:41.964Z</time></trkpt><trkpt lat="43.9034784" lon="11.2169776"><ele>239.0</ele><time>2026-04-16T07:22:45.981Z</time></trkpt><trkpt lat="43.9034366" lon="11.2170973"><ele>239.0</ele><time>2026-04-16T07:22:48.972Z</time></trkpt><trkpt lat="43.9033882" lon="11.2171933"><ele>239.0</ele><time>2026-04-16T07:22:51.97Z</time></trkpt><trkpt lat="43.9033163" lon="11.2172403"><ele>239.00000000000003</ele><time>2026-04-16T07:22:54.968Z</time></trkpt><trkpt lat="43.9032583" lon="11.2172833"><ele>239.0</ele><time>2026-04-16T07:24:15.975Z</time></trkpt><trkpt lat="43.9033343" lon="11.2172374"><ele>239.00000000000003</ele><time>2026-04-16T07:24:24.979Z</time></trkpt><trkpt lat="43.9033821" lon="11.2171801"><ele>239.0</ele><time>2026-04-16T07:24:26.986Z</time></trkpt><trkpt lat="43.9034321" lon="11.217074"><ele>239.00000000000003</ele><time>2026-04-16T07:24:29.98Z</time></trkpt><trkpt lat="43.9034549" lon="11.2169867"><ele>239.00000000000003</ele><time>2026-04-16T07:24:31.978Z</time></trkpt><trkpt lat="43.9034851" lon="11.2168827"><ele>239.0</ele><time>2026-04-16T07:24:34.98Z</time></trkpt><trkpt lat="43.9035538" lon="11.2168715"><ele>239.00000000000003</ele><time>2026-04-16T07:24:50.98Z</time></trkpt><trkpt lat="43.9036057" lon="11.216929"><ele>239.00000000000003</ele><time>2026-04-16T07:24:52.977Z</time></trkpt><trkpt lat="43.9036862" lon="11.2169832"><ele>239.0</ele><time>2026-04-16T07:24:54.979Z</time></trkpt><trkpt lat="43.9037748" lon="11.2170429"><ele>238.99999999999997</ele><time>2026-04-16T07:24:56.984Z</time></trkpt><trkpt lat="43.9038738" lon="11.2170948"><ele>238.99999999999997</ele><time>2026-04-16T07:24:58.979Z</time></trkpt><trkpt lat="43.9039828" lon="11.2171556"><ele>239.0</ele><time>2026-04-16T07:25:00.977Z</time></trkpt><trkpt lat="43.9040818" lon="11.2172439"><ele>239.0</ele><time>2026-04-16T07:25:02.976Z</time></trkpt><trkpt lat="43.9041789" lon="11.2173171"><ele>238.66666666666669</ele><time>2026-04-16T07:25:04.974Z</time></trkpt><trkpt lat="43.9042541" lon="11.2173679"><ele>238.33333333333334</ele><time>2026-04-16T07:25:06.972Z</time></trkpt><trkpt lat="43.9043144" lon="11.2173246"><ele>238.0</ele><time>2026-04-16T07:25:08.972Z</time></trkpt><trkpt lat="43.9043509" lon="11.2172247"><ele>237.66666666666669</ele><time>2026-04-16T07:25:10.981Z</time></trkpt><trkpt lat="43.9043814" lon="11.2171018"><ele>237.33333333333334</ele><time>2026-04-16T07:25:12.973Z</time></trkpt><trkpt lat="43.9044049" lon="11.2169833"><ele>237.0</ele><time>2026-04-16T07:25:14.968Z</time></trkpt><trkpt lat="43.9044397" lon="11.216874"><ele>235.33333333333334</ele><time>2026-04-16T07:25:16.972Z</time></trkpt><trkpt lat="43.9045093" lon="11.2168109"><ele>233.66666666666669</ele><time>2026-04-16T07:25:18.972Z</time></trkpt><trkpt lat="43.9045744" lon="11.2167623"><ele>232.0</ele><time>2026-04-16T07:25:20.978Z</time></trkpt><trkpt lat="43.9046285" lon="11.2166847"><ele>230.33333333333334</ele><time>2026-04-16T07:25:22.956Z</time></trkpt><trkpt lat="43.904705" lon="11.216613"><ele>228.66666666666669</ele><time>2026-04-16T07:25:24.976Z</time></trkpt><trkpt lat="43.9047822" lon="11.2165563"><ele>227.0</ele><time>2026-04-16T07:25:26.976Z</time></trkpt><trkpt lat="43.904881" lon="11.2165053"><ele>225.2</ele><time>2026-04-16T07:25:28.982Z</time></trkpt><trkpt lat="43.9049877" lon="11.2164607"><ele>223.39999999999998</ele><time>2026-04-16T07:25:30.969Z</time></trkpt><trkpt lat="43.905071" lon="11.2164405"><ele>221.60000000000002</ele><time>2026-04-16T07:25:32.979Z</time></trkpt><trkpt lat="43.9051377" lon="11.2164234"><ele>219.8</ele><time>2026-04-16T07:25:35.949Z</time></trkpt><trkpt lat="43.9052255" lon="11.2164829"><ele>218.0</ele><time>2026-04-16T07:25:51.97Z</time></trkpt><trkpt lat="43.9053299" lon="11.2165353"><ele>216.33333333333334</ele><time>2026-04-16T07:25:54.038Z</time></trkpt><trkpt lat="43.9054311" lon="11.2166056"><ele>214.66666666666669</ele><time>2026-04-16T07:25:55.946Z</time></trkpt><trkpt lat="43.9055154" lon="11.2166831"><ele>213.0</ele><time>2026-04-16T07:25:57.971Z</time></trkpt><trkpt lat="43.9055645" lon="11.2167391"><ele>211.33333333333331</ele><time>2026-04-16T07:25:59.967Z</time></trkpt><trkpt lat="43.9056013" lon="11.2168134"><ele>209.66666666666666</ele><time>2026-04-16T07:26:03.97Z</time></trkpt><trkpt lat="43.9056479" lon="11.2169192"><ele>208.0</ele><time>2026-04-16T07:26:05.973Z</time></trkpt><trkpt lat="43.9056871" lon="11.2169896"><ele>207.99999999999997</ele><time>2026-04-16T07:26:06.971Z</time></trkpt><trkpt lat="43.905728" lon="11.2170618"><ele>208.0</ele><time>2026-04-16T07:26:07.963Z</time></trkpt><trkpt lat="43.9057713" lon="11.2171376"><ele>208.0</ele><time>2026-04-16T07:26:09.025Z</time></trkpt><trkpt lat="43.9058138" lon="11.2172044"><ele>208.0</ele><time>2026-04-16T07:26:09.958Z</time></trkpt><trkpt lat="43.905889" lon="11.2173207"><ele>207.99999999999997</ele><time>2026-04-16T07:26:11.964Z</time></trkpt><trkpt lat="43.9059715" lon="11.2174355"><ele>208.0</ele><time>2026-04-16T07:26:13.961Z</time></trkpt><trkpt lat="43.9060165" lon="11.2175004"><ele>206.57142857142856</ele><time>2026-04-16T07:26:14.951Z</time></trkpt><trkpt lat="43.9060785" lon="11.2175537"><ele>205.14285714285717</ele><time>2026-04-16T07:26:15.957Z</time></trkpt><trkpt lat="43.9061373" lon="11.2176008"><ele>203.71428571428572</ele><time>2026-04-16T07:26:16.961Z</time></trkpt><trkpt lat="43.9061991" lon="11.2176529"><ele>202.28571428571428</ele><time>2026-04-16T07:26:17.966Z</time></trkpt><trkpt lat="43.9062669" lon="11.2177184"><ele>200.85714285714283</ele><time>2026-04-16T07:26:18.968Z</time></trkpt><trkpt lat="43.9063367" lon="11.2177675"><ele>199.42857142857144</ele><time>2026-04-16T07:26:19.975Z</time></trkpt><trkpt lat="43.9063931" lon="11.2178157"><ele>198.0</ele><time>2026-04-16T07:26:20.962Z</time></trkpt><trkpt lat="43.9064431" lon="11.2179352"><ele>198.0</ele><time>2026-04-16T07:26:22.973Z</time></trkpt><trkpt lat="43.9064498" lon="11.2180853"><ele>198.0</ele><time>2026-04-16T07:26:24.954Z</time></trkpt><trkpt lat="43.9064977" lon="11.2182418"><ele>198.0</ele><time>2026-04-16T07:26:26.962Z</time></trkpt><trkpt lat="43.9065285" lon="11.2183197"><ele>198.0</ele><time>2026-04-16T07:26:27.96Z</time></trkpt><trkpt lat="43.90659" lon="11.2184518"><ele>198.0</ele><time>2026-04-16T07:26:29.958Z</time></trkpt><trkpt lat="43.9066475" lon="11.218579"><ele>199.0</ele><time>2026-04-16T07:26:31.961Z</time></trkpt><trkpt lat="43.9067014" lon="11.2186931"><ele>200.0</ele><time>2026-04-16T07:26:33.943Z</time></trkpt><trkpt lat="43.9067532" lon="11.2188201"><ele>201.0</ele><time>2026-04-16T07:26:35.956Z</time></trkpt><trkpt lat="43.9067847" lon="11.2188968"><ele>202.0</ele><time>2026-04-16T07:26:36.95Z</time></trkpt><trkpt lat="43.9067906" lon="11.2190429"><ele>203.0</ele><time>2026-04-16T07:26:38.965Z</time></trkpt><trkpt lat="43.9067584" lon="11.219153"><ele>202.83333333333334</ele><time>2026-04-16T07:26:40.963Z</time></trkpt><trkpt lat="43.9067046" lon="11.2192482"><ele>202.66666666666669</ele><time>2026-04-16T07:26:42.957Z</time></trkpt><trkpt lat="43.9066639" lon="11.219332"><ele>202.5</ele><time>2026-04-16T07:26:44.958Z</time></trkpt><trkpt lat="43.9066747" lon="11.2194384"><ele>202.33333333333331</ele><time>2026-04-16T07:26:47.964Z</time></trkpt><trkpt lat="43.9066858" lon="11.2195488"><ele>202.16666666666666</ele><time>2026-04-16T07:26:50.97Z</time></trkpt><trkpt lat="43.9067352" lon="11.2196118"><ele>202.0</ele><time>2026-04-16T07:27:05.965Z</time></trkpt><trkpt lat="43.9068241" lon="11.2195652"><ele>199.16666666666666</ele><time>2026-04-16T07:27:11.956Z</time></trkpt><trkpt lat="43.9069285" lon="11.2195751"><ele>196.33333333333331</ele><time>2026-04-16T07:27:13.962Z</time></trkpt><trkpt lat="43.9069919" lon="11.2195831"><ele>193.5</ele><time>2026-04-16T07:27:14.96Z</time></trkpt><trkpt lat="43.9071207" lon="11.2195848"><ele>190.66666666666666</ele><time>2026-04-16T07:27:16.955Z</time></trkpt><trkpt lat="43.9072009" lon="11.2195924"><ele>187.83333333333331</ele><time>2026-04-16T07:27:17.962Z</time></trkpt><trkpt lat="43.9072696" lon="11.2196045"><ele>185.0</ele><time>2026-04-16T07:27:18.946Z</time></trkpt><trkpt lat="43.9073382" lon="11.2196113"><ele>185.0</ele><time>2026-04-16T07:27:19.979Z</time></trkpt><trkpt lat="43.9074493" lon="11.2196371"><ele>185.0</ele><time>2026-04-16T07:27:21.954Z</time></trkpt><trkpt lat="43.9075707" lon="11.2196873"><ele>185.0</ele><time>2026-04-16T07:27:24.031Z</time></trkpt><trkpt lat="43.9076305" lon="11.2197251"><ele>185.0</ele><time>2026-04-16T07:27:24.97Z</time></trkpt><trkpt lat="43.9077043" lon="11.2197582"><ele>185.0</ele><time>2026-04-16T07:27:25.985Z</time></trkpt><trkpt lat="43.9077708" lon="11.2197359"><ele>183.4</ele><time>2026-04-16T07:27:26.967Z</time></trkpt><trkpt lat="43.9077907" lon="11.2196476"><ele>181.8</ele><time>2026-04-16T07:27:28.975Z</time></trkpt><trkpt lat="43.9077753" lon="11.2195434"><ele>180.2</ele><time>2026-04-16T07:27:30.975Z</time></trkpt><trkpt lat="43.9077831" lon="11.2194031"><ele>178.6</ele><time>2026-04-16T07:27:32.998Z</time></trkpt><trkpt lat="43.9078526" lon="11.2192496"><ele>177.0</ele><time>2026-04-16T07:27:34.969Z</time></trkpt><trkpt lat="43.9079101" lon="11.2191531"><ele>177.0</ele><time>2026-04-16T07:27:35.972Z</time></trkpt><trkpt lat="43.9079862" lon="11.2190595"><ele>177.0</ele><time>2026-04-16T07:27:36.968Z</time></trkpt><trkpt lat="43.9080553" lon="11.2189797"><ele>177.0</ele><time>2026-04-16T07:27:37.983Z</time></trkpt><trkpt lat="43.908137" lon="11.2189007"><ele>177.0</ele><time>2026-04-16T07:27:38.97Z</time></trkpt><trkpt lat="43.9082232" lon="11.2188165"><ele>177.0</ele><time>2026-04-16T07:27:40.031Z</time></trkpt><trkpt lat="43.9083025" lon="11.2187486"><ele>177.0</ele><time>2026-04-16T07:27:40.975Z</time></trkpt><trkpt lat="43.9083745" lon="11.2186819"><ele>177.0</ele><time>2026-04-16T07:27:41.981Z</time></trkpt><trkpt lat="43.9084402" lon="11.2186092"><ele>177.0</ele><time>2026-04-16T07:27:42.973Z</time></trkpt><trkpt lat="43.9085059" lon="11.2185512"><ele>177.0</ele><time>2026-04-16T07:27:43.975Z</time></trkpt><trkpt lat="43.9085682" lon="11.218488"><ele>177.0</ele><time>2026-04-16T07:27:44.971Z</time></trkpt><trkpt lat="43.9086378" lon="11.218429"><ele>177.0</ele><time>2026-04-16T07:27:45.968Z</time></trkpt><trkpt lat="43.9087071" lon="11.2183657"><ele>177.0</ele><time>2026-04-16T07:27:46.975Z</time></trkpt><trkpt lat="43.9087826" lon="11.2182939"><ele>177.0</ele><time>2026-04-16T07:27:47.982Z</time></trkpt><trkpt lat="43.9088661" lon="11.2182208"><ele>177.0</ele><time>2026-04-16T07:27:48.979Z</time></trkpt><trkpt lat="43.90895" lon="11.2181416"><ele>177.0</ele><time>2026-04-16T07:27:50.04Z</time></trkpt><trkpt lat="43.9090274" lon="11.2180521"><ele>177.0</ele><time>2026-04-16T07:27:50.969Z</time></trkpt><trkpt lat="43.9091138" lon="11.2179624"><ele>176.83333333333334</ele><time>2026-04-16T07:27:51.974Z</time></trkpt><trkpt lat="43.9091927" lon="11.2178798"><ele>176.66666666666666</ele><time>2026-04-16T07:27:52.963Z</time></trkpt><trkpt lat="43.9092716" lon="11.2177955"><ele>176.5</ele><time>2026-04-16T07:27:54.035Z</time></trkpt><trkpt lat="43.9093498" lon="11.2177219"><ele>176.33333333333331</ele><time>2026-04-16T07:27:55.035Z</time></trkpt><trkpt lat="43.909405" lon="11.2176589"><ele>176.16666666666666</ele><time>2026-04-16T07:27:55.959Z</time></trkpt><trkpt lat="43.9094031" lon="11.2175431"><ele>176.0</ele><time>2026-04-16T07:27:58.971Z</time></trkpt><trkpt lat="43.9093616" lon="11.2174408"><ele>176.33333333333331</ele><time>2026-04-16T07:28:00.965Z</time></trkpt><trkpt lat="43.9093103" lon="11.2173787"><ele>176.66666666666666</ele><time>2026-04-16T07:28:01.973Z</time></trkpt><trkpt lat="43.9092546" lon="11.2173149"><ele>177.0</ele><time>2026-04-16T07:28:02.969Z</time></trkpt><trkpt lat="43.9091827" lon="11.2172482"><ele>177.33333333333334</ele><time>2026-04-16T07:28:03.967Z</time></trkpt><trkpt lat="43.9091142" lon="11.2171776"><ele>177.66666666666669</ele><time>2026-04-16T07:28:04.973Z</time></trkpt><trkpt lat="43.9090337" lon="11.2170869"><ele>178.0</ele><time>2026-04-16T07:28:05.976Z</time></trkpt><trkpt lat="43.9089476" lon="11.2169925"><ele>178.0</ele><time>2026-04-16T07:28:07.027Z</time></trkpt><trkpt lat="43.9088604" lon="11.216903"><ele>178.0</ele><time>2026-04-16T07:28:07.961Z</time></trkpt><trkpt lat="43.9087701" lon="11.2168075"><ele>178.0</ele><time>2026-04-16T07:28:08.97Z</time></trkpt><trkpt lat="43.9086783" lon="11.2166965"><ele>178.0</ele><time>2026-04-16T07:28:09.955Z</time></trkpt><trkpt lat="43.9085866" lon="11.2165824"><ele>178.25</ele><time>2026-04-16T07:28:10.952Z</time></trkpt><trkpt lat="43.9084911" lon="11.2164666"><ele>178.5</ele><time>2026-04-16T07:28:11.951Z</time></trkpt><trkpt lat="43.9083886" lon="11.2163579"><ele>178.75</ele><time>2026-04-16T07:28:12.959Z</time></trkpt><trkpt lat="43.9082837" lon="11.2162498"><ele>179.0</ele><time>2026-04-16T07:28:13.951Z</time></trkpt><trkpt lat="43.9081797" lon="11.2161478"><ele>179.0</ele><time>2026-04-16T07:28:14.958Z</time></trkpt><trkpt lat="43.9080798" lon="11.216052"><ele>179.0</ele><time>2026-04-16T07:28:15.964Z</time></trkpt><trkpt lat="43.907982" lon="11.2159551"><ele>179.0</ele><time>2026-04-16T07:28:16.961Z</time></trkpt><trkpt lat="43.9078924" lon="11.2158757"><ele>179.0</ele><time>2026-04-16T07:28:17.968Z</time></trkpt><trkpt lat="43.9078111" lon="11.2158054"><ele>179.0</ele><time>2026-04-16T07:28:18.963Z</time></trkpt><trkpt lat="43.9077263" lon="11.2157322"><ele>179.0</ele><time>2026-04-16T07:28:19.95Z</time></trkpt><trkpt lat="43.9076335" lon="11.2156551"><ele>179.0</ele><time>2026-04-16T07:28:20.957Z</time></trkpt><trkpt lat="43.9075355" lon="11.2155691"><ele>179.0</ele><time>2026-04-16T07:28:21.959Z</time></trkpt><trkpt lat="43.9074387" lon="11.2154826"><ele>179.0</ele><time>2026-04-16T07:28:22.964Z</time></trkpt><trkpt lat="43.9073329" lon="11.2153817"><ele>178.5</ele><time>2026-04-16T07:28:23.974Z</time></trkpt><trkpt lat="43.9072314" lon="11.2152379"><ele>178.0</ele><time>2026-04-16T07:28:24.958Z</time></trkpt><trkpt lat="43.9071308" lon="11.2150817"><ele>177.5</ele><time>2026-04-16T07:28:25.972Z</time></trkpt><trkpt lat="43.9070513" lon="11.2149113"><ele>177.0</ele><time>2026-04-16T07:28:26.963Z</time></trkpt><trkpt lat="43.906987" lon="11.2147361"><ele>180.0</ele><time>2026-04-16T07:28:27.966Z</time></trkpt><trkpt lat="43.9069251" lon="11.2145351"><ele>183.0</ele><time>2026-04-16T07:28:28.965Z</time></trkpt><trkpt lat="43.906861" lon="11.2143287"><ele>186.0</ele><time>2026-04-16T07:28:29.96Z</time></trkpt><trkpt lat="43.9067948" lon="11.2141182"><ele>181.33333333333334</ele><time>2026-04-16T07:28:30.967Z</time></trkpt><trkpt lat="43.906727" lon="11.2138995"><ele>176.66666666666669</ele><time>2026-04-16T07:28:31.955Z</time></trkpt><trkpt lat="43.9066552" lon="11.2136887"><ele>172.0</ele><time>2026-04-16T07:28:32.96Z</time></trkpt><trkpt lat="43.9065741" lon="11.213476"><ele>172.0</ele><time>2026-04-16T07:28:33.96Z</time></trkpt><trkpt lat="43.9064875" lon="11.213267"><ele>172.0</ele><time>2026-04-16T07:28:34.962Z</time></trkpt><trkpt lat="43.9064099" lon="11.2130707"><ele>172.0</ele><time>2026-04-16T07:28:35.96Z</time></trkpt><trkpt lat="43.9063208" lon="11.212898"><ele>173.25</ele><time>2026-04-16T07:28:36.961Z</time></trkpt><trkpt lat="43.9062255" lon="11.2127476"><ele>174.5</ele><time>2026-04-16T07:28:37.963Z</time></trkpt><trkpt lat="43.9061112" lon="11.2126393"><ele>175.75</ele><time>2026-04-16T07:28:38.959Z</time></trkpt><trkpt lat="43.9059616" lon="11.2125606"><ele>177.0</ele><time>2026-04-16T07:28:39.967Z</time></trkpt><trkpt lat="43.9058027" lon="11.212494"><ele>174.5</ele><time>2026-04-16T07:28:40.965Z</time></trkpt><trkpt lat="43.9056453" lon="11.2124308"><ele>172.0</ele><time>2026-04-16T07:28:41.995Z</time></trkpt><trkpt lat="43.9055084" lon="11.2123596"><ele>169.5</ele><time>2026-04-16T07:28:42.954Z</time></trkpt><trkpt lat="43.9053916" lon="11.2123107"><ele>167.0</ele><time>2026-04-16T07:28:44.029Z</time></trkpt><trkpt lat="43.9052932" lon="11.2122238"><ele>167.0</ele><time>2026-04-16T07:28:45.036Z</time></trkpt><trkpt lat="43.9052136" lon="11.212085"><ele>167.0</ele><time>2026-04-16T07:28:45.965Z</time></trkpt><trkpt lat="43.9051749" lon="11.2119069"><ele>167.0</ele><time>2026-04-16T07:28:46.96Z</time></trkpt><trkpt lat="43.9051519" lon="11.2117108"><ele>167.0</ele><time>2026-04-16T07:28:47.981Z</time></trkpt><trkpt lat="43.9051445" lon="11.2115074"><ele>169.33333333333331</ele><time>2026-04-16T07:28:49.028Z</time></trkpt><trkpt lat="43.9051464" lon="11.2112819"><ele>171.66666666666666</ele><time>2026-04-16T07:28:49.952Z</time></trkpt><trkpt lat="43.9051468" lon="11.2110495"><ele>174.0</ele><time>2026-04-16T07:28:50.964Z</time></trkpt><trkpt lat="43.905152" lon="11.2108106"><ele>181.0</ele><time>2026-04-16T07:28:51.963Z</time></trkpt><trkpt lat="43.9051559" lon="11.2105727"><ele>188.0</ele><time>2026-04-16T07:28:52.959Z</time></trkpt><trkpt lat="43.9051562" lon="11.2103507"><ele>195.0</ele><time>2026-04-16T07:28:53.956Z</time></trkpt><trkpt lat="43.9051481" lon="11.2101766"><ele>195.0</ele><time>2026-04-16T07:28:54.955Z</time></trkpt><trkpt lat="43.9051196" lon="11.2100374"><ele>195.0</ele><time>2026-04-16T07:28:55.958Z</time></trkpt><trkpt lat="43.9050572" lon="11.2099233"><ele>195.0</ele><time>2026-04-16T07:28:57.074Z</time></trkpt><trkpt lat="43.9048725" lon="11.2097447"><ele>195.0</ele><time>2026-04-16T07:28:58.964Z</time></trkpt><trkpt lat="43.9047752" lon="11.2096683"><ele>196.5</ele><time>2026-04-16T07:28:59.965Z</time></trkpt><trkpt lat="43.9046588" lon="11.2096081"><ele>198.0</ele><time>2026-04-16T07:29:00.968Z</time></trkpt><trkpt lat="43.9045201" lon="11.2095531"><ele>199.5</ele><time>2026-04-16T07:29:01.965Z</time></trkpt><trkpt lat="43.9043586" lon="11.2095085"><ele>201.0</ele><time>2026-04-16T07:29:02.956Z</time></trkpt><trkpt lat="43.9041926" lon="11.2094573"><ele>192.0</ele><time>2026-04-16T07:29:03.968Z</time></trkpt><trkpt lat="43.9040266" lon="11.209393"><ele>183.0</ele><time>2026-04-16T07:29:04.965Z</time></trkpt><trkpt lat="43.9038432" lon="11.2093402"><ele>174.0</ele><time>2026-04-16T07:29:05.964Z</time></trkpt><trkpt lat="43.9036605" lon="11.2093047"><ele>174.0</ele><time>2026-04-16T07:29:06.97Z</time></trkpt><trkpt lat="43.9034944" lon="11.2092531"><ele>174.0</ele><time>2026-04-16T07:29:07.971Z</time></trkpt><trkpt lat="43.903354" lon="11.2092008"><ele>174.0</ele><time>2026-04-16T07:29:08.958Z</time></trkpt><trkpt lat="43.9032478" lon="11.2091218"><ele>174.0</ele><time>2026-04-16T07:29:09.968Z</time></trkpt><trkpt lat="43.9031731" lon="11.2089909"><ele>172.0</ele><time>2026-04-16T07:29:10.96Z</time></trkpt><trkpt lat="43.9031264" lon="11.2088231"><ele>170.0</ele><time>2026-04-16T07:29:11.964Z</time></trkpt><trkpt lat="43.9030911" lon="11.2086455"><ele>168.0</ele><time>2026-04-16T07:29:12.966Z</time></trkpt><trkpt lat="43.9030621" lon="11.2084452"><ele>166.0</ele><time>2026-04-16T07:29:13.962Z</time></trkpt><trkpt lat="43.9030106" lon="11.2082429"><ele>173.66666666666669</ele><time>2026-04-16T07:29:14.956Z</time></trkpt><trkpt lat="43.9029442" lon="11.2080432"><ele>181.33333333333334</ele><time>2026-04-16T07:29:15.969Z</time></trkpt><trkpt lat="43.9028664" lon="11.2078454"><ele>189.0</ele><time>2026-04-16T07:29:16.967Z</time></trkpt><trkpt lat="43.9027728" lon="11.2076489"><ele>189.0</ele><time>2026-04-16T07:29:17.965Z</time></trkpt><trkpt lat="43.9026517" lon="11.2074634"><ele>189.0</ele><time>2026-04-16T07:29:18.954Z</time></trkpt><trkpt lat="43.9025201" lon="11.2072982"><ele>189.0</ele><time>2026-04-16T07:29:19.966Z</time></trkpt><trkpt lat="43.9023845" lon="11.2071568"><ele>184.66666666666666</ele><time>2026-04-16T07:29:20.959Z</time></trkpt><trkpt lat="43.9022621" lon="11.2070395"><ele>180.33333333333331</ele><time>2026-04-16T07:29:21.958Z</time></trkpt><trkpt lat="43.9021472" lon="11.2068937"><ele>176.0</ele><time>2026-04-16T07:29:22.953Z</time></trkpt><trkpt lat="43.9020544" lon="11.2067191"><ele>176.0</ele><time>2026-04-16T07:29:23.958Z</time></trkpt><trkpt lat="43.9019673" lon="11.2065404"><ele>176.0</ele><time>2026-04-16T07:29:24.962Z</time></trkpt><trkpt lat="43.9018793" lon="11.2063457"><ele>176.0</ele><time>2026-04-16T07:29:25.957Z</time></trkpt><trkpt lat="43.9017791" lon="11.2061441"><ele>174.66666666666666</ele><time>2026-04-16T07:29:26.965Z</time></trkpt><trkpt lat="43.9016694" lon="11.2059337"><ele>173.33333333333334</ele><time>2026-04-16T07:29:27.971Z</time></trkpt><trkpt lat="43.9015689" lon="11.2057101"><ele>172.0</ele><time>2026-04-16T07:29:29.041Z</time></trkpt><trkpt lat="43.9014707" lon="11.2054814"><ele>172.0</ele><time>2026-04-16T07:29:29.973Z</time></trkpt><trkpt lat="43.9013726" lon="11.2052367"><ele>172.0</ele><time>2026-04-16T07:29:30.953Z</time></trkpt><trkpt lat="43.9012913" lon="11.2049971"><ele>172.0</ele><time>2026-04-16T07:29:31.957Z</time></trkpt><trkpt lat="43.9012107" lon="11.2047724"><ele>176.0</ele><time>2026-04-16T07:29:32.957Z</time></trkpt><trkpt lat="43.9011264" lon="11.2045463"><ele>180.0</ele><time>2026-04-16T07:29:33.963Z</time></trkpt><trkpt lat="43.9010328" lon="11.2043143"><ele>184.0</ele><time>2026-04-16T07:29:34.962Z</time></trkpt><trkpt lat="43.9009431" lon="11.2040846"><ele>177.0</ele><time>2026-04-16T07:29:35.956Z</time></trkpt><trkpt lat="43.9008852" lon="11.2038694"><ele>170.0</ele><time>2026-04-16T07:29:36.965Z</time></trkpt><trkpt lat="43.9008264" lon="11.2036752"><ele>163.0</ele><time>2026-04-16T07:29:37.97Z</time></trkpt><trkpt lat="43.900755" lon="11.2034924"><ele>163.0</ele><time>2026-04-16T07:29:38.953Z</time></trkpt><trkpt lat="43.9006587" lon="11.2033081"><ele>163.0</ele><time>2026-04-16T07:29:39.952Z</time></trkpt><trkpt lat="43.9005352" lon="11.2031446"><ele>163.0</ele><time>2026-04-16T07:29:40.96Z</time></trkpt><trkpt lat="43.9003876" lon="11.2030154"><ele>166.33333333333334</ele><time>2026-04-16T07:29:41.956Z</time></trkpt><trkpt lat="43.9002249" lon="11.2029206"><ele>169.66666666666666</ele><time>2026-04-16T07:29:42.966Z</time></trkpt><trkpt lat="43.9000584" lon="11.2028507"><ele>173.0</ele><time>2026-04-16T07:29:43.949Z</time></trkpt><trkpt lat="43.8998832" lon="11.2028202"><ele>173.0</ele><time>2026-04-16T07:29:45.037Z</time></trkpt><trkpt lat="43.8996965" lon="11.2028076"><ele>173.0</ele><time>2026-04-16T07:29:45.986Z</time></trkpt><trkpt lat="43.8994982" lon="11.202794"><ele>173.0</ele><time>2026-04-16T07:29:47.038Z</time></trkpt><trkpt lat="43.8993005" lon="11.2027622"><ele>167.66666666666666</ele><time>2026-04-16T07:29:47.958Z</time></trkpt><trkpt lat="43.8991011" lon="11.2027342"><ele>162.33333333333334</ele><time>2026-04-16T07:29:48.955Z</time></trkpt><trkpt lat="43.8989005" lon="11.2027242"><ele>157.0</ele><time>2026-04-16T07:29:49.957Z</time></trkpt><trkpt lat="43.8987065" lon="11.2027234"><ele>157.0</ele><time>2026-04-16T07:29:50.958Z</time></trkpt><trkpt lat="43.8985356" lon="11.2027262"><ele>157.0</ele><time>2026-04-16T07:29:51.957Z</time></trkpt><trkpt lat="43.8983782" lon="11.2027211"><ele>157.0</ele><time>2026-04-16T07:29:53.026Z</time></trkpt><trkpt lat="43.8982376" lon="11.2027183"><ele>155.5</ele><time>2026-04-16T07:29:53.962Z</time></trkpt><trkpt lat="43.898108" lon="11.2026645"><ele>154.0</ele><time>2026-04-16T07:29:55.028Z</time></trkpt><trkpt lat="43.8980037" lon="11.2026018"><ele>152.5</ele><time>2026-04-16T07:29:55.954Z</time></trkpt><trkpt lat="43.897915" lon="11.2025306"><ele>151.0</ele><time>2026-04-16T07:29:56.957Z</time></trkpt><trkpt lat="43.8978106" lon="11.2024677"><ele>151.0</ele><time>2026-04-16T07:29:57.965Z</time></trkpt><trkpt lat="43.8977261" lon="11.2023982"><ele>151.0</ele><time>2026-04-16T07:29:59.009Z</time></trkpt><trkpt lat="43.897631" lon="11.2023464"><ele>151.0</ele><time>2026-04-16T07:29:59.957Z</time></trkpt><trkpt lat="43.8975269" lon="11.2023076"><ele>151.0</ele><time>2026-04-16T07:30:00.949Z</time></trkpt><trkpt lat="43.8974342" lon="11.2022625"><ele>151.0</ele><time>2026-04-16T07:30:02.033Z</time></trkpt><trkpt lat="43.8973505" lon="11.202225"><ele>154.0</ele><time>2026-04-16T07:30:03.034Z</time></trkpt><trkpt lat="43.8972727" lon="11.2021692"><ele>157.0</ele><time>2026-04-16T07:30:04.039Z</time></trkpt><trkpt lat="43.8972021" lon="11.2021016"><ele>160.0</ele><time>2026-04-16T07:30:04.96Z</time></trkpt><trkpt lat="43.8971347" lon="11.2020375"><ele>163.0</ele><time>2026-04-16T07:30:05.95Z</time></trkpt><trkpt lat="43.897072" lon="11.2019889"><ele>166.0</ele><time>2026-04-16T07:30:07.031Z</time></trkpt><trkpt lat="43.8970129" lon="11.2019219"><ele>169.0</ele><time>2026-04-16T07:30:07.974Z</time></trkpt><trkpt lat="43.8969481" lon="11.2018658"><ele>169.0</ele><time>2026-04-16T07:30:08.957Z</time></trkpt><trkpt lat="43.896884" lon="11.2018236"><ele>169.0</ele><time>2026-04-16T07:30:10.03Z</time></trkpt><trkpt lat="43.8968196" lon="11.2017854"><ele>169.0</ele><time>2026-04-16T07:30:10.965Z</time></trkpt><trkpt lat="43.8967484" lon="11.2017607"><ele>169.0</ele><time>2026-04-16T07:30:11.98Z</time></trkpt><trkpt lat="43.8966874" lon="11.201734"><ele>169.0</ele><time>2026-04-16T07:30:12.982Z</time></trkpt><trkpt lat="43.8965717" lon="11.2016791"><ele>169.0</ele><time>2026-04-16T07:30:14.971Z</time></trkpt><trkpt lat="43.8964458" lon="11.201598"><ele>173.0</ele><time>2026-04-16T07:30:16.975Z</time></trkpt><trkpt lat="43.8963578" lon="11.2015386"><ele>177.0</ele><time>2026-04-16T07:30:18.07Z</time></trkpt><trkpt lat="43.8962553" lon="11.2014795"><ele>181.0</ele><time>2026-04-16T07:30:19.033Z</time></trkpt><trkpt lat="43.8961432" lon="11.2013981"><ele>185.0</ele><time>2026-04-16T07:30:19.961Z</time></trkpt><trkpt lat="43.8960061" lon="11.2013231"><ele>178.25</ele><time>2026-04-16T07:30:20.952Z</time></trkpt><trkpt lat="43.8958668" lon="11.2012871"><ele>171.5</ele><time>2026-04-16T07:30:21.959Z</time></trkpt><trkpt lat="43.8957418" lon="11.2012607"><ele>164.75</ele><time>2026-04-16T07:30:22.96Z</time></trkpt><trkpt lat="43.8956173" lon="11.2012427"><ele>158.0</ele><time>2026-04-16T07:30:23.964Z</time></trkpt><trkpt lat="43.8955139" lon="11.2011798"><ele>158.0</ele><time>2026-04-16T07:30:24.96Z</time></trkpt><trkpt lat="43.8954235" lon="11.2010829"><ele>158.0</ele><time>2026-04-16T07:30:25.955Z</time></trkpt><trkpt lat="43.8953494" lon="11.2009553"><ele>158.0</ele><time>2026-04-16T07:30:26.952Z</time></trkpt><trkpt lat="43.8952688" lon="11.2008287"><ele>158.0</ele><time>2026-04-16T07:30:27.959Z</time></trkpt><trkpt lat="43.8951725" lon="11.2006997"><ele>162.66666666666666</ele><time>2026-04-16T07:30:28.961Z</time></trkpt><trkpt lat="43.8950527" lon="11.2005792"><ele>167.33333333333334</ele><time>2026-04-16T07:30:29.958Z</time></trkpt><trkpt lat="43.8949101" lon="11.2004885"><ele>172.0</ele><time>2026-04-16T07:30:30.957Z</time></trkpt><trkpt lat="43.8947633" lon="11.2003975"><ele>172.0</ele><time>2026-04-16T07:30:31.961Z</time></trkpt><trkpt lat="43.8946048" lon="11.200333"><ele>172.0</ele><time>2026-04-16T07:30:32.952Z</time></trkpt><trkpt lat="43.8944426" lon="11.2002982"><ele>172.0</ele><time>2026-04-16T07:30:34.006Z</time></trkpt><trkpt lat="43.8942906" lon="11.2002697"><ele>166.0</ele><time>2026-04-16T07:30:35.013Z</time></trkpt><trkpt lat="43.8941422" lon="11.200244"><ele>160.0</ele><time>2026-04-16T07:30:35.948Z</time></trkpt><trkpt lat="43.8940052" lon="11.2002065"><ele>154.0</ele><time>2026-04-16T07:30:36.963Z</time></trkpt><trkpt lat="43.8938814" lon="11.2001811"><ele>148.0</ele><time>2026-04-16T07:30:37.963Z</time></trkpt><trkpt lat="43.8937635" lon="11.2001647"><ele>148.0</ele><time>2026-04-16T07:30:38.945Z</time></trkpt><trkpt lat="43.8936661" lon="11.2001758"><ele>148.0</ele><time>2026-04-16T07:30:39.946Z</time></trkpt><trkpt lat="43.893579" lon="11.2001913"><ele>148.0</ele><time>2026-04-16T07:30:40.951Z</time></trkpt><trkpt lat="43.8934953" lon="11.2001996"><ele>148.0</ele><time>2026-04-16T07:30:41.962Z</time></trkpt><trkpt lat="43.8933986" lon="11.2001826"><ele>148.0</ele><time>2026-04-16T07:30:42.957Z</time></trkpt><trkpt lat="43.8932835" lon="11.2001417"><ele>145.5</ele><time>2026-04-16T07:30:44.028Z</time></trkpt><trkpt lat="43.8931674" lon="11.200094"><ele>143.0</ele><time>2026-04-16T07:30:45.03Z</time></trkpt><trkpt lat="43.8930398" lon="11.2000283"><ele>140.5</ele><time>2026-04-16T07:30:45.96Z</time></trkpt><trkpt lat="43.8929083" lon="11.1999332"><ele>138.0</ele><time>2026-04-16T07:30:46.966Z</time></trkpt><trkpt lat="43.8927724" lon="11.1998235"><ele>138.0</ele><time>2026-04-16T07:30:47.957Z</time></trkpt><trkpt lat="43.8926362" lon="11.1997071"><ele>138.0</ele><time>2026-04-16T07:30:48.961Z</time></trkpt><trkpt lat="43.8925063" lon="11.199572"><ele>138.0</ele><time>2026-04-16T07:30:50.038Z</time></trkpt><trkpt lat="43.8923662" lon="11.199443"><ele>133.33333333333334</ele><time>2026-04-16T07:30:50.956Z</time></trkpt><trkpt lat="43.8922295" lon="11.1993025"><ele>128.66666666666669</ele><time>2026-04-16T07:30:51.966Z</time></trkpt><trkpt lat="43.8920903" lon="11.1991604"><ele>124.0</ele><time>2026-04-16T07:30:52.968Z</time></trkpt><trkpt lat="43.891957" lon="11.1990202"><ele>124.33333333333334</ele><time>2026-04-16T07:30:54.029Z</time></trkpt><trkpt lat="43.8918455" lon="11.198838"><ele>124.66666666666666</ele><time>2026-04-16T07:30:54.96Z</time></trkpt><trkpt lat="43.8917415" lon="11.1986425"><ele>125.0</ele><time>2026-04-16T07:30:55.967Z</time></trkpt><trkpt lat="43.8916358" lon="11.1984436"><ele>125.0</ele><time>2026-04-16T07:30:56.965Z</time></trkpt><trkpt lat="43.8915394" lon="11.1982553"><ele>125.0</ele><time>2026-04-16T07:30:57.959Z</time></trkpt><trkpt lat="43.8914332" lon="11.1980879"><ele>125.0</ele><time>2026-04-16T07:30:58.959Z</time></trkpt><trkpt lat="43.8913241" lon="11.1979255"><ele>126.33333333333333</ele><time>2026-04-16T07:30:59.961Z</time></trkpt><trkpt lat="43.8911981" lon="11.1978221"><ele>127.66666666666666</ele><time>2026-04-16T07:31:00.962Z</time></trkpt><trkpt lat="43.8910299" lon="11.1977545"><ele>129.0</ele><time>2026-04-16T07:31:01.963Z</time></trkpt><trkpt lat="43.8908672" lon="11.1977048"><ele>129.0</ele><time>2026-04-16T07:31:02.966Z</time></trkpt><trkpt lat="43.8907235" lon="11.197649"><ele>129.0</ele><time>2026-04-16T07:31:03.958Z</time></trkpt><trkpt lat="43.8905919" lon="11.1975754"><ele>129.0</ele><time>2026-04-16T07:31:04.938Z</time></trkpt><trkpt lat="43.8904955" lon="11.1974921"><ele>129.0</ele><time>2026-04-16T07:31:05.945Z</time></trkpt><trkpt lat="43.8904078" lon="11.1973643"><ele>134.66666666666666</ele><time>2026-04-16T07:31:06.961Z</time></trkpt><trkpt lat="43.8903285" lon="11.1971808"><ele>140.33333333333331</ele><time>2026-04-16T07:31:07.961Z</time></trkpt><trkpt lat="43.890274" lon="11.1969668"><ele>146.0</ele><time>2026-04-16T07:31:08.956Z</time></trkpt><trkpt lat="43.8902428" lon="11.1967115"><ele>152.0</ele><time>2026-04-16T07:31:09.947Z</time></trkpt><trkpt lat="43.890203" lon="11.1964664"><ele>158.0</ele><time>2026-04-16T07:31:10.963Z</time></trkpt><trkpt lat="43.8901673" lon="11.1962273"><ele>164.0</ele><time>2026-04-16T07:31:11.964Z</time></trkpt><trkpt lat="43.8901038" lon="11.1960129"><ele>154.33333333333331</ele><time>2026-04-16T07:31:12.952Z</time></trkpt><trkpt lat="43.8900104" lon="11.1958098"><ele>144.66666666666666</ele><time>2026-04-16T07:31:13.966Z</time></trkpt><trkpt lat="43.8898972" lon="11.1956143"><ele>135.0</ele><time>2026-04-16T07:31:14.955Z</time></trkpt><trkpt lat="43.8897835" lon="11.1954399"><ele>135.0</ele><time>2026-04-16T07:31:15.947Z</time></trkpt><trkpt lat="43.8896612" lon="11.1952699"><ele>135.0</ele><time>2026-04-16T07:31:17.037Z</time></trkpt><trkpt lat="43.889542" lon="11.1950917"><ele>135.0</ele><time>2026-04-16T07:31:18.032Z</time></trkpt><trkpt lat="43.8894225" lon="11.1949077"><ele>131.33333333333334</ele><time>2026-04-16T07:31:18.952Z</time></trkpt><trkpt lat="43.8893144" lon="11.1947287"><ele>127.66666666666667</ele><time>2026-04-16T07:31:19.948Z</time></trkpt><trkpt lat="43.8892071" lon="11.1945405"><ele>124.0</ele><time>2026-04-16T07:31:20.959Z</time></trkpt><trkpt lat="43.8891208" lon="11.1943627"><ele>124.0</ele><time>2026-04-16T07:31:21.958Z</time></trkpt><trkpt lat="43.8890502" lon="11.19418"><ele>124.0</ele><time>2026-04-16T07:31:22.955Z</time></trkpt><trkpt lat="43.8889721" lon="11.1939847"><ele>124.0</ele><time>2026-04-16T07:31:24.027Z</time></trkpt><trkpt lat="43.8888935" lon="11.1937877"><ele>128.66666666666669</ele><time>2026-04-16T07:31:24.976Z</time></trkpt><trkpt lat="43.888802" lon="11.1935835"><ele>133.33333333333334</ele><time>2026-04-16T07:31:25.974Z</time></trkpt><trkpt lat="43.8887074" lon="11.1933917"><ele>138.0</ele><time>2026-04-16T07:31:27.029Z</time></trkpt><trkpt lat="43.8886133" lon="11.1932259"><ele>137.66666666666666</ele><time>2026-04-16T07:31:28.026Z</time></trkpt><trkpt lat="43.888509" lon="11.1930742"><ele>137.33333333333331</ele><time>2026-04-16T07:31:29.026Z</time></trkpt><trkpt lat="43.8884018" lon="11.1929081"><ele>137.0</ele><time>2026-04-16T07:31:29.973Z</time></trkpt><trkpt lat="43.888295" lon="11.1927228"><ele>131.5</ele><time>2026-04-16T07:31:30.967Z</time></trkpt><trkpt lat="43.8882051" lon="11.1925576"><ele>126.0</ele><time>2026-04-16T07:31:31.966Z</time></trkpt><trkpt lat="43.8881296" lon="11.1923915"><ele>120.5</ele><time>2026-04-16T07:31:32.973Z</time></trkpt><trkpt lat="43.8880674" lon="11.1922475"><ele>115.0</ele><time>2026-04-16T07:31:33.972Z</time></trkpt><trkpt lat="43.8880073" lon="11.1921112"><ele>114.8</ele><time>2026-04-16T07:31:35.03Z</time></trkpt><trkpt lat="43.8879341" lon="11.1919917"><ele>114.6</ele><time>2026-04-16T07:31:35.982Z</time></trkpt><trkpt lat="43.8878737" lon="11.1918744"><ele>114.4</ele><time>2026-04-16T07:31:36.955Z</time></trkpt><trkpt lat="43.8878147" lon="11.1917655"><ele>114.2</ele><time>2026-04-16T07:31:37.968Z</time></trkpt><trkpt lat="43.8877474" lon="11.1916986"><ele>114.0</ele><time>2026-04-16T07:31:38.976Z</time></trkpt><trkpt lat="43.8876737" lon="11.1916552"><ele>114.0</ele><time>2026-04-16T07:31:39.955Z</time></trkpt><trkpt lat="43.8876074" lon="11.1916947"><ele>114.0</ele><time>2026-04-16T07:31:40.975Z</time></trkpt><trkpt lat="43.8875212" lon="11.191786"><ele>114.0</ele><time>2026-04-16T07:31:43.037Z</time></trkpt><trkpt lat="43.8875226" lon="11.1919573"><ele>114.0</ele><time>2026-04-16T07:31:45.035Z</time></trkpt><trkpt lat="43.887518" lon="11.1920447"><ele>114.0</ele><time>2026-04-16T07:31:45.974Z</time></trkpt><trkpt lat="43.8874845" lon="11.1921225"><ele>114.0</ele><time>2026-04-16T07:31:46.977Z</time></trkpt><trkpt lat="43.8874462" lon="11.1922261"><ele>113.33333333333333</ele><time>2026-04-16T07:31:47.987Z</time></trkpt><trkpt lat="43.8873939" lon="11.1923317"><ele>112.66666666666666</ele><time>2026-04-16T07:31:48.99Z</time></trkpt><trkpt lat="43.8873323" lon="11.1924157"><ele>112.0</ele><time>2026-04-16T07:31:50.002Z</time></trkpt><trkpt lat="43.8872806" lon="11.1924858"><ele>111.33333333333333</ele><time>2026-04-16T07:31:50.973Z</time></trkpt><trkpt lat="43.8872439" lon="11.1925651"><ele>110.66666666666666</ele><time>2026-04-16T07:31:51.977Z</time></trkpt><trkpt lat="43.8872074" lon="11.1927127"><ele>110.0</ele><time>2026-04-16T07:31:53.966Z</time></trkpt><trkpt lat="43.8872164" lon="11.1928499"><ele>109.99999999999999</ele><time>2026-04-16T07:31:55.967Z</time></trkpt><trkpt lat="43.887277" lon="11.1929875"><ele>110.0</ele><time>2026-04-16T07:31:57.97Z</time></trkpt><trkpt lat="43.8873091" lon="11.1930743"><ele>110.0</ele><time>2026-04-16T07:31:58.968Z</time></trkpt><trkpt lat="43.887348" lon="11.193166"><ele>110.0</ele><time>2026-04-16T07:31:59.979Z</time></trkpt><trkpt lat="43.8874004" lon="11.1932445"><ele>109.99999999999999</ele><time>2026-04-16T07:32:00.978Z</time></trkpt><trkpt lat="43.8874535" lon="11.1933391"><ele>110.0</ele><time>2026-04-16T07:32:01.965Z</time></trkpt><trkpt lat="43.8875096" lon="11.1934408"><ele>110.4</ele><time>2026-04-16T07:32:02.975Z</time></trkpt><trkpt lat="43.8875681" lon="11.1935576"><ele>110.8</ele><time>2026-04-16T07:32:03.976Z</time></trkpt><trkpt lat="43.8876296" lon="11.1936707"><ele>111.19999999999999</ele><time>2026-04-16T07:32:05.032Z</time></trkpt><trkpt lat="43.8876967" lon="11.1937881"><ele>111.6</ele><time>2026-04-16T07:32:05.959Z</time></trkpt><trkpt lat="43.8877564" lon="11.1939085"><ele>112.0</ele><time>2026-04-16T07:32:06.968Z</time></trkpt><trkpt lat="43.8878023" lon="11.1940219"><ele>112.39999999999999</ele><time>2026-04-16T07:32:07.981Z</time></trkpt><trkpt lat="43.8878472" lon="11.1941305"><ele>112.79999999999998</ele><time>2026-04-16T07:32:08.966Z</time></trkpt><trkpt lat="43.8878948" lon="11.1942355"><ele>113.2</ele><time>2026-04-16T07:32:09.96Z</time></trkpt><trkpt lat="43.8879426" lon="11.1943505"><ele>113.6</ele><time>2026-04-16T07:32:10.97Z</time></trkpt><trkpt lat="43.8879857" lon="11.1944777"><ele>114.0</ele><time>2026-04-16T07:32:11.943Z</time></trkpt><trkpt lat="43.8880306" lon="11.1946053"><ele>114.0</ele><time>2026-04-16T07:32:12.947Z</time></trkpt><trkpt lat="43.8880726" lon="11.1947304"><ele>114.0</ele><time>2026-04-16T07:32:13.964Z</time></trkpt><trkpt lat="43.8881383" lon="11.1948493"><ele>114.0</ele><time>2026-04-16T07:32:14.984Z</time></trkpt><trkpt lat="43.8882228" lon="11.1949242"><ele>114.0</ele><time>2026-04-16T07:32:15.955Z</time></trkpt><trkpt lat="43.8883187" lon="11.1949804"><ele>114.0</ele><time>2026-04-16T07:32:16.957Z</time></trkpt><trkpt lat="43.8884073" lon="11.1950429"><ele>114.16666666666667</ele><time>2026-04-16T07:32:17.959Z</time></trkpt><trkpt lat="43.888471" lon="11.1950949"><ele>114.33333333333334</ele><time>2026-04-16T07:32:18.952Z</time></trkpt><trkpt lat="43.8885262" lon="11.1951447"><ele>114.5</ele><time>2026-04-16T07:32:19.968Z</time></trkpt><trkpt lat="43.8886013" lon="11.1952582"><ele>114.66666666666667</ele><time>2026-04-16T07:32:21.953Z</time></trkpt><trkpt lat="43.8886305" lon="11.1954005"><ele>114.83333333333334</ele><time>2026-04-16T07:32:23.958Z</time></trkpt><trkpt lat="43.8886631" lon="11.1954824"><ele>115.0</ele><time>2026-04-16T07:32:24.953Z</time></trkpt><trkpt lat="43.8887266" lon="11.1955486"><ele>115.00000000000001</ele><time>2026-04-16T07:32:25.957Z</time></trkpt><trkpt lat="43.8887875" lon="11.1956236"><ele>115.0</ele><time>2026-04-16T07:32:26.96Z</time></trkpt><trkpt lat="43.888833" lon="11.1956899"><ele>115.0</ele><time>2026-04-16T07:32:27.965Z</time></trkpt><trkpt lat="43.8888593" lon="11.1957785"><ele>115.0</ele><time>2026-04-16T07:32:28.959Z</time></trkpt><trkpt lat="43.8888567" lon="11.1958877"><ele>115.00000000000001</ele><time>2026-04-16T07:32:29.97Z</time></trkpt><trkpt lat="43.8888373" lon="11.1959955"><ele>115.0</ele><time>2026-04-16T07:32:30.968Z</time></trkpt><trkpt lat="43.8888042" lon="11.1961062"><ele>115.33333333333334</ele><time>2026-04-16T07:32:31.966Z</time></trkpt><trkpt lat="43.8887833" lon="11.1962156"><ele>115.66666666666667</ele><time>2026-04-16T07:32:32.981Z</time></trkpt><trkpt lat="43.8887851" lon="11.1963365"><ele>116.0</ele><time>2026-04-16T07:32:33.974Z</time></trkpt><trkpt lat="43.888819" lon="11.1964445"><ele>116.33333333333334</ele><time>2026-04-16T07:32:34.965Z</time></trkpt><trkpt lat="43.8888758" lon="11.1965245"><ele>116.66666666666667</ele><time>2026-04-16T07:32:35.965Z</time></trkpt><trkpt lat="43.8889463" lon="11.1965655"><ele>117.0</ele><time>2026-04-16T07:32:36.967Z</time></trkpt><trkpt lat="43.8890382" lon="11.1966938"><ele>118.16666666666667</ele><time>2026-04-16T07:32:39.035Z</time></trkpt><trkpt lat="43.8890779" lon="11.1967907"><ele>119.33333333333334</ele><time>2026-04-16T07:32:40.04Z</time></trkpt><trkpt lat="43.8891191" lon="11.1968877"><ele>120.5</ele><time>2026-04-16T07:32:40.967Z</time></trkpt><trkpt lat="43.8891814" lon="11.1969757"><ele>121.66666666666667</ele><time>2026-04-16T07:32:41.964Z</time></trkpt><trkpt lat="43.8892467" lon="11.1970611"><ele>122.83333333333334</ele><time>2026-04-16T07:32:42.966Z</time></trkpt><trkpt lat="43.889314" lon="11.1971569"><ele>124.0</ele><time>2026-04-16T07:32:43.969Z</time></trkpt><trkpt lat="43.8893674" lon="11.197271"><ele>124.33333333333334</ele><time>2026-04-16T07:32:44.971Z</time></trkpt><trkpt lat="43.8893981" lon="11.1973891"><ele>124.66666666666667</ele><time>2026-04-16T07:32:45.958Z</time></trkpt><trkpt lat="43.8894106" lon="11.1975085"><ele>125.0</ele><time>2026-04-16T07:32:46.954Z</time></trkpt><trkpt lat="43.8894174" lon="11.1976177"><ele>125.33333333333334</ele><time>2026-04-16T07:32:47.969Z</time></trkpt><trkpt lat="43.8894412" lon="11.197714"><ele>125.66666666666667</ele><time>2026-04-16T07:32:48.963Z</time></trkpt><trkpt lat="43.8894927" lon="11.1977959"><ele>126.0</ele><time>2026-04-16T07:32:49.969Z</time></trkpt><trkpt lat="43.8895384" lon="11.1978909"><ele>126.0</ele><time>2026-04-16T07:32:50.961Z</time></trkpt><trkpt lat="43.8896016" lon="11.1980114"><ele>126.0</ele><time>2026-04-16T07:32:51.961Z</time></trkpt><trkpt lat="43.8896677" lon="11.198131"><ele>126.0</ele><time>2026-04-16T07:32:52.965Z</time></trkpt><trkpt lat="43.8897387" lon="11.1982386"><ele>126.0</ele><time>2026-04-16T07:32:53.95Z</time></trkpt><trkpt lat="43.8898073" lon="11.1983395"><ele>126.0</ele><time>2026-04-16T07:32:54.96Z</time></trkpt><trkpt lat="43.8898727" lon="11.1984538"><ele>126.0</ele><time>2026-04-16T07:32:55.958Z</time></trkpt><trkpt lat="43.88993" lon="11.1985909"><ele>126.0</ele><time>2026-04-16T07:32:56.963Z</time></trkpt><trkpt lat="43.8899762" lon="11.1987235"><ele>126.0</ele><time>2026-04-16T07:32:57.965Z</time></trkpt><trkpt lat="43.8900408" lon="11.198831"><ele>126.0</ele><time>2026-04-16T07:32:58.959Z</time></trkpt><trkpt lat="43.8901162" lon="11.1989198"><ele>126.0</ele><time>2026-04-16T07:32:59.95Z</time></trkpt><trkpt lat="43.8902118" lon="11.1990023"><ele>130.2</ele><time>2026-04-16T07:33:00.966Z</time></trkpt><trkpt lat="43.8903143" lon="11.1990719"><ele>134.39999999999998</ele><time>2026-04-16T07:33:01.961Z</time></trkpt><trkpt lat="43.890419" lon="11.1991146"><ele>138.6</ele><time>2026-04-16T07:33:02.975Z</time></trkpt><trkpt lat="43.8905211" lon="11.1991479"><ele>142.79999999999998</ele><time>2026-04-16T07:33:03.954Z</time></trkpt><trkpt lat="43.8906152" lon="11.1991881"><ele>147.0</ele><time>2026-04-16T07:33:04.954Z</time></trkpt><trkpt lat="43.8906745" lon="11.1992451"><ele>147.0</ele><time>2026-04-16T07:33:05.954Z</time></trkpt><trkpt lat="43.8907296" lon="11.1993099"><ele>147.0</ele><time>2026-04-16T07:33:06.965Z</time></trkpt><trkpt lat="43.8907831" lon="11.1993891"><ele>147.0</ele><time>2026-04-16T07:33:07.962Z</time></trkpt><trkpt lat="43.8908442" lon="11.1994681"><ele>147.0</ele><time>2026-04-16T07:33:08.961Z</time></trkpt><trkpt lat="43.8909146" lon="11.1995452"><ele>147.0</ele><time>2026-04-16T07:33:10.055Z</time></trkpt><trkpt lat="43.8910603" lon="11.1997357"><ele>148.0</ele><time>2026-04-16T07:33:11.966Z</time></trkpt><trkpt lat="43.8911432" lon="11.1998266"><ele>149.0</ele><time>2026-04-16T07:33:12.969Z</time></trkpt><trkpt lat="43.8912335" lon="11.1999027"><ele>150.0</ele><time>2026-04-16T07:33:14.023Z</time></trkpt><trkpt lat="43.8913367" lon="11.1999638"><ele>151.0</ele><time>2026-04-16T07:33:15.027Z</time></trkpt><trkpt lat="43.891419" lon="11.2000229"><ele>152.0</ele><time>2026-04-16T07:33:15.953Z</time></trkpt><trkpt lat="43.8915017" lon="11.2000836"><ele>152.0</ele><time>2026-04-16T07:33:16.947Z</time></trkpt><trkpt lat="43.8915766" lon="11.2001656"><ele>152.0</ele><time>2026-04-16T07:33:17.972Z</time></trkpt><trkpt lat="43.8916375" lon="11.2002692"><ele>152.0</ele><time>2026-04-16T07:33:19.034Z</time></trkpt><trkpt lat="43.8916894" lon="11.2003785"><ele>152.0</ele><time>2026-04-16T07:33:20.032Z</time></trkpt><trkpt lat="43.8917443" lon="11.2004899"><ele>152.0</ele><time>2026-04-16T07:33:20.956Z</time></trkpt><trkpt lat="43.8917888" lon="11.2005955"><ele>151.14285714285714</ele><time>2026-04-16T07:33:21.965Z</time></trkpt><trkpt lat="43.891811" lon="11.2007007"><ele>150.2857142857143</ele><time>2026-04-16T07:33:22.981Z</time></trkpt><trkpt lat="43.8918361" lon="11.2008067"><ele>149.42857142857144</ele><time>2026-04-16T07:33:24.027Z</time></trkpt><trkpt lat="43.8918515" lon="11.2009054"><ele>148.57142857142856</ele><time>2026-04-16T07:33:25.029Z</time></trkpt><trkpt lat="43.8918616" lon="11.2009981"><ele>147.71428571428572</ele><time>2026-04-16T07:33:25.95Z</time></trkpt><trkpt lat="43.8918713" lon="11.2010904"><ele>146.85714285714286</ele><time>2026-04-16T07:33:26.971Z</time></trkpt><trkpt lat="43.8918768" lon="11.2011881"><ele>146.0</ele><time>2026-04-16T07:33:27.971Z</time></trkpt><trkpt lat="43.8918633" lon="11.2012767"><ele>146.0</ele><time>2026-04-16T07:33:28.977Z</time></trkpt><trkpt lat="43.8918474" lon="11.2013721"><ele>146.0</ele><time>2026-04-16T07:33:29.972Z</time></trkpt><trkpt lat="43.8918329" lon="11.2014579"><ele>146.0</ele><time>2026-04-16T07:33:30.962Z</time></trkpt><trkpt lat="43.8918042" lon="11.2015469"><ele>146.0</ele><time>2026-04-16T07:33:31.966Z</time></trkpt><trkpt lat="43.8917789" lon="11.2016299"><ele>146.0</ele><time>2026-04-16T07:33:32.977Z</time></trkpt><trkpt lat="43.8917604" lon="11.2017207"><ele>146.0</ele><time>2026-04-16T07:33:33.977Z</time></trkpt><trkpt lat="43.891742" lon="11.201811"><ele>146.0</ele><time>2026-04-16T07:33:34.973Z</time></trkpt><trkpt lat="43.8917184" lon="11.2019049"><ele>153.83333333333331</ele><time>2026-04-16T07:33:35.977Z</time></trkpt><trkpt lat="43.8916899" lon="11.2020046"><ele>161.66666666666666</ele><time>2026-04-16T07:33:37.039Z</time></trkpt><trkpt lat="43.8916606" lon="11.202104"><ele>169.5</ele><time>2026-04-16T07:33:37.974Z</time></trkpt><trkpt lat="43.8916303" lon="11.2022107"><ele>177.33333333333331</ele><time>2026-04-16T07:33:38.968Z</time></trkpt><trkpt lat="43.8915994" lon="11.2023159"><ele>185.16666666666666</ele><time>2026-04-16T07:33:39.976Z</time></trkpt><trkpt lat="43.8915636" lon="11.2024255"><ele>193.0</ele><time>2026-04-16T07:33:40.949Z</time></trkpt><trkpt lat="43.8915208" lon="11.2025474"><ele>194.2</ele><time>2026-04-16T07:33:41.971Z</time></trkpt><trkpt lat="43.8914891" lon="11.202667"><ele>195.4</ele><time>2026-04-16T07:33:42.969Z</time></trkpt><trkpt lat="43.8914854" lon="11.2028015"><ele>196.6</ele><time>2026-04-16T07:33:43.976Z</time></trkpt><trkpt lat="43.8914682" lon="11.2029379"><ele>197.79999999999998</ele><time>2026-04-16T07:33:45.039Z</time></trkpt><trkpt lat="43.8914457" lon="11.2030709"><ele>199.0</ele><time>2026-04-16T07:33:45.955Z</time></trkpt><trkpt lat="43.8914205" lon="11.2032027"><ele>200.2</ele><time>2026-04-16T07:33:47.024Z</time></trkpt><trkpt lat="43.8913946" lon="11.2033307"><ele>201.39999999999998</ele><time>2026-04-16T07:33:48.021Z</time></trkpt><trkpt lat="43.8913776" lon="11.2034436"><ele>202.6</ele><time>2026-04-16T07:33:49.02Z</time></trkpt><trkpt lat="43.8913617" lon="11.203548"><ele>203.8</ele><time>2026-04-16T07:33:50.034Z</time></trkpt><trkpt lat="43.8913452" lon="11.2037076"><ele>205.0</ele><time>2026-04-16T07:33:52.011Z</time></trkpt><trkpt lat="43.8913182" lon="11.2038657"><ele>204.99999999999997</ele><time>2026-04-16T07:33:54.029Z</time></trkpt><trkpt lat="43.8913169" lon="11.203958"><ele>205.0</ele><time>2026-04-16T07:33:54.995Z</time></trkpt><trkpt lat="43.8913049" lon="11.2040645"><ele>205.0</ele><time>2026-04-16T07:33:55.978Z</time></trkpt><trkpt lat="43.8913" lon="11.2041635"><ele>205.0</ele><time>2026-04-16T07:33:56.974Z</time></trkpt><trkpt lat="43.8912675" lon="11.2043409"><ele>204.99999999999997</ele><time>2026-04-16T07:33:58.987Z</time></trkpt><trkpt lat="43.8912462" lon="11.2044358"><ele>205.0</ele><time>2026-04-16T07:33:59.977Z</time></trkpt><trkpt lat="43.8912209" lon="11.2045297"><ele>204.49999999999997</ele><time>2026-04-16T07:34:00.98Z</time></trkpt><trkpt lat="43.8911934" lon="11.2046246"><ele>204.0</ele><time>2026-04-16T07:34:01.97Z</time></trkpt><trkpt lat="43.8911642" lon="11.2047328"><ele>203.5</ele><time>2026-04-16T07:34:02.978Z</time></trkpt><trkpt lat="43.8911352" lon="11.2048387"><ele>203.0</ele><time>2026-04-16T07:34:03.973Z</time></trkpt><trkpt lat="43.8910969" lon="11.2049459"><ele>202.49999999999997</ele><time>2026-04-16T07:34:05.037Z</time></trkpt><trkpt lat="43.8910425" lon="11.2050442"><ele>202.0</ele><time>2026-04-16T07:34:05.941Z</time></trkpt><trkpt lat="43.8909744" lon="11.2051236"><ele>211.2</ele><time>2026-04-16T07:34:06.954Z</time></trkpt><trkpt lat="43.8909018" lon="11.2052092"><ele>220.39999999999998</ele><time>2026-04-16T07:34:07.973Z</time></trkpt><trkpt lat="43.8908215" lon="11.205261"><ele>229.60000000000002</ele><time>2026-04-16T07:34:09.031Z</time></trkpt><trkpt lat="43.8907316" lon="11.2053098"><ele>238.8</ele><time>2026-04-16T07:34:10.016Z</time></trkpt><trkpt lat="43.8906441" lon="11.2053437"><ele>248.0</ele><time>2026-04-16T07:34:10.96Z</time></trkpt><trkpt lat="43.8905578" lon="11.205368"><ele>248.0</ele><time>2026-04-16T07:34:11.972Z</time></trkpt><trkpt lat="43.8904763" lon="11.2053984"><ele>248.0</ele><time>2026-04-16T07:34:12.96Z</time></trkpt><trkpt lat="43.8903903" lon="11.2054451"><ele>248.0</ele><time>2026-04-16T07:34:13.958Z</time></trkpt><trkpt lat="43.8903053" lon="11.2054994"><ele>248.0</ele><time>2026-04-16T07:34:14.958Z</time></trkpt><trkpt lat="43.890221" lon="11.2055497"><ele>248.0</ele><time>2026-04-16T07:34:15.955Z</time></trkpt><trkpt lat="43.8901333" lon="11.2055979"><ele>250.83333333333334</ele><time>2026-04-16T07:34:17.022Z</time></trkpt><trkpt lat="43.890048" lon="11.2056402"><ele>253.66666666666669</ele><time>2026-04-16T07:34:18.011Z</time></trkpt><trkpt lat="43.8899676" lon="11.2056857"><ele>256.5</ele><time>2026-04-16T07:34:19.011Z</time></trkpt><trkpt lat="43.8898966" lon="11.2057449"><ele>259.3333333333333</ele><time>2026-04-16T07:34:19.955Z</time></trkpt><trkpt lat="43.8898376" lon="11.2058043"><ele>262.16666666666663</ele><time>2026-04-16T07:34:20.954Z</time></trkpt><trkpt lat="43.8897866" lon="11.2058652"><ele>265.0</ele><time>2026-04-16T07:34:21.957Z</time></trkpt><trkpt lat="43.8897357" lon="11.205956"><ele>265.0</ele><time>2026-04-16T07:34:22.959Z</time></trkpt><trkpt lat="43.8896895" lon="11.2060556"><ele>265.0</ele><time>2026-04-16T07:34:23.957Z</time></trkpt><trkpt lat="43.8896559" lon="11.2061379"><ele>265.0</ele><time>2026-04-16T07:34:24.958Z</time></trkpt><trkpt lat="43.8896174" lon="11.2062369"><ele>265.0</ele><time>2026-04-16T07:34:25.946Z</time></trkpt><trkpt lat="43.8895844" lon="11.2063275"><ele>265.0</ele><time>2026-04-16T07:34:27.007Z</time></trkpt><trkpt lat="43.8895086" lon="11.206449"><ele>265.0</ele><time>2026-04-16T07:34:28.954Z</time></trkpt><trkpt lat="43.8894607" lon="11.2065076"><ele>263.0</ele><time>2026-04-16T07:34:29.958Z</time></trkpt><trkpt lat="43.8894067" lon="11.2066305"><ele>261.0</ele><time>2026-04-16T07:34:31.948Z</time></trkpt><trkpt lat="43.8894054" lon="11.2067708"><ele>259.0</ele><time>2026-04-16T07:34:33.96Z</time></trkpt><trkpt lat="43.8894262" lon="11.2069279"><ele>257.0</ele><time>2026-04-16T07:34:35.955Z</time></trkpt><trkpt lat="43.8894407" lon="11.2070152"><ele>255.0</ele><time>2026-04-16T07:34:36.998Z</time></trkpt><trkpt lat="43.8894604" lon="11.2071617"><ele>255.0</ele><time>2026-04-16T07:34:39.011Z</time></trkpt><trkpt lat="43.8894751" lon="11.2072571"><ele>255.0</ele><time>2026-04-16T07:34:40.959Z</time></trkpt><trkpt lat="43.8894775" lon="11.2073504"><ele>255.0</ele><time>2026-04-16T07:34:42.955Z</time></trkpt><trkpt lat="43.8894771" lon="11.2074808"><ele>255.0</ele><time>2026-04-16T07:34:44.963Z</time></trkpt><trkpt lat="43.8894797" lon="11.2075721"><ele>255.0</ele><time>2026-04-16T07:34:45.97Z</time></trkpt><trkpt lat="43.889464" lon="11.2076942"><ele>255.0</ele><time>2026-04-16T07:34:47.96Z</time></trkpt><trkpt lat="43.8893837" lon="11.2077806"><ele>257.2</ele><time>2026-04-16T07:34:49.955Z</time></trkpt><trkpt lat="43.8892773" lon="11.207777"><ele>259.4</ele><time>2026-04-16T07:34:51.966Z</time></trkpt><trkpt lat="43.889199" lon="11.2076774"><ele>261.6</ele><time>2026-04-16T07:34:53.967Z</time></trkpt><trkpt lat="43.8891143" lon="11.207601"><ele>263.8</ele><time>2026-04-16T07:34:55.962Z</time></trkpt><trkpt lat="43.8890334" lon="11.2075798"><ele>266.0</ele><time>2026-04-16T07:34:56.959Z</time></trkpt><trkpt lat="43.8889432" lon="11.2075632"><ele>268.33333333333337</ele><time>2026-04-16T07:34:57.967Z</time></trkpt><trkpt lat="43.8888802" lon="11.20754"><ele>270.6666666666667</ele><time>2026-04-16T07:34:58.965Z</time></trkpt><trkpt lat="43.8888152" lon="11.2075019"><ele>273.0</ele><time>2026-04-16T07:34:59.958Z</time></trkpt><trkpt lat="43.8887411" lon="11.207454"><ele>275.3333333333333</ele><time>2026-04-16T07:35:00.949Z</time></trkpt><trkpt lat="43.8886644" lon="11.2074002"><ele>277.66666666666663</ele><time>2026-04-16T07:35:01.951Z</time></trkpt><trkpt lat="43.8885803" lon="11.207351"><ele>280.0</ele><time>2026-04-16T07:35:02.95Z</time></trkpt><trkpt lat="43.8884775" lon="11.2073002"><ele>283.0</ele><time>2026-04-16T07:35:03.961Z</time></trkpt><trkpt lat="43.8883738" lon="11.2072572"><ele>286.0</ele><time>2026-04-16T07:35:04.94Z</time></trkpt><trkpt lat="43.8882736" lon="11.2072214"><ele>289.0</ele><time>2026-04-16T07:35:05.95Z</time></trkpt><trkpt lat="43.8881827" lon="11.2072004"><ele>292.0</ele><time>2026-04-16T07:35:06.954Z</time></trkpt><trkpt lat="43.8881036" lon="11.2072077"><ele>295.0</ele><time>2026-04-16T07:35:07.962Z</time></trkpt><trkpt lat="43.8880242" lon="11.2072369"><ele>295.0</ele><time>2026-04-16T07:35:08.955Z</time></trkpt><trkpt lat="43.8879433" lon="11.2072684"><ele>295.0</ele><time>2026-04-16T07:35:09.966Z</time></trkpt><trkpt lat="43.8878776" lon="11.2072631"><ele>295.0</ele><time>2026-04-16T07:35:10.966Z</time></trkpt><trkpt lat="43.887791" lon="11.2072257"><ele>295.0</ele><time>2026-04-16T07:35:11.962Z</time></trkpt><trkpt lat="43.8877175" lon="11.2071815"><ele>295.0</ele><time>2026-04-16T07:35:12.959Z</time></trkpt><trkpt lat="43.8876357" lon="11.2071525"><ele>295.0</ele><time>2026-04-16T07:35:13.964Z</time></trkpt><trkpt lat="43.8875663" lon="11.2071199"><ele>297.0</ele><time>2026-04-16T07:35:14.964Z</time></trkpt><trkpt lat="43.8875066" lon="11.2070862"><ele>299.0</ele><time>2026-04-16T07:35:15.95Z</time></trkpt><trkpt lat="43.8874208" lon="11.2070644"><ele>301.0</ele><time>2026-04-16T07:35:18.032Z</time></trkpt><trkpt lat="43.887357" lon="11.2070608"><ele>303.0</ele><time>2026-04-16T07:35:20.034Z</time></trkpt><trkpt lat="43.8873257" lon="11.2071529"><ele>305.0</ele><time>2026-04-16T07:35:22.94Z</time></trkpt><trkpt lat="43.8873032" lon="11.2072727"><ele>307.0</ele><time>2026-04-16T07:35:24.955Z</time></trkpt><trkpt lat="43.8872363" lon="11.2073639"><ele>308.4</ele><time>2026-04-16T07:35:26.959Z</time></trkpt><trkpt lat="43.8871596" lon="11.2074596"><ele>309.79999999999995</ele><time>2026-04-16T07:35:28.951Z</time></trkpt><trkpt lat="43.887118" lon="11.2075954"><ele>311.2</ele><time>2026-04-16T07:35:30.945Z</time></trkpt><trkpt lat="43.8870917" lon="11.2077397"><ele>312.59999999999997</ele><time>2026-04-16T07:35:32.965Z</time></trkpt><trkpt lat="43.8870684" lon="11.2078804"><ele>314.0</ele><time>2026-04-16T07:35:35.029Z</time></trkpt><trkpt lat="43.8870627" lon="11.2080399"><ele>313.99999999999994</ele><time>2026-04-16T07:35:37.036Z</time></trkpt><trkpt lat="43.8870475" lon="11.2081428"><ele>314.0</ele><time>2026-04-16T07:35:38.022Z</time></trkpt><trkpt lat="43.8870247" lon="11.208231"><ele>314.0</ele><time>2026-04-16T07:35:39.032Z</time></trkpt><trkpt lat="43.886998" lon="11.2083199"><ele>314.0</ele><time>2026-04-16T07:35:40.03Z</time></trkpt><trkpt lat="43.8869751" lon="11.2084108"><ele>314.0</ele><time>2026-04-16T07:35:40.954Z</time></trkpt><trkpt lat="43.8869556" lon="11.2085002"><ele>313.99999999999994</ele><time>2026-04-16T07:35:41.952Z</time></trkpt><trkpt lat="43.8869288" lon="11.2085874"><ele>314.0</ele><time>2026-04-16T07:35:42.985Z</time></trkpt><trkpt lat="43.8868991" lon="11.2086696"><ele>313.85714285714283</ele><time>2026-04-16T07:35:43.962Z</time></trkpt><trkpt lat="43.8868583" lon="11.2087476"><ele>313.7142857142857</ele><time>2026-04-16T07:35:44.963Z</time></trkpt><trkpt lat="43.8868022" lon="11.2088118"><ele>313.57142857142856</ele><time>2026-04-16T07:35:45.964Z</time></trkpt><trkpt lat="43.8867463" lon="11.2088775"><ele>313.42857142857144</ele><time>2026-04-16T07:35:46.959Z</time></trkpt><trkpt lat="43.886695" lon="11.2089438"><ele>313.2857142857143</ele><time>2026-04-16T07:35:47.953Z</time></trkpt><trkpt lat="43.8866505" lon="11.2090167"><ele>313.1428571428571</ele><time>2026-04-16T07:35:49.048Z</time></trkpt><trkpt lat="43.8866073" lon="11.2090922"><ele>313.0</ele><time>2026-04-16T07:35:50.03Z</time></trkpt><trkpt lat="43.8865639" lon="11.2091714"><ele>316.8333333333333</ele><time>2026-04-16T07:35:50.961Z</time></trkpt><trkpt lat="43.886521" lon="11.2092602"><ele>320.66666666666663</ele><time>2026-04-16T07:35:51.961Z</time></trkpt><trkpt lat="43.8864744" lon="11.2093459"><ele>324.5</ele><time>2026-04-16T07:35:52.955Z</time></trkpt><trkpt lat="43.8864202" lon="11.2094253"><ele>328.3333333333333</ele><time>2026-04-16T07:35:53.942Z</time></trkpt><trkpt lat="43.8863667" lon="11.2095024"><ele>332.1666666666667</ele><time>2026-04-16T07:35:54.959Z</time></trkpt><trkpt lat="43.886301" lon="11.2095882"><ele>336.0</ele><time>2026-04-16T07:35:55.965Z</time></trkpt><trkpt lat="43.8862475" lon="11.2096684"><ele>336.0</ele><time>2026-04-16T07:35:56.972Z</time></trkpt><trkpt lat="43.886203" lon="11.2097441"><ele>336.0</ele><time>2026-04-16T07:35:57.962Z</time></trkpt><trkpt lat="43.8861615" lon="11.209824"><ele>336.0</ele><time>2026-04-16T07:35:58.961Z</time></trkpt><trkpt lat="43.8861217" lon="11.2099021"><ele>336.0</ele><time>2026-04-16T07:35:59.976Z</time></trkpt><trkpt lat="43.8860894" lon="11.209983"><ele>336.0</ele><time>2026-04-16T07:36:00.968Z</time></trkpt><trkpt lat="43.8860607" lon="11.2100668"><ele>336.0</ele><time>2026-04-16T07:36:01.97Z</time></trkpt><trkpt lat="43.8860296" lon="11.2101499"><ele>336.0</ele><time>2026-04-16T07:36:02.958Z</time></trkpt><trkpt lat="43.8859688" lon="11.210294"><ele>340.6</ele><time>2026-04-16T07:36:04.957Z</time></trkpt><trkpt lat="43.8859065" lon="11.2104188"><ele>345.20000000000005</ele><time>2026-04-16T07:36:06.96Z</time></trkpt><trkpt lat="43.8858391" lon="11.2105342"><ele>349.79999999999995</ele><time>2026-04-16T07:36:08.952Z</time></trkpt><trkpt lat="43.8857873" lon="11.2105875"><ele>354.4</ele><time>2026-04-16T07:36:10.965Z</time></trkpt><trkpt lat="43.8857042" lon="11.2105377"><ele>359.0</ele><time>2026-04-16T07:36:14.973Z</time></trkpt><trkpt lat="43.8856355" lon="11.2104113"><ele>359.0</ele><time>2026-04-16T07:36:16.973Z</time></trkpt><trkpt lat="43.8855969" lon="11.2103348"><ele>359.0</ele><time>2026-04-16T07:36:18.078Z</time></trkpt><trkpt lat="43.8855329" lon="11.2101975"><ele>359.0</ele><time>2026-04-16T07:36:20.031Z</time></trkpt><trkpt lat="43.8854396" lon="11.2100836"><ele>359.0</ele><time>2026-04-16T07:36:21.965Z</time></trkpt><trkpt lat="43.8853939" lon="11.2100223"><ele>359.0</ele><time>2026-04-16T07:36:23.026Z</time></trkpt><trkpt lat="43.8852953" lon="11.2099272"><ele>359.0</ele><time>2026-04-16T07:36:24.962Z</time></trkpt><trkpt lat="43.8852156" lon="11.2098498"><ele>359.0</ele><time>2026-04-16T07:36:26.958Z</time></trkpt><trkpt lat="43.8851494" lon="11.2098068"><ele>359.0</ele><time>2026-04-16T07:36:30.028Z</time></trkpt><trkpt lat="43.8850856" lon="11.2098001"><ele>359.0</ele><time>2026-04-16T07:36:32.977Z</time></trkpt><trkpt lat="43.8850141" lon="11.2098011"><ele>359.0</ele><time>2026-04-16T07:36:34.958Z</time></trkpt><trkpt lat="43.8849475" lon="11.2098038"><ele>359.0</ele><time>2026-04-16T07:36:36.968Z</time></trkpt><trkpt lat="43.8848556" lon="11.2098246"><ele>358.5</ele><time>2026-04-16T07:36:39.057Z</time></trkpt><trkpt lat="43.8847339" lon="11.2098365"><ele>358.0</ele><time>2026-04-16T07:36:40.972Z</time></trkpt><trkpt lat="43.8846224" lon="11.2098612"><ele>357.5</ele><time>2026-04-16T07:36:42.975Z</time></trkpt><trkpt lat="43.8845476" lon="11.2098739"><ele>357.0</ele><time>2026-04-16T07:36:44.969Z</time></trkpt><trkpt lat="43.8844815" lon="11.209841"><ele>356.5</ele><time>2026-04-16T07:36:49.046Z</time></trkpt><trkpt lat="43.8844625" lon="11.2097527"><ele>356.0</ele><time>2026-04-16T07:36:51.955Z</time></trkpt><trkpt lat="43.8844282" lon="11.2096472"><ele>356.0</ele><time>2026-04-16T07:36:54.962Z</time></trkpt><trkpt lat="43.8844443" lon="11.209754"><ele>356.0</ele><time>2026-04-16T07:37:04.029Z</time></trkpt><trkpt lat="43.884524" lon="11.2098138"><ele>356.0</ele><time>2026-04-16T07:37:05.943Z</time></trkpt><trkpt lat="43.8846517" lon="11.2098279"><ele>356.0</ele><time>2026-04-16T07:37:07.958Z</time></trkpt><trkpt lat="43.8847217" lon="11.2098287"><ele>356.0</ele><time>2026-04-16T07:37:08.956Z</time></trkpt><trkpt lat="43.8847905" lon="11.2098275"><ele>356.0</ele><time>2026-04-16T07:37:09.958Z</time></trkpt><trkpt lat="43.8849101" lon="11.2098114"><ele>356.0</ele><time>2026-04-16T07:37:12.033Z</time></trkpt><trkpt lat="43.8850117" lon="11.2098075"><ele>356.0</ele><time>2026-04-16T07:37:14.013Z</time></trkpt><trkpt lat="43.8851003" lon="11.2097883"><ele>356.0</ele><time>2026-04-16T07:37:15.963Z</time></trkpt><trkpt lat="43.8851722" lon="11.2097775"><ele>356.0</ele><time>2026-04-16T07:37:17.954Z</time></trkpt><trkpt lat="43.8852555" lon="11.2098027"><ele>356.0</ele><time>2026-04-16T07:37:25.966Z</time></trkpt><trkpt lat="43.8853226" lon="11.2098369"><ele>356.0</ele><time>2026-04-16T07:37:28.961Z</time></trkpt><trkpt lat="43.8852301" lon="11.2098125"><ele>356.5</ele><time>2026-04-16T07:37:43.947Z</time></trkpt><trkpt lat="43.8851815" lon="11.2098693"><ele>357.0</ele><time>2026-04-16T07:37:46.965Z</time></trkpt><trkpt lat="43.8852265" lon="11.2099956"><ele>357.5</ele><time>2026-04-16T07:37:49.961Z</time></trkpt><trkpt lat="43.8852567" lon="11.21008"><ele>358.0</ele><time>2026-04-16T07:37:51.965Z</time></trkpt><trkpt lat="43.8852733" lon="11.2101981"><ele>358.5</ele><time>2026-04-16T07:37:54.962Z</time></trkpt><trkpt lat="43.8852913" lon="11.2102948"><ele>359.0</ele><time>2026-04-16T07:37:56.96Z</time></trkpt><trkpt lat="43.8852974" lon="11.2104233"><ele>359.0</ele><time>2026-04-16T07:37:58.96Z</time></trkpt><trkpt lat="43.885281" lon="11.2105813"><ele>359.0</ele><time>2026-04-16T07:38:00.957Z</time></trkpt><trkpt lat="43.8852313" lon="11.2107107"><ele>359.0</ele><time>2026-04-16T07:38:02.963Z</time></trkpt><trkpt lat="43.8851961" lon="11.2108543"><ele>359.0</ele><time>2026-04-16T07:38:04.962Z</time></trkpt><trkpt lat="43.8851961" lon="11.2109842"><ele>359.0</ele><time>2026-04-16T07:38:06.96Z</time></trkpt><trkpt lat="43.8851897" lon="11.2111088"><ele>362.4</ele><time>2026-04-16T07:38:08.97Z</time></trkpt><trkpt lat="43.8851856" lon="11.2112336"><ele>365.79999999999995</ele><time>2026-04-16T07:38:10.946Z</time></trkpt><trkpt lat="43.8852002" lon="11.2113629"><ele>369.20000000000005</ele><time>2026-04-16T07:38:12.948Z</time></trkpt><trkpt lat="43.8852171" lon="11.2115184"><ele>372.6</ele><time>2026-04-16T07:38:14.962Z</time></trkpt><trkpt lat="43.8852378" lon="11.2116384"><ele>376.0</ele><time>2026-04-16T07:38:16.956Z</time></trkpt><trkpt lat="43.8853094" lon="11.2116385"><ele>376.0</ele><time>2026-04-16T07:38:20.961Z</time></trkpt><trkpt lat="43.8853943" lon="11.2115966"><ele>376.0</ele><time>2026-04-16T07:38:23.964Z</time></trkpt><trkpt lat="43.8854562" lon="11.2115647"><ele>376.0</ele><time>2026-04-16T07:38:25.958Z</time></trkpt><trkpt lat="43.8855341" lon="11.2115468"><ele>376.0</ele><time>2026-04-16T07:38:27.969Z</time></trkpt><trkpt lat="43.8856406" lon="11.2114926"><ele>376.0</ele><time>2026-04-16T07:38:29.957Z</time></trkpt><trkpt lat="43.8857153" lon="11.2114441"><ele>376.0</ele><time>2026-04-16T07:38:31.962Z</time></trkpt><trkpt lat="43.8857937" lon="11.2114022"><ele>376.0</ele><time>2026-04-16T07:38:33.97Z</time></trkpt><trkpt lat="43.8858665" lon="11.2113998"><ele>376.0</ele><time>2026-04-16T07:38:35.963Z</time></trkpt><trkpt lat="43.8859271" lon="11.2114287"><ele>376.0</ele><time>2026-04-16T07:38:37.965Z</time></trkpt><trkpt lat="43.8859745" lon="11.2114862"><ele>376.0</ele><time>2026-04-16T07:38:39.963Z</time></trkpt><trkpt lat="43.8860399" lon="11.2115859"><ele>376.0</ele><time>2026-04-16T07:38:42.967Z</time></trkpt><trkpt lat="43.8860583" lon="11.2116836"><ele>376.0</ele><time>2026-04-16T07:38:45.963Z</time></trkpt><trkpt lat="43.8860028" lon="11.2117759"><ele>375.66666666666663</ele><time>2026-04-16T07:38:48.968Z</time></trkpt><trkpt lat="43.8859702" lon="11.2118592"><ele>375.3333333333333</ele><time>2026-04-16T07:38:50.965Z</time></trkpt><trkpt lat="43.8859786" lon="11.2119648"><ele>375.0</ele><time>2026-04-16T07:38:52.947Z</time></trkpt><trkpt lat="43.8860027" lon="11.2120932"><ele>374.6666666666667</ele><time>2026-04-16T07:38:54.953Z</time></trkpt><trkpt lat="43.8860237" lon="11.2121996"><ele>374.33333333333337</ele><time>2026-04-16T07:38:56.954Z</time></trkpt><trkpt lat="43.8860399" lon="11.2122929"><ele>374.0</ele><time>2026-04-16T07:38:58.968Z</time></trkpt><trkpt lat="43.8860567" lon="11.2124005"><ele>374.0</ele><time>2026-04-16T07:39:00.958Z</time></trkpt><trkpt lat="43.8860645" lon="11.2125214"><ele>374.0</ele><time>2026-04-16T07:39:02.967Z</time></trkpt><trkpt lat="43.8860729" lon="11.2126318"><ele>374.0</ele><time>2026-04-16T07:39:04.961Z</time></trkpt><trkpt lat="43.8860801" lon="11.2127314"><ele>374.0</ele><time>2026-04-16T07:39:06.941Z</time></trkpt><trkpt lat="43.8860952" lon="11.2128579"><ele>374.0</ele><time>2026-04-16T07:39:08.967Z</time></trkpt><trkpt lat="43.8861119" lon="11.212977"><ele>374.0</ele><time>2026-04-16T07:39:10.966Z</time></trkpt><trkpt lat="43.8861133" lon="11.2131101"><ele>376.0</ele><time>2026-04-16T07:39:12.978Z</time></trkpt><trkpt lat="43.886111" lon="11.213245"><ele>378.0</ele><time>2026-04-16T07:39:14.971Z</time></trkpt><trkpt lat="43.8861158" lon="11.2133718"><ele>380.0</ele><time>2026-04-16T07:39:16.96Z</time></trkpt><trkpt lat="43.8861288" lon="11.2134742"><ele>382.0</ele><time>2026-04-16T07:39:18.958Z</time></trkpt><trkpt lat="43.8861468" lon="11.2135828"><ele>383.99999999999994</ele><time>2026-04-16T07:39:20.96Z</time></trkpt><trkpt lat="43.8861496" lon="11.2137108"><ele>386.0</ele><time>2026-04-16T07:39:22.951Z</time></trkpt><trkpt lat="43.8861622" lon="11.2138099"><ele>385.99999999999994</ele><time>2026-04-16T07:39:24.97Z</time></trkpt><trkpt lat="43.8862009" lon="11.2138853"><ele>386.0</ele><time>2026-04-16T07:39:26.965Z</time></trkpt><trkpt lat="43.8862694" lon="11.2139545"><ele>386.0</ele><time>2026-04-16T07:39:28.963Z</time></trkpt><trkpt lat="43.8863622" lon="11.2140381"><ele>386.0</ele><time>2026-04-16T07:39:30.96Z</time></trkpt><trkpt lat="43.8864423" lon="11.2140962"><ele>385.99999999999994</ele><time>2026-04-16T07:39:32.965Z</time></trkpt><trkpt lat="43.8865012" lon="11.214192"><ele>386.0</ele><time>2026-04-16T07:39:35.964Z</time></trkpt><trkpt lat="43.8865249" lon="11.2142915"><ele>388.8333333333333</ele><time>2026-04-16T07:39:38.95Z</time></trkpt><trkpt lat="43.8864405" lon="11.2143409"><ele>391.66666666666663</ele><time>2026-04-16T07:39:41.968Z</time></trkpt><trkpt lat="43.8863717" lon="11.2143681"><ele>394.5</ele><time>2026-04-16T07:39:44.973Z</time></trkpt><trkpt lat="43.8863132" lon="11.2144226"><ele>397.33333333333337</ele><time>2026-04-16T07:40:39.967Z</time></trkpt><trkpt lat="43.8862417" lon="11.2144327"><ele>400.1666666666667</ele><time>2026-04-16T07:40:42.954Z</time></trkpt><trkpt lat="43.8861582" lon="11.2144063"><ele>403.0</ele><time>2026-04-16T07:40:45.973Z</time></trkpt><trkpt lat="43.886071" lon="11.2143864"><ele>403.0</ele><time>2026-04-16T07:40:48.971Z</time></trkpt><trkpt lat="43.8860036" lon="11.2143874"><ele>403.0</ele><time>2026-04-16T07:40:50.968Z</time></trkpt><trkpt lat="43.8859237" lon="11.2143992"><ele>403.0</ele><time>2026-04-16T07:40:52.973Z</time></trkpt><trkpt lat="43.8858898" lon="11.2144759"><ele>403.0</ele><time>2026-04-16T07:40:55.959Z</time></trkpt><trkpt lat="43.8859463" lon="11.2145271"><ele>403.0</ele><time>2026-04-16T07:40:58.966Z</time></trkpt><trkpt lat="43.8860153" lon="11.2145641"><ele>403.0</ele><time>2026-04-16T07:41:02.962Z</time></trkpt><trkpt lat="43.886088" lon="11.2146331"><ele>403.0</ele><time>2026-04-16T07:41:06.965Z</time></trkpt><trkpt lat="43.8861682" lon="11.2147025"><ele>403.00000000000006</ele><time>2026-04-16T07:41:09.965Z</time></trkpt><trkpt lat="43.8862354" lon="11.2147822"><ele>403.0</ele><time>2026-04-16T07:41:12.972Z</time></trkpt><trkpt lat="43.8863008" lon="11.2148645"><ele>403.0</ele><time>2026-04-16T07:41:15.964Z</time></trkpt><trkpt lat="43.8863544" lon="11.2149445"><ele>403.0</ele><time>2026-04-16T07:41:18.962Z</time></trkpt><trkpt lat="43.8863113" lon="11.2148686"><ele>403.00000000000006</ele><time>2026-04-16T07:41:25.961Z</time></trkpt><trkpt lat="43.8862448" lon="11.2147939"><ele>403.0</ele><time>2026-04-16T07:41:28.97Z</time></trkpt><trkpt lat="43.8861744" lon="11.2147315"><ele>403.00000000000006</ele><time>2026-04-16T07:41:30.952Z</time></trkpt><trkpt lat="43.8861027" lon="11.2146756"><ele>403.0</ele><time>2026-04-16T07:41:32.958Z</time></trkpt><trkpt lat="43.8860197" lon="11.2146122"><ele>403.0</ele><time>2026-04-16T07:41:34.966Z</time></trkpt><trkpt lat="43.8859587" lon="11.214572"><ele>403.0</ele><time>2026-04-16T07:41:36.962Z</time></trkpt><trkpt lat="43.885917" lon="11.2144978"><ele>403.00000000000006</ele><time>2026-04-16T07:42:39.942Z</time></trkpt><trkpt lat="43.8858581" lon="11.2144018"><ele>403.0</ele><time>2026-04-16T07:43:16.97Z</time></trkpt><trkpt lat="43.8859087" lon="11.21432"><ele>403.00000000000006</ele><time>2026-04-16T07:43:44.969Z</time></trkpt><trkpt lat="43.8859943" lon="11.2142995"><ele>403.0</ele><time>2026-04-16T07:43:47.96Z</time></trkpt><trkpt lat="43.8860845" lon="11.2143089"><ele>403.0</ele><time>2026-04-16T07:43:50.969Z</time></trkpt><trkpt lat="43.8861487" lon="11.2143362"><ele>403.0</ele><time>2026-04-16T07:43:52.955Z</time></trkpt><trkpt lat="43.8862146" lon="11.2143535"><ele>403.00000000000006</ele><time>2026-04-16T07:43:55.973Z</time></trkpt><trkpt lat="43.8862839" lon="11.2143469"><ele>403.0</ele><time>2026-04-16T07:43:58.962Z</time></trkpt><trkpt lat="43.8863532" lon="11.2143277"><ele>403.0</ele><time>2026-04-16T07:44:02.968Z</time></trkpt><trkpt lat="43.8864061" lon="11.2143903"><ele>403.0</ele><time>2026-04-16T07:44:09.962Z</time></trkpt><trkpt lat="43.886478" lon="11.2144246"><ele>403.0</ele><time>2026-04-16T07:44:13.029Z</time></trkpt><trkpt lat="43.8865415" lon="11.2143975"><ele>403.0</ele><time>2026-04-16T07:44:14.966Z</time></trkpt><trkpt lat="43.886589" lon="11.2143224"><ele>403.0</ele><time>2026-04-16T07:44:20.969Z</time></trkpt><trkpt lat="43.8865523" lon="11.214221"><ele>403.0</ele><time>2026-04-16T07:44:25.964Z</time></trkpt><trkpt lat="43.8864925" lon="11.2141451"><ele>403.0</ele><time>2026-04-16T07:44:35.953Z</time></trkpt><trkpt lat="43.8864127" lon="11.2140853"><ele>403.00000000000006</ele><time>2026-04-16T07:44:38.958Z</time></trkpt><trkpt lat="43.886344" lon="11.2140436"><ele>403.0</ele><time>2026-04-16T07:44:40.941Z</time></trkpt><trkpt lat="43.8862852" lon="11.213993"><ele>403.0</ele><time>2026-04-16T07:44:42.962Z</time></trkpt><trkpt lat="43.8862626" lon="11.2138752"><ele>403.0</ele><time>2026-04-16T07:44:44.964Z</time></trkpt><trkpt lat="43.8862474" lon="11.2137399"><ele>403.00000000000006</ele><time>2026-04-16T07:44:46.953Z</time></trkpt><trkpt lat="43.8861975" lon="11.2136082"><ele>403.0</ele><time>2026-04-16T07:44:48.97Z</time></trkpt><trkpt lat="43.886165" lon="11.2134649"><ele>399.59999999999997</ele><time>2026-04-16T07:44:50.96Z</time></trkpt><trkpt lat="43.8861456" lon="11.2133269"><ele>396.2</ele><time>2026-04-16T07:44:52.991Z</time></trkpt><trkpt lat="43.8861235" lon="11.2131914"><ele>392.8</ele><time>2026-04-16T07:44:54.963Z</time></trkpt><trkpt lat="43.8861187" lon="11.2130463"><ele>389.4</ele><time>2026-04-16T07:44:56.969Z</time></trkpt><trkpt lat="43.8861004" lon="11.2129148"><ele>386.0</ele><time>2026-04-16T07:44:58.961Z</time></trkpt><trkpt lat="43.8860781" lon="11.2127843"><ele>383.6</ele><time>2026-04-16T07:45:00.965Z</time></trkpt><trkpt lat="43.8860762" lon="11.2126549"><ele>381.20000000000005</ele><time>2026-04-16T07:45:02.971Z</time></trkpt><trkpt lat="43.8860733" lon="11.2125235"><ele>378.79999999999995</ele><time>2026-04-16T07:45:04.962Z</time></trkpt><trkpt lat="43.8860547" lon="11.2123768"><ele>376.4</ele><time>2026-04-16T07:45:06.956Z</time></trkpt><trkpt lat="43.8860329" lon="11.2122672"><ele>374.0</ele><time>2026-04-16T07:45:08.954Z</time></trkpt><trkpt lat="43.8860206" lon="11.212146"><ele>373.5</ele><time>2026-04-16T07:45:11.952Z</time></trkpt><trkpt lat="43.8860213" lon="11.2120389"><ele>373.0</ele><time>2026-04-16T07:45:13.953Z</time></trkpt><trkpt lat="43.8860483" lon="11.2119281"><ele>372.5</ele><time>2026-04-16T07:45:15.966Z</time></trkpt><trkpt lat="43.8860813" lon="11.2118207"><ele>372.0</ele><time>2026-04-16T07:45:17.964Z</time></trkpt><trkpt lat="43.8861412" lon="11.2117293"><ele>371.5</ele><time>2026-04-16T07:45:19.943Z</time></trkpt><trkpt lat="43.8861077" lon="11.2116051"><ele>371.0</ele><time>2026-04-16T07:45:23.03Z</time></trkpt><trkpt lat="43.886051" lon="11.2115265"><ele>371.83333333333337</ele><time>2026-04-16T07:45:24.973Z</time></trkpt><trkpt lat="43.8859879" lon="11.2114498"><ele>372.6666666666667</ele><time>2026-04-16T07:45:27.969Z</time></trkpt><trkpt lat="43.8859054" lon="11.2114195"><ele>373.5</ele><time>2026-04-16T07:45:30.972Z</time></trkpt><trkpt lat="43.8858388" lon="11.2114371"><ele>374.3333333333333</ele><time>2026-04-16T07:45:32.991Z</time></trkpt><trkpt lat="43.8857615" lon="11.2114714"><ele>375.16666666666663</ele><time>2026-04-16T07:45:34.952Z</time></trkpt><trkpt lat="43.8856915" lon="11.2115161"><ele>376.0</ele><time>2026-04-16T07:45:36.977Z</time></trkpt><trkpt lat="43.8856214" lon="11.2115624"><ele>377.66666666666663</ele><time>2026-04-16T07:45:38.97Z</time></trkpt><trkpt lat="43.885544" lon="11.2115987"><ele>379.3333333333333</ele><time>2026-04-16T07:45:40.965Z</time></trkpt><trkpt lat="43.8854476" lon="11.2116545"><ele>381.0</ele><time>2026-04-16T07:45:43.988Z</time></trkpt><trkpt lat="43.8853736" lon="11.2117002"><ele>382.66666666666663</ele><time>2026-04-16T07:45:45.957Z</time></trkpt><trkpt lat="43.8853032" lon="11.2117281"><ele>384.3333333333333</ele><time>2026-04-16T07:45:47.955Z</time></trkpt><trkpt lat="43.8852607" lon="11.2116468"><ele>386.0</ele><time>2026-04-16T07:45:50.942Z</time></trkpt><trkpt lat="43.8852512" lon="11.211513"><ele>384.0</ele><time>2026-04-16T07:45:53.956Z</time></trkpt><trkpt lat="43.8852467" lon="11.2113999"><ele>382.0</ele><time>2026-04-16T07:45:55.958Z</time></trkpt><trkpt lat="43.8852654" lon="11.211281"><ele>380.0</ele><time>2026-04-16T07:45:57.964Z</time></trkpt><trkpt lat="43.8852739" lon="11.2111433"><ele>378.0</ele><time>2026-04-16T07:45:59.968Z</time></trkpt><trkpt lat="43.8852679" lon="11.211002"><ele>376.0</ele><time>2026-04-16T07:46:01.965Z</time></trkpt><trkpt lat="43.8852744" lon="11.2108631"><ele>376.0</ele><time>2026-04-16T07:46:03.939Z</time></trkpt><trkpt lat="43.8853223" lon="11.2107221"><ele>376.0</ele><time>2026-04-16T07:46:05.945Z</time></trkpt><trkpt lat="43.8853492" lon="11.2105903"><ele>376.0</ele><time>2026-04-16T07:46:07.958Z</time></trkpt><trkpt lat="43.8853556" lon="11.2104704"><ele>376.0</ele><time>2026-04-16T07:46:09.96Z</time></trkpt><trkpt lat="43.8853597" lon="11.2103684"><ele>376.0</ele><time>2026-04-16T07:46:11.958Z</time></trkpt><trkpt lat="43.8853462" lon="11.2102387"><ele>373.16666666666663</ele><time>2026-04-16T07:46:13.945Z</time></trkpt><trkpt lat="43.8853067" lon="11.2101133"><ele>370.3333333333333</ele><time>2026-04-16T07:46:15.962Z</time></trkpt><trkpt lat="43.8852551" lon="11.2100118"><ele>367.5</ele><time>2026-04-16T07:46:17.97Z</time></trkpt><trkpt lat="43.8852254" lon="11.2099264"><ele>364.6666666666667</ele><time>2026-04-16T07:46:19.972Z</time></trkpt><trkpt lat="43.885289" lon="11.2098696"><ele>361.83333333333337</ele><time>2026-04-16T07:46:24.023Z</time></trkpt><trkpt lat="43.8853438" lon="11.2099172"><ele>359.0</ele><time>2026-04-16T07:46:24.957Z</time></trkpt><trkpt lat="43.8854334" lon="11.2099929"><ele>359.0</ele><time>2026-04-16T07:46:26.97Z</time></trkpt><trkpt lat="43.8855264" lon="11.2100974"><ele>359.0</ele><time>2026-04-16T07:46:28.966Z</time></trkpt><trkpt lat="43.8855751" lon="11.2101579"><ele>359.0</ele><time>2026-04-16T07:46:29.968Z</time></trkpt><trkpt lat="43.8856535" lon="11.2102637"><ele>359.0</ele><time>2026-04-16T07:46:31.972Z</time></trkpt><trkpt lat="43.8856986" lon="11.2103876"><ele>359.0</ele><time>2026-04-16T07:46:33.962Z</time></trkpt><trkpt lat="43.8857056" lon="11.210487"><ele>359.0</ele><time>2026-04-16T07:46:35.975Z</time></trkpt><trkpt lat="43.8857386" lon="11.2105805"><ele>359.0</ele><time>2026-04-16T07:46:39.032Z</time></trkpt><trkpt lat="43.8858092" lon="11.2105396"><ele>359.0</ele><time>2026-04-16T07:46:41.955Z</time></trkpt><trkpt lat="43.8858369" lon="11.2104522"><ele>359.0</ele><time>2026-04-16T07:46:43.963Z</time></trkpt><trkpt lat="43.8858999" lon="11.2103279"><ele>359.0</ele><time>2026-04-16T07:46:45.961Z</time></trkpt><trkpt lat="43.8859496" lon="11.2101957"><ele>359.0</ele><time>2026-04-16T07:46:47.971Z</time></trkpt><trkpt lat="43.8860223" lon="11.2100603"><ele>357.6666666666667</ele><time>2026-04-16T07:46:49.967Z</time></trkpt><trkpt lat="43.8860522" lon="11.2099824"><ele>356.33333333333337</ele><time>2026-04-16T07:46:50.969Z</time></trkpt><trkpt lat="43.8861428" lon="11.2098775"><ele>355.0</ele><time>2026-04-16T07:46:52.974Z</time></trkpt><trkpt lat="43.8862172" lon="11.2097643"><ele>353.6666666666667</ele><time>2026-04-16T07:46:54.963Z</time></trkpt><trkpt lat="43.886257" lon="11.2096931"><ele>352.3333333333333</ele><time>2026-04-16T07:46:55.977Z</time></trkpt><trkpt lat="43.8863039" lon="11.2096049"><ele>351.0</ele><time>2026-04-16T07:46:56.969Z</time></trkpt><trkpt lat="43.8863547" lon="11.2095103"><ele>348.0</ele><time>2026-04-16T07:46:58.039Z</time></trkpt><trkpt lat="43.8864207" lon="11.2094216"><ele>345.0</ele><time>2026-04-16T07:46:59.036Z</time></trkpt><trkpt lat="43.8864867" lon="11.2093282"><ele>342.0</ele><time>2026-04-16T07:47:00.029Z</time></trkpt><trkpt lat="43.8865541" lon="11.2092108"><ele>339.0</ele><time>2026-04-16T07:47:00.958Z</time></trkpt><trkpt lat="43.8866088" lon="11.2091059"><ele>336.0</ele><time>2026-04-16T07:47:01.964Z</time></trkpt><trkpt lat="43.8866617" lon="11.209008"><ele>334.5</ele><time>2026-04-16T07:47:02.965Z</time></trkpt><trkpt lat="43.886705" lon="11.2089121"><ele>333.0</ele><time>2026-04-16T07:47:03.969Z</time></trkpt><trkpt lat="43.8867555" lon="11.2088495"><ele>331.5</ele><time>2026-04-16T07:47:04.975Z</time></trkpt><trkpt lat="43.8868037" lon="11.2087761"><ele>330.0</ele><time>2026-04-16T07:47:05.953Z</time></trkpt><trkpt lat="43.8868488" lon="11.208683"><ele>328.5</ele><time>2026-04-16T07:47:06.973Z</time></trkpt><trkpt lat="43.8868843" lon="11.2085872"><ele>327.0</ele><time>2026-04-16T07:47:07.959Z</time></trkpt><trkpt lat="43.8869202" lon="11.2084831"><ele>325.1428571428571</ele><time>2026-04-16T07:47:08.967Z</time></trkpt><trkpt lat="43.8869453" lon="11.2083757"><ele>323.2857142857143</ele><time>2026-04-16T07:47:09.959Z</time></trkpt><trkpt lat="43.8869624" lon="11.2082813"><ele>321.42857142857144</ele><time>2026-04-16T07:47:10.966Z</time></trkpt><trkpt lat="43.8869822" lon="11.2081788"><ele>319.57142857142856</ele><time>2026-04-16T07:47:11.959Z</time></trkpt><trkpt lat="43.8869954" lon="11.2080694"><ele>317.7142857142857</ele><time>2026-04-16T07:47:13.032Z</time></trkpt><trkpt lat="43.8870074" lon="11.2079665"><ele>315.85714285714283</ele><time>2026-04-16T07:47:14.041Z</time></trkpt><trkpt lat="43.8870164" lon="11.2078762"><ele>314.0</ele><time>2026-04-16T07:47:14.967Z</time></trkpt><trkpt lat="43.8870276" lon="11.2077177"><ele>314.0</ele><time>2026-04-16T07:47:16.964Z</time></trkpt><trkpt lat="43.887068" lon="11.2075536"><ele>314.0</ele><time>2026-04-16T07:47:18.979Z</time></trkpt><trkpt lat="43.8870881" lon="11.207464"><ele>314.0</ele><time>2026-04-16T07:47:19.974Z</time></trkpt><trkpt lat="43.8871123" lon="11.2073811"><ele>314.0</ele><time>2026-04-16T07:47:20.967Z</time></trkpt><trkpt lat="43.8871954" lon="11.2072733"><ele>314.0</ele><time>2026-04-16T07:47:23.03Z</time></trkpt><trkpt lat="43.8872479" lon="11.2072163"><ele>314.0</ele><time>2026-04-16T07:47:24.026Z</time></trkpt><trkpt lat="43.8872975" lon="11.2071584"><ele>312.83333333333337</ele><time>2026-04-16T07:47:25.024Z</time></trkpt><trkpt lat="43.8873561" lon="11.2070464"><ele>311.6666666666667</ele><time>2026-04-16T07:47:26.964Z</time></trkpt><trkpt lat="43.887371" lon="11.2069489"><ele>310.5</ele><time>2026-04-16T07:47:29.952Z</time></trkpt><trkpt lat="43.8873753" lon="11.2068219"><ele>309.3333333333333</ele><time>2026-04-16T07:47:33.027Z</time></trkpt><trkpt lat="43.8873896" lon="11.2067056"><ele>308.16666666666663</ele><time>2026-04-16T07:47:34.956Z</time></trkpt><trkpt lat="43.8874057" lon="11.2065994"><ele>307.0</ele><time>2026-04-16T07:47:36.943Z</time></trkpt><trkpt lat="43.8874409" lon="11.2064907"><ele>306.8333333333333</ele><time>2026-04-16T07:47:39.01Z</time></trkpt><trkpt lat="43.8874915" lon="11.2063563"><ele>306.66666666666663</ele><time>2026-04-16T07:47:40.966Z</time></trkpt><trkpt lat="43.8875369" lon="11.2062269"><ele>306.5</ele><time>2026-04-16T07:47:42.948Z</time></trkpt><trkpt lat="43.8875482" lon="11.2061389"><ele>306.3333333333333</ele><time>2026-04-16T07:47:44.957Z</time></trkpt><trkpt lat="43.8875883" lon="11.2060545"><ele>306.1666666666667</ele><time>2026-04-16T07:47:49.043Z</time></trkpt><trkpt lat="43.887647" lon="11.2059495"><ele>306.0</ele><time>2026-04-16T07:47:51.957Z</time></trkpt><trkpt lat="43.8876924" lon="11.2058808"><ele>306.0</ele><time>2026-04-16T07:47:53.953Z</time></trkpt><trkpt lat="43.8877505" lon="11.2057855"><ele>306.0</ele><time>2026-04-16T07:47:56.962Z</time></trkpt><trkpt lat="43.8878056" lon="11.2057308"><ele>306.0</ele><time>2026-04-16T07:47:58.969Z</time></trkpt><trkpt lat="43.8878762" lon="11.2056744"><ele>306.0</ele><time>2026-04-16T07:48:00.959Z</time></trkpt><trkpt lat="43.8879382" lon="11.2056412"><ele>306.0</ele><time>2026-04-16T07:48:05.016Z</time></trkpt><trkpt lat="43.8878359" lon="11.2056982"><ele>306.0</ele><time>2026-04-16T07:48:25.065Z</time></trkpt><trkpt lat="43.8877811" lon="11.2057669"><ele>306.0</ele><time>2026-04-16T07:48:27.007Z</time></trkpt><trkpt lat="43.8877237" lon="11.2058766"><ele>306.0</ele><time>2026-04-16T07:48:28.991Z</time></trkpt><trkpt lat="43.8876664" lon="11.2059995"><ele>306.0</ele><time>2026-04-16T07:48:31.008Z</time></trkpt><trkpt lat="43.8875934" lon="11.2061427"><ele>306.0</ele><time>2026-04-16T07:48:33.003Z</time></trkpt><trkpt lat="43.8875523" lon="11.2063054"><ele>306.1666666666667</ele><time>2026-04-16T07:48:35.034Z</time></trkpt><trkpt lat="43.8875252" lon="11.2063857"><ele>306.3333333333333</ele><time>2026-04-16T07:48:35.953Z</time></trkpt><trkpt lat="43.8874604" lon="11.2065314"><ele>306.5</ele><time>2026-04-16T07:48:37.968Z</time></trkpt><trkpt lat="43.8874313" lon="11.2066618"><ele>306.66666666666663</ele><time>2026-04-16T07:48:39.957Z</time></trkpt><trkpt lat="43.8874235" lon="11.2067653"><ele>306.8333333333333</ele><time>2026-04-16T07:48:41.96Z</time></trkpt><trkpt lat="43.8874047" lon="11.2068614"><ele>307.0</ele><time>2026-04-16T07:48:43.957Z</time></trkpt><trkpt lat="43.8873474" lon="11.2069373"><ele>307.0</ele><time>2026-04-16T07:48:46.963Z</time></trkpt><trkpt lat="43.8872765" lon="11.2069201"><ele>307.0</ele><time>2026-04-16T07:48:52.949Z</time></trkpt><trkpt lat="43.887191" lon="11.2068911"><ele>307.0</ele><time>2026-04-16T07:53:29.97Z</time></trkpt><trkpt lat="43.8870985" lon="11.206878"><ele>307.0</ele><time>2026-04-16T07:53:32.981Z</time></trkpt><trkpt lat="43.8869942" lon="11.2068682"><ele>307.0</ele><time>2026-04-16T07:53:34.976Z</time></trkpt><trkpt lat="43.8868882" lon="11.2068463"><ele>307.0</ele><time>2026-04-16T07:53:36.971Z</time></trkpt><trkpt lat="43.8867743" lon="11.2068174"><ele>307.0</ele><time>2026-04-16T07:53:38.976Z</time></trkpt><trkpt lat="43.8867072" lon="11.2068121"><ele>307.0</ele><time>2026-04-16T07:53:39.983Z</time></trkpt><trkpt lat="43.8866079" lon="11.2068106"><ele>307.0</ele><time>2026-04-16T07:53:41.979Z</time></trkpt><trkpt lat="43.8865439" lon="11.2068221"><ele>307.0</ele><time>2026-04-16T07:53:42.986Z</time></trkpt><trkpt lat="43.8864578" lon="11.2068733"><ele>307.0</ele><time>2026-04-16T07:53:45.017Z</time></trkpt><trkpt lat="43.8863642" lon="11.2069296"><ele>306.3333333333333</ele><time>2026-04-16T07:53:46.989Z</time></trkpt><trkpt lat="43.8862583" lon="11.2069671"><ele>305.66666666666663</ele><time>2026-04-16T07:53:48.986Z</time></trkpt><trkpt lat="43.8861824" lon="11.207019"><ele>305.0</ele><time>2026-04-16T07:53:50.995Z</time></trkpt><trkpt lat="43.8861053" lon="11.2070469"><ele>304.3333333333333</ele><time>2026-04-16T07:53:53.974Z</time></trkpt><trkpt lat="43.886039" lon="11.2069816"><ele>303.6666666666667</ele><time>2026-04-16T07:54:03.974Z</time></trkpt><trkpt lat="43.8860115" lon="11.2068944"><ele>303.0</ele><time>2026-04-16T07:54:05.981Z</time></trkpt><trkpt lat="43.8859841" lon="11.2068107"><ele>303.0</ele><time>2026-04-16T07:54:06.977Z</time></trkpt><trkpt lat="43.8859534" lon="11.2066691"><ele>303.0</ele><time>2026-04-16T07:54:08.983Z</time></trkpt><trkpt lat="43.8859452" lon="11.206505"><ele>303.0</ele><time>2026-04-16T07:54:10.979Z</time></trkpt><trkpt lat="43.8859362" lon="11.206336"><ele>303.0</ele><time>2026-04-16T07:54:12.975Z</time></trkpt><trkpt lat="43.8859144" lon="11.2061684"><ele>303.3333333333333</ele><time>2026-04-16T07:54:14.983Z</time></trkpt><trkpt lat="43.8858778" lon="11.206001"><ele>303.6666666666667</ele><time>2026-04-16T07:54:16.974Z</time></trkpt><trkpt lat="43.8858523" lon="11.2059155"><ele>304.0</ele><time>2026-04-16T07:54:17.984Z</time></trkpt><trkpt lat="43.8858243" lon="11.2058283"><ele>304.33333333333337</ele><time>2026-04-16T07:54:18.994Z</time></trkpt><trkpt lat="43.8857935" lon="11.2057384"><ele>304.6666666666667</ele><time>2026-04-16T07:54:19.982Z</time></trkpt><trkpt lat="43.8857346" lon="11.2056049"><ele>305.0</ele><time>2026-04-16T07:54:21.98Z</time></trkpt><trkpt lat="43.8856476" lon="11.205569"><ele>305.0</ele><time>2026-04-16T07:54:23.983Z</time></trkpt><trkpt lat="43.8855854" lon="11.2056052"><ele>305.0</ele><time>2026-04-16T07:54:25.981Z</time></trkpt><trkpt lat="43.8855383" lon="11.2056956"><ele>305.0</ele><time>2026-04-16T07:54:27.976Z</time></trkpt><trkpt lat="43.8855284" lon="11.2057891"><ele>305.0</ele><time>2026-04-16T07:54:29.985Z</time></trkpt><trkpt lat="43.8855272" lon="11.2058926"><ele>305.0</ele><time>2026-04-16T07:54:31.984Z</time></trkpt><trkpt lat="43.8855538" lon="11.2060122"><ele>305.0</ele><time>2026-04-16T07:54:33.98Z</time></trkpt><trkpt lat="43.8856121" lon="11.2061203"><ele>305.0</ele><time>2026-04-16T07:54:35.975Z</time></trkpt><trkpt lat="43.8856291" lon="11.2062177"><ele>305.0</ele><time>2026-04-16T07:54:37.978Z</time></trkpt><trkpt lat="43.8855726" lon="11.206339"><ele>305.0</ele><time>2026-04-16T07:54:39.974Z</time></trkpt><trkpt lat="43.8855001" lon="11.2064639"><ele>305.0</ele><time>2026-04-16T07:54:41.982Z</time></trkpt><trkpt lat="43.8854314" lon="11.2065596"><ele>305.0</ele><time>2026-04-16T07:54:43.982Z</time></trkpt><trkpt lat="43.8853486" lon="11.2066442"><ele>306.0</ele><time>2026-04-16T07:54:45.977Z</time></trkpt><trkpt lat="43.885252" lon="11.2067423"><ele>307.0</ele><time>2026-04-16T07:54:47.971Z</time></trkpt><trkpt lat="43.8852018" lon="11.2068382"><ele>308.0</ele><time>2026-04-16T07:54:49.982Z</time></trkpt><trkpt lat="43.8851234" lon="11.2068974"><ele>309.0</ele><time>2026-04-16T07:54:51.98Z</time></trkpt><trkpt lat="43.8850157" lon="11.2068804"><ele>310.0</ele><time>2026-04-16T07:54:53.984Z</time></trkpt><trkpt lat="43.8848957" lon="11.2068397"><ele>311.66666666666663</ele><time>2026-04-16T07:54:55.988Z</time></trkpt><trkpt lat="43.8848237" lon="11.2067996"><ele>313.3333333333333</ele><time>2026-04-16T07:54:56.96Z</time></trkpt><trkpt lat="43.8847552" lon="11.206741"><ele>315.0</ele><time>2026-04-16T07:54:57.971Z</time></trkpt><trkpt lat="43.8846888" lon="11.2066817"><ele>316.6666666666667</ele><time>2026-04-16T07:54:58.978Z</time></trkpt><trkpt lat="43.8846166" lon="11.2066277"><ele>318.33333333333337</ele><time>2026-04-16T07:54:59.981Z</time></trkpt><trkpt lat="43.8845548" lon="11.2065752"><ele>320.0</ele><time>2026-04-16T07:55:00.982Z</time></trkpt><trkpt lat="43.8844974" lon="11.2065219"><ele>319.1666666666667</ele><time>2026-04-16T07:55:01.955Z</time></trkpt><trkpt lat="43.88443" lon="11.2064683"><ele>318.33333333333337</ele><time>2026-04-16T07:55:02.959Z</time></trkpt><trkpt lat="43.8843722" lon="11.2064128"><ele>317.5</ele><time>2026-04-16T07:55:03.985Z</time></trkpt><trkpt lat="43.8843058" lon="11.2063415"><ele>316.6666666666667</ele><time>2026-04-16T07:55:04.974Z</time></trkpt><trkpt lat="43.8842384" lon="11.2062789"><ele>315.8333333333333</ele><time>2026-04-16T07:55:05.988Z</time></trkpt><trkpt lat="43.8841728" lon="11.2062261"><ele>315.0</ele><time>2026-04-16T07:55:06.982Z</time></trkpt><trkpt lat="43.884112" lon="11.2061746"><ele>315.0</ele><time>2026-04-16T07:55:07.984Z</time></trkpt><trkpt lat="43.8840519" lon="11.2061124"><ele>315.0</ele><time>2026-04-16T07:55:08.977Z</time></trkpt><trkpt lat="43.8839949" lon="11.2060487"><ele>315.0</ele><time>2026-04-16T07:55:09.978Z</time></trkpt><trkpt lat="43.8839435" lon="11.2059743"><ele>315.0</ele><time>2026-04-16T07:55:10.985Z</time></trkpt><trkpt lat="43.8838886" lon="11.2059068"><ele>315.0</ele><time>2026-04-16T07:55:11.976Z</time></trkpt><trkpt lat="43.8838346" lon="11.2058382"><ele>315.0</ele><time>2026-04-16T07:55:12.986Z</time></trkpt><trkpt lat="43.8837721" lon="11.205772"><ele>315.0</ele><time>2026-04-16T07:55:13.977Z</time></trkpt><trkpt lat="43.8837129" lon="11.2057384"><ele>315.0</ele><time>2026-04-16T07:55:14.987Z</time></trkpt><trkpt lat="43.8836455" lon="11.2057085"><ele>315.0</ele><time>2026-04-16T07:55:15.982Z</time></trkpt><trkpt lat="43.8835751" lon="11.2057125"><ele>315.0</ele><time>2026-04-16T07:55:16.976Z</time></trkpt><trkpt lat="43.8835106" lon="11.2057305"><ele>315.0</ele><time>2026-04-16T07:55:17.975Z</time></trkpt><trkpt lat="43.8834482" lon="11.2057594"><ele>315.0</ele><time>2026-04-16T07:55:18.976Z</time></trkpt><trkpt lat="43.883357" lon="11.2058187"><ele>315.0</ele><time>2026-04-16T07:55:20.974Z</time></trkpt><trkpt lat="43.8833032" lon="11.2059131"><ele>315.4</ele><time>2026-04-16T07:55:22.985Z</time></trkpt><trkpt lat="43.8832679" lon="11.2060323"><ele>315.8</ele><time>2026-04-16T07:55:24.98Z</time></trkpt><trkpt lat="43.8831798" lon="11.206135"><ele>316.2</ele><time>2026-04-16T07:55:26.983Z</time></trkpt><trkpt lat="43.8830829" lon="11.2062313"><ele>316.6</ele><time>2026-04-16T07:55:28.969Z</time></trkpt><trkpt lat="43.8829978" lon="11.2062938"><ele>317.0</ele><time>2026-04-16T07:55:30.987Z</time></trkpt><trkpt lat="43.8829266" lon="11.2063906"><ele>318.6</ele><time>2026-04-16T07:55:32.971Z</time></trkpt><trkpt lat="43.8828585" lon="11.2065151"><ele>320.2</ele><time>2026-04-16T07:55:34.979Z</time></trkpt><trkpt lat="43.8828155" lon="11.2066294"><ele>321.8</ele><time>2026-04-16T07:55:36.986Z</time></trkpt><trkpt lat="43.8827692" lon="11.2067291"><ele>323.4</ele><time>2026-04-16T07:55:38.985Z</time></trkpt><trkpt lat="43.8826856" lon="11.2068109"><ele>325.0</ele><time>2026-04-16T07:55:40.976Z</time></trkpt><trkpt lat="43.8825963" lon="11.2069007"><ele>327.16666666666663</ele><time>2026-04-16T07:55:42.983Z</time></trkpt><trkpt lat="43.8825233" lon="11.2070011"><ele>329.3333333333333</ele><time>2026-04-16T07:55:44.979Z</time></trkpt><trkpt lat="43.8824986" lon="11.2071348"><ele>331.5</ele><time>2026-04-16T07:55:46.977Z</time></trkpt><trkpt lat="43.8824828" lon="11.2072475"><ele>333.6666666666667</ele><time>2026-04-16T07:55:48.979Z</time></trkpt><trkpt lat="43.8824331" lon="11.2073232"><ele>335.83333333333337</ele><time>2026-04-16T07:55:50.978Z</time></trkpt><trkpt lat="43.8823598" lon="11.2073049"><ele>338.0</ele><time>2026-04-16T07:55:52.983Z</time></trkpt><trkpt lat="43.8822918" lon="11.2072606"><ele>338.0</ele><time>2026-04-16T07:55:54.975Z</time></trkpt><trkpt lat="43.8822118" lon="11.2071978"><ele>338.0</ele><time>2026-04-16T07:55:56.982Z</time></trkpt><trkpt lat="43.8821159" lon="11.2071459"><ele>338.0</ele><time>2026-04-16T07:55:58.988Z</time></trkpt><trkpt lat="43.8820357" lon="11.207115"><ele>338.0</ele><time>2026-04-16T07:56:00.979Z</time></trkpt><trkpt lat="43.8819547" lon="11.2070913"><ele>338.0</ele><time>2026-04-16T07:56:03.985Z</time></trkpt><trkpt lat="43.8818909" lon="11.2070474"><ele>338.0</ele><time>2026-04-16T07:56:05.969Z</time></trkpt><trkpt lat="43.8818053" lon="11.2069986"><ele>341.83333333333337</ele><time>2026-04-16T07:56:08.972Z</time></trkpt><trkpt lat="43.8817352" lon="11.2069697"><ele>345.6666666666667</ele><time>2026-04-16T07:56:10.958Z</time></trkpt><trkpt lat="43.8816677" lon="11.2069304"><ele>349.5</ele><time>2026-04-16T07:56:12.986Z</time></trkpt><trkpt lat="43.8815775" lon="11.2069364"><ele>353.3333333333333</ele><time>2026-04-16T07:56:16.042Z</time></trkpt><trkpt lat="43.8814924" lon="11.2069085"><ele>357.16666666666663</ele><time>2026-04-16T07:56:18.958Z</time></trkpt><trkpt lat="43.8814329" lon="11.2068736"><ele>361.0</ele><time>2026-04-16T07:56:20.973Z</time></trkpt><trkpt lat="43.8813653" lon="11.2068804"><ele>361.0</ele><time>2026-04-16T07:56:22.959Z</time></trkpt><trkpt lat="43.8812928" lon="11.2068785"><ele>361.0</ele><time>2026-04-16T07:56:24.971Z</time></trkpt><trkpt lat="43.881212" lon="11.2068317"><ele>361.0</ele><time>2026-04-16T07:56:27.961Z</time></trkpt><trkpt lat="43.8811446" lon="11.2067691"><ele>361.0</ele><time>2026-04-16T07:56:29.962Z</time></trkpt><trkpt lat="43.8810801" lon="11.206714"><ele>361.0</ele><time>2026-04-16T07:56:31.969Z</time></trkpt><trkpt lat="43.8810058" lon="11.2066725"><ele>361.0</ele><time>2026-04-16T07:56:34.036Z</time></trkpt><trkpt lat="43.8809328" lon="11.2066399"><ele>361.42857142857144</ele><time>2026-04-16T07:56:36.025Z</time></trkpt><trkpt lat="43.8808634" lon="11.2066092"><ele>361.85714285714283</ele><time>2026-04-16T07:56:37.964Z</time></trkpt><trkpt lat="43.8807987" lon="11.2066055"><ele>362.2857142857143</ele><time>2026-04-16T07:56:40.972Z</time></trkpt><trkpt lat="43.8807231" lon="11.206553"><ele>362.7142857142857</ele><time>2026-04-16T07:56:43.949Z</time></trkpt><trkpt lat="43.8806602" lon="11.2065009"><ele>363.1428571428571</ele><time>2026-04-16T07:56:45.973Z</time></trkpt><trkpt lat="43.8805954" lon="11.2064468"><ele>363.57142857142856</ele><time>2026-04-16T07:56:47.969Z</time></trkpt><trkpt lat="43.8805336" lon="11.2063932"><ele>364.0</ele><time>2026-04-16T07:56:49.959Z</time></trkpt><trkpt lat="43.8804608" lon="11.2063413"><ele>364.0</ele><time>2026-04-16T07:56:51.964Z</time></trkpt><trkpt lat="43.8803974" lon="11.2062752"><ele>364.0</ele><time>2026-04-16T07:56:54.027Z</time></trkpt><trkpt lat="43.8803511" lon="11.2062104"><ele>364.0</ele><time>2026-04-16T07:56:56.031Z</time></trkpt><trkpt lat="43.8802991" lon="11.2061204"><ele>364.0</ele><time>2026-04-16T07:56:57.956Z</time></trkpt><trkpt lat="43.8802545" lon="11.2060465"><ele>364.0</ele><time>2026-04-16T07:56:59.963Z</time></trkpt><trkpt lat="43.8801996" lon="11.2059703"><ele>364.0</ele><time>2026-04-16T07:57:01.952Z</time></trkpt><trkpt lat="43.8801455" lon="11.2058601"><ele>364.0</ele><time>2026-04-16T07:57:03.957Z</time></trkpt><trkpt lat="43.8801028" lon="11.2057836"><ele>364.0</ele><time>2026-04-16T07:57:04.957Z</time></trkpt><trkpt lat="43.8800165" lon="11.205669"><ele>364.0</ele><time>2026-04-16T07:57:07.041Z</time></trkpt><trkpt lat="43.8799269" lon="11.2055781"><ele>364.0</ele><time>2026-04-16T07:57:08.965Z</time></trkpt><trkpt lat="43.879856" lon="11.2054689"><ele>364.0</ele><time>2026-04-16T07:57:10.953Z</time></trkpt><trkpt lat="43.8797736" lon="11.205368"><ele>365.3333333333333</ele><time>2026-04-16T07:57:12.973Z</time></trkpt><trkpt lat="43.8797037" lon="11.2052661"><ele>366.66666666666663</ele><time>2026-04-16T07:57:15.034Z</time></trkpt><trkpt lat="43.8796429" lon="11.2051611"><ele>368.0</ele><time>2026-04-16T07:57:16.969Z</time></trkpt><trkpt lat="43.8796005" lon="11.2050643"><ele>369.3333333333333</ele><time>2026-04-16T07:57:18.955Z</time></trkpt><trkpt lat="43.8795698" lon="11.2049816"><ele>370.6666666666667</ele><time>2026-04-16T07:57:20.97Z</time></trkpt><trkpt lat="43.8795298" lon="11.2048753"><ele>372.0</ele><time>2026-04-16T07:57:23.959Z</time></trkpt><trkpt lat="43.8794825" lon="11.2048009"><ele>369.7142857142857</ele><time>2026-04-16T07:57:26.031Z</time></trkpt><trkpt lat="43.8794377" lon="11.2047298"><ele>367.42857142857144</ele><time>2026-04-16T07:57:27.982Z</time></trkpt><trkpt lat="43.8793949" lon="11.2046506"><ele>365.1428571428571</ele><time>2026-04-16T07:57:29.969Z</time></trkpt><trkpt lat="43.8793472" lon="11.2045805"><ele>362.8571428571429</ele><time>2026-04-16T07:57:31.977Z</time></trkpt><trkpt lat="43.8792898" lon="11.2045314"><ele>360.57142857142856</ele><time>2026-04-16T07:57:33.967Z</time></trkpt><trkpt lat="43.8792073" lon="11.2044966"><ele>358.2857142857143</ele><time>2026-04-16T07:57:37.034Z</time></trkpt><trkpt lat="43.8791448" lon="11.2044464"><ele>356.0</ele><time>2026-04-16T07:57:38.946Z</time></trkpt><trkpt lat="43.8790764" lon="11.2044141"><ele>361.33333333333337</ele><time>2026-04-16T07:57:40.97Z</time></trkpt><trkpt lat="43.879007" lon="11.2043832"><ele>366.6666666666667</ele><time>2026-04-16T07:57:42.965Z</time></trkpt><trkpt lat="43.8789419" lon="11.2043669"><ele>372.0</ele><time>2026-04-16T07:57:44.964Z</time></trkpt><trkpt lat="43.8788625" lon="11.2043672"><ele>377.33333333333337</ele><time>2026-04-16T07:57:47.981Z</time></trkpt><trkpt lat="43.8787914" lon="11.2043876"><ele>382.6666666666667</ele><time>2026-04-16T07:57:49.96Z</time></trkpt><trkpt lat="43.8787082" lon="11.2043827"><ele>388.0</ele><time>2026-04-16T07:57:51.968Z</time></trkpt><trkpt lat="43.8786278" lon="11.2043434"><ele>388.00000000000006</ele><time>2026-04-16T07:57:53.971Z</time></trkpt><trkpt lat="43.8785413" lon="11.2043022"><ele>388.0</ele><time>2026-04-16T07:57:55.97Z</time></trkpt><trkpt lat="43.8784214" lon="11.2042754"><ele>388.0</ele><time>2026-04-16T07:57:57.969Z</time></trkpt><trkpt lat="43.8783224" lon="11.2043033"><ele>388.0</ele><time>2026-04-16T07:57:59.962Z</time></trkpt><trkpt lat="43.8782636" lon="11.2043377"><ele>388.00000000000006</ele><time>2026-04-16T07:58:01.959Z</time></trkpt><trkpt lat="43.8782054" lon="11.2043858"><ele>388.0</ele><time>2026-04-16T07:58:03.964Z</time></trkpt><trkpt lat="43.8781358" lon="11.2044116"><ele>390.00000000000006</ele><time>2026-04-16T07:58:06.006Z</time></trkpt><trkpt lat="43.8780472" lon="11.204427"><ele>392.0</ele><time>2026-04-16T07:58:07.961Z</time></trkpt><trkpt lat="43.8779604" lon="11.2044269"><ele>394.0</ele><time>2026-04-16T07:58:09.967Z</time></trkpt><trkpt lat="43.8778777" lon="11.2044082"><ele>396.0</ele><time>2026-04-16T07:58:11.975Z</time></trkpt><trkpt lat="43.8778022" lon="11.2044102"><ele>398.00000000000006</ele><time>2026-04-16T07:58:13.968Z</time></trkpt><trkpt lat="43.877727" lon="11.2044404"><ele>400.0</ele><time>2026-04-16T07:58:15.966Z</time></trkpt><trkpt lat="43.8776556" lon="11.2044663"><ele>398.42857142857144</ele><time>2026-04-16T07:58:17.949Z</time></trkpt><trkpt lat="43.8775839" lon="11.2045021"><ele>396.8571428571429</ele><time>2026-04-16T07:58:19.96Z</time></trkpt><trkpt lat="43.8775226" lon="11.2045297"><ele>395.28571428571433</ele><time>2026-04-16T07:58:21.956Z</time></trkpt><trkpt lat="43.8774589" lon="11.2045701"><ele>393.7142857142857</ele><time>2026-04-16T07:58:23.955Z</time></trkpt><trkpt lat="43.8774042" lon="11.2046134"><ele>392.1428571428571</ele><time>2026-04-16T07:58:25.946Z</time></trkpt><trkpt lat="43.8773303" lon="11.2046698"><ele>390.5714285714286</ele><time>2026-04-16T07:58:28.972Z</time></trkpt><trkpt lat="43.8772525" lon="11.2046801"><ele>389.0</ele><time>2026-04-16T07:58:33.94Z</time></trkpt><trkpt lat="43.8771928" lon="11.2047082"><ele>389.0</ele><time>2026-04-16T07:58:37.964Z</time></trkpt><trkpt lat="43.8771299" lon="11.2046941"><ele>389.0</ele><time>2026-04-16T07:58:56.959Z</time></trkpt><trkpt lat="43.8770703" lon="11.204744"><ele>389.0</ele><time>2026-04-16T07:59:00.964Z</time></trkpt><trkpt lat="43.8770269" lon="11.2048158"><ele>389.0</ele><time>2026-04-16T07:59:03.957Z</time></trkpt><trkpt lat="43.8769641" lon="11.2048588"><ele>389.0</ele><time>2026-04-16T07:59:06.951Z</time></trkpt><trkpt lat="43.8769002" lon="11.2048276"><ele>389.0</ele><time>2026-04-16T07:59:11.959Z</time></trkpt><trkpt lat="43.8769242" lon="11.2047305"><ele>389.0</ele><time>2026-04-16T07:59:16.956Z</time></trkpt><trkpt lat="43.8769748" lon="11.2046248"><ele>389.0</ele><time>2026-04-16T07:59:19.959Z</time></trkpt><trkpt lat="43.8770176" lon="11.2045325"><ele>389.0</ele><time>2026-04-16T07:59:22.028Z</time></trkpt><trkpt lat="43.8770766" lon="11.2044263"><ele>389.0</ele><time>2026-04-16T07:59:23.96Z</time></trkpt><trkpt lat="43.8771217" lon="11.2043201"><ele>389.0</ele><time>2026-04-16T07:59:25.963Z</time></trkpt><trkpt lat="43.8771587" lon="11.2042056"><ele>389.0</ele><time>2026-04-16T07:59:27.964Z</time></trkpt><trkpt lat="43.8771993" lon="11.2040847"><ele>389.99999999999994</ele><time>2026-04-16T07:59:29.96Z</time></trkpt><trkpt lat="43.8772033" lon="11.2039623"><ele>391.0</ele><time>2026-04-16T07:59:31.958Z</time></trkpt><trkpt lat="43.8771836" lon="11.2038649"><ele>392.0</ele><time>2026-04-16T07:59:33.953Z</time></trkpt><trkpt lat="43.8771578" lon="11.2037787"><ele>393.0</ele><time>2026-04-16T07:59:35.959Z</time></trkpt><trkpt lat="43.8771112" lon="11.2036402"><ele>393.99999999999994</ele><time>2026-04-16T07:59:37.949Z</time></trkpt><trkpt lat="43.8770742" lon="11.2035673"><ele>395.0</ele><time>2026-04-16T07:59:38.964Z</time></trkpt><trkpt lat="43.8770355" lon="11.2034972"><ele>395.0</ele><time>2026-04-16T07:59:40.016Z</time></trkpt><trkpt lat="43.8769613" lon="11.20337"><ele>395.0</ele><time>2026-04-16T07:59:41.94Z</time></trkpt><trkpt lat="43.8768915" lon="11.2032384"><ele>395.0</ele><time>2026-04-16T07:59:43.946Z</time></trkpt><trkpt lat="43.8768553" lon="11.2031667"><ele>395.0</ele><time>2026-04-16T07:59:44.958Z</time></trkpt><trkpt lat="43.8767879" lon="11.2030153"><ele>395.0</ele><time>2026-04-16T07:59:46.958Z</time></trkpt><trkpt lat="43.876727" lon="11.2028805"><ele>390.8</ele><time>2026-04-16T07:59:49.058Z</time></trkpt><trkpt lat="43.8766644" lon="11.202751"><ele>386.6</ele><time>2026-04-16T07:59:51.028Z</time></trkpt><trkpt lat="43.8766015" lon="11.202606"><ele>382.4</ele><time>2026-04-16T07:59:52.987Z</time></trkpt><trkpt lat="43.8765638" lon="11.2025312"><ele>378.2</ele><time>2026-04-16T07:59:53.96Z</time></trkpt><trkpt lat="43.8765025" lon="11.2023862"><ele>374.0</ele><time>2026-04-16T07:59:55.968Z</time></trkpt><trkpt lat="43.8764583" lon="11.2022457"><ele>374.0</ele><time>2026-04-16T07:59:57.967Z</time></trkpt><trkpt lat="43.8763983" lon="11.2021007"><ele>374.0</ele><time>2026-04-16T07:59:59.972Z</time></trkpt><trkpt lat="43.8763435" lon="11.2019481"><ele>374.0</ele><time>2026-04-16T08:00:01.97Z</time></trkpt><trkpt lat="43.8763036" lon="11.2018011"><ele>374.0</ele><time>2026-04-16T08:00:03.968Z</time></trkpt><trkpt lat="43.8762427" lon="11.2016734"><ele>374.0</ele><time>2026-04-16T08:00:05.967Z</time></trkpt><trkpt lat="43.8761693" lon="11.2015536"><ele>374.0</ele><time>2026-04-16T08:00:07.952Z</time></trkpt><trkpt lat="43.8760849" lon="11.2014674"><ele>374.0</ele><time>2026-04-16T08:00:09.965Z</time></trkpt><trkpt lat="43.8760045" lon="11.2013806"><ele>374.0</ele><time>2026-04-16T08:00:12.006Z</time></trkpt><trkpt lat="43.8759209" lon="11.2013229"><ele>374.0</ele><time>2026-04-16T08:00:13.964Z</time></trkpt><trkpt lat="43.8758298" lon="11.2012532"><ele>370.6</ele><time>2026-04-16T08:00:15.959Z</time></trkpt><trkpt lat="43.8757245" lon="11.2011864"><ele>367.2</ele><time>2026-04-16T08:00:17.965Z</time></trkpt><trkpt lat="43.8756303" lon="11.2011304"><ele>363.8</ele><time>2026-04-16T08:00:19.975Z</time></trkpt><trkpt lat="43.8755333" lon="11.2010553"><ele>360.40000000000003</ele><time>2026-04-16T08:00:21.966Z</time></trkpt><trkpt lat="43.8754478" lon="11.2009943"><ele>357.0</ele><time>2026-04-16T08:00:23.948Z</time></trkpt><trkpt lat="43.8753857" lon="11.2009472"><ele>357.0</ele><time>2026-04-16T08:00:25.967Z</time></trkpt><trkpt lat="43.8753125" lon="11.2008451"><ele>357.0</ele><time>2026-04-16T08:00:27.971Z</time></trkpt><trkpt lat="43.8752225" lon="11.2007294"><ele>357.0</ele><time>2026-04-16T08:00:29.957Z</time></trkpt><trkpt lat="43.8751695" lon="11.2006416"><ele>357.0</ele><time>2026-04-16T08:00:31.968Z</time></trkpt><trkpt lat="43.8751395" lon="11.200559"><ele>357.0</ele><time>2026-04-16T08:00:33.955Z</time></trkpt><trkpt lat="43.8750826" lon="11.2004595"><ele>355.2857142857143</ele><time>2026-04-16T08:00:36.05Z</time></trkpt><trkpt lat="43.8750211" lon="11.2003988"><ele>353.57142857142856</ele><time>2026-04-16T08:00:37.063Z</time></trkpt><trkpt lat="43.8749596" lon="11.2003437"><ele>351.8571428571429</ele><time>2026-04-16T08:00:37.964Z</time></trkpt><trkpt lat="43.8749079" lon="11.2002888"><ele>350.1428571428571</ele><time>2026-04-16T08:00:38.967Z</time></trkpt><trkpt lat="43.8748424" lon="11.2002371"><ele>348.42857142857144</ele><time>2026-04-16T08:00:39.973Z</time></trkpt><trkpt lat="43.8747864" lon="11.2001866"><ele>346.7142857142857</ele><time>2026-04-16T08:00:40.959Z</time></trkpt><trkpt lat="43.874731" lon="11.200137"><ele>345.0</ele><time>2026-04-16T08:00:41.969Z</time></trkpt><trkpt lat="43.874671" lon="11.2000893"><ele>345.0</ele><time>2026-04-16T08:00:42.958Z</time></trkpt><trkpt lat="43.8746111" lon="11.2000401"><ele>345.0</ele><time>2026-04-16T08:00:43.961Z</time></trkpt><trkpt lat="43.8745508" lon="11.1999857"><ele>345.0</ele><time>2026-04-16T08:00:44.953Z</time></trkpt><trkpt lat="43.8744856" lon="11.1999356"><ele>345.0</ele><time>2026-04-16T08:00:46.032Z</time></trkpt><trkpt lat="43.874423" lon="11.1998743"><ele>345.0</ele><time>2026-04-16T08:00:47.049Z</time></trkpt><trkpt lat="43.8743609" lon="11.1998121"><ele>345.0</ele><time>2026-04-16T08:00:47.967Z</time></trkpt><trkpt lat="43.8743009" lon="11.199751"><ele>345.0</ele><time>2026-04-16T08:00:48.973Z</time></trkpt><trkpt lat="43.8742429" lon="11.1996681"><ele>343.0</ele><time>2026-04-16T08:00:49.97Z</time></trkpt><trkpt lat="43.8741759" lon="11.1995576"><ele>341.0</ele><time>2026-04-16T08:00:50.96Z</time></trkpt><trkpt lat="43.8741214" lon="11.1994569"><ele>339.0</ele><time>2026-04-16T08:00:51.968Z</time></trkpt><trkpt lat="43.8740706" lon="11.1993714"><ele>337.0</ele><time>2026-04-16T08:00:52.97Z</time></trkpt><trkpt lat="43.8740151" lon="11.1993042"><ele>335.0</ele><time>2026-04-16T08:00:53.947Z</time></trkpt><trkpt lat="43.8739547" lon="11.1992306"><ele>333.0</ele><time>2026-04-16T08:00:54.966Z</time></trkpt><trkpt lat="43.8738927" lon="11.1991712"><ele>333.0</ele><time>2026-04-16T08:00:55.965Z</time></trkpt><trkpt lat="43.8738293" lon="11.199112"><ele>333.0</ele><time>2026-04-16T08:00:56.957Z</time></trkpt><trkpt lat="43.8737641" lon="11.1990471"><ele>333.0</ele><time>2026-04-16T08:00:57.963Z</time></trkpt><trkpt lat="43.8737024" lon="11.1989856"><ele>333.0</ele><time>2026-04-16T08:00:58.967Z</time></trkpt><trkpt lat="43.8736408" lon="11.1989253"><ele>333.0</ele><time>2026-04-16T08:00:59.968Z</time></trkpt><trkpt lat="43.8735813" lon="11.1988582"><ele>333.0</ele><time>2026-04-16T08:01:00.968Z</time></trkpt><trkpt lat="43.8735218" lon="11.1987942"><ele>331.3333333333333</ele><time>2026-04-16T08:01:01.952Z</time></trkpt><trkpt lat="43.87346" lon="11.1987292"><ele>329.6666666666667</ele><time>2026-04-16T08:01:02.969Z</time></trkpt><trkpt lat="43.8733906" lon="11.1986629"><ele>328.0</ele><time>2026-04-16T08:01:03.974Z</time></trkpt><trkpt lat="43.8733312" lon="11.1985928"><ele>326.33333333333337</ele><time>2026-04-16T08:01:04.964Z</time></trkpt><trkpt lat="43.8732746" lon="11.1985211"><ele>324.6666666666667</ele><time>2026-04-16T08:01:05.976Z</time></trkpt><trkpt lat="43.8732225" lon="11.198451"><ele>323.0</ele><time>2026-04-16T08:01:06.96Z</time></trkpt><trkpt lat="43.8731706" lon="11.1983811"><ele>323.00000000000006</ele><time>2026-04-16T08:01:07.97Z</time></trkpt><trkpt lat="43.8731214" lon="11.1983023"><ele>323.0</ele><time>2026-04-16T08:01:08.969Z</time></trkpt><trkpt lat="43.8730794" lon="11.1982257"><ele>323.0</ele><time>2026-04-16T08:01:10.014Z</time></trkpt><trkpt lat="43.8730272" lon="11.1981488"><ele>323.0</ele><time>2026-04-16T08:01:11.031Z</time></trkpt><trkpt lat="43.8729652" lon="11.1980817"><ele>323.0</ele><time>2026-04-16T08:01:12.03Z</time></trkpt><trkpt lat="43.8729087" lon="11.1980158"><ele>323.00000000000006</ele><time>2026-04-16T08:01:12.959Z</time></trkpt><trkpt lat="43.8728527" lon="11.1979503"><ele>323.0</ele><time>2026-04-16T08:01:13.967Z</time></trkpt><trkpt lat="43.8727979" lon="11.1978783"><ele>320.79999999999995</ele><time>2026-04-16T08:01:14.957Z</time></trkpt><trkpt lat="43.8727484" lon="11.197808"><ele>318.59999999999997</ele><time>2026-04-16T08:01:15.96Z</time></trkpt><trkpt lat="43.8726542" lon="11.1976898"><ele>316.4</ele><time>2026-04-16T08:01:17.972Z</time></trkpt><trkpt lat="43.8725702" lon="11.1975896"><ele>314.2</ele><time>2026-04-16T08:01:20.033Z</time></trkpt><trkpt lat="43.8724806" lon="11.1974829"><ele>312.0</ele><time>2026-04-16T08:01:22.037Z</time></trkpt><trkpt lat="43.8724266" lon="11.1974233"><ele>312.0</ele><time>2026-04-16T08:01:22.962Z</time></trkpt><trkpt lat="43.8723733" lon="11.1973522"><ele>312.0</ele><time>2026-04-16T08:01:23.959Z</time></trkpt><trkpt lat="43.8723276" lon="11.1972802"><ele>312.0</ele><time>2026-04-16T08:01:24.96Z</time></trkpt><trkpt lat="43.8722842" lon="11.1971946"><ele>312.0</ele><time>2026-04-16T08:01:25.961Z</time></trkpt><trkpt lat="43.8722327" lon="11.1971057"><ele>312.0</ele><time>2026-04-16T08:01:26.971Z</time></trkpt><trkpt lat="43.8721881" lon="11.1970262"><ele>312.0</ele><time>2026-04-16T08:01:27.966Z</time></trkpt><trkpt lat="43.8721343" lon="11.1969607"><ele>312.0</ele><time>2026-04-16T08:01:28.967Z</time></trkpt><trkpt lat="43.8720857" lon="11.1968811"><ele>312.14285714285717</ele><time>2026-04-16T08:01:29.958Z</time></trkpt><trkpt lat="43.8720306" lon="11.1968083"><ele>312.2857142857143</ele><time>2026-04-16T08:01:30.97Z</time></trkpt><trkpt lat="43.8719674" lon="11.1967354"><ele>312.42857142857144</ele><time>2026-04-16T08:01:31.967Z</time></trkpt><trkpt lat="43.8719149" lon="11.1966618"><ele>312.57142857142856</ele><time>2026-04-16T08:01:32.955Z</time></trkpt><trkpt lat="43.8718628" lon="11.1965984"><ele>312.7142857142857</ele><time>2026-04-16T08:01:33.973Z</time></trkpt><trkpt lat="43.8718134" lon="11.1965282"><ele>312.85714285714283</ele><time>2026-04-16T08:01:34.963Z</time></trkpt><trkpt lat="43.8717623" lon="11.1964631"><ele>313.0</ele><time>2026-04-16T08:01:35.965Z</time></trkpt><trkpt lat="43.8717085" lon="11.1964011"><ele>313.0</ele><time>2026-04-16T08:01:37.013Z</time></trkpt><trkpt lat="43.8716519" lon="11.1963444"><ele>313.0</ele><time>2026-04-16T08:01:37.968Z</time></trkpt><trkpt lat="43.8715987" lon="11.1962904"><ele>313.0</ele><time>2026-04-16T08:01:38.972Z</time></trkpt><trkpt lat="43.8715475" lon="11.1962308"><ele>313.0</ele><time>2026-04-16T08:01:39.973Z</time></trkpt><trkpt lat="43.8714497" lon="11.1961194"><ele>313.0</ele><time>2026-04-16T08:01:41.964Z</time></trkpt><trkpt lat="43.8713903" lon="11.1960567"><ele>313.0</ele><time>2026-04-16T08:01:42.957Z</time></trkpt><trkpt lat="43.8713371" lon="11.195994"><ele>313.0</ele><time>2026-04-16T08:01:43.97Z</time></trkpt><trkpt lat="43.8712868" lon="11.1959254"><ele>313.0</ele><time>2026-04-16T08:01:44.96Z</time></trkpt><trkpt lat="43.8712357" lon="11.1958495"><ele>313.0</ele><time>2026-04-16T08:01:45.969Z</time></trkpt><trkpt lat="43.8711811" lon="11.1957854"><ele>313.0</ele><time>2026-04-16T08:01:47.027Z</time></trkpt><trkpt lat="43.8711319" lon="11.1957218"><ele>313.0</ele><time>2026-04-16T08:01:47.956Z</time></trkpt><trkpt lat="43.8710892" lon="11.1956538"><ele>313.0</ele><time>2026-04-16T08:01:48.963Z</time></trkpt><trkpt lat="43.8710418" lon="11.1955787"><ele>313.0</ele><time>2026-04-16T08:01:49.97Z</time></trkpt><trkpt lat="43.8709917" lon="11.1955087"><ele>309.16666666666663</ele><time>2026-04-16T08:01:50.966Z</time></trkpt><trkpt lat="43.8709122" lon="11.1953705"><ele>305.3333333333333</ele><time>2026-04-16T08:01:52.97Z</time></trkpt><trkpt lat="43.8708723" lon="11.1952975"><ele>301.5</ele><time>2026-04-16T08:01:54.034Z</time></trkpt><trkpt lat="43.870841" lon="11.1952073"><ele>297.6666666666667</ele><time>2026-04-16T08:01:55.026Z</time></trkpt><trkpt lat="43.8708068" lon="11.1951107"><ele>293.83333333333337</ele><time>2026-04-16T08:01:56.014Z</time></trkpt><trkpt lat="43.8707932" lon="11.1950112"><ele>290.0</ele><time>2026-04-16T08:01:56.975Z</time></trkpt><trkpt lat="43.8707841" lon="11.1949099"><ele>289.5</ele><time>2026-04-16T08:01:57.962Z</time></trkpt><trkpt lat="43.8707881" lon="11.1947949"><ele>289.0</ele><time>2026-04-16T08:01:58.961Z</time></trkpt><trkpt lat="43.8707948" lon="11.1946897"><ele>288.5</ele><time>2026-04-16T08:01:59.98Z</time></trkpt><trkpt lat="43.8708152" lon="11.1945455"><ele>288.0</ele><time>2026-04-16T08:02:02.023Z</time></trkpt><trkpt lat="43.870792" lon="11.1944519"><ele>287.5</ele><time>2026-04-16T08:02:03.961Z</time></trkpt><trkpt lat="43.8707911" lon="11.1943556"><ele>287.0</ele><time>2026-04-16T08:02:07.966Z</time></trkpt><trkpt lat="43.8708603" lon="11.1943351"><ele>291.1666666666667</ele><time>2026-04-16T08:02:11.955Z</time></trkpt><trkpt lat="43.8709418" lon="11.1943375"><ele>295.33333333333337</ele><time>2026-04-16T08:02:15.983Z</time></trkpt><trkpt lat="43.8710145" lon="11.1942765"><ele>299.5</ele><time>2026-04-16T08:02:19.955Z</time></trkpt><trkpt lat="43.8710423" lon="11.1941719"><ele>303.6666666666667</ele><time>2026-04-16T08:02:23.973Z</time></trkpt><trkpt lat="43.8710558" lon="11.1940796"><ele>307.8333333333333</ele><time>2026-04-16T08:02:25.955Z</time></trkpt><trkpt lat="43.8710764" lon="11.1939552"><ele>312.0</ele><time>2026-04-16T08:02:27.955Z</time></trkpt><trkpt lat="43.8710685" lon="11.1938388"><ele>312.0</ele><time>2026-04-16T08:02:29.965Z</time></trkpt><trkpt lat="43.8710728" lon="11.1937124"><ele>312.0</ele><time>2026-04-16T08:02:31.968Z</time></trkpt><trkpt lat="43.871079" lon="11.1936048"><ele>312.0</ele><time>2026-04-16T08:02:33.968Z</time></trkpt><trkpt lat="43.8710635" lon="11.1935147"><ele>312.0</ele><time>2026-04-16T08:02:36.065Z</time></trkpt><trkpt lat="43.871038" lon="11.1934056"><ele>312.0</ele><time>2026-04-16T08:02:37.965Z</time></trkpt><trkpt lat="43.8710204" lon="11.1932878"><ele>312.0</ele><time>2026-04-16T08:02:40.956Z</time></trkpt><trkpt lat="43.8710214" lon="11.1931683"><ele>311.1666666666667</ele><time>2026-04-16T08:02:44.962Z</time></trkpt><trkpt lat="43.871054" lon="11.1930526"><ele>310.3333333333333</ele><time>2026-04-16T08:02:47.97Z</time></trkpt><trkpt lat="43.8710903" lon="11.1929503"><ele>309.5</ele><time>2026-04-16T08:02:49.972Z</time></trkpt><trkpt lat="43.8711379" lon="11.192854"><ele>308.66666666666663</ele><time>2026-04-16T08:02:51.969Z</time></trkpt><trkpt lat="43.8711737" lon="11.1927684"><ele>307.8333333333333</ele><time>2026-04-16T08:02:53.97Z</time></trkpt><trkpt lat="43.8712273" lon="11.1926861"><ele>307.0</ele><time>2026-04-16T08:02:56.021Z</time></trkpt><trkpt lat="43.8712728" lon="11.1925975"><ele>306.99999999999994</ele><time>2026-04-16T08:02:57.963Z</time></trkpt><trkpt lat="43.8713306" lon="11.1925173"><ele>307.0</ele><time>2026-04-16T08:02:59.954Z</time></trkpt><trkpt lat="43.8713919" lon="11.1924608"><ele>307.0</ele><time>2026-04-16T08:03:01.958Z</time></trkpt><trkpt lat="43.8714498" lon="11.1924036"><ele>307.0</ele><time>2026-04-16T08:03:03.962Z</time></trkpt><trkpt lat="43.8715035" lon="11.1923441"><ele>307.0</ele><time>2026-04-16T08:03:05.963Z</time></trkpt><trkpt lat="43.871556" lon="11.1922915"><ele>306.99999999999994</ele><time>2026-04-16T08:03:07.956Z</time></trkpt><trkpt lat="43.8716246" lon="11.1922322"><ele>307.0</ele><time>2026-04-16T08:03:09.957Z</time></trkpt><trkpt lat="43.8717024" lon="11.192142"><ele>308.3333333333333</ele><time>2026-04-16T08:03:11.951Z</time></trkpt><trkpt lat="43.8717603" lon="11.1920662"><ele>309.66666666666663</ele><time>2026-04-16T08:03:13.953Z</time></trkpt><trkpt lat="43.8718024" lon="11.1919748"><ele>311.0</ele><time>2026-04-16T08:03:15.954Z</time></trkpt><trkpt lat="43.8718383" lon="11.1918889"><ele>312.3333333333333</ele><time>2026-04-16T08:03:17.95Z</time></trkpt><trkpt lat="43.8718856" lon="11.1918054"><ele>313.6666666666667</ele><time>2026-04-16T08:03:19.953Z</time></trkpt><trkpt lat="43.8719325" lon="11.1917022"><ele>315.0</ele><time>2026-04-16T08:03:21.941Z</time></trkpt><trkpt lat="43.8719832" lon="11.1916069"><ele>315.0</ele><time>2026-04-16T08:03:23.963Z</time></trkpt><trkpt lat="43.8720304" lon="11.1915284"><ele>315.0</ele><time>2026-04-16T08:03:27.046Z</time></trkpt><trkpt lat="43.8720672" lon="11.1914352"><ele>315.0</ele><time>2026-04-16T08:03:47.963Z</time></trkpt><trkpt lat="43.8721325" lon="11.1913412"><ele>315.0</ele><time>2026-04-16T08:04:14.971Z</time></trkpt><trkpt lat="43.8721472" lon="11.191251"><ele>315.0</ele><time>2026-04-16T08:04:23.952Z</time></trkpt><trkpt lat="43.872188" lon="11.1911325"><ele>315.0</ele><time>2026-04-16T08:08:30.963Z</time></trkpt><trkpt lat="43.8722178" lon="11.1910445"><ele>313.14285714285717</ele><time>2026-04-16T08:08:34.954Z</time></trkpt><trkpt lat="43.8722431" lon="11.1909367"><ele>311.2857142857143</ele><time>2026-04-16T08:08:37.969Z</time></trkpt><trkpt lat="43.8722852" lon="11.190856"><ele>309.42857142857144</ele><time>2026-04-16T08:08:40.958Z</time></trkpt><trkpt lat="43.8723527" lon="11.1908021"><ele>307.57142857142856</ele><time>2026-04-16T08:08:44.953Z</time></trkpt><trkpt lat="43.8724243" lon="11.1907575"><ele>305.7142857142857</ele><time>2026-04-16T08:08:49.958Z</time></trkpt><trkpt lat="43.872484" lon="11.1907081"><ele>303.8571428571429</ele><time>2026-04-16T08:08:53.961Z</time></trkpt><trkpt lat="43.8725402" lon="11.1906536"><ele>302.0</ele><time>2026-04-16T08:08:58.967Z</time></trkpt><trkpt lat="43.8725918" lon="11.1906006"><ele>299.2</ele><time>2026-04-16T08:09:02.97Z</time></trkpt><trkpt lat="43.8726466" lon="11.1905255"><ele>296.4</ele><time>2026-04-16T08:09:06.977Z</time></trkpt><trkpt lat="43.8726971" lon="11.1904487"><ele>293.6</ele><time>2026-04-16T08:09:09.958Z</time></trkpt><trkpt lat="43.8727507" lon="11.1903604"><ele>290.8</ele><time>2026-04-16T08:09:12.958Z</time></trkpt><trkpt lat="43.8727867" lon="11.1902612"><ele>288.0</ele><time>2026-04-16T08:09:15.959Z</time></trkpt><trkpt lat="43.8728893" lon="11.1901311"><ele>288.0</ele><time>2026-04-16T08:09:17.946Z</time></trkpt><trkpt lat="43.8729668" lon="11.1900629"><ele>288.0</ele><time>2026-04-16T08:09:18.975Z</time></trkpt><trkpt lat="43.8730343" lon="11.189996"><ele>288.0</ele><time>2026-04-16T08:09:19.969Z</time></trkpt><trkpt lat="43.8731266" lon="11.1898689"><ele>288.0</ele><time>2026-04-16T08:09:21.961Z</time></trkpt><trkpt lat="43.8732035" lon="11.1897692"><ele>288.0</ele><time>2026-04-16T08:09:23.971Z</time></trkpt><trkpt lat="43.8732759" lon="11.1896965"><ele>288.1666666666667</ele><time>2026-04-16T08:09:25.957Z</time></trkpt><trkpt lat="43.8733482" lon="11.1896339"><ele>288.3333333333333</ele><time>2026-04-16T08:09:27.966Z</time></trkpt><trkpt lat="43.8734181" lon="11.1895849"><ele>288.5</ele><time>2026-04-16T08:09:29.962Z</time></trkpt><trkpt lat="43.8734823" lon="11.1895146"><ele>288.66666666666663</ele><time>2026-04-16T08:09:31.952Z</time></trkpt><trkpt lat="43.8735717" lon="11.1894249"><ele>288.8333333333333</ele><time>2026-04-16T08:09:33.963Z</time></trkpt><trkpt lat="43.8736338" lon="11.18934"><ele>289.0</ele><time>2026-04-16T08:09:35.967Z</time></trkpt><trkpt lat="43.8736876" lon="11.1892406"><ele>288.3333333333333</ele><time>2026-04-16T08:09:38.942Z</time></trkpt><trkpt lat="43.8737575" lon="11.1891657"><ele>287.66666666666663</ele><time>2026-04-16T08:09:41.958Z</time></trkpt><trkpt lat="43.8738384" lon="11.1891377"><ele>287.0</ele><time>2026-04-16T08:09:43.956Z</time></trkpt><trkpt lat="43.8739067" lon="11.189095"><ele>286.3333333333333</ele><time>2026-04-16T08:09:45.971Z</time></trkpt><trkpt lat="43.8739561" lon="11.1890315"><ele>285.6666666666667</ele><time>2026-04-16T08:09:47.962Z</time></trkpt><trkpt lat="43.87401" lon="11.1889854"><ele>285.0</ele><time>2026-04-16T08:09:49.95Z</time></trkpt><trkpt lat="43.8740852" lon="11.1889226"><ele>284.2857142857143</ele><time>2026-04-16T08:09:52.978Z</time></trkpt><trkpt lat="43.8741366" lon="11.1888519"><ele>283.57142857142856</ele><time>2026-04-16T08:09:55.963Z</time></trkpt><trkpt lat="43.8741472" lon="11.1887547"><ele>282.8571428571429</ele><time>2026-04-16T08:09:59.958Z</time></trkpt><trkpt lat="43.8741475" lon="11.1886596"><ele>282.1428571428571</ele><time>2026-04-16T08:10:02.947Z</time></trkpt><trkpt lat="43.8741279" lon="11.1885617"><ele>281.42857142857144</ele><time>2026-04-16T08:10:05.962Z</time></trkpt><trkpt lat="43.8740977" lon="11.1884631"><ele>280.7142857142857</ele><time>2026-04-16T08:10:08.965Z</time></trkpt><trkpt lat="43.8740887" lon="11.1883752"><ele>280.0</ele><time>2026-04-16T08:10:10.956Z</time></trkpt><trkpt lat="43.8741009" lon="11.1882741"><ele>278.5</ele><time>2026-04-16T08:10:12.965Z</time></trkpt><trkpt lat="43.8741335" lon="11.188136"><ele>277.0</ele><time>2026-04-16T08:10:15.946Z</time></trkpt><trkpt lat="43.8741489" lon="11.1880372"><ele>275.5</ele><time>2026-04-16T08:10:17.955Z</time></trkpt><trkpt lat="43.8741519" lon="11.1879178"><ele>274.0</ele><time>2026-04-16T08:10:20.963Z</time></trkpt><trkpt lat="43.8741752" lon="11.1878013"><ele>272.5</ele><time>2026-04-16T08:10:23.954Z</time></trkpt><trkpt lat="43.8741603" lon="11.1876834"><ele>271.0</ele><time>2026-04-16T08:10:26.967Z</time></trkpt><trkpt lat="43.8741301" lon="11.1876037"><ele>271.0</ele><time>2026-04-16T08:10:30.955Z</time></trkpt><trkpt lat="43.874043" lon="11.187586"><ele>271.0</ele><time>2026-04-16T08:10:33.976Z</time></trkpt><trkpt lat="43.8739657" lon="11.1875997"><ele>271.0</ele><time>2026-04-16T08:10:36.969Z</time></trkpt><trkpt lat="43.873894" lon="11.187618"><ele>271.0</ele><time>2026-04-16T08:10:39.961Z</time></trkpt><trkpt lat="43.8738015" lon="11.1876277"><ele>271.0</ele><time>2026-04-16T08:10:43.968Z</time></trkpt><trkpt lat="43.8737292" lon="11.1876329"><ele>271.0</ele><time>2026-04-16T08:10:45.963Z</time></trkpt><trkpt lat="43.873663" lon="11.1876295"><ele>271.0</ele><time>2026-04-16T08:10:47.951Z</time></trkpt><trkpt lat="43.8735939" lon="11.1876232"><ele>271.0</ele><time>2026-04-16T08:10:49.961Z</time></trkpt><trkpt lat="43.8735275" lon="11.1876229"><ele>271.0</ele><time>2026-04-16T08:10:51.967Z</time></trkpt><trkpt lat="43.8734572" lon="11.1876329"><ele>271.0</ele><time>2026-04-16T08:10:53.967Z</time></trkpt><trkpt lat="43.8733839" lon="11.1876424"><ele>271.0</ele><time>2026-04-16T08:10:55.966Z</time></trkpt><trkpt lat="43.873305" lon="11.1876635"><ele>271.0</ele><time>2026-04-16T08:10:58.941Z</time></trkpt><trkpt lat="43.873239" lon="11.1876743"><ele>271.0</ele><time>2026-04-16T08:11:00.964Z</time></trkpt><trkpt lat="43.8731629" lon="11.1876756"><ele>270.66666666666663</ele><time>2026-04-16T08:11:02.963Z</time></trkpt><trkpt lat="43.8730755" lon="11.1876806"><ele>270.3333333333333</ele><time>2026-04-16T08:11:05.029Z</time></trkpt><trkpt lat="43.8729989" lon="11.1876799"><ele>270.0</ele><time>2026-04-16T08:11:06.964Z</time></trkpt><trkpt lat="43.8729221" lon="11.1876681"><ele>269.6666666666667</ele><time>2026-04-16T08:11:08.964Z</time></trkpt><trkpt lat="43.8728372" lon="11.1876555"><ele>269.33333333333337</ele><time>2026-04-16T08:11:10.955Z</time></trkpt><trkpt lat="43.8727476" lon="11.1876521"><ele>269.0</ele><time>2026-04-16T08:11:12.946Z</time></trkpt><trkpt lat="43.8726396" lon="11.1876788"><ele>267.1666666666667</ele><time>2026-04-16T08:11:14.94Z</time></trkpt><trkpt lat="43.8725435" lon="11.1876846"><ele>265.33333333333337</ele><time>2026-04-16T08:11:17.038Z</time></trkpt><trkpt lat="43.8724554" lon="11.1876862"><ele>263.5</ele><time>2026-04-16T08:11:18.965Z</time></trkpt><trkpt lat="43.8723663" lon="11.1877042"><ele>261.6666666666667</ele><time>2026-04-16T08:11:20.965Z</time></trkpt><trkpt lat="43.8722832" lon="11.1877184"><ele>259.8333333333333</ele><time>2026-04-16T08:11:23.06Z</time></trkpt><trkpt lat="43.8721941" lon="11.1877081"><ele>258.0</ele><time>2026-04-16T08:11:25.016Z</time></trkpt><trkpt lat="43.872107" lon="11.1877015"><ele>258.0</ele><time>2026-04-16T08:11:26.952Z</time></trkpt><trkpt lat="43.8720099" lon="11.1877064"><ele>258.0</ele><time>2026-04-16T08:11:28.962Z</time></trkpt><trkpt lat="43.8719128" lon="11.1877235"><ele>258.0</ele><time>2026-04-16T08:11:30.963Z</time></trkpt><trkpt lat="43.871837" lon="11.1877113"><ele>258.0</ele><time>2026-04-16T08:11:32.954Z</time></trkpt><trkpt lat="43.8717508" lon="11.1877061"><ele>258.0</ele><time>2026-04-16T08:11:35.018Z</time></trkpt><trkpt lat="43.8716836" lon="11.1877081"><ele>258.0</ele><time>2026-04-16T08:11:36.964Z</time></trkpt><trkpt lat="43.8715862" lon="11.1877322"><ele>255.85714285714283</ele><time>2026-04-16T08:11:39.954Z</time></trkpt><trkpt lat="43.871515" lon="11.1877385"><ele>253.71428571428572</ele><time>2026-04-16T08:11:41.965Z</time></trkpt><trkpt lat="43.8714439" lon="11.1877526"><ele>251.57142857142856</ele><time>2026-04-16T08:11:43.95Z</time></trkpt><trkpt lat="43.8713749" lon="11.1877482"><ele>249.42857142857142</ele><time>2026-04-16T08:11:45.978Z</time></trkpt><trkpt lat="43.871303" lon="11.1877318"><ele>247.28571428571428</ele><time>2026-04-16T08:11:47.957Z</time></trkpt><trkpt lat="43.8712358" lon="11.1877059"><ele>245.14285714285714</ele><time>2026-04-16T08:11:49.96Z</time></trkpt><trkpt lat="43.8711745" lon="11.187675"><ele>243.0</ele><time>2026-04-16T08:11:51.959Z</time></trkpt><trkpt lat="43.8710836" lon="11.187636"><ele>243.0</ele><time>2026-04-16T08:11:55.024Z</time></trkpt><trkpt lat="43.8710046" lon="11.1875761"><ele>243.0</ele><time>2026-04-16T08:11:57.954Z</time></trkpt><trkpt lat="43.8709426" lon="11.1875002"><ele>243.0</ele><time>2026-04-16T08:12:00.955Z</time></trkpt><trkpt lat="43.8709287" lon="11.1873986"><ele>243.0</ele><time>2026-04-16T08:12:04.959Z</time></trkpt><trkpt lat="43.87095" lon="11.1872931"><ele>243.0</ele><time>2026-04-16T08:12:08.949Z</time></trkpt><trkpt lat="43.8708871" lon="11.1871952"><ele>243.0</ele><time>2026-04-16T08:12:11.951Z</time></trkpt><trkpt lat="43.8708218" lon="11.1871417"><ele>237.85714285714286</ele><time>2026-04-16T08:12:15.025Z</time></trkpt><trkpt lat="43.8707582" lon="11.1871054"><ele>232.71428571428572</ele><time>2026-04-16T08:12:17.956Z</time></trkpt><trkpt lat="43.8706876" lon="11.187092"><ele>227.57142857142858</ele><time>2026-04-16T08:12:20.982Z</time></trkpt><trkpt lat="43.8706209" lon="11.1871124"><ele>222.42857142857144</ele><time>2026-04-16T08:12:23.989Z</time></trkpt><trkpt lat="43.8705555" lon="11.1871647"><ele>217.28571428571428</ele><time>2026-04-16T08:12:26.989Z</time></trkpt><trkpt lat="43.8704985" lon="11.1872138"><ele>212.14285714285717</ele><time>2026-04-16T08:12:29.975Z</time></trkpt><trkpt lat="43.8704402" lon="11.1872651"><ele>207.0</ele><time>2026-04-16T08:12:32.971Z</time></trkpt><trkpt lat="43.8703484" lon="11.1872655"><ele>207.0</ele><time>2026-04-16T08:12:36.972Z</time></trkpt><trkpt lat="43.8702812" lon="11.1872558"><ele>207.0</ele><time>2026-04-16T08:12:38.981Z</time></trkpt><trkpt lat="43.8702042" lon="11.1872086"><ele>207.0</ele><time>2026-04-16T08:12:40.984Z</time></trkpt><trkpt lat="43.8701481" lon="11.1871377"><ele>207.0</ele><time>2026-04-16T08:12:42.979Z</time></trkpt><trkpt lat="43.8700412" lon="11.1870142"><ele>207.0</ele><time>2026-04-16T08:12:44.957Z</time></trkpt><trkpt lat="43.8699593" lon="11.1869429"><ele>204.66666666666666</ele><time>2026-04-16T08:12:46.05Z</time></trkpt><trkpt lat="43.8698868" lon="11.1869045"><ele>202.33333333333331</ele><time>2026-04-16T08:12:46.963Z</time></trkpt><trkpt lat="43.8698085" lon="11.1868773"><ele>200.0</ele><time>2026-04-16T08:12:47.957Z</time></trkpt><trkpt lat="43.8697251" lon="11.1868326"><ele>197.66666666666666</ele><time>2026-04-16T08:12:48.963Z</time></trkpt><trkpt lat="43.8696583" lon="11.1867861"><ele>195.33333333333331</ele><time>2026-04-16T08:12:49.966Z</time></trkpt><trkpt lat="43.8695797" lon="11.1867668"><ele>193.0</ele><time>2026-04-16T08:12:50.957Z</time></trkpt><trkpt lat="43.8694981" lon="11.1867366"><ele>193.0</ele><time>2026-04-16T08:12:51.95Z</time></trkpt><trkpt lat="43.8694101" lon="11.1866968"><ele>193.0</ele><time>2026-04-16T08:12:52.943Z</time></trkpt><trkpt lat="43.8693088" lon="11.1866528"><ele>193.0</ele><time>2026-04-16T08:12:53.96Z</time></trkpt><trkpt lat="43.8692114" lon="11.1866359"><ele>193.0</ele><time>2026-04-16T08:12:54.97Z</time></trkpt><trkpt lat="43.8691159" lon="11.1866216"><ele>193.0</ele><time>2026-04-16T08:12:55.968Z</time></trkpt><trkpt lat="43.8690206" lon="11.1866062"><ele>189.60000000000002</ele><time>2026-04-16T08:12:56.958Z</time></trkpt><trkpt lat="43.8689182" lon="11.1865803"><ele>186.20000000000002</ele><time>2026-04-16T08:12:57.975Z</time></trkpt><trkpt lat="43.8688223" lon="11.1865438"><ele>182.8</ele><time>2026-04-16T08:12:58.966Z</time></trkpt><trkpt lat="43.868733" lon="11.1865093"><ele>179.4</ele><time>2026-04-16T08:12:59.967Z</time></trkpt><trkpt lat="43.86865" lon="11.1864736"><ele>176.0</ele><time>2026-04-16T08:13:00.973Z</time></trkpt><trkpt lat="43.8685715" lon="11.1864501"><ele>174.0</ele><time>2026-04-16T08:13:01.962Z</time></trkpt><trkpt lat="43.8685041" lon="11.1864327"><ele>172.0</ele><time>2026-04-16T08:13:02.967Z</time></trkpt><trkpt lat="43.8684009" lon="11.1863671"><ele>170.0</ele><time>2026-04-16T08:13:04.97Z</time></trkpt><trkpt lat="43.8683196" lon="11.1862637"><ele>168.0</ele><time>2026-04-16T08:13:06.973Z</time></trkpt><trkpt lat="43.8682155" lon="11.1861849"><ele>166.0</ele><time>2026-04-16T08:13:08.945Z</time></trkpt><trkpt lat="43.8681449" lon="11.1861716"><ele>164.16666666666669</ele><time>2026-04-16T08:13:09.961Z</time></trkpt><trkpt lat="43.8680814" lon="11.1861405"><ele>162.33333333333334</ele><time>2026-04-16T08:13:10.971Z</time></trkpt><trkpt lat="43.8680005" lon="11.1861131"><ele>160.5</ele><time>2026-04-16T08:13:12.039Z</time></trkpt><trkpt lat="43.8679215" lon="11.186083"><ele>158.66666666666666</ele><time>2026-04-16T08:13:13.032Z</time></trkpt><trkpt lat="43.8678459" lon="11.1860595"><ele>156.83333333333331</ele><time>2026-04-16T08:13:13.962Z</time></trkpt><trkpt lat="43.867777" lon="11.1860426"><ele>155.0</ele><time>2026-04-16T08:13:14.95Z</time></trkpt><trkpt lat="43.8676933" lon="11.1860207"><ele>155.0</ele><time>2026-04-16T08:13:17.032Z</time></trkpt><trkpt lat="43.8676391" lon="11.1859608"><ele>155.0</ele><time>2026-04-16T08:13:20.979Z</time></trkpt><trkpt lat="43.867707" lon="11.1858882"><ele>155.0</ele><time>2026-04-16T08:13:25.04Z</time></trkpt><trkpt lat="43.8677734" lon="11.1858444"><ele>155.0</ele><time>2026-04-16T08:13:26.962Z</time></trkpt><trkpt lat="43.8678633" lon="11.1858203"><ele>155.0</ele><time>2026-04-16T08:13:28.961Z</time></trkpt><trkpt lat="43.8679474" lon="11.1858421"><ele>155.0</ele><time>2026-04-16T08:13:30.968Z</time></trkpt><trkpt lat="43.8680389" lon="11.1858769"><ele>155.0</ele><time>2026-04-16T08:13:33.977Z</time></trkpt><trkpt lat="43.8681316" lon="11.1858802"><ele>155.0</ele><time>2026-04-16T08:13:35.963Z</time></trkpt><trkpt lat="43.8682476" lon="11.1858504"><ele>155.0</ele><time>2026-04-16T08:13:37.964Z</time></trkpt><trkpt lat="43.8683492" lon="11.1858195"><ele>155.0</ele><time>2026-04-16T08:13:39.961Z</time></trkpt><trkpt lat="43.868446" lon="11.1857791"><ele>155.0</ele><time>2026-04-16T08:13:41.951Z</time></trkpt><trkpt lat="43.868556" lon="11.1857732"><ele>155.0</ele><time>2026-04-16T08:13:43.946Z</time></trkpt><trkpt lat="43.8686579" lon="11.1857644"><ele>155.0</ele><time>2026-04-16T08:13:45.958Z</time></trkpt><trkpt lat="43.8687328" lon="11.185738"><ele>155.0</ele><time>2026-04-16T08:13:47.94Z</time></trkpt><trkpt lat="43.868813" lon="11.185709"><ele>155.0</ele><time>2026-04-16T08:13:50.972Z</time></trkpt><trkpt lat="43.8688803" lon="11.1856764"><ele>155.0</ele><time>2026-04-16T08:13:53.018Z</time></trkpt><trkpt lat="43.8689685" lon="11.1856661"><ele>155.0</ele><time>2026-04-16T08:13:55.96Z</time></trkpt><trkpt lat="43.8690275" lon="11.1856168"><ele>155.0</ele><time>2026-04-16T08:13:58.955Z</time></trkpt><trkpt lat="43.869089" lon="11.1855114"><ele>155.0</ele><time>2026-04-16T08:14:01.971Z</time></trkpt><trkpt lat="43.8691388" lon="11.1854232"><ele>155.0</ele><time>2026-04-16T08:14:03.954Z</time></trkpt><trkpt lat="43.8691741" lon="11.1853124"><ele>155.0</ele><time>2026-04-16T08:14:05.966Z</time></trkpt><trkpt lat="43.8692278" lon="11.1852003"><ele>155.0</ele><time>2026-04-16T08:14:07.945Z</time></trkpt><trkpt lat="43.8693006" lon="11.1851094"><ele>158.0</ele><time>2026-04-16T08:14:09.965Z</time></trkpt><trkpt lat="43.8693614" lon="11.1850304"><ele>161.0</ele><time>2026-04-16T08:14:11.965Z</time></trkpt><trkpt lat="43.8694299" lon="11.1849786"><ele>164.0</ele><time>2026-04-16T08:14:13.969Z</time></trkpt><trkpt lat="43.8694994" lon="11.1849273"><ele>167.0</ele><time>2026-04-16T08:14:15.955Z</time></trkpt><trkpt lat="43.8695755" lon="11.1848913"><ele>170.0</ele><time>2026-04-16T08:14:17.964Z</time></trkpt><trkpt lat="43.8696574" lon="11.1848256"><ele>173.0</ele><time>2026-04-16T08:14:19.951Z</time></trkpt><trkpt lat="43.8697322" lon="11.1847587"><ele>173.0</ele><time>2026-04-16T08:14:21.972Z</time></trkpt><trkpt lat="43.8697946" lon="11.1847078"><ele>173.0</ele><time>2026-04-16T08:14:23.969Z</time></trkpt><trkpt lat="43.8698565" lon="11.1846584"><ele>173.0</ele><time>2026-04-16T08:14:25.944Z</time></trkpt><trkpt lat="43.8699283" lon="11.18463"><ele>173.0</ele><time>2026-04-16T08:14:27.962Z</time></trkpt><trkpt lat="43.8699907" lon="11.184602"><ele>173.0</ele><time>2026-04-16T08:14:29.966Z</time></trkpt><trkpt lat="43.8700826" lon="11.1845632"><ele>173.0</ele><time>2026-04-16T08:14:32.962Z</time></trkpt><trkpt lat="43.8701591" lon="11.1845238"><ele>176.57142857142856</ele><time>2026-04-16T08:14:35.967Z</time></trkpt><trkpt lat="43.8702402" lon="11.1844957"><ele>180.14285714285717</ele><time>2026-04-16T08:14:38.972Z</time></trkpt><trkpt lat="43.8703026" lon="11.1844731"><ele>183.71428571428572</ele><time>2026-04-16T08:14:40.972Z</time></trkpt><trkpt lat="43.8703695" lon="11.1844586"><ele>187.28571428571428</ele><time>2026-04-16T08:14:42.972Z</time></trkpt><trkpt lat="43.870439" lon="11.1844798"><ele>190.85714285714283</ele><time>2026-04-16T08:14:44.963Z</time></trkpt><trkpt lat="43.8705143" lon="11.184501"><ele>194.42857142857144</ele><time>2026-04-16T08:14:46.969Z</time></trkpt><trkpt lat="43.8705804" lon="11.1845127"><ele>198.0</ele><time>2026-04-16T08:14:48.953Z</time></trkpt><trkpt lat="43.8706644" lon="11.1845248"><ele>198.0</ele><time>2026-04-16T08:14:51.966Z</time></trkpt><trkpt lat="43.8707375" lon="11.1845093"><ele>198.0</ele><time>2026-04-16T08:14:54.965Z</time></trkpt><trkpt lat="43.8707926" lon="11.1844228"><ele>198.0</ele><time>2026-04-16T08:14:57.96Z</time></trkpt><trkpt lat="43.8708385" lon="11.1843625"><ele>198.0</ele><time>2026-04-16T08:14:59.966Z</time></trkpt><trkpt lat="43.8708974" lon="11.1842985"><ele>198.0</ele><time>2026-04-16T08:15:01.959Z</time></trkpt><trkpt lat="43.8709451" lon="11.1842383"><ele>198.0</ele><time>2026-04-16T08:15:03.95Z</time></trkpt><trkpt lat="43.8709905" lon="11.184175"><ele>198.0</ele><time>2026-04-16T08:15:05.949Z</time></trkpt><trkpt lat="43.8710319" lon="11.1841001"><ele>201.16666666666666</ele><time>2026-04-16T08:15:07.95Z</time></trkpt><trkpt lat="43.8710714" lon="11.1840293"><ele>204.33333333333331</ele><time>2026-04-16T08:15:09.957Z</time></trkpt><trkpt lat="43.8711022" lon="11.1839428"><ele>207.5</ele><time>2026-04-16T08:15:11.964Z</time></trkpt><trkpt lat="43.8711251" lon="11.1838188"><ele>210.66666666666666</ele><time>2026-04-16T08:15:14.968Z</time></trkpt><trkpt lat="43.8711244" lon="11.183724"><ele>213.83333333333331</ele><time>2026-04-16T08:15:16.963Z</time></trkpt><trkpt lat="43.8711336" lon="11.1836178"><ele>217.0</ele><time>2026-04-16T08:15:18.957Z</time></trkpt><trkpt lat="43.8711506" lon="11.1834997"><ele>217.0</ele><time>2026-04-16T08:15:22.026Z</time></trkpt><trkpt lat="43.8711155" lon="11.1834059"><ele>217.0</ele><time>2026-04-16T08:15:24.956Z</time></trkpt><trkpt lat="43.8710517" lon="11.1833811"><ele>217.0</ele><time>2026-04-16T08:15:28.972Z</time></trkpt><trkpt lat="43.8709831" lon="11.1834052"><ele>217.0</ele><time>2026-04-16T08:15:38.959Z</time></trkpt><trkpt lat="43.8709138" lon="11.1833444"><ele>217.0</ele><time>2026-04-16T08:15:42.029Z</time></trkpt><trkpt lat="43.8708422" lon="11.1832909"><ele>217.0</ele><time>2026-04-16T08:15:44.96Z</time></trkpt><trkpt lat="43.8707857" lon="11.1832434"><ele>217.0</ele><time>2026-04-16T08:15:46.972Z</time></trkpt><trkpt lat="43.8707235" lon="11.1832018"><ele>212.0</ele><time>2026-04-16T08:15:49.965Z</time></trkpt><trkpt lat="43.8706414" lon="11.1831354"><ele>207.0</ele><time>2026-04-16T08:15:53.054Z</time></trkpt><trkpt lat="43.8705782" lon="11.1830634"><ele>202.0</ele><time>2026-04-16T08:15:54.974Z</time></trkpt><trkpt lat="43.8705139" lon="11.1829791"><ele>197.0</ele><time>2026-04-16T08:15:56.977Z</time></trkpt><trkpt lat="43.8704151" lon="11.1828027"><ele>192.0</ele><time>2026-04-16T08:15:58.975Z</time></trkpt><trkpt lat="43.8703639" lon="11.1827398"><ele>192.0</ele><time>2026-04-16T08:15:59.966Z</time></trkpt><trkpt lat="43.8703085" lon="11.1826772"><ele>192.0</ele><time>2026-04-16T08:16:00.969Z</time></trkpt><trkpt lat="43.8702158" lon="11.1825827"><ele>192.0</ele><time>2026-04-16T08:16:02.971Z</time></trkpt><trkpt lat="43.8701134" lon="11.182526"><ele>192.0</ele><time>2026-04-16T08:16:04.98Z</time></trkpt><trkpt lat="43.8700479" lon="11.1825259"><ele>192.0</ele><time>2026-04-16T08:16:05.969Z</time></trkpt><trkpt lat="43.86994" lon="11.1825593"><ele>189.0</ele><time>2026-04-16T08:16:07.968Z</time></trkpt><trkpt lat="43.8698519" lon="11.1826491"><ele>186.0</ele><time>2026-04-16T08:16:09.979Z</time></trkpt><trkpt lat="43.8697916" lon="11.182691"><ele>183.0</ele><time>2026-04-16T08:16:10.969Z</time></trkpt><trkpt lat="43.8697152" lon="11.1827698"><ele>180.0</ele><time>2026-04-16T08:16:13.032Z</time></trkpt><trkpt lat="43.8696529" lon="11.1827895"><ele>177.0</ele><time>2026-04-16T08:16:14.023Z</time></trkpt><trkpt lat="43.869585" lon="11.1828867"><ele>174.0</ele><time>2026-04-16T08:16:15.971Z</time></trkpt><trkpt lat="43.8695131" lon="11.1829644"><ele>174.0</ele><time>2026-04-16T08:16:17.977Z</time></trkpt><trkpt lat="43.8694426" lon="11.1830313"><ele>174.0</ele><time>2026-04-16T08:16:19.966Z</time></trkpt><trkpt lat="43.8693866" lon="11.1830735"><ele>174.0</ele><time>2026-04-16T08:16:21.97Z</time></trkpt><trkpt lat="43.8693083" lon="11.1830698"><ele>174.0</ele><time>2026-04-16T08:16:23.969Z</time></trkpt><trkpt lat="43.8692204" lon="11.1830461"><ele>174.0</ele><time>2026-04-16T08:16:25.971Z</time></trkpt><trkpt lat="43.8691196" lon="11.183034"><ele>174.0</ele><time>2026-04-16T08:16:27.971Z</time></trkpt><trkpt lat="43.8690364" lon="11.1830459"><ele>170.5</ele><time>2026-04-16T08:16:29.97Z</time></trkpt><trkpt lat="43.8689317" lon="11.1830135"><ele>167.0</ele><time>2026-04-16T08:16:33.029Z</time></trkpt><trkpt lat="43.8688283" lon="11.1829339"><ele>163.5</ele><time>2026-04-16T08:16:34.957Z</time></trkpt><trkpt lat="43.8687611" lon="11.1828975"><ele>160.0</ele><time>2026-04-16T08:16:35.961Z</time></trkpt><trkpt lat="43.8686934" lon="11.1828488"><ele>156.5</ele><time>2026-04-16T08:16:36.958Z</time></trkpt><trkpt lat="43.8686317" lon="11.1827962"><ele>153.0</ele><time>2026-04-16T08:16:37.958Z</time></trkpt><trkpt lat="43.8685739" lon="11.1827519"><ele>153.0</ele><time>2026-04-16T08:16:38.964Z</time></trkpt><trkpt lat="43.8685085" lon="11.182687"><ele>153.0</ele><time>2026-04-16T08:16:39.956Z</time></trkpt><trkpt lat="43.8684494" lon="11.1826391"><ele>153.0</ele><time>2026-04-16T08:16:41.043Z</time></trkpt><trkpt lat="43.8683935" lon="11.1825824"><ele>153.0</ele><time>2026-04-16T08:16:42.03Z</time></trkpt><trkpt lat="43.8683399" lon="11.182532"><ele>153.0</ele><time>2026-04-16T08:16:43.045Z</time></trkpt><trkpt lat="43.8682879" lon="11.1824815"><ele>153.0</ele><time>2026-04-16T08:16:43.949Z</time></trkpt><trkpt lat="43.8682324" lon="11.1824361"><ele>153.0</ele><time>2026-04-16T08:16:44.972Z</time></trkpt><trkpt lat="43.8681729" lon="11.1823968"><ele>150.0</ele><time>2026-04-16T08:16:45.971Z</time></trkpt><trkpt lat="43.8681145" lon="11.1823383"><ele>147.0</ele><time>2026-04-16T08:16:46.971Z</time></trkpt><trkpt lat="43.868055" lon="11.1822907"><ele>144.0</ele><time>2026-04-16T08:16:47.966Z</time></trkpt><trkpt lat="43.8679913" lon="11.1822435"><ele>141.0</ele><time>2026-04-16T08:16:49.028Z</time></trkpt><trkpt lat="43.8679322" lon="11.1822032"><ele>138.0</ele><time>2026-04-16T08:16:49.966Z</time></trkpt><trkpt lat="43.8678744" lon="11.1821617"><ele>135.0</ele><time>2026-04-16T08:16:50.971Z</time></trkpt><trkpt lat="43.8678146" lon="11.1821187"><ele>132.0</ele><time>2026-04-16T08:16:51.977Z</time></trkpt><trkpt lat="43.8677476" lon="11.1820724"><ele>132.0</ele><time>2026-04-16T08:16:52.964Z</time></trkpt><trkpt lat="43.8676867" lon="11.1820319"><ele>132.0</ele><time>2026-04-16T08:16:53.979Z</time></trkpt><trkpt lat="43.8676206" lon="11.1819908"><ele>132.0</ele><time>2026-04-16T08:16:54.966Z</time></trkpt><trkpt lat="43.8675599" lon="11.1819439"><ele>132.0</ele><time>2026-04-16T08:16:55.966Z</time></trkpt><trkpt lat="43.8674991" lon="11.1818951"><ele>132.0</ele><time>2026-04-16T08:16:56.97Z</time></trkpt><trkpt lat="43.8674371" lon="11.1818444"><ele>132.0</ele><time>2026-04-16T08:16:58.036Z</time></trkpt><trkpt lat="43.8673763" lon="11.1818037"><ele>132.0</ele><time>2026-04-16T08:16:58.955Z</time></trkpt><trkpt lat="43.8673131" lon="11.1817516"><ele>129.2</ele><time>2026-04-16T08:16:59.963Z</time></trkpt><trkpt lat="43.8672523" lon="11.1817146"><ele>126.39999999999999</ele><time>2026-04-16T08:17:00.959Z</time></trkpt><trkpt lat="43.8671518" lon="11.1816991"><ele>123.60000000000001</ele><time>2026-04-16T08:17:02.956Z</time></trkpt><trkpt lat="43.8670873" lon="11.1817856"><ele>120.80000000000001</ele><time>2026-04-16T08:17:04.965Z</time></trkpt><trkpt lat="43.8670653" lon="11.1819022"><ele>118.0</ele><time>2026-04-16T08:17:07.023Z</time></trkpt><trkpt lat="43.8670051" lon="11.1820761"><ele>118.00000000000001</ele><time>2026-04-16T08:17:09.012Z</time></trkpt><trkpt lat="43.866977" lon="11.1821884"><ele>118.0</ele><time>2026-04-16T08:17:09.964Z</time></trkpt><trkpt lat="43.8669436" lon="11.1823096"><ele>118.0</ele><time>2026-04-16T08:17:10.977Z</time></trkpt><trkpt lat="43.8669109" lon="11.1824179"><ele>118.0</ele><time>2026-04-16T08:17:11.965Z</time></trkpt><trkpt lat="43.8668809" lon="11.1825221"><ele>118.00000000000001</ele><time>2026-04-16T08:17:12.963Z</time></trkpt><trkpt lat="43.866848" lon="11.1826188"><ele>118.0</ele><time>2026-04-16T08:17:13.963Z</time></trkpt><trkpt lat="43.8668218" lon="11.1827143"><ele>118.42857142857142</ele><time>2026-04-16T08:17:14.966Z</time></trkpt><trkpt lat="43.8667925" lon="11.1827938"><ele>118.85714285714286</ele><time>2026-04-16T08:17:15.967Z</time></trkpt><trkpt lat="43.8667598" lon="11.182879"><ele>119.28571428571428</ele><time>2026-04-16T08:17:16.956Z</time></trkpt><trkpt lat="43.8667187" lon="11.1829966"><ele>119.71428571428571</ele><time>2026-04-16T08:17:18.969Z</time></trkpt><trkpt lat="43.8666454" lon="11.1830064"><ele>120.14285714285714</ele><time>2026-04-16T08:17:20.982Z</time></trkpt><trkpt lat="43.8665952" lon="11.1829443"><ele>120.57142857142857</ele><time>2026-04-16T08:17:21.968Z</time></trkpt><trkpt lat="43.8665285" lon="11.1828911"><ele>121.0</ele><time>2026-04-16T08:17:22.967Z</time></trkpt><trkpt lat="43.8664649" lon="11.182842"><ele>119.66666666666667</ele><time>2026-04-16T08:17:23.971Z</time></trkpt><trkpt lat="43.8663812" lon="11.1828017"><ele>118.33333333333334</ele><time>2026-04-16T08:17:24.966Z</time></trkpt><trkpt lat="43.866301" lon="11.1827679"><ele>117.0</ele><time>2026-04-16T08:17:25.963Z</time></trkpt><trkpt lat="43.8662227" lon="11.1827298"><ele>115.66666666666666</ele><time>2026-04-16T08:17:26.959Z</time></trkpt><trkpt lat="43.8661453" lon="11.1827"><ele>114.33333333333333</ele><time>2026-04-16T08:17:27.959Z</time></trkpt><trkpt lat="43.8660642" lon="11.1826698"><ele>113.0</ele><time>2026-04-16T08:17:29.031Z</time></trkpt><trkpt lat="43.8659909" lon="11.182634"><ele>111.99999999999999</ele><time>2026-04-16T08:17:29.959Z</time></trkpt><trkpt lat="43.8659197" lon="11.1826009"><ele>111.0</ele><time>2026-04-16T08:17:30.968Z</time></trkpt><trkpt lat="43.8658453" lon="11.1825689"><ele>110.0</ele><time>2026-04-16T08:17:31.977Z</time></trkpt><trkpt lat="43.8657727" lon="11.1825399"><ele>109.0</ele><time>2026-04-16T08:17:32.958Z</time></trkpt><trkpt lat="43.8656961" lon="11.1825196"><ele>107.99999999999999</ele><time>2026-04-16T08:17:33.963Z</time></trkpt><trkpt lat="43.8656177" lon="11.1824889"><ele>107.0</ele><time>2026-04-16T08:17:34.953Z</time></trkpt><trkpt lat="43.8655428" lon="11.1824622"><ele>107.0</ele><time>2026-04-16T08:17:35.954Z</time></trkpt><trkpt lat="43.8654779" lon="11.1824341"><ele>106.99999999999999</ele><time>2026-04-16T08:17:36.959Z</time></trkpt><trkpt lat="43.8653988" lon="11.1823813"><ele>106.99999999999999</ele><time>2026-04-16T08:17:38.975Z</time></trkpt><trkpt lat="43.8654262" lon="11.182277"><ele>107.0</ele><time>2026-04-16T08:17:41.957Z</time></trkpt><trkpt lat="43.8654947" lon="11.182146"><ele>107.0</ele><time>2026-04-16T08:17:43.96Z</time></trkpt><trkpt lat="43.8655705" lon="11.1819927"><ele>106.6</ele><time>2026-04-16T08:17:45.954Z</time></trkpt><trkpt lat="43.8656114" lon="11.181909"><ele>106.19999999999999</ele><time>2026-04-16T08:17:46.98Z</time></trkpt><trkpt lat="43.865659" lon="11.181812"><ele>105.8</ele><time>2026-04-16T08:17:47.951Z</time></trkpt><trkpt lat="43.8657058" lon="11.1817053"><ele>105.4</ele><time>2026-04-16T08:17:48.956Z</time></trkpt><trkpt lat="43.8657537" lon="11.1815862"><ele>105.0</ele><time>2026-04-16T08:17:49.967Z</time></trkpt><trkpt lat="43.8657977" lon="11.1814474"><ele>105.0</ele><time>2026-04-16T08:17:50.952Z</time></trkpt><trkpt lat="43.8658523" lon="11.1813134"><ele>105.0</ele><time>2026-04-16T08:17:51.96Z</time></trkpt><trkpt lat="43.86589" lon="11.1811681"><ele>105.0</ele><time>2026-04-16T08:17:52.972Z</time></trkpt><trkpt lat="43.8659231" lon="11.1810154"><ele>105.0</ele><time>2026-04-16T08:17:53.97Z</time></trkpt><trkpt lat="43.8659541" lon="11.1808533"><ele>105.0</ele><time>2026-04-16T08:17:54.968Z</time></trkpt><trkpt lat="43.8659902" lon="11.1806843"><ele>105.0</ele><time>2026-04-16T08:17:55.963Z</time></trkpt><trkpt lat="43.86603" lon="11.1805156"><ele>105.0</ele><time>2026-04-16T08:17:56.959Z</time></trkpt><trkpt lat="43.8660703" lon="11.1803512"><ele>105.0</ele><time>2026-04-16T08:17:57.964Z</time></trkpt><trkpt lat="43.8661037" lon="11.180189"><ele>105.0</ele><time>2026-04-16T08:17:58.963Z</time></trkpt><trkpt lat="43.8661366" lon="11.180042"><ele>105.0</ele><time>2026-04-16T08:17:59.961Z</time></trkpt><trkpt lat="43.8661688" lon="11.1798907"><ele>105.0</ele><time>2026-04-16T08:18:00.976Z</time></trkpt><trkpt lat="43.8662028" lon="11.1797592"><ele>105.0</ele><time>2026-04-16T08:18:01.967Z</time></trkpt><trkpt lat="43.8662284" lon="11.179625"><ele>105.0</ele><time>2026-04-16T08:18:02.954Z</time></trkpt><trkpt lat="43.8662585" lon="11.1795009"><ele>104.33333333333333</ele><time>2026-04-16T08:18:03.968Z</time></trkpt><trkpt lat="43.8662841" lon="11.1793771"><ele>103.66666666666666</ele><time>2026-04-16T08:18:04.963Z</time></trkpt><trkpt lat="43.8663082" lon="11.1792625"><ele>103.0</ele><time>2026-04-16T08:18:05.969Z</time></trkpt><trkpt lat="43.8663333" lon="11.1791633"><ele>102.33333333333333</ele><time>2026-04-16T08:18:06.952Z</time></trkpt><trkpt lat="43.8663527" lon="11.1790589"><ele>101.66666666666666</ele><time>2026-04-16T08:18:07.963Z</time></trkpt><trkpt lat="43.8663825" lon="11.1789537"><ele>101.0</ele><time>2026-04-16T08:18:08.97Z</time></trkpt><trkpt lat="43.8664076" lon="11.178862"><ele>100.28571428571428</ele><time>2026-04-16T08:18:09.975Z</time></trkpt><trkpt lat="43.8664302" lon="11.1787674"><ele>99.57142857142857</ele><time>2026-04-16T08:18:10.942Z</time></trkpt><trkpt lat="43.8664467" lon="11.1786801"><ele>98.85714285714286</ele><time>2026-04-16T08:18:11.978Z</time></trkpt><trkpt lat="43.8664624" lon="11.1785897"><ele>98.14285714285714</ele><time>2026-04-16T08:18:12.966Z</time></trkpt><trkpt lat="43.8664753" lon="11.1784956"><ele>97.42857142857143</ele><time>2026-04-16T08:18:13.966Z</time></trkpt><trkpt lat="43.8664843" lon="11.1783655"><ele>96.71428571428571</ele><time>2026-04-16T08:18:15.964Z</time></trkpt><trkpt lat="43.8664934" lon="11.1782633"><ele>96.0</ele><time>2026-04-16T08:18:37.952Z</time></trkpt><trkpt lat="43.8664665" lon="11.1781414"><ele>95.8</ele><time>2026-04-16T08:18:39.961Z</time></trkpt><trkpt lat="43.866452" lon="11.1779555"><ele>95.6</ele><time>2026-04-16T08:18:41.962Z</time></trkpt><trkpt lat="43.8664364" lon="11.1778347"><ele>95.4</ele><time>2026-04-16T08:18:42.961Z</time></trkpt><trkpt lat="43.8664241" lon="11.1777085"><ele>95.2</ele><time>2026-04-16T08:18:43.969Z</time></trkpt><trkpt lat="43.8664007" lon="11.1775738"><ele>95.0</ele><time>2026-04-16T08:18:44.975Z</time></trkpt><trkpt lat="43.8663672" lon="11.1774311"><ele>95.2</ele><time>2026-04-16T08:18:45.971Z</time></trkpt><trkpt lat="43.8663302" lon="11.1772916"><ele>95.4</ele><time>2026-04-16T08:18:46.978Z</time></trkpt><trkpt lat="43.8662929" lon="11.1771609"><ele>95.6</ele><time>2026-04-16T08:18:47.974Z</time></trkpt><trkpt lat="43.8662484" lon="11.1770297"><ele>95.8</ele><time>2026-04-16T08:18:48.966Z</time></trkpt><trkpt lat="43.8662102" lon="11.1768996"><ele>96.0</ele><time>2026-04-16T08:18:49.964Z</time></trkpt><trkpt lat="43.8661795" lon="11.1767868"><ele>96.0</ele><time>2026-04-16T08:18:50.945Z</time></trkpt><trkpt lat="43.8661526" lon="11.1766839"><ele>96.0</ele><time>2026-04-16T08:18:51.973Z</time></trkpt><trkpt lat="43.8661353" lon="11.1765841"><ele>96.0</ele><time>2026-04-16T08:18:52.969Z</time></trkpt><trkpt lat="43.8661316" lon="11.1764895"><ele>96.0</ele><time>2026-04-16T08:18:53.966Z</time></trkpt><trkpt lat="43.8661345" lon="11.1763436"><ele>96.0</ele><time>2026-04-16T08:18:55.961Z</time></trkpt><trkpt lat="43.8662123" lon="11.1763159"><ele>96.0</ele><time>2026-04-16T08:18:58.962Z</time></trkpt><trkpt lat="43.8663091" lon="11.1763214"><ele>95.4</ele><time>2026-04-16T08:19:00.973Z</time></trkpt><trkpt lat="43.866438" lon="11.1763414"><ele>94.8</ele><time>2026-04-16T08:19:02.958Z</time></trkpt><trkpt lat="43.8665188" lon="11.1763378"><ele>94.2</ele><time>2026-04-16T08:19:03.963Z</time></trkpt><trkpt lat="43.8666032" lon="11.1763353"><ele>93.60000000000001</ele><time>2026-04-16T08:19:04.974Z</time></trkpt><trkpt lat="43.8666876" lon="11.1763162"><ele>93.0</ele><time>2026-04-16T08:19:05.965Z</time></trkpt><trkpt lat="43.8667752" lon="11.1762958"><ele>93.80000000000001</ele><time>2026-04-16T08:19:06.963Z</time></trkpt><trkpt lat="43.8668641" lon="11.1762669"><ele>94.6</ele><time>2026-04-16T08:19:07.959Z</time></trkpt><trkpt lat="43.8669596" lon="11.1762368"><ele>95.4</ele><time>2026-04-16T08:19:08.964Z</time></trkpt><trkpt lat="43.8670604" lon="11.1761933"><ele>96.19999999999999</ele><time>2026-04-16T08:19:09.953Z</time></trkpt><trkpt lat="43.8671601" lon="11.1761548"><ele>97.0</ele><time>2026-04-16T08:19:10.962Z</time></trkpt><trkpt lat="43.8672629" lon="11.1761002"><ele>97.0</ele><time>2026-04-16T08:19:11.946Z</time></trkpt><trkpt lat="43.8673593" lon="11.1760459"><ele>97.0</ele><time>2026-04-16T08:19:12.958Z</time></trkpt><trkpt lat="43.8674546" lon="11.175986"><ele>97.0</ele><time>2026-04-16T08:19:13.967Z</time></trkpt><trkpt lat="43.8675568" lon="11.1759362"><ele>97.0</ele><time>2026-04-16T08:19:14.975Z</time></trkpt><trkpt lat="43.8676614" lon="11.1758775"><ele>97.0</ele><time>2026-04-16T08:19:15.961Z</time></trkpt><trkpt lat="43.8677604" lon="11.1758087"><ele>98.0</ele><time>2026-04-16T08:19:16.968Z</time></trkpt><trkpt lat="43.8678658" lon="11.1757275"><ele>99.0</ele><time>2026-04-16T08:19:17.971Z</time></trkpt><trkpt lat="43.8679662" lon="11.1756484"><ele>100.0</ele><time>2026-04-16T08:19:18.969Z</time></trkpt><trkpt lat="43.8680658" lon="11.1755675"><ele>101.0</ele><time>2026-04-16T08:19:19.964Z</time></trkpt><trkpt lat="43.8681635" lon="11.1754902"><ele>103.0</ele><time>2026-04-16T08:19:20.956Z</time></trkpt><trkpt lat="43.868259" lon="11.1754174"><ele>105.0</ele><time>2026-04-16T08:19:21.973Z</time></trkpt><trkpt lat="43.8683705" lon="11.1753357"><ele>107.0</ele><time>2026-04-16T08:19:22.966Z</time></trkpt><trkpt lat="43.8684729" lon="11.1752643"><ele>109.0</ele><time>2026-04-16T08:19:23.962Z</time></trkpt><trkpt lat="43.8685652" lon="11.1752057"><ele>110.6</ele><time>2026-04-16T08:19:24.967Z</time></trkpt><trkpt lat="43.8686626" lon="11.1751531"><ele>112.2</ele><time>2026-04-16T08:19:25.969Z</time></trkpt><trkpt lat="43.8687633" lon="11.1751047"><ele>113.79999999999998</ele><time>2026-04-16T08:19:26.965Z</time></trkpt><trkpt lat="43.8688603" lon="11.1750552"><ele>115.39999999999999</ele><time>2026-04-16T08:19:27.963Z</time></trkpt><trkpt lat="43.8689589" lon="11.1750032"><ele>117.0</ele><time>2026-04-16T08:19:28.96Z</time></trkpt><trkpt lat="43.8690516" lon="11.1749529"><ele>117.0</ele><time>2026-04-16T08:19:29.964Z</time></trkpt><trkpt lat="43.8691441" lon="11.1749002"><ele>116.99999999999999</ele><time>2026-04-16T08:19:30.96Z</time></trkpt><trkpt lat="43.869234" lon="11.1748463"><ele>116.99999999999999</ele><time>2026-04-16T08:19:31.959Z</time></trkpt><trkpt lat="43.8693133" lon="11.1748123"><ele>117.0</ele><time>2026-04-16T08:19:32.957Z</time></trkpt><trkpt lat="43.8693776" lon="11.1747876"><ele>117.0</ele><time>2026-04-16T08:19:33.959Z</time></trkpt><trkpt lat="43.8694813" lon="11.174753"><ele>116.19999999999999</ele><time>2026-04-16T08:19:35.96Z</time></trkpt><trkpt lat="43.8695618" lon="11.1747921"><ele>115.39999999999999</ele><time>2026-04-16T08:19:37.967Z</time></trkpt><trkpt lat="43.8696372" lon="11.1748925"><ele>114.60000000000001</ele><time>2026-04-16T08:19:39.965Z</time></trkpt><trkpt lat="43.8697309" lon="11.1749692"><ele>113.80000000000001</ele><time>2026-04-16T08:19:41.943Z</time></trkpt><trkpt lat="43.8698021" lon="11.17506"><ele>113.0</ele><time>2026-04-16T08:19:43.986Z</time></trkpt><trkpt lat="43.8698624" lon="11.1751183"><ele>114.99999999999999</ele><time>2026-04-16T08:19:45.967Z</time></trkpt><trkpt lat="43.8699337" lon="11.1751385"><ele>117.0</ele><time>2026-04-16T08:19:47.958Z</time></trkpt><trkpt lat="43.8699975" lon="11.1751369"><ele>119.0</ele><time>2026-04-16T08:19:49.969Z</time></trkpt><trkpt lat="43.8700662" lon="11.1751419"><ele>121.0</ele><time>2026-04-16T08:19:51.969Z</time></trkpt><trkpt lat="43.8701414" lon="11.1751639"><ele>122.99999999999999</ele><time>2026-04-16T08:19:53.963Z</time></trkpt><trkpt lat="43.8702236" lon="11.175205"><ele>125.0</ele><time>2026-04-16T08:19:55.968Z</time></trkpt><trkpt lat="43.8703206" lon="11.1752618"><ele>125.8</ele><time>2026-04-16T08:19:57.966Z</time></trkpt><trkpt lat="43.8704267" lon="11.175302"><ele>126.6</ele><time>2026-04-16T08:19:59.955Z</time></trkpt><trkpt lat="43.8705157" lon="11.1753158"><ele>127.4</ele><time>2026-04-16T08:20:01.966Z</time></trkpt><trkpt lat="43.8706001" lon="11.1753255"><ele>128.2</ele><time>2026-04-16T08:20:03.97Z</time></trkpt><trkpt lat="43.8706773" lon="11.1753541"><ele>129.0</ele><time>2026-04-16T08:20:05.969Z</time></trkpt><trkpt lat="43.8707748" lon="11.1754182"><ele>129.0</ele><time>2026-04-16T08:20:07.962Z</time></trkpt><trkpt lat="43.8708613" lon="11.1754711"><ele>129.0</ele><time>2026-04-16T08:20:09.942Z</time></trkpt><trkpt lat="43.8709352" lon="11.1755269"><ele>129.0</ele><time>2026-04-16T08:20:11.96Z</time></trkpt><trkpt lat="43.8710087" lon="11.1755707"><ele>129.0</ele><time>2026-04-16T08:20:13.962Z</time></trkpt><trkpt lat="43.8711155" lon="11.1756178"><ele>129.0</ele><time>2026-04-16T08:20:15.966Z</time></trkpt><trkpt lat="43.871196" lon="11.1756566"><ele>130.2</ele><time>2026-04-16T08:20:17.955Z</time></trkpt><trkpt lat="43.8712828" lon="11.1756408"><ele>131.4</ele><time>2026-04-16T08:20:19.96Z</time></trkpt><trkpt lat="43.8713779" lon="11.1755963"><ele>132.6</ele><time>2026-04-16T08:20:21.988Z</time></trkpt><trkpt lat="43.871482" lon="11.1755474"><ele>133.8</ele><time>2026-04-16T08:20:23.967Z</time></trkpt><trkpt lat="43.8715754" lon="11.1754996"><ele>135.0</ele><time>2026-04-16T08:20:25.965Z</time></trkpt><trkpt lat="43.871669" lon="11.1754391"><ele>137.6</ele><time>2026-04-16T08:20:27.962Z</time></trkpt><trkpt lat="43.8717975" lon="11.1753685"><ele>140.2</ele><time>2026-04-16T08:20:29.954Z</time></trkpt><trkpt lat="43.8718595" lon="11.175329"><ele>142.8</ele><time>2026-04-16T08:20:30.971Z</time></trkpt><trkpt lat="43.8719194" lon="11.1752912"><ele>145.4</ele><time>2026-04-16T08:20:31.967Z</time></trkpt><trkpt lat="43.8720338" lon="11.1752296"><ele>148.0</ele><time>2026-04-16T08:20:33.964Z</time></trkpt><trkpt lat="43.8721481" lon="11.1751644"><ele>148.0</ele><time>2026-04-16T08:20:35.963Z</time></trkpt><trkpt lat="43.8722516" lon="11.1751321"><ele>148.0</ele><time>2026-04-16T08:20:37.963Z</time></trkpt><trkpt lat="43.872356" lon="11.1751516"><ele>148.0</ele><time>2026-04-16T08:20:39.959Z</time></trkpt><trkpt lat="43.8724521" lon="11.1752001"><ele>148.0</ele><time>2026-04-16T08:20:42.013Z</time></trkpt><trkpt lat="43.8725254" lon="11.1752713"><ele>148.0</ele><time>2026-04-16T08:20:44.029Z</time></trkpt><trkpt lat="43.8726" lon="11.1753475"><ele>147.83333333333334</ele><time>2026-04-16T08:20:45.972Z</time></trkpt><trkpt lat="43.8726842" lon="11.1754075"><ele>147.66666666666669</ele><time>2026-04-16T08:20:48.02Z</time></trkpt><trkpt lat="43.8727411" lon="11.1754538"><ele>147.5</ele><time>2026-04-16T08:20:49.964Z</time></trkpt><trkpt lat="43.87281" lon="11.1755208"><ele>147.33333333333334</ele><time>2026-04-16T08:20:51.963Z</time></trkpt><trkpt lat="43.8728936" lon="11.1756016"><ele>147.16666666666666</ele><time>2026-04-16T08:20:54.035Z</time></trkpt><trkpt lat="43.8729727" lon="11.1756664"><ele>147.0</ele><time>2026-04-16T08:20:55.972Z</time></trkpt><trkpt lat="43.8730599" lon="11.1757572"><ele>148.6</ele><time>2026-04-16T08:20:58.041Z</time></trkpt><trkpt lat="43.8731441" lon="11.1758648"><ele>150.2</ele><time>2026-04-16T08:20:59.966Z</time></trkpt><trkpt lat="43.8732302" lon="11.1759414"><ele>151.8</ele><time>2026-04-16T08:21:01.983Z</time></trkpt><trkpt lat="43.8733241" lon="11.1759849"><ele>153.4</ele><time>2026-04-16T08:21:04.049Z</time></trkpt><trkpt lat="43.8734146" lon="11.176013"><ele>155.0</ele><time>2026-04-16T08:21:06.031Z</time></trkpt><trkpt lat="43.873494" lon="11.1760659"><ele>155.0</ele><time>2026-04-16T08:21:08.032Z</time></trkpt><trkpt lat="43.8735988" lon="11.1761545"><ele>155.0</ele><time>2026-04-16T08:21:09.967Z</time></trkpt><trkpt lat="43.8736649" lon="11.1761905"><ele>155.0</ele><time>2026-04-16T08:21:10.946Z</time></trkpt><trkpt lat="43.8737365" lon="11.1762329"><ele>155.0</ele><time>2026-04-16T08:21:11.95Z</time></trkpt><trkpt lat="43.8737869" lon="11.1763522"><ele>155.0</ele><time>2026-04-16T08:21:13.958Z</time></trkpt><trkpt lat="43.8737636" lon="11.1764678"><ele>159.0</ele><time>2026-04-16T08:21:15.962Z</time></trkpt><trkpt lat="43.8736287" lon="11.1766256"><ele>163.0</ele><time>2026-04-16T08:21:18.958Z</time></trkpt><trkpt lat="43.8735536" lon="11.1766873"><ele>167.0</ele><time>2026-04-16T08:21:20.969Z</time></trkpt><trkpt lat="43.8734765" lon="11.1767226"><ele>171.0</ele><time>2026-04-16T08:21:23.032Z</time></trkpt><trkpt lat="43.8734095" lon="11.1767921"><ele>175.0</ele><time>2026-04-16T08:21:24.971Z</time></trkpt><trkpt lat="43.873358" lon="11.1768666"><ele>175.0</ele><time>2026-04-16T08:21:27.963Z</time></trkpt><trkpt lat="43.8733995" lon="11.1769392"><ele>175.0</ele><time>2026-04-16T08:21:33.037Z</time></trkpt><trkpt lat="43.8734543" lon="11.1770155"><ele>175.0</ele><time>2026-04-16T08:21:35.965Z</time></trkpt><trkpt lat="43.87352" lon="11.1770441"><ele>175.0</ele><time>2026-04-16T08:21:38.97Z</time></trkpt><trkpt lat="43.8735792" lon="11.1770833"><ele>175.0</ele><time>2026-04-16T08:21:40.967Z</time></trkpt><trkpt lat="43.8736161" lon="11.1771792"><ele>175.0</ele><time>2026-04-16T08:21:43.961Z</time></trkpt><trkpt lat="43.8736202" lon="11.1772729"><ele>175.0</ele><time>2026-04-16T08:21:46.967Z</time></trkpt><trkpt lat="43.8735668" lon="11.1773708"><ele>177.57142857142858</ele><time>2026-04-16T08:21:48.961Z</time></trkpt><trkpt lat="43.8735137" lon="11.1774391"><ele>180.14285714285714</ele><time>2026-04-16T08:21:50.944Z</time></trkpt><trkpt lat="43.8734414" lon="11.1774397"><ele>182.71428571428572</ele><time>2026-04-16T08:21:52.957Z</time></trkpt><trkpt lat="43.8733847" lon="11.1774816"><ele>185.28571428571428</ele><time>2026-04-16T08:21:54.962Z</time></trkpt><trkpt lat="43.8733695" lon="11.1776016"><ele>187.85714285714286</ele><time>2026-04-16T08:21:58.974Z</time></trkpt><trkpt lat="43.8733655" lon="11.1777011"><ele>190.42857142857144</ele><time>2026-04-16T08:22:02.963Z</time></trkpt><trkpt lat="43.8734094" lon="11.1777875"><ele>193.0</ele><time>2026-04-16T08:22:07.959Z</time></trkpt><trkpt lat="43.8734673" lon="11.1778349"><ele>193.00000000000003</ele><time>2026-04-16T08:22:09.977Z</time></trkpt><trkpt lat="43.8735196" lon="11.1779207"><ele>193.0</ele><time>2026-04-16T08:22:11.966Z</time></trkpt><trkpt lat="43.8735715" lon="11.1779881"><ele>193.0</ele><time>2026-04-16T08:22:13.961Z</time></trkpt><trkpt lat="43.8736225" lon="11.1780476"><ele>193.0</ele><time>2026-04-16T08:22:15.975Z</time></trkpt><trkpt lat="43.8736783" lon="11.1781177"><ele>193.0</ele><time>2026-04-16T08:22:17.964Z</time></trkpt><trkpt lat="43.8736918" lon="11.1782182"><ele>193.00000000000003</ele><time>2026-04-16T08:22:19.971Z</time></trkpt><trkpt lat="43.8736891" lon="11.1783116"><ele>193.0</ele><time>2026-04-16T08:22:21.968Z</time></trkpt><trkpt lat="43.8736844" lon="11.1784266"><ele>196.60000000000002</ele><time>2026-04-16T08:22:23.97Z</time></trkpt><trkpt lat="43.8736826" lon="11.1785322"><ele>200.20000000000002</ele><time>2026-04-16T08:22:25.963Z</time></trkpt><trkpt lat="43.8737618" lon="11.1786459"><ele>203.8</ele><time>2026-04-16T08:22:27.972Z</time></trkpt><trkpt lat="43.8738187" lon="11.1786926"><ele>207.4</ele><time>2026-04-16T08:22:28.971Z</time></trkpt><trkpt lat="43.8739124" lon="11.1787856"><ele>211.0</ele><time>2026-04-16T08:22:30.975Z</time></trkpt><trkpt lat="43.8739887" lon="11.178908"><ele>214.0</ele><time>2026-04-16T08:22:32.98Z</time></trkpt><trkpt lat="43.8740626" lon="11.1790253"><ele>217.0</ele><time>2026-04-16T08:22:34.974Z</time></trkpt><trkpt lat="43.8741421" lon="11.1791082"><ele>220.00000000000003</ele><time>2026-04-16T08:22:36.971Z</time></trkpt><trkpt lat="43.8741873" lon="11.1792054"><ele>223.0</ele><time>2026-04-16T08:22:39.025Z</time></trkpt><trkpt lat="43.874172" lon="11.1793051"><ele>226.0</ele><time>2026-04-16T08:22:41.035Z</time></trkpt><trkpt lat="43.8741289" lon="11.1794287"><ele>225.99999999999997</ele><time>2026-04-16T08:22:43.032Z</time></trkpt><trkpt lat="43.8741103" lon="11.179561"><ele>226.0</ele><time>2026-04-16T08:22:44.953Z</time></trkpt><trkpt lat="43.8740688" lon="11.1796534"><ele>226.0</ele><time>2026-04-16T08:22:46.968Z</time></trkpt><trkpt lat="43.8740379" lon="11.179742"><ele>226.0</ele><time>2026-04-16T08:22:48.955Z</time></trkpt><trkpt lat="43.8740068" lon="11.179843"><ele>225.99999999999997</ele><time>2026-04-16T08:22:52.031Z</time></trkpt><trkpt lat="43.8739871" lon="11.1799509"><ele>226.0</ele><time>2026-04-16T08:22:53.965Z</time></trkpt><trkpt lat="43.8739994" lon="11.1800892"><ele>227.60000000000002</ele><time>2026-04-16T08:22:55.959Z</time></trkpt><trkpt lat="43.8740157" lon="11.1801791"><ele>229.20000000000002</ele><time>2026-04-16T08:22:57.02Z</time></trkpt><trkpt lat="43.8740297" lon="11.1803228"><ele>230.79999999999998</ele><time>2026-04-16T08:22:59.01Z</time></trkpt><trkpt lat="43.8739986" lon="11.1804598"><ele>232.39999999999998</ele><time>2026-04-16T08:23:00.965Z</time></trkpt><trkpt lat="43.8739413" lon="11.1806099"><ele>234.0</ele><time>2026-04-16T08:23:02.96Z</time></trkpt><trkpt lat="43.8739004" lon="11.1806946"><ele>234.83333333333334</ele><time>2026-04-16T08:23:03.955Z</time></trkpt><trkpt lat="43.8738501" lon="11.1807599"><ele>235.66666666666669</ele><time>2026-04-16T08:23:04.986Z</time></trkpt><trkpt lat="43.8738042" lon="11.1808234"><ele>236.5</ele><time>2026-04-16T08:23:06.021Z</time></trkpt><trkpt lat="43.8737518" lon="11.1808995"><ele>237.33333333333334</ele><time>2026-04-16T08:23:07.041Z</time></trkpt><trkpt lat="43.8737029" lon="11.1809637"><ele>238.16666666666669</ele><time>2026-04-16T08:23:08.03Z</time></trkpt><trkpt lat="43.8736529" lon="11.1810203"><ele>239.0</ele><time>2026-04-16T08:23:08.968Z</time></trkpt><trkpt lat="43.8735478" lon="11.1811438"><ele>239.00000000000003</ele><time>2026-04-16T08:23:10.959Z</time></trkpt><trkpt lat="43.8734846" lon="11.1812102"><ele>239.0</ele><time>2026-04-16T08:23:11.959Z</time></trkpt><trkpt lat="43.8734229" lon="11.1812769"><ele>239.0</ele><time>2026-04-16T08:23:12.96Z</time></trkpt><trkpt lat="43.8733736" lon="11.181336"><ele>239.0</ele><time>2026-04-16T08:23:14.03Z</time></trkpt><trkpt lat="43.873328" lon="11.1814065"><ele>239.00000000000003</ele><time>2026-04-16T08:23:14.961Z</time></trkpt><trkpt lat="43.8732783" lon="11.1814717"><ele>239.0</ele><time>2026-04-16T08:23:15.967Z</time></trkpt><trkpt lat="43.8731896" lon="11.1815851"><ele>236.39999999999998</ele><time>2026-04-16T08:23:17.962Z</time></trkpt><trkpt lat="43.8731356" lon="11.1817084"><ele>233.79999999999998</ele><time>2026-04-16T08:23:19.967Z</time></trkpt><trkpt lat="43.8731041" lon="11.1818623"><ele>231.20000000000002</ele><time>2026-04-16T08:23:22.003Z</time></trkpt><trkpt lat="43.8730694" lon="11.1819861"><ele>228.60000000000002</ele><time>2026-04-16T08:23:23.955Z</time></trkpt><trkpt lat="43.8729962" lon="11.1821104"><ele>226.0</ele><time>2026-04-16T08:23:25.974Z</time></trkpt><trkpt lat="43.8729052" lon="11.1822176"><ele>226.0</ele><time>2026-04-16T08:23:27.965Z</time></trkpt><trkpt lat="43.8728012" lon="11.1823066"><ele>226.00000000000003</ele><time>2026-04-16T08:23:29.961Z</time></trkpt><trkpt lat="43.8727128" lon="11.1823905"><ele>226.00000000000003</ele><time>2026-04-16T08:23:31.972Z</time></trkpt><trkpt lat="43.8725979" lon="11.1824779"><ele>226.0</ele><time>2026-04-16T08:23:33.953Z</time></trkpt><trkpt lat="43.8725539" lon="11.182542"><ele>226.0</ele><time>2026-04-16T08:23:34.97Z</time></trkpt><trkpt lat="43.872464" lon="11.1826289"><ele>224.0</ele><time>2026-04-16T08:23:36.974Z</time></trkpt><trkpt lat="43.8723569" lon="11.1826481"><ele>222.0</ele><time>2026-04-16T08:23:39.032Z</time></trkpt><trkpt lat="43.8722047" lon="11.1826818"><ele>220.0</ele><time>2026-04-16T08:23:40.994Z</time></trkpt><trkpt lat="43.872079" lon="11.1827402"><ele>218.0</ele><time>2026-04-16T08:23:42.966Z</time></trkpt><trkpt lat="43.8720125" lon="11.1827671"><ele>218.0</ele><time>2026-04-16T08:23:44.017Z</time></trkpt><trkpt lat="43.8719459" lon="11.1827787"><ele>218.0</ele><time>2026-04-16T08:23:44.961Z</time></trkpt><trkpt lat="43.8718398" lon="11.1827799"><ele>218.0</ele><time>2026-04-16T08:23:46.951Z</time></trkpt><trkpt lat="43.8717706" lon="11.1827763"><ele>218.0</ele><time>2026-04-16T08:23:47.963Z</time></trkpt><trkpt lat="43.871657" lon="11.1827832"><ele>218.0</ele><time>2026-04-16T08:23:49.966Z</time></trkpt><trkpt lat="43.8715369" lon="11.1828185"><ele>217.8</ele><time>2026-04-16T08:23:51.966Z</time></trkpt><trkpt lat="43.8714286" lon="11.1828629"><ele>217.60000000000002</ele><time>2026-04-16T08:23:53.961Z</time></trkpt><trkpt lat="43.8713249" lon="11.1829117"><ele>217.39999999999998</ele><time>2026-04-16T08:23:55.965Z</time></trkpt><trkpt lat="43.8712538" lon="11.1829891"><ele>217.2</ele><time>2026-04-16T08:23:57.969Z</time></trkpt><trkpt lat="43.871192" lon="11.1830972"><ele>217.0</ele><time>2026-04-16T08:23:59.958Z</time></trkpt><trkpt lat="43.8711304" lon="11.1832007"><ele>216.99999999999997</ele><time>2026-04-16T08:24:01.974Z</time></trkpt><trkpt lat="43.8710472" lon="11.1832614"><ele>217.0</ele><time>2026-04-16T08:24:03.963Z</time></trkpt><trkpt lat="43.8709647" lon="11.1832471"><ele>217.0</ele><time>2026-04-16T08:24:05.958Z</time></trkpt><trkpt lat="43.8708982" lon="11.183205"><ele>217.0</ele><time>2026-04-16T08:24:08.029Z</time></trkpt><trkpt lat="43.8708315" lon="11.18312"><ele>216.99999999999997</ele><time>2026-04-16T08:24:09.974Z</time></trkpt><trkpt lat="43.8707627" lon="11.1830371"><ele>217.0</ele><time>2026-04-16T08:24:11.967Z</time></trkpt><trkpt lat="43.8706811" lon="11.1829719"><ele>212.0</ele><time>2026-04-16T08:24:13.964Z</time></trkpt><trkpt lat="43.8705971" lon="11.1829035"><ele>207.0</ele><time>2026-04-16T08:24:15.961Z</time></trkpt><trkpt lat="43.8705103" lon="11.1828252"><ele>202.0</ele><time>2026-04-16T08:24:17.967Z</time></trkpt><trkpt lat="43.8704397" lon="11.1827405"><ele>197.0</ele><time>2026-04-16T08:24:19.964Z</time></trkpt><trkpt lat="43.8703675" lon="11.1826431"><ele>192.0</ele><time>2026-04-16T08:24:22.033Z</time></trkpt><trkpt lat="43.870327" lon="11.1825759"><ele>191.99999999999997</ele><time>2026-04-16T08:24:22.953Z</time></trkpt><trkpt lat="43.8702738" lon="11.1824997"><ele>192.0</ele><time>2026-04-16T08:24:23.973Z</time></trkpt><trkpt lat="43.8702212" lon="11.1824191"><ele>192.0</ele><time>2026-04-16T08:24:24.954Z</time></trkpt><trkpt lat="43.8701832" lon="11.1823493"><ele>192.0</ele><time>2026-04-16T08:24:25.952Z</time></trkpt><trkpt lat="43.8701387" lon="11.1822812"><ele>192.0</ele><time>2026-04-16T08:24:26.962Z</time></trkpt><trkpt lat="43.8700888" lon="11.1822226"><ele>191.99999999999997</ele><time>2026-04-16T08:24:27.962Z</time></trkpt><trkpt lat="43.8700051" lon="11.1821582"><ele>192.0</ele><time>2026-04-16T08:24:29.951Z</time></trkpt><trkpt lat="43.8699433" lon="11.1821762"><ele>188.39999999999998</ele><time>2026-04-16T08:24:31.957Z</time></trkpt><trkpt lat="43.869846" lon="11.1822212"><ele>184.79999999999998</ele><time>2026-04-16T08:24:33.962Z</time></trkpt><trkpt lat="43.8697366" lon="11.1822778"><ele>181.2</ele><time>2026-04-16T08:24:35.959Z</time></trkpt><trkpt lat="43.8696497" lon="11.1823639"><ele>177.6</ele><time>2026-04-16T08:24:37.964Z</time></trkpt><trkpt lat="43.8695555" lon="11.1824333"><ele>174.0</ele><time>2026-04-16T08:24:39.971Z</time></trkpt><trkpt lat="43.8694751" lon="11.1825395"><ele>174.0</ele><time>2026-04-16T08:24:41.94Z</time></trkpt><trkpt lat="43.8694134" lon="11.182641"><ele>174.0</ele><time>2026-04-16T08:24:44.013Z</time></trkpt><trkpt lat="43.8693814" lon="11.1827578"><ele>174.0</ele><time>2026-04-16T08:24:45.942Z</time></trkpt><trkpt lat="43.8693541" lon="11.1828572"><ele>174.0</ele><time>2026-04-16T08:24:47.962Z</time></trkpt><trkpt lat="43.8693812" lon="11.1829485"><ele>174.0</ele><time>2026-04-16T08:24:54.958Z</time></trkpt><trkpt lat="43.8694499" lon="11.182982"><ele>174.0</ele><time>2026-04-16T08:24:57.956Z</time></trkpt><trkpt lat="43.8694966" lon="11.1830425"><ele>174.0</ele><time>2026-04-16T08:25:00.95Z</time></trkpt><trkpt lat="43.8695407" lon="11.1831526"><ele>174.0</ele><time>2026-04-16T08:25:03.965Z</time></trkpt><trkpt lat="43.86956" lon="11.1832384"><ele>174.0</ele><time>2026-04-16T08:25:06.96Z</time></trkpt><trkpt lat="43.8696025" lon="11.1833276"><ele>174.0</ele><time>2026-04-16T08:25:09.958Z</time></trkpt><trkpt lat="43.8696283" lon="11.1834129"><ele>174.0</ele><time>2026-04-16T08:25:12.965Z</time></trkpt><trkpt lat="43.8696581" lon="11.1834941"><ele>174.0</ele><time>2026-04-16T08:25:34.967Z</time></trkpt><trkpt lat="43.8696166" lon="11.183581"><ele>174.0</ele><time>2026-04-16T08:25:46.958Z</time></trkpt><trkpt lat="43.8695459" lon="11.1836463"><ele>173.83333333333334</ele><time>2026-04-16T08:25:50.969Z</time></trkpt><trkpt lat="43.8694817" lon="11.1836997"><ele>173.66666666666666</ele><time>2026-04-16T08:25:53.954Z</time></trkpt><trkpt lat="43.8694285" lon="11.183748"><ele>173.5</ele><time>2026-04-16T08:25:56.944Z</time></trkpt><trkpt lat="43.8693756" lon="11.1838401"><ele>173.33333333333331</ele><time>2026-04-16T08:25:59.947Z</time></trkpt><trkpt lat="43.8693482" lon="11.1839371"><ele>173.16666666666666</ele><time>2026-04-16T08:26:01.949Z</time></trkpt><trkpt lat="43.8693096" lon="11.1840524"><ele>173.0</ele><time>2026-04-16T08:26:03.961Z</time></trkpt><trkpt lat="43.8692832" lon="11.1841647"><ele>173.0</ele><time>2026-04-16T08:26:05.949Z</time></trkpt><trkpt lat="43.8692734" lon="11.1842524"><ele>173.0</ele><time>2026-04-16T08:26:07.957Z</time></trkpt><trkpt lat="43.8692806" lon="11.1843633"><ele>173.0</ele><time>2026-04-16T08:26:10.966Z</time></trkpt><trkpt lat="43.8692894" lon="11.1844882"><ele>173.0</ele><time>2026-04-16T08:26:13.948Z</time></trkpt><trkpt lat="43.8693" lon="11.1845753"><ele>173.0</ele><time>2026-04-16T08:26:15.963Z</time></trkpt><trkpt lat="43.8693117" lon="11.184667"><ele>173.0</ele><time>2026-04-16T08:26:17.964Z</time></trkpt><trkpt lat="43.8693281" lon="11.18478"><ele>173.0</ele><time>2026-04-16T08:26:20.956Z</time></trkpt><trkpt lat="43.8693545" lon="11.1848733"><ele>173.83333333333331</ele><time>2026-04-16T08:26:23.959Z</time></trkpt><trkpt lat="43.8693914" lon="11.1849833"><ele>174.66666666666666</ele><time>2026-04-16T08:26:26.971Z</time></trkpt><trkpt lat="43.8694116" lon="11.1850801"><ele>175.5</ele><time>2026-04-16T08:26:28.955Z</time></trkpt><trkpt lat="43.8694029" lon="11.1852003"><ele>176.33333333333334</ele><time>2026-04-16T08:26:31.958Z</time></trkpt><trkpt lat="43.8694063" lon="11.1853008"><ele>177.16666666666669</ele><time>2026-04-16T08:26:34.96Z</time></trkpt><trkpt lat="43.869365" lon="11.1853902"><ele>178.0</ele><time>2026-04-16T08:26:37.962Z</time></trkpt><trkpt lat="43.8693044" lon="11.1854541"><ele>174.16666666666669</ele><time>2026-04-16T08:26:39.963Z</time></trkpt><trkpt lat="43.8692332" lon="11.1854915"><ele>170.33333333333334</ele><time>2026-04-16T08:26:41.963Z</time></trkpt><trkpt lat="43.8691607" lon="11.1855289"><ele>166.5</ele><time>2026-04-16T08:26:43.961Z</time></trkpt><trkpt lat="43.869094" lon="11.1855586"><ele>162.66666666666666</ele><time>2026-04-16T08:26:45.965Z</time></trkpt><trkpt lat="43.8690187" lon="11.1855861"><ele>158.83333333333331</ele><time>2026-04-16T08:26:48.955Z</time></trkpt><trkpt lat="43.8689295" lon="11.185617"><ele>155.0</ele><time>2026-04-16T08:26:51.966Z</time></trkpt><trkpt lat="43.8688604" lon="11.1856411"><ele>155.0</ele><time>2026-04-16T08:26:53.963Z</time></trkpt><trkpt lat="43.8687908" lon="11.1856716"><ele>155.0</ele><time>2026-04-16T08:26:55.959Z</time></trkpt><trkpt lat="43.8687249" lon="11.1856968"><ele>155.0</ele><time>2026-04-16T08:26:57.961Z</time></trkpt><trkpt lat="43.8686566" lon="11.1857204"><ele>155.0</ele><time>2026-04-16T08:26:59.97Z</time></trkpt><trkpt lat="43.8685819" lon="11.1857441"><ele>155.0</ele><time>2026-04-16T08:27:01.964Z</time></trkpt><trkpt lat="43.8685034" lon="11.1857562"><ele>155.0</ele><time>2026-04-16T08:27:03.969Z</time></trkpt><trkpt lat="43.868431" lon="11.1857401"><ele>155.0</ele><time>2026-04-16T08:27:05.967Z</time></trkpt><trkpt lat="43.8683532" lon="11.1857263"><ele>155.0</ele><time>2026-04-16T08:27:07.971Z</time></trkpt><trkpt lat="43.8682493" lon="11.1857227"><ele>155.0</ele><time>2026-04-16T08:27:09.955Z</time></trkpt><trkpt lat="43.8681402" lon="11.1857442"><ele>155.0</ele><time>2026-04-16T08:27:10.94Z</time></trkpt><trkpt lat="43.8680441" lon="11.185779"><ele>155.0</ele><time>2026-04-16T08:27:11.961Z</time></trkpt><trkpt lat="43.86793" lon="11.1858155"><ele>155.0</ele><time>2026-04-16T08:27:12.958Z</time></trkpt><trkpt lat="43.8678425" lon="11.1858308"><ele>155.0</ele><time>2026-04-16T08:27:13.959Z</time></trkpt><trkpt lat="43.8677485" lon="11.1858426"><ele>155.0</ele><time>2026-04-16T08:27:14.96Z</time></trkpt><trkpt lat="43.8676448" lon="11.1858539"><ele>155.0</ele><time>2026-04-16T08:27:15.962Z</time></trkpt><trkpt lat="43.8675397" lon="11.1858521"><ele>155.0</ele><time>2026-04-16T08:27:16.97Z</time></trkpt><trkpt lat="43.8674207" lon="11.1858603"><ele>155.0</ele><time>2026-04-16T08:27:17.959Z</time></trkpt><trkpt lat="43.8673077" lon="11.1858706"><ele>153.6</ele><time>2026-04-16T08:27:18.952Z</time></trkpt><trkpt lat="43.8672082" lon="11.1858749"><ele>152.2</ele><time>2026-04-16T08:27:19.958Z</time></trkpt><trkpt lat="43.8671096" lon="11.1859113"><ele>150.8</ele><time>2026-04-16T08:27:20.934Z</time></trkpt><trkpt lat="43.8670036" lon="11.1859452"><ele>149.4</ele><time>2026-04-16T08:27:21.956Z</time></trkpt><trkpt lat="43.8669324" lon="11.1859468"><ele>148.0</ele><time>2026-04-16T08:27:22.959Z</time></trkpt><trkpt lat="43.8668521" lon="11.1859167"><ele>145.0</ele><time>2026-04-16T08:27:23.966Z</time></trkpt><trkpt lat="43.8667534" lon="11.1858237"><ele>142.0</ele><time>2026-04-16T08:27:24.948Z</time></trkpt><trkpt lat="43.8667068" lon="11.1856985"><ele>139.0</ele><time>2026-04-16T08:27:25.952Z</time></trkpt><trkpt lat="43.8666876" lon="11.185563"><ele>136.0</ele><time>2026-04-16T08:27:26.962Z</time></trkpt><trkpt lat="43.866676" lon="11.18542"><ele>133.0</ele><time>2026-04-16T08:27:27.938Z</time></trkpt><trkpt lat="43.8666638" lon="11.1852912"><ele>131.4</ele><time>2026-04-16T08:27:28.968Z</time></trkpt><trkpt lat="43.8666255" lon="11.1851889"><ele>129.8</ele><time>2026-04-16T08:27:29.961Z</time></trkpt><trkpt lat="43.8665097" lon="11.1851069"><ele>128.2</ele><time>2026-04-16T08:27:31.962Z</time></trkpt><trkpt lat="43.8664296" lon="11.1851242"><ele>126.6</ele><time>2026-04-16T08:27:32.962Z</time></trkpt><trkpt lat="43.8663484" lon="11.1851493"><ele>125.0</ele><time>2026-04-16T08:27:33.955Z</time></trkpt><trkpt lat="43.8662673" lon="11.1851593"><ele>125.0</ele><time>2026-04-16T08:27:34.958Z</time></trkpt><trkpt lat="43.8661779" lon="11.185176"><ele>125.0</ele><time>2026-04-16T08:27:35.96Z</time></trkpt><trkpt lat="43.8660816" lon="11.1851881"><ele>125.0</ele><time>2026-04-16T08:27:36.959Z</time></trkpt><trkpt lat="43.8659837" lon="11.1851894"><ele>125.0</ele><time>2026-04-16T08:27:37.953Z</time></trkpt><trkpt lat="43.8658856" lon="11.1851858"><ele>125.0</ele><time>2026-04-16T08:27:38.959Z</time></trkpt><trkpt lat="43.8657816" lon="11.1851751"><ele>123.0</ele><time>2026-04-16T08:27:39.951Z</time></trkpt><trkpt lat="43.8656754" lon="11.1851472"><ele>121.0</ele><time>2026-04-16T08:27:40.961Z</time></trkpt><trkpt lat="43.8655654" lon="11.1851193"><ele>119.0</ele><time>2026-04-16T08:27:41.957Z</time></trkpt><trkpt lat="43.8654482" lon="11.1850884"><ele>117.0</ele><time>2026-04-16T08:27:42.959Z</time></trkpt><trkpt lat="43.8653249" lon="11.1850372"><ele>117.0</ele><time>2026-04-16T08:27:43.957Z</time></trkpt><trkpt lat="43.8652091" lon="11.1849857"><ele>116.99999999999999</ele><time>2026-04-16T08:27:44.958Z</time></trkpt><trkpt lat="43.8651015" lon="11.1849219"><ele>116.99999999999999</ele><time>2026-04-16T08:27:45.972Z</time></trkpt><trkpt lat="43.8650144" lon="11.1848657"><ele>117.0</ele><time>2026-04-16T08:27:46.942Z</time></trkpt><trkpt lat="43.8649528" lon="11.1848393"><ele>117.0</ele><time>2026-04-16T08:27:47.964Z</time></trkpt><trkpt lat="43.8648947" lon="11.1848771"><ele>115.39999999999999</ele><time>2026-04-16T08:27:53.961Z</time></trkpt><trkpt lat="43.8648987" lon="11.185018"><ele>113.79999999999998</ele><time>2026-04-16T08:27:55.957Z</time></trkpt><trkpt lat="43.8649023" lon="11.1851251"><ele>112.2</ele><time>2026-04-16T08:27:56.966Z</time></trkpt><trkpt lat="43.8648957" lon="11.1852681"><ele>110.6</ele><time>2026-04-16T08:27:57.973Z</time></trkpt><trkpt lat="43.8648778" lon="11.1854027"><ele>109.0</ele><time>2026-04-16T08:27:58.962Z</time></trkpt><trkpt lat="43.8648666" lon="11.1855626"><ele>109.0</ele><time>2026-04-16T08:27:59.963Z</time></trkpt><trkpt lat="43.8648662" lon="11.1857434"><ele>109.0</ele><time>2026-04-16T08:28:00.963Z</time></trkpt><trkpt lat="43.8648731" lon="11.1859267"><ele>109.0</ele><time>2026-04-16T08:28:01.963Z</time></trkpt><trkpt lat="43.8648687" lon="11.1861353"><ele>109.0</ele><time>2026-04-16T08:28:02.964Z</time></trkpt><trkpt lat="43.8648653" lon="11.1863379"><ele>109.0</ele><time>2026-04-16T08:28:03.959Z</time></trkpt><trkpt lat="43.8648664" lon="11.1865356"><ele>109.0</ele><time>2026-04-16T08:28:04.97Z</time></trkpt><trkpt lat="43.8648768" lon="11.186743"><ele>109.0</ele><time>2026-04-16T08:28:05.964Z</time></trkpt><trkpt lat="43.8648933" lon="11.1869704"><ele>109.0</ele><time>2026-04-16T08:28:06.97Z</time></trkpt><trkpt lat="43.8649032" lon="11.1872034"><ele>109.0</ele><time>2026-04-16T08:28:07.961Z</time></trkpt><trkpt lat="43.8649102" lon="11.1874386"><ele>109.0</ele><time>2026-04-16T08:28:08.952Z</time></trkpt><trkpt lat="43.8649118" lon="11.1876618"><ele>109.4</ele><time>2026-04-16T08:28:09.979Z</time></trkpt><trkpt lat="43.8649113" lon="11.1878619"><ele>109.80000000000001</ele><time>2026-04-16T08:28:10.965Z</time></trkpt><trkpt lat="43.8649027" lon="11.1880381"><ele>110.19999999999999</ele><time>2026-04-16T08:28:11.958Z</time></trkpt><trkpt lat="43.864903" lon="11.1881777"><ele>110.6</ele><time>2026-04-16T08:28:12.961Z</time></trkpt><trkpt lat="43.8649083" lon="11.1882831"><ele>111.0</ele><time>2026-04-16T08:28:13.967Z</time></trkpt><trkpt lat="43.8648386" lon="11.1883965"><ele>111.75</ele><time>2026-04-16T08:28:15.966Z</time></trkpt><trkpt lat="43.8647582" lon="11.1884505"><ele>112.5</ele><time>2026-04-16T08:28:16.969Z</time></trkpt><trkpt lat="43.8646672" lon="11.1885288"><ele>113.25</ele><time>2026-04-16T08:28:17.965Z</time></trkpt><trkpt lat="43.8645543" lon="11.1885985"><ele>114.0</ele><time>2026-04-16T08:28:18.965Z</time></trkpt><trkpt lat="43.8644165" lon="11.1886477"><ele>112.25</ele><time>2026-04-16T08:28:19.973Z</time></trkpt><trkpt lat="43.864275" lon="11.1886765"><ele>110.5</ele><time>2026-04-16T08:28:20.962Z</time></trkpt><trkpt lat="43.8641346" lon="11.1887119"><ele>108.75</ele><time>2026-04-16T08:28:21.962Z</time></trkpt><trkpt lat="43.8639925" lon="11.188735"><ele>107.0</ele><time>2026-04-16T08:28:22.974Z</time></trkpt><trkpt lat="43.8638631" lon="11.1887666"><ele>107.0</ele><time>2026-04-16T08:28:23.969Z</time></trkpt><trkpt lat="43.8637395" lon="11.1887953"><ele>106.99999999999999</ele><time>2026-04-16T08:28:24.965Z</time></trkpt><trkpt lat="43.8636203" lon="11.1888275"><ele>106.99999999999999</ele><time>2026-04-16T08:28:25.96Z</time></trkpt><trkpt lat="43.8635294" lon="11.1888535"><ele>107.0</ele><time>2026-04-16T08:28:26.966Z</time></trkpt><trkpt lat="43.8634622" lon="11.1888921"><ele>107.0</ele><time>2026-04-16T08:28:27.965Z</time></trkpt><trkpt lat="43.8634171" lon="11.1889587"><ele>106.83333333333333</ele><time>2026-04-16T08:28:28.962Z</time></trkpt><trkpt lat="43.8633878" lon="11.1890502"><ele>106.66666666666666</ele><time>2026-04-16T08:28:29.964Z</time></trkpt><trkpt lat="43.8633474" lon="11.189146"><ele>106.5</ele><time>2026-04-16T08:28:30.972Z</time></trkpt><trkpt lat="43.8632846" lon="11.1892073"><ele>106.33333333333334</ele><time>2026-04-16T08:28:31.966Z</time></trkpt><trkpt lat="43.8631903" lon="11.189231"><ele>106.16666666666667</ele><time>2026-04-16T08:28:32.958Z</time></trkpt><trkpt lat="43.8630841" lon="11.189211"><ele>106.0</ele><time>2026-04-16T08:28:33.962Z</time></trkpt><trkpt lat="43.862973" lon="11.1891877"><ele>106.0</ele><time>2026-04-16T08:28:34.94Z</time></trkpt><trkpt lat="43.8628627" lon="11.1891568"><ele>106.0</ele><time>2026-04-16T08:28:35.963Z</time></trkpt><trkpt lat="43.8627334" lon="11.1891296"><ele>106.0</ele><time>2026-04-16T08:28:36.954Z</time></trkpt><trkpt lat="43.8626101" lon="11.1890906"><ele>106.0</ele><time>2026-04-16T08:28:37.964Z</time></trkpt><trkpt lat="43.862493" lon="11.1890305"><ele>106.0</ele><time>2026-04-16T08:28:38.949Z</time></trkpt><trkpt lat="43.8623919" lon="11.1889465"><ele>106.0</ele><time>2026-04-16T08:28:39.968Z</time></trkpt><trkpt lat="43.8622883" lon="11.188843"><ele>106.0</ele><time>2026-04-16T08:28:40.968Z</time></trkpt><trkpt lat="43.8621998" lon="11.1887207"><ele>106.0</ele><time>2026-04-16T08:28:41.971Z</time></trkpt><trkpt lat="43.862126" lon="11.1885804"><ele>106.0</ele><time>2026-04-16T08:28:42.957Z</time></trkpt><trkpt lat="43.8620838" lon="11.1884415"><ele>106.0</ele><time>2026-04-16T08:28:43.957Z</time></trkpt><trkpt lat="43.8620626" lon="11.1882962"><ele>106.0</ele><time>2026-04-16T08:28:44.964Z</time></trkpt><trkpt lat="43.8620434" lon="11.1881446"><ele>106.0</ele><time>2026-04-16T08:28:45.972Z</time></trkpt><trkpt lat="43.8619956" lon="11.1880054"><ele>106.0</ele><time>2026-04-16T08:28:46.97Z</time></trkpt><trkpt lat="43.8619195" lon="11.1878851"><ele>106.0</ele><time>2026-04-16T08:28:47.966Z</time></trkpt><trkpt lat="43.8618342" lon="11.1877365"><ele>106.0</ele><time>2026-04-16T08:28:48.965Z</time></trkpt><trkpt lat="43.8617607" lon="11.1875849"><ele>106.0</ele><time>2026-04-16T08:28:49.967Z</time></trkpt><trkpt lat="43.8616843" lon="11.187433"><ele>106.0</ele><time>2026-04-16T08:28:50.949Z</time></trkpt><trkpt lat="43.8616041" lon="11.1872893"><ele>104.75</ele><time>2026-04-16T08:28:51.944Z</time></trkpt><trkpt lat="43.8615225" lon="11.187145"><ele>103.5</ele><time>2026-04-16T08:28:52.972Z</time></trkpt><trkpt lat="43.861435" lon="11.1869952"><ele>102.25</ele><time>2026-04-16T08:28:53.971Z</time></trkpt><trkpt lat="43.8613494" lon="11.1868516"><ele>101.0</ele><time>2026-04-16T08:28:54.974Z</time></trkpt><trkpt lat="43.8612548" lon="11.1866978"><ele>101.0</ele><time>2026-04-16T08:28:55.951Z</time></trkpt><trkpt lat="43.8611589" lon="11.1865472"><ele>101.0</ele><time>2026-04-16T08:28:56.981Z</time></trkpt><trkpt lat="43.8610666" lon="11.1863929"><ele>101.0</ele><time>2026-04-16T08:28:57.969Z</time></trkpt><trkpt lat="43.8609794" lon="11.1862364"><ele>101.0</ele><time>2026-04-16T08:28:58.957Z</time></trkpt><trkpt lat="43.8609099" lon="11.1860712"><ele>101.0</ele><time>2026-04-16T08:28:59.965Z</time></trkpt><trkpt lat="43.8608629" lon="11.1859152"><ele>101.0</ele><time>2026-04-16T08:29:00.966Z</time></trkpt><trkpt lat="43.8608272" lon="11.1857575"><ele>101.0</ele><time>2026-04-16T08:29:01.957Z</time></trkpt><trkpt lat="43.8607753" lon="11.1856039"><ele>101.0</ele><time>2026-04-16T08:29:02.95Z</time></trkpt><trkpt lat="43.8606991" lon="11.1854628"><ele>100.5</ele><time>2026-04-16T08:29:03.944Z</time></trkpt><trkpt lat="43.8606191" lon="11.1853174"><ele>100.0</ele><time>2026-04-16T08:29:04.966Z</time></trkpt><trkpt lat="43.8605356" lon="11.1851749"><ele>99.5</ele><time>2026-04-16T08:29:05.956Z</time></trkpt><trkpt lat="43.8604553" lon="11.1850237"><ele>99.0</ele><time>2026-04-16T08:29:06.968Z</time></trkpt><trkpt lat="43.8603656" lon="11.1848817"><ele>98.5</ele><time>2026-04-16T08:29:07.96Z</time></trkpt><trkpt lat="43.8602632" lon="11.1847515"><ele>98.0</ele><time>2026-04-16T08:29:08.96Z</time></trkpt><trkpt lat="43.8601402" lon="11.184637"><ele>97.5</ele><time>2026-04-16T08:29:09.959Z</time></trkpt><trkpt lat="43.8600157" lon="11.1845279"><ele>97.0</ele><time>2026-04-16T08:29:10.974Z</time></trkpt><trkpt lat="43.8598956" lon="11.1844087"><ele>97.0</ele><time>2026-04-16T08:29:11.957Z</time></trkpt><trkpt lat="43.8597713" lon="11.1842777"><ele>97.0</ele><time>2026-04-16T08:29:12.961Z</time></trkpt><trkpt lat="43.8596504" lon="11.1841527"><ele>97.0</ele><time>2026-04-16T08:29:13.978Z</time></trkpt><trkpt lat="43.8595273" lon="11.1840208"><ele>96.0</ele><time>2026-04-16T08:29:14.963Z</time></trkpt><trkpt lat="43.8594055" lon="11.1839011"><ele>95.0</ele><time>2026-04-16T08:29:15.963Z</time></trkpt><trkpt lat="43.8592843" lon="11.1837816"><ele>94.0</ele><time>2026-04-16T08:29:16.971Z</time></trkpt><trkpt lat="43.8591583" lon="11.1836563"><ele>94.0</ele><time>2026-04-16T08:29:17.96Z</time></trkpt><trkpt lat="43.8590443" lon="11.1835435"><ele>94.0</ele><time>2026-04-16T08:29:18.97Z</time></trkpt><trkpt lat="43.8589379" lon="11.1834369"><ele>94.0</ele><time>2026-04-16T08:29:19.967Z</time></trkpt><trkpt lat="43.8588261" lon="11.1833301"><ele>94.0</ele><time>2026-04-16T08:29:20.971Z</time></trkpt><trkpt lat="43.8587152" lon="11.1832136"><ele>92.75</ele><time>2026-04-16T08:29:21.944Z</time></trkpt><trkpt lat="43.8585968" lon="11.1830908"><ele>91.5</ele><time>2026-04-16T08:29:22.979Z</time></trkpt><trkpt lat="43.8584793" lon="11.1829739"><ele>90.25</ele><time>2026-04-16T08:29:23.969Z</time></trkpt><trkpt lat="43.8583605" lon="11.1828706"><ele>89.0</ele><time>2026-04-16T08:29:24.967Z</time></trkpt><trkpt lat="43.8582405" lon="11.182771"><ele>89.0</ele><time>2026-04-16T08:29:25.972Z</time></trkpt><trkpt lat="43.8581222" lon="11.1826755"><ele>89.0</ele><time>2026-04-16T08:29:26.974Z</time></trkpt><trkpt lat="43.8579998" lon="11.1825876"><ele>89.0</ele><time>2026-04-16T08:29:27.966Z</time></trkpt><trkpt lat="43.8578683" lon="11.1824889"><ele>89.0</ele><time>2026-04-16T08:29:28.971Z</time></trkpt><trkpt lat="43.8577445" lon="11.1823942"><ele>88.75</ele><time>2026-04-16T08:29:29.963Z</time></trkpt><trkpt lat="43.8576273" lon="11.1822913"><ele>88.5</ele><time>2026-04-16T08:29:30.951Z</time></trkpt><trkpt lat="43.8575253" lon="11.1821725"><ele>88.25</ele><time>2026-04-16T08:29:31.97Z</time></trkpt><trkpt lat="43.857431" lon="11.1820341"><ele>88.0</ele><time>2026-04-16T08:29:32.97Z</time></trkpt><trkpt lat="43.8573327" lon="11.1818932"><ele>88.0</ele><time>2026-04-16T08:29:33.968Z</time></trkpt><trkpt lat="43.8572498" lon="11.1817508"><ele>88.0</ele><time>2026-04-16T08:29:34.976Z</time></trkpt><trkpt lat="43.8571862" lon="11.1816014"><ele>88.0</ele><time>2026-04-16T08:29:35.965Z</time></trkpt><trkpt lat="43.8571432" lon="11.1814213"><ele>88.0</ele><time>2026-04-16T08:29:37.002Z</time></trkpt><trkpt lat="43.8571364" lon="11.1812078"><ele>86.5</ele><time>2026-04-16T08:29:37.954Z</time></trkpt><trkpt lat="43.8571361" lon="11.1809982"><ele>85.0</ele><time>2026-04-16T08:29:38.965Z</time></trkpt><trkpt lat="43.857127" lon="11.1807883"><ele>83.5</ele><time>2026-04-16T08:29:39.967Z</time></trkpt><trkpt lat="43.8571192" lon="11.180588"><ele>82.0</ele><time>2026-04-16T08:29:40.959Z</time></trkpt><trkpt lat="43.8571136" lon="11.1803899"><ele>82.0</ele><time>2026-04-16T08:29:41.973Z</time></trkpt><trkpt lat="43.8571049" lon="11.1801994"><ele>82.0</ele><time>2026-04-16T08:29:42.962Z</time></trkpt><trkpt lat="43.8570994" lon="11.180015"><ele>82.0</ele><time>2026-04-16T08:29:43.947Z</time></trkpt><trkpt lat="43.8570953" lon="11.1798441"><ele>82.0</ele><time>2026-04-16T08:29:44.952Z</time></trkpt><trkpt lat="43.8570896" lon="11.1796788"><ele>81.39999999999999</ele><time>2026-04-16T08:29:45.958Z</time></trkpt><trkpt lat="43.8570864" lon="11.179525"><ele>80.8</ele><time>2026-04-16T08:29:46.955Z</time></trkpt><trkpt lat="43.8570793" lon="11.1793807"><ele>80.2</ele><time>2026-04-16T08:29:47.97Z</time></trkpt><trkpt lat="43.8570796" lon="11.1792554"><ele>79.6</ele><time>2026-04-16T08:29:48.962Z</time></trkpt><trkpt lat="43.8570797" lon="11.1791383"><ele>79.0</ele><time>2026-04-16T08:29:49.968Z</time></trkpt><trkpt lat="43.8570757" lon="11.1790395"><ele>79.0</ele><time>2026-04-16T08:29:50.948Z</time></trkpt><trkpt lat="43.8570347" lon="11.1789274"><ele>79.0</ele><time>2026-04-16T08:29:52.969Z</time></trkpt><trkpt lat="43.8569548" lon="11.1789277"><ele>79.0</ele><time>2026-04-16T08:29:55.046Z</time></trkpt><trkpt lat="43.8568755" lon="11.1789252"><ele>79.0</ele><time>2026-04-16T08:29:58.029Z</time></trkpt><trkpt lat="43.8568019" lon="11.1789321"><ele>79.0</ele><time>2026-04-16T08:32:24.962Z</time></trkpt><trkpt lat="43.8567983" lon="11.1790261"><ele>79.0</ele><time>2026-04-16T08:33:01.983Z</time></trkpt><trkpt lat="43.8568601" lon="11.1790083"><ele>78.5</ele><time>2026-04-16T08:35:10.971Z</time></trkpt><trkpt lat="43.8569675" lon="11.1789366"><ele>78.0</ele><time>2026-04-16T08:35:12.992Z</time></trkpt><trkpt lat="43.8570379" lon="11.1789382"><ele>77.5</ele><time>2026-04-16T08:35:14.988Z</time></trkpt><trkpt lat="43.8571154" lon="11.1788817"><ele>77.0</ele><time>2026-04-16T08:35:18.975Z</time></trkpt><trkpt lat="43.8571386" lon="11.1787796"><ele>76.5</ele><time>2026-04-16T08:35:20.969Z</time></trkpt><trkpt lat="43.8571362" lon="11.178676"><ele>76.0</ele><time>2026-04-16T08:35:25.009Z</time></trkpt><trkpt lat="43.8570543" lon="11.1786077"><ele>76.0</ele><time>2026-04-16T08:35:27.963Z</time></trkpt><trkpt lat="43.8569858" lon="11.1786127"><ele>76.0</ele><time>2026-04-16T08:35:28.959Z</time></trkpt><trkpt lat="43.8569047" lon="11.1786349"><ele>76.0</ele><time>2026-04-16T08:35:29.966Z</time></trkpt><trkpt lat="43.8568096" lon="11.1786775"><ele>76.0</ele><time>2026-04-16T08:35:30.962Z</time></trkpt><trkpt lat="43.8567065" lon="11.178712"><ele>76.0</ele><time>2026-04-16T08:35:32.034Z</time></trkpt><trkpt lat="43.8566036" lon="11.1787519"><ele>75.5</ele><time>2026-04-16T08:35:33.035Z</time></trkpt><trkpt lat="43.8564978" lon="11.1787923"><ele>75.0</ele><time>2026-04-16T08:35:34.032Z</time></trkpt><trkpt lat="43.8563853" lon="11.1788407"><ele>74.5</ele><time>2026-04-16T08:35:35.029Z</time></trkpt><trkpt lat="43.8562657" lon="11.1788895"><ele>74.0</ele><time>2026-04-16T08:35:35.982Z</time></trkpt><trkpt lat="43.8561422" lon="11.1789438"><ele>74.0</ele><time>2026-04-16T08:35:36.98Z</time></trkpt><trkpt lat="43.8560189" lon="11.1789795"><ele>74.0</ele><time>2026-04-16T08:35:37.991Z</time></trkpt><trkpt lat="43.8558949" lon="11.1790105"><ele>74.0</ele><time>2026-04-16T08:35:39.04Z</time></trkpt><trkpt lat="43.8557728" lon="11.179027"><ele>74.0</ele><time>2026-04-16T08:35:39.973Z</time></trkpt><trkpt lat="43.8556519" lon="11.1790343"><ele>74.0</ele><time>2026-04-16T08:35:40.959Z</time></trkpt><trkpt lat="43.8555234" lon="11.1790484"><ele>74.0</ele><time>2026-04-16T08:35:41.967Z</time></trkpt><trkpt lat="43.8553911" lon="11.1790511"><ele>74.0</ele><time>2026-04-16T08:35:42.971Z</time></trkpt><trkpt lat="43.8552678" lon="11.1790533"><ele>74.0</ele><time>2026-04-16T08:35:43.957Z</time></trkpt><trkpt lat="43.8551534" lon="11.1790723"><ele>73.83333333333334</ele><time>2026-04-16T08:35:44.964Z</time></trkpt><trkpt lat="43.8550639" lon="11.1790863"><ele>73.66666666666667</ele><time>2026-04-16T08:35:45.963Z</time></trkpt><trkpt lat="43.8549902" lon="11.179107"><ele>73.5</ele><time>2026-04-16T08:35:46.968Z</time></trkpt><trkpt lat="43.8549188" lon="11.1792216"><ele>73.33333333333333</ele><time>2026-04-16T08:35:48.964Z</time></trkpt><trkpt lat="43.8548959" lon="11.1793105"><ele>73.16666666666666</ele><time>2026-04-16T08:35:50.031Z</time></trkpt><trkpt lat="43.8548732" lon="11.1794077"><ele>73.0</ele><time>2026-04-16T08:35:50.974Z</time></trkpt><trkpt lat="43.8548461" lon="11.1794878"><ele>73.0</ele><time>2026-04-16T08:35:51.987Z</time></trkpt><trkpt lat="43.8547539" lon="11.1795875"><ele>73.0</ele><time>2026-04-16T08:35:53.969Z</time></trkpt><trkpt lat="43.8546796" lon="11.1796009"><ele>73.0</ele><time>2026-04-16T08:35:54.99Z</time></trkpt><trkpt lat="43.8546042" lon="11.1796141"><ele>73.0</ele><time>2026-04-16T08:35:55.994Z</time></trkpt><trkpt lat="43.8545127" lon="11.179655"><ele>73.0</ele><time>2026-04-16T08:35:56.972Z</time></trkpt><trkpt lat="43.8544212" lon="11.1797021"><ele>73.0</ele><time>2026-04-16T08:35:58.033Z</time></trkpt><trkpt lat="43.8543336" lon="11.1797793"><ele>73.0</ele><time>2026-04-16T08:35:59.03Z</time></trkpt><trkpt lat="43.8542502" lon="11.1798633"><ele>73.0</ele><time>2026-04-16T08:35:59.981Z</time></trkpt><trkpt lat="43.8541715" lon="11.1799511"><ele>73.0</ele><time>2026-04-16T08:36:00.986Z</time></trkpt><trkpt lat="43.8540879" lon="11.1800459"><ele>73.0</ele><time>2026-04-16T08:36:01.964Z</time></trkpt><trkpt lat="43.8540059" lon="11.1801312"><ele>75.5</ele><time>2026-04-16T08:36:02.97Z</time></trkpt><trkpt lat="43.8539285" lon="11.1802314"><ele>78.0</ele><time>2026-04-16T08:36:03.982Z</time></trkpt><trkpt lat="43.8538608" lon="11.1803598"><ele>80.5</ele><time>2026-04-16T08:36:05.027Z</time></trkpt><trkpt lat="43.8537902" lon="11.1804852"><ele>83.0</ele><time>2026-04-16T08:36:05.977Z</time></trkpt><trkpt lat="43.8537126" lon="11.1806036"><ele>84.0</ele><time>2026-04-16T08:36:06.98Z</time></trkpt><trkpt lat="43.8536343" lon="11.1807197"><ele>85.0</ele><time>2026-04-16T08:36:07.988Z</time></trkpt><trkpt lat="43.8535617" lon="11.1808418"><ele>86.0</ele><time>2026-04-16T08:36:08.983Z</time></trkpt><trkpt lat="43.853486" lon="11.1809672"><ele>87.0</ele><time>2026-04-16T08:36:09.985Z</time></trkpt><trkpt lat="43.8534206" lon="11.1810951"><ele>87.0</ele><time>2026-04-16T08:36:10.98Z</time></trkpt><trkpt lat="43.8533652" lon="11.1812229"><ele>87.0</ele><time>2026-04-16T08:36:11.984Z</time></trkpt><trkpt lat="43.8533091" lon="11.1813489"><ele>87.0</ele><time>2026-04-16T08:36:13.006Z</time></trkpt><trkpt lat="43.8532389" lon="11.1814548"><ele>87.0</ele><time>2026-04-16T08:36:13.979Z</time></trkpt><trkpt lat="43.8531697" lon="11.1815467"><ele>87.0</ele><time>2026-04-16T08:36:14.984Z</time></trkpt><trkpt lat="43.8531068" lon="11.1816373"><ele>89.5</ele><time>2026-04-16T08:36:15.981Z</time></trkpt><trkpt lat="43.8530587" lon="11.1817369"><ele>92.0</ele><time>2026-04-16T08:36:16.982Z</time></trkpt><trkpt lat="43.8530108" lon="11.1818428"><ele>94.5</ele><time>2026-04-16T08:36:17.977Z</time></trkpt><trkpt lat="43.8529779" lon="11.1819419"><ele>97.0</ele><time>2026-04-16T08:36:18.976Z</time></trkpt><trkpt lat="43.8529329" lon="11.1820481"><ele>99.5</ele><time>2026-04-16T08:36:20.997Z</time></trkpt><trkpt lat="43.8528542" lon="11.1820856"><ele>102.0</ele><time>2026-04-16T08:36:22.987Z</time></trkpt><trkpt lat="43.8527744" lon="11.1821353"><ele>102.0</ele><time>2026-04-16T08:36:24.99Z</time></trkpt><trkpt lat="43.852663" lon="11.1822141"><ele>102.0</ele><time>2026-04-16T08:36:26.989Z</time></trkpt><trkpt lat="43.8526046" lon="11.1822599"><ele>102.0</ele><time>2026-04-16T08:36:27.985Z</time></trkpt><trkpt lat="43.8525025" lon="11.1823267"><ele>102.0</ele><time>2026-04-16T08:36:29.958Z</time></trkpt><trkpt lat="43.8524177" lon="11.1823893"><ele>102.0</ele><time>2026-04-16T08:36:31.96Z</time></trkpt><trkpt lat="43.8523547" lon="11.1824677"><ele>101.8</ele><time>2026-04-16T08:36:33.97Z</time></trkpt><trkpt lat="43.852289" lon="11.1824599"><ele>101.6</ele><time>2026-04-16T08:36:35.97Z</time></trkpt><trkpt lat="43.8521971" lon="11.1823063"><ele>101.39999999999999</ele><time>2026-04-16T08:36:37.977Z</time></trkpt><trkpt lat="43.8521401" lon="11.1822218"><ele>101.19999999999999</ele><time>2026-04-16T08:36:38.981Z</time></trkpt><trkpt lat="43.8520764" lon="11.1821495"><ele>101.0</ele><time>2026-04-16T08:36:39.98Z</time></trkpt><trkpt lat="43.852014" lon="11.1820837"><ele>86.0</ele><time>2026-04-16T08:36:40.987Z</time></trkpt><trkpt lat="43.8519415" lon="11.1820451"><ele>86.0</ele><time>2026-04-16T08:36:41.977Z</time></trkpt><trkpt lat="43.8518391" lon="11.1820968"><ele>86.0</ele><time>2026-04-16T08:36:43.983Z</time></trkpt><trkpt lat="43.8517842" lon="11.182157"><ele>78.0</ele><time>2026-04-16T08:36:45.978Z</time></trkpt><trkpt lat="43.8517661" lon="11.1820705"><ele>78.0</ele><time>2026-04-16T08:36:49.959Z</time></trkpt><trkpt lat="43.8517045" lon="11.1820372"><ele>78.0</ele><time>2026-04-16T08:52:29.973Z</time></trkpt></trkseg></trk></gpx>